<?xml version="1.0" encoding="UTF-8" standalone="no" ?>
<gpx xmlns="http://www.topografix.com/GPX/1/1" xmlns:xsi="http://www.w3.org/2001/XMLSchema-instance" xsi:schemaLocation="http://www.topografix.com/GPX/1/1 http://www.topografix.com/GPX/1/1/gpx.xsd" version="1.1" creator="VisuGPX - https://www.visugpx.com">
  <metadata>
    <name>SityTrail - Mont Démant</name>
    <desc><![CDATA[Randonnée en boucle depuis Beuil. Parcours  sans difficulté sur un chemin balisé (et cairné près du sommet). Une petite calotte de neige au sommet en ce milieu de printemps. Aperçu quelques marmottes (les premières de la saison) et un lagopède.]]></desc>
  </metadata>
  <trk>
    <name><![CDATA[SityTrail - Mont Démant]]></name>
    <desc><![CDATA[Randonnée en boucle depuis Beuil. Parcours  sans difficulté sur un chemin balisé (et cairné près du sommet). Une petite calotte de neige au sommet en ce milieu de printemps. Aperçu quelques marmottes (les premières de la saison) et un lagopède.]]></desc>
    <trkseg>
      <trkpt lat="44.10534" lon="6.98711">
        <ele>1444</ele>
        <time>2021-05-13T06:47:16.921Z</time>
      </trkpt>
      <trkpt lat="44.10535" lon="6.98708">
        <ele>1444</ele>
        <time>2021-05-13T06:48:44.926Z</time>
      </trkpt>
      <trkpt lat="44.10535" lon="6.98707">
        <ele>1448</ele>
        <time>2021-05-13T06:48:48.938Z</time>
      </trkpt>
      <trkpt lat="44.10533" lon="6.98706">
        <ele>1448</ele>
        <time>2021-05-13T06:48:53.938Z</time>
      </trkpt>
      <trkpt lat="44.10533" lon="6.98701">
        <ele>1448</ele>
        <time>2021-05-13T06:48:58.938Z</time>
      </trkpt>
      <trkpt lat="44.10533" lon="6.98699">
        <ele>1448</ele>
        <time>2021-05-13T06:49:03.922Z</time>
      </trkpt>
      <trkpt lat="44.10534" lon="6.98698">
        <ele>1448</ele>
        <time>2021-05-13T06:49:09.120Z</time>
      </trkpt>
      <trkpt lat="44.10536" lon="6.98697">
        <ele>1448</ele>
        <time>2021-05-13T06:49:13.924Z</time>
      </trkpt>
      <trkpt lat="44.10536" lon="6.98698">
        <ele>1448</ele>
        <time>2021-05-13T06:49:17.924Z</time>
      </trkpt>
      <trkpt lat="44.1053" lon="6.98697">
        <ele>1448</ele>
        <time>2021-05-13T06:49:22.934Z</time>
      </trkpt>
      <trkpt lat="44.10526" lon="6.98694">
        <ele>1448</ele>
        <time>2021-05-13T06:49:27.936Z</time>
      </trkpt>
      <trkpt lat="44.1052" lon="6.98691">
        <ele>1448</ele>
        <time>2021-05-13T06:49:32.936Z</time>
      </trkpt>
      <trkpt lat="44.10515" lon="6.98691">
        <ele>1448</ele>
        <time>2021-05-13T06:49:36.935Z</time>
      </trkpt>
      <trkpt lat="44.10513" lon="6.9869">
        <ele>1443</ele>
        <time>2021-05-13T06:49:41.918Z</time>
      </trkpt>
      <trkpt lat="44.10507" lon="6.98692">
        <ele>1443</ele>
        <time>2021-05-13T06:49:46.934Z</time>
      </trkpt>
      <trkpt lat="44.10502" lon="6.98684">
        <ele>1443</ele>
        <time>2021-05-13T06:51:30.033Z</time>
      </trkpt>
      <trkpt lat="44.10501" lon="6.98685">
        <ele>1443</ele>
        <time>2021-05-13T06:51:34.929Z</time>
      </trkpt>
      <trkpt lat="44.10497" lon="6.98682">
        <ele>1443</ele>
        <time>2021-05-13T06:51:39.922Z</time>
      </trkpt>
      <trkpt lat="44.10493" lon="6.98679">
        <ele>1445</ele>
        <time>2021-05-13T06:51:44.932Z</time>
      </trkpt>
      <trkpt lat="44.10493" lon="6.98675">
        <ele>1445</ele>
        <time>2021-05-13T06:51:48.933Z</time>
      </trkpt>
      <trkpt lat="44.10493" lon="6.98667">
        <ele>1445</ele>
        <time>2021-05-13T06:52:02.928Z</time>
      </trkpt>
      <trkpt lat="44.10491" lon="6.98663">
        <ele>1445</ele>
        <time>2021-05-13T06:52:06.932Z</time>
      </trkpt>
      <trkpt lat="44.1049" lon="6.98659">
        <ele>1445</ele>
        <time>2021-05-13T06:52:11.930Z</time>
      </trkpt>
      <trkpt lat="44.1049" lon="6.98659">
        <ele>1445</ele>
        <time>2021-05-13T06:52:16.931Z</time>
      </trkpt>
      <trkpt lat="44.10491" lon="6.98657">
        <ele>1445</ele>
        <time>2021-05-13T06:52:20.934Z</time>
      </trkpt>
      <trkpt lat="44.10491" lon="6.98657">
        <ele>1445</ele>
        <time>2021-05-13T06:52:25.932Z</time>
      </trkpt>
      <trkpt lat="44.10493" lon="6.98657">
        <ele>1445</ele>
        <time>2021-05-13T06:52:49.934Z</time>
      </trkpt>
      <trkpt lat="44.10494" lon="6.98657">
        <ele>1445</ele>
        <time>2021-05-13T06:52:54.929Z</time>
      </trkpt>
      <trkpt lat="44.10497" lon="6.98656">
        <ele>1445</ele>
        <time>2021-05-13T06:52:59.933Z</time>
      </trkpt>
      <trkpt lat="44.105" lon="6.98657">
        <ele>1445</ele>
        <time>2021-05-13T06:53:04.927Z</time>
      </trkpt>
      <trkpt lat="44.10506" lon="6.98655">
        <ele>1445</ele>
        <time>2021-05-13T06:53:13.930Z</time>
      </trkpt>
      <trkpt lat="44.10506" lon="6.98653">
        <ele>1445</ele>
        <time>2021-05-13T06:53:18.934Z</time>
      </trkpt>
      <trkpt lat="44.10508" lon="6.98654">
        <ele>1445</ele>
        <time>2021-05-13T06:53:23.935Z</time>
      </trkpt>
      <trkpt lat="44.10511" lon="6.98654">
        <ele>1445</ele>
        <time>2021-05-13T06:53:28.937Z</time>
      </trkpt>
      <trkpt lat="44.10514" lon="6.98654">
        <ele>1452</ele>
        <time>2021-05-13T06:53:33.935Z</time>
      </trkpt>
      <trkpt lat="44.10519" lon="6.98654">
        <ele>1452</ele>
        <time>2021-05-13T06:53:43.935Z</time>
      </trkpt>
      <trkpt lat="44.1052" lon="6.98654">
        <ele>1452</ele>
        <time>2021-05-13T06:53:48.930Z</time>
      </trkpt>
      <trkpt lat="44.10523" lon="6.98654">
        <ele>1452</ele>
        <time>2021-05-13T06:53:53.938Z</time>
      </trkpt>
      <trkpt lat="44.10525" lon="6.98654">
        <ele>1452</ele>
        <time>2021-05-13T06:53:58.936Z</time>
      </trkpt>
      <trkpt lat="44.10527" lon="6.98653">
        <ele>1452</ele>
        <time>2021-05-13T06:54:03.933Z</time>
      </trkpt>
      <trkpt lat="44.1053" lon="6.98651">
        <ele>1454</ele>
        <time>2021-05-13T06:54:08.936Z</time>
      </trkpt>
      <trkpt lat="44.10533" lon="6.98651">
        <ele>1454</ele>
        <time>2021-05-13T06:54:13.928Z</time>
      </trkpt>
      <trkpt lat="44.10535" lon="6.98652">
        <ele>1454</ele>
        <time>2021-05-13T06:54:18.940Z</time>
      </trkpt>
      <trkpt lat="44.10537" lon="6.98651">
        <ele>1454</ele>
        <time>2021-05-13T06:54:23.932Z</time>
      </trkpt>
      <trkpt lat="44.10541" lon="6.9865">
        <ele>1454</ele>
        <time>2021-05-13T06:54:28.931Z</time>
      </trkpt>
      <trkpt lat="44.10546" lon="6.98648">
        <ele>1461</ele>
        <time>2021-05-13T06:54:38.935Z</time>
      </trkpt>
      <trkpt lat="44.10549" lon="6.98646">
        <ele>1461</ele>
        <time>2021-05-13T06:54:43.934Z</time>
      </trkpt>
      <trkpt lat="44.1055" lon="6.98646">
        <ele>1461</ele>
        <time>2021-05-13T06:54:48.929Z</time>
      </trkpt>
      <trkpt lat="44.10552" lon="6.98646">
        <ele>1461</ele>
        <time>2021-05-13T06:54:53.923Z</time>
      </trkpt>
      <trkpt lat="44.10555" lon="6.98644">
        <ele>1461</ele>
        <time>2021-05-13T06:54:58.941Z</time>
      </trkpt>
      <trkpt lat="44.10561" lon="6.98646">
        <ele>1461</ele>
        <time>2021-05-13T06:55:21.937Z</time>
      </trkpt>
      <trkpt lat="44.10563" lon="6.98641">
        <ele>1461</ele>
        <time>2021-05-13T06:55:26.927Z</time>
      </trkpt>
      <trkpt lat="44.10563" lon="6.98641">
        <ele>1461</ele>
        <time>2021-05-13T06:55:31.927Z</time>
      </trkpt>
      <trkpt lat="44.10565" lon="6.98642">
        <ele>1461</ele>
        <time>2021-05-13T06:55:41.922Z</time>
      </trkpt>
      <trkpt lat="44.10566" lon="6.98644">
        <ele>1461</ele>
        <time>2021-05-13T06:55:45.930Z</time>
      </trkpt>
      <trkpt lat="44.10568" lon="6.9864">
        <ele>1461</ele>
        <time>2021-05-13T06:56:00.932Z</time>
      </trkpt>
      <trkpt lat="44.10567" lon="6.98637">
        <ele>1461</ele>
        <time>2021-05-13T06:56:05.929Z</time>
      </trkpt>
      <trkpt lat="44.10566" lon="6.98633">
        <ele>1461</ele>
        <time>2021-05-13T06:56:10.934Z</time>
      </trkpt>
      <trkpt lat="44.10568" lon="6.98631">
        <ele>1461</ele>
        <time>2021-05-13T06:56:15.944Z</time>
      </trkpt>
      <trkpt lat="44.10569" lon="6.98629">
        <ele>1461</ele>
        <time>2021-05-13T06:56:20.932Z</time>
      </trkpt>
      <trkpt lat="44.10581" lon="6.98621">
        <ele>1471</ele>
        <time>2021-05-13T06:57:08.934Z</time>
      </trkpt>
      <trkpt lat="44.10583" lon="6.98619">
        <ele>1471</ele>
        <time>2021-05-13T06:57:13.933Z</time>
      </trkpt>
      <trkpt lat="44.10586" lon="6.98617">
        <ele>1471</ele>
        <time>2021-05-13T06:57:18.935Z</time>
      </trkpt>
      <trkpt lat="44.10587" lon="6.98617">
        <ele>1471</ele>
        <time>2021-05-13T06:57:23.917Z</time>
      </trkpt>
      <trkpt lat="44.1059" lon="6.98615">
        <ele>1471</ele>
        <time>2021-05-13T06:57:28.933Z</time>
      </trkpt>
      <trkpt lat="44.10592" lon="6.98614">
        <ele>1471</ele>
        <time>2021-05-13T06:57:33.931Z</time>
      </trkpt>
      <trkpt lat="44.10595" lon="6.98612">
        <ele>1471</ele>
        <time>2021-05-13T06:57:38.941Z</time>
      </trkpt>
      <trkpt lat="44.10597" lon="6.9861">
        <ele>1471</ele>
        <time>2021-05-13T06:57:43.929Z</time>
      </trkpt>
      <trkpt lat="44.10601" lon="6.98609">
        <ele>1479</ele>
        <time>2021-05-13T06:57:48.938Z</time>
      </trkpt>
      <trkpt lat="44.10602" lon="6.98609">
        <ele>1479</ele>
        <time>2021-05-13T06:57:53.933Z</time>
      </trkpt>
      <trkpt lat="44.10605" lon="6.98608">
        <ele>1479</ele>
        <time>2021-05-13T06:57:58.937Z</time>
      </trkpt>
      <trkpt lat="44.10608" lon="6.98608">
        <ele>1479</ele>
        <time>2021-05-13T06:58:08.934Z</time>
      </trkpt>
      <trkpt lat="44.1061" lon="6.98607">
        <ele>1479</ele>
        <time>2021-05-13T06:58:13.929Z</time>
      </trkpt>
      <trkpt lat="44.10612" lon="6.98606">
        <ele>1479</ele>
        <time>2021-05-13T06:58:18.939Z</time>
      </trkpt>
      <trkpt lat="44.10614" lon="6.98605">
        <ele>1479</ele>
        <time>2021-05-13T06:58:23.935Z</time>
      </trkpt>
      <trkpt lat="44.10617" lon="6.98604">
        <ele>1479</ele>
        <time>2021-05-13T06:58:28.941Z</time>
      </trkpt>
      <trkpt lat="44.10618" lon="6.98605">
        <ele>1479</ele>
        <time>2021-05-13T06:58:32.934Z</time>
      </trkpt>
      <trkpt lat="44.10621" lon="6.98604">
        <ele>1479</ele>
        <time>2021-05-13T06:58:37.934Z</time>
      </trkpt>
      <trkpt lat="44.10623" lon="6.98602">
        <ele>1479</ele>
        <time>2021-05-13T06:58:42.934Z</time>
      </trkpt>
      <trkpt lat="44.10624" lon="6.98601">
        <ele>1479</ele>
        <time>2021-05-13T06:58:47.930Z</time>
      </trkpt>
      <trkpt lat="44.10625" lon="6.98599">
        <ele>1483</ele>
        <time>2021-05-13T06:58:52.933Z</time>
      </trkpt>
      <trkpt lat="44.10629" lon="6.98599">
        <ele>1483</ele>
        <time>2021-05-13T06:58:57.927Z</time>
      </trkpt>
      <trkpt lat="44.10634" lon="6.98597">
        <ele>1483</ele>
        <time>2021-05-13T06:59:02.931Z</time>
      </trkpt>
      <trkpt lat="44.10638" lon="6.98595">
        <ele>1487</ele>
        <time>2021-05-13T06:59:07.928Z</time>
      </trkpt>
      <trkpt lat="44.10641" lon="6.98596">
        <ele>1487</ele>
        <time>2021-05-13T06:59:12.936Z</time>
      </trkpt>
      <trkpt lat="44.10642" lon="6.98595">
        <ele>1487</ele>
        <time>2021-05-13T06:59:17.938Z</time>
      </trkpt>
      <trkpt lat="44.10646" lon="6.98593">
        <ele>1487</ele>
        <time>2021-05-13T06:59:22.929Z</time>
      </trkpt>
      <trkpt lat="44.10649" lon="6.98594">
        <ele>1487</ele>
        <time>2021-05-13T06:59:27.934Z</time>
      </trkpt>
      <trkpt lat="44.10653" lon="6.98593">
        <ele>1494</ele>
        <time>2021-05-13T06:59:32.927Z</time>
      </trkpt>
      <trkpt lat="44.10657" lon="6.98593">
        <ele>1494</ele>
        <time>2021-05-13T06:59:37.939Z</time>
      </trkpt>
      <trkpt lat="44.10658" lon="6.98593">
        <ele>1494</ele>
        <time>2021-05-13T06:59:42.929Z</time>
      </trkpt>
      <trkpt lat="44.10661" lon="6.98591">
        <ele>1494</ele>
        <time>2021-05-13T06:59:47.930Z</time>
      </trkpt>
      <trkpt lat="44.10663" lon="6.98591">
        <ele>1494</ele>
        <time>2021-05-13T06:59:52.934Z</time>
      </trkpt>
      <trkpt lat="44.10665" lon="6.98593">
        <ele>1494</ele>
        <time>2021-05-13T06:59:57.934Z</time>
      </trkpt>
      <trkpt lat="44.10668" lon="6.98592">
        <ele>1494</ele>
        <time>2021-05-13T07:00:01.939Z</time>
      </trkpt>
      <trkpt lat="44.10672" lon="6.98592">
        <ele>1494</ele>
        <time>2021-05-13T07:00:06.930Z</time>
      </trkpt>
      <trkpt lat="44.10674" lon="6.98592">
        <ele>1494</ele>
        <time>2021-05-13T07:00:11.937Z</time>
      </trkpt>
      <trkpt lat="44.10675" lon="6.98591">
        <ele>1494</ele>
        <time>2021-05-13T07:00:16.932Z</time>
      </trkpt>
      <trkpt lat="44.1068" lon="6.98589">
        <ele>1494</ele>
        <time>2021-05-13T07:00:21.933Z</time>
      </trkpt>
      <trkpt lat="44.10684" lon="6.98587">
        <ele>1498</ele>
        <time>2021-05-13T07:00:26.938Z</time>
      </trkpt>
      <trkpt lat="44.10688" lon="6.98585">
        <ele>1498</ele>
        <time>2021-05-13T07:00:31.941Z</time>
      </trkpt>
      <trkpt lat="44.10692" lon="6.98583">
        <ele>1498</ele>
        <time>2021-05-13T07:00:36.938Z</time>
      </trkpt>
      <trkpt lat="44.10695" lon="6.98584">
        <ele>1498</ele>
        <time>2021-05-13T07:00:41.942Z</time>
      </trkpt>
      <trkpt lat="44.10696" lon="6.98583">
        <ele>1498</ele>
        <time>2021-05-13T07:00:46.934Z</time>
      </trkpt>
      <trkpt lat="44.107" lon="6.98581">
        <ele>1498</ele>
        <time>2021-05-13T07:00:51.935Z</time>
      </trkpt>
      <trkpt lat="44.10703" lon="6.9858">
        <ele>1498</ele>
        <time>2021-05-13T07:00:56.934Z</time>
      </trkpt>
      <trkpt lat="44.10705" lon="6.98579">
        <ele>1498</ele>
        <time>2021-05-13T07:01:01.938Z</time>
      </trkpt>
      <trkpt lat="44.10708" lon="6.98578">
        <ele>1498</ele>
        <time>2021-05-13T07:01:06.933Z</time>
      </trkpt>
      <trkpt lat="44.10711" lon="6.98578">
        <ele>1505</ele>
        <time>2021-05-13T07:01:11.935Z</time>
      </trkpt>
      <trkpt lat="44.10714" lon="6.98579">
        <ele>1505</ele>
        <time>2021-05-13T07:01:16.932Z</time>
      </trkpt>
      <trkpt lat="44.10718" lon="6.98579">
        <ele>1505</ele>
        <time>2021-05-13T07:01:21.925Z</time>
      </trkpt>
      <trkpt lat="44.10721" lon="6.98579">
        <ele>1505</ele>
        <time>2021-05-13T07:01:26.934Z</time>
      </trkpt>
      <trkpt lat="44.10725" lon="6.98577">
        <ele>1505</ele>
        <time>2021-05-13T07:01:31.937Z</time>
      </trkpt>
      <trkpt lat="44.10728" lon="6.98576">
        <ele>1505</ele>
        <time>2021-05-13T07:01:36.932Z</time>
      </trkpt>
      <trkpt lat="44.10729" lon="6.98572">
        <ele>1505</ele>
        <time>2021-05-13T07:01:41.930Z</time>
      </trkpt>
      <trkpt lat="44.10733" lon="6.98571">
        <ele>1505</ele>
        <time>2021-05-13T07:01:45.935Z</time>
      </trkpt>
      <trkpt lat="44.10737" lon="6.9857">
        <ele>1510</ele>
        <time>2021-05-13T07:01:50.930Z</time>
      </trkpt>
      <trkpt lat="44.10741" lon="6.98567">
        <ele>1514</ele>
        <time>2021-05-13T07:01:55.930Z</time>
      </trkpt>
      <trkpt lat="44.10744" lon="6.98564">
        <ele>1514</ele>
        <time>2021-05-13T07:02:00.928Z</time>
      </trkpt>
      <trkpt lat="44.1075" lon="6.98562">
        <ele>1514</ele>
        <time>2021-05-13T07:02:10.933Z</time>
      </trkpt>
      <trkpt lat="44.1075" lon="6.98563">
        <ele>1514</ele>
        <time>2021-05-13T07:02:15.929Z</time>
      </trkpt>
      <trkpt lat="44.10753" lon="6.9856">
        <ele>1514</ele>
        <time>2021-05-13T07:02:19.938Z</time>
      </trkpt>
      <trkpt lat="44.10755" lon="6.98559">
        <ele>1514</ele>
        <time>2021-05-13T07:02:24.937Z</time>
      </trkpt>
      <trkpt lat="44.10758" lon="6.98558">
        <ele>1514</ele>
        <time>2021-05-13T07:02:29.930Z</time>
      </trkpt>
      <trkpt lat="44.10761" lon="6.98557">
        <ele>1514</ele>
        <time>2021-05-13T07:02:34.935Z</time>
      </trkpt>
      <trkpt lat="44.10763" lon="6.98556">
        <ele>1514</ele>
        <time>2021-05-13T07:02:39.929Z</time>
      </trkpt>
      <trkpt lat="44.10767" lon="6.98555">
        <ele>1521</ele>
        <time>2021-05-13T07:02:44.937Z</time>
      </trkpt>
      <trkpt lat="44.1077" lon="6.98551">
        <ele>1521</ele>
        <time>2021-05-13T07:02:49.933Z</time>
      </trkpt>
      <trkpt lat="44.10771" lon="6.9855">
        <ele>1521</ele>
        <time>2021-05-13T07:02:54.921Z</time>
      </trkpt>
      <trkpt lat="44.10776" lon="6.98548">
        <ele>1521</ele>
        <time>2021-05-13T07:02:59.943Z</time>
      </trkpt>
      <trkpt lat="44.10778" lon="6.98548">
        <ele>1521</ele>
        <time>2021-05-13T07:03:04.933Z</time>
      </trkpt>
      <trkpt lat="44.1078" lon="6.98545">
        <ele>1521</ele>
        <time>2021-05-13T07:03:09.937Z</time>
      </trkpt>
      <trkpt lat="44.10784" lon="6.98544">
        <ele>1521</ele>
        <time>2021-05-13T07:03:14.938Z</time>
      </trkpt>
      <trkpt lat="44.10788" lon="6.98545">
        <ele>1521</ele>
        <time>2021-05-13T07:03:19.933Z</time>
      </trkpt>
      <trkpt lat="44.1079" lon="6.98545">
        <ele>1521</ele>
        <time>2021-05-13T07:03:24.929Z</time>
      </trkpt>
      <trkpt lat="44.10793" lon="6.98545">
        <ele>1528</ele>
        <time>2021-05-13T07:03:29.927Z</time>
      </trkpt>
      <trkpt lat="44.10796" lon="6.98543">
        <ele>1528</ele>
        <time>2021-05-13T07:03:34.937Z</time>
      </trkpt>
      <trkpt lat="44.10801" lon="6.9854">
        <ele>1531</ele>
        <time>2021-05-13T07:03:48.929Z</time>
      </trkpt>
      <trkpt lat="44.10803" lon="6.9854">
        <ele>1531</ele>
        <time>2021-05-13T07:03:53.928Z</time>
      </trkpt>
      <trkpt lat="44.10805" lon="6.98536">
        <ele>1531</ele>
        <time>2021-05-13T07:03:58.934Z</time>
      </trkpt>
      <trkpt lat="44.10805" lon="6.98535">
        <ele>1531</ele>
        <time>2021-05-13T07:04:03.931Z</time>
      </trkpt>
      <trkpt lat="44.10809" lon="6.98535">
        <ele>1531</ele>
        <time>2021-05-13T07:04:08.936Z</time>
      </trkpt>
      <trkpt lat="44.10812" lon="6.98535">
        <ele>1531</ele>
        <time>2021-05-13T07:04:13.926Z</time>
      </trkpt>
      <trkpt lat="44.10814" lon="6.98533">
        <ele>1531</ele>
        <time>2021-05-13T07:04:18.944Z</time>
      </trkpt>
      <trkpt lat="44.10816" lon="6.98532">
        <ele>1531</ele>
        <time>2021-05-13T07:04:23.935Z</time>
      </trkpt>
      <trkpt lat="44.10818" lon="6.98529">
        <ele>1531</ele>
        <time>2021-05-13T07:04:28.934Z</time>
      </trkpt>
      <trkpt lat="44.10821" lon="6.98524">
        <ele>1538</ele>
        <time>2021-05-13T07:04:38.938Z</time>
      </trkpt>
      <trkpt lat="44.10823" lon="6.98524">
        <ele>1538</ele>
        <time>2021-05-13T07:04:43.934Z</time>
      </trkpt>
      <trkpt lat="44.10825" lon="6.98523">
        <ele>1538</ele>
        <time>2021-05-13T07:04:47.937Z</time>
      </trkpt>
      <trkpt lat="44.10827" lon="6.9852">
        <ele>1538</ele>
        <time>2021-05-13T07:04:52.938Z</time>
      </trkpt>
      <trkpt lat="44.1083" lon="6.98519">
        <ele>1538</ele>
        <time>2021-05-13T07:04:57.915Z</time>
      </trkpt>
      <trkpt lat="44.10831" lon="6.98518">
        <ele>1538</ele>
        <time>2021-05-13T07:05:01.933Z</time>
      </trkpt>
      <trkpt lat="44.10835" lon="6.98516">
        <ele>1538</ele>
        <time>2021-05-13T07:06:10.931Z</time>
      </trkpt>
      <trkpt lat="44.10835" lon="6.98516">
        <ele>1538</ele>
        <time>2021-05-13T07:06:34.929Z</time>
      </trkpt>
      <trkpt lat="44.10837" lon="6.98515">
        <ele>1538</ele>
        <time>2021-05-13T07:06:39.934Z</time>
      </trkpt>
      <trkpt lat="44.1084" lon="6.98514">
        <ele>1538</ele>
        <time>2021-05-13T07:06:44.943Z</time>
      </trkpt>
      <trkpt lat="44.10843" lon="6.98512">
        <ele>1538</ele>
        <time>2021-05-13T07:06:49.932Z</time>
      </trkpt>
      <trkpt lat="44.10846" lon="6.9851">
        <ele>1538</ele>
        <time>2021-05-13T07:06:59.934Z</time>
      </trkpt>
      <trkpt lat="44.10848" lon="6.98511">
        <ele>1545</ele>
        <time>2021-05-13T07:07:04.930Z</time>
      </trkpt>
      <trkpt lat="44.10852" lon="6.98511">
        <ele>1545</ele>
        <time>2021-05-13T07:07:09.933Z</time>
      </trkpt>
      <trkpt lat="44.10854" lon="6.98511">
        <ele>1545</ele>
        <time>2021-05-13T07:07:14.930Z</time>
      </trkpt>
      <trkpt lat="44.10856" lon="6.98512">
        <ele>1545</ele>
        <time>2021-05-13T07:07:19.934Z</time>
      </trkpt>
      <trkpt lat="44.10858" lon="6.98511">
        <ele>1545</ele>
        <time>2021-05-13T07:07:24.932Z</time>
      </trkpt>
      <trkpt lat="44.1086" lon="6.98512">
        <ele>1545</ele>
        <time>2021-05-13T07:07:29.939Z</time>
      </trkpt>
      <trkpt lat="44.10864" lon="6.98511">
        <ele>1545</ele>
        <time>2021-05-13T07:07:34.930Z</time>
      </trkpt>
      <trkpt lat="44.10866" lon="6.98512">
        <ele>1545</ele>
        <time>2021-05-13T07:07:38.942Z</time>
      </trkpt>
      <trkpt lat="44.10869" lon="6.98512">
        <ele>1545</ele>
        <time>2021-05-13T07:07:43.931Z</time>
      </trkpt>
      <trkpt lat="44.10871" lon="6.98512">
        <ele>1545</ele>
        <time>2021-05-13T07:07:48.934Z</time>
      </trkpt>
      <trkpt lat="44.10872" lon="6.98513">
        <ele>1545</ele>
        <time>2021-05-13T07:07:53.942Z</time>
      </trkpt>
      <trkpt lat="44.10877" lon="6.98513">
        <ele>1554</ele>
        <time>2021-05-13T07:07:57.930Z</time>
      </trkpt>
      <trkpt lat="44.1088" lon="6.98514">
        <ele>1549</ele>
        <time>2021-05-13T07:08:02.935Z</time>
      </trkpt>
      <trkpt lat="44.10883" lon="6.98514">
        <ele>1549</ele>
        <time>2021-05-13T07:08:07.943Z</time>
      </trkpt>
      <trkpt lat="44.10884" lon="6.98514">
        <ele>1549</ele>
        <time>2021-05-13T07:08:12.937Z</time>
      </trkpt>
      <trkpt lat="44.10888" lon="6.98511">
        <ele>1554</ele>
        <time>2021-05-13T07:08:17.933Z</time>
      </trkpt>
      <trkpt lat="44.10891" lon="6.98511">
        <ele>1554</ele>
        <time>2021-05-13T07:08:22.943Z</time>
      </trkpt>
      <trkpt lat="44.10895" lon="6.98509">
        <ele>1554</ele>
        <time>2021-05-13T07:08:27.936Z</time>
      </trkpt>
      <trkpt lat="44.10899" lon="6.98508">
        <ele>1554</ele>
        <time>2021-05-13T07:08:32.937Z</time>
      </trkpt>
      <trkpt lat="44.10902" lon="6.98507">
        <ele>1554</ele>
        <time>2021-05-13T07:08:37.933Z</time>
      </trkpt>
      <trkpt lat="44.10904" lon="6.98504">
        <ele>1560</ele>
        <time>2021-05-13T07:08:41.934Z</time>
      </trkpt>
      <trkpt lat="44.10907" lon="6.98503">
        <ele>1560</ele>
        <time>2021-05-13T07:08:46.930Z</time>
      </trkpt>
      <trkpt lat="44.10909" lon="6.98503">
        <ele>1560</ele>
        <time>2021-05-13T07:08:50.931Z</time>
      </trkpt>
      <trkpt lat="44.10912" lon="6.98502">
        <ele>1560</ele>
        <time>2021-05-13T07:08:55.940Z</time>
      </trkpt>
      <trkpt lat="44.10914" lon="6.98503">
        <ele>1560</ele>
        <time>2021-05-13T07:09:00.955Z</time>
      </trkpt>
      <trkpt lat="44.10916" lon="6.98503">
        <ele>1560</ele>
        <time>2021-05-13T07:09:05.937Z</time>
      </trkpt>
      <trkpt lat="44.1092" lon="6.98502">
        <ele>1560</ele>
        <time>2021-05-13T07:09:10.930Z</time>
      </trkpt>
      <trkpt lat="44.10922" lon="6.98501">
        <ele>1560</ele>
        <time>2021-05-13T07:09:15.933Z</time>
      </trkpt>
      <trkpt lat="44.10927" lon="6.98499">
        <ele>1560</ele>
        <time>2021-05-13T07:09:20.930Z</time>
      </trkpt>
      <trkpt lat="44.10932" lon="6.98498">
        <ele>1566</ele>
        <time>2021-05-13T07:09:25.934Z</time>
      </trkpt>
      <trkpt lat="44.10935" lon="6.98498">
        <ele>1566</ele>
        <time>2021-05-13T07:09:30.934Z</time>
      </trkpt>
      <trkpt lat="44.10938" lon="6.98497">
        <ele>1566</ele>
        <time>2021-05-13T07:09:35.940Z</time>
      </trkpt>
      <trkpt lat="44.10941" lon="6.98495">
        <ele>1566</ele>
        <time>2021-05-13T07:09:40.935Z</time>
      </trkpt>
      <trkpt lat="44.10945" lon="6.98492">
        <ele>1566</ele>
        <time>2021-05-13T07:09:45.930Z</time>
      </trkpt>
      <trkpt lat="44.10948" lon="6.98491">
        <ele>1566</ele>
        <time>2021-05-13T07:09:49.943Z</time>
      </trkpt>
      <trkpt lat="44.10951" lon="6.98492">
        <ele>1566</ele>
        <time>2021-05-13T07:09:54.946Z</time>
      </trkpt>
      <trkpt lat="44.10955" lon="6.98491">
        <ele>1566</ele>
        <time>2021-05-13T07:09:59.934Z</time>
      </trkpt>
      <trkpt lat="44.10956" lon="6.98492">
        <ele>1566</ele>
        <time>2021-05-13T07:10:03.939Z</time>
      </trkpt>
      <trkpt lat="44.1096" lon="6.98492">
        <ele>1570</ele>
        <time>2021-05-13T07:10:08.939Z</time>
      </trkpt>
      <trkpt lat="44.10963" lon="6.98491">
        <ele>1570</ele>
        <time>2021-05-13T07:10:13.935Z</time>
      </trkpt>
      <trkpt lat="44.10966" lon="6.98492">
        <ele>1570</ele>
        <time>2021-05-13T07:10:18.942Z</time>
      </trkpt>
      <trkpt lat="44.10969" lon="6.98492">
        <ele>1570</ele>
        <time>2021-05-13T07:10:23.942Z</time>
      </trkpt>
      <trkpt lat="44.10973" lon="6.98491">
        <ele>1570</ele>
        <time>2021-05-13T07:10:28.931Z</time>
      </trkpt>
      <trkpt lat="44.10977" lon="6.98491">
        <ele>1570</ele>
        <time>2021-05-13T07:10:33.936Z</time>
      </trkpt>
      <trkpt lat="44.10982" lon="6.98491">
        <ele>1570</ele>
        <time>2021-05-13T07:10:38.930Z</time>
      </trkpt>
      <trkpt lat="44.10984" lon="6.9849">
        <ele>1570</ele>
        <time>2021-05-13T07:10:43.943Z</time>
      </trkpt>
      <trkpt lat="44.10987" lon="6.98488">
        <ele>1574</ele>
        <time>2021-05-13T07:10:48.943Z</time>
      </trkpt>
      <trkpt lat="44.1099" lon="6.98487">
        <ele>1574</ele>
        <time>2021-05-13T07:10:53.936Z</time>
      </trkpt>
      <trkpt lat="44.10994" lon="6.98483">
        <ele>1573</ele>
        <time>2021-05-13T07:10:58.948Z</time>
      </trkpt>
      <trkpt lat="44.10997" lon="6.98482">
        <ele>1573</ele>
        <time>2021-05-13T07:11:03.935Z</time>
      </trkpt>
      <trkpt lat="44.11001" lon="6.98481">
        <ele>1573</ele>
        <time>2021-05-13T07:11:08.938Z</time>
      </trkpt>
      <trkpt lat="44.11002" lon="6.98481">
        <ele>1573</ele>
        <time>2021-05-13T07:11:13.938Z</time>
      </trkpt>
      <trkpt lat="44.11005" lon="6.9848">
        <ele>1573</ele>
        <time>2021-05-13T07:11:18.930Z</time>
      </trkpt>
      <trkpt lat="44.11008" lon="6.98479">
        <ele>1573</ele>
        <time>2021-05-13T07:11:23.941Z</time>
      </trkpt>
      <trkpt lat="44.11012" lon="6.98479">
        <ele>1573</ele>
        <time>2021-05-13T07:11:28.928Z</time>
      </trkpt>
      <trkpt lat="44.11017" lon="6.98481">
        <ele>1579</ele>
        <time>2021-05-13T07:11:33.935Z</time>
      </trkpt>
      <trkpt lat="44.11023" lon="6.9848">
        <ele>1579</ele>
        <time>2021-05-13T07:11:38.941Z</time>
      </trkpt>
      <trkpt lat="44.11029" lon="6.98479">
        <ele>1579</ele>
        <time>2021-05-13T07:11:43.933Z</time>
      </trkpt>
      <trkpt lat="44.11032" lon="6.98479">
        <ele>1579</ele>
        <time>2021-05-13T07:11:47.947Z</time>
      </trkpt>
      <trkpt lat="44.11039" lon="6.98478">
        <ele>1579</ele>
        <time>2021-05-13T07:11:52.941Z</time>
      </trkpt>
      <trkpt lat="44.11043" lon="6.98477">
        <ele>1582</ele>
        <time>2021-05-13T07:11:56.939Z</time>
      </trkpt>
      <trkpt lat="44.11048" lon="6.98479">
        <ele>1582</ele>
        <time>2021-05-13T07:12:01.934Z</time>
      </trkpt>
      <trkpt lat="44.1105" lon="6.98478">
        <ele>1582</ele>
        <time>2021-05-13T07:12:05.934Z</time>
      </trkpt>
      <trkpt lat="44.11054" lon="6.98477">
        <ele>1582</ele>
        <time>2021-05-13T07:12:10.930Z</time>
      </trkpt>
      <trkpt lat="44.11057" lon="6.98475">
        <ele>1582</ele>
        <time>2021-05-13T07:12:14.939Z</time>
      </trkpt>
      <trkpt lat="44.11061" lon="6.98474">
        <ele>1582</ele>
        <time>2021-05-13T07:12:19.942Z</time>
      </trkpt>
      <trkpt lat="44.11066" lon="6.98473">
        <ele>1582</ele>
        <time>2021-05-13T07:12:24.939Z</time>
      </trkpt>
      <trkpt lat="44.1107" lon="6.98473">
        <ele>1583</ele>
        <time>2021-05-13T07:12:29.932Z</time>
      </trkpt>
      <trkpt lat="44.11077" lon="6.98471">
        <ele>1583</ele>
        <time>2021-05-13T07:12:34.939Z</time>
      </trkpt>
      <trkpt lat="44.11083" lon="6.9847">
        <ele>1583</ele>
        <time>2021-05-13T07:12:39.935Z</time>
      </trkpt>
      <trkpt lat="44.11088" lon="6.98469">
        <ele>1583</ele>
        <time>2021-05-13T07:12:44.939Z</time>
      </trkpt>
      <trkpt lat="44.11093" lon="6.98468">
        <ele>1583</ele>
        <time>2021-05-13T07:12:49.942Z</time>
      </trkpt>
      <trkpt lat="44.11098" lon="6.98466">
        <ele>1587</ele>
        <time>2021-05-13T07:12:54.936Z</time>
      </trkpt>
      <trkpt lat="44.11103" lon="6.98465">
        <ele>1587</ele>
        <time>2021-05-13T07:12:59.931Z</time>
      </trkpt>
      <trkpt lat="44.11106" lon="6.98464">
        <ele>1587</ele>
        <time>2021-05-13T07:13:04.939Z</time>
      </trkpt>
      <trkpt lat="44.11109" lon="6.98465">
        <ele>1587</ele>
        <time>2021-05-13T07:13:09.931Z</time>
      </trkpt>
      <trkpt lat="44.11113" lon="6.98465">
        <ele>1587</ele>
        <time>2021-05-13T07:13:14.943Z</time>
      </trkpt>
      <trkpt lat="44.11118" lon="6.98464">
        <ele>1587</ele>
        <time>2021-05-13T07:13:19.937Z</time>
      </trkpt>
      <trkpt lat="44.11123" lon="6.98464">
        <ele>1587</ele>
        <time>2021-05-13T07:13:24.948Z</time>
      </trkpt>
      <trkpt lat="44.11128" lon="6.98464">
        <ele>1590</ele>
        <time>2021-05-13T07:13:29.932Z</time>
      </trkpt>
      <trkpt lat="44.11131" lon="6.98463">
        <ele>1590</ele>
        <time>2021-05-13T07:13:34.937Z</time>
      </trkpt>
      <trkpt lat="44.11136" lon="6.98461">
        <ele>1590</ele>
        <time>2021-05-13T07:13:39.942Z</time>
      </trkpt>
      <trkpt lat="44.11139" lon="6.98462">
        <ele>1590</ele>
        <time>2021-05-13T07:13:44.951Z</time>
      </trkpt>
      <trkpt lat="44.11144" lon="6.98461">
        <ele>1590</ele>
        <time>2021-05-13T07:13:49.930Z</time>
      </trkpt>
      <trkpt lat="44.11147" lon="6.98457">
        <ele>1591</ele>
        <time>2021-05-13T07:13:54.937Z</time>
      </trkpt>
      <trkpt lat="44.11153" lon="6.98456">
        <ele>1594</ele>
        <time>2021-05-13T07:13:59.936Z</time>
      </trkpt>
      <trkpt lat="44.11158" lon="6.98454">
        <ele>1594</ele>
        <time>2021-05-13T07:14:04.946Z</time>
      </trkpt>
      <trkpt lat="44.11161" lon="6.98454">
        <ele>1594</ele>
        <time>2021-05-13T07:14:09.940Z</time>
      </trkpt>
      <trkpt lat="44.11165" lon="6.98452">
        <ele>1594</ele>
        <time>2021-05-13T07:14:14.932Z</time>
      </trkpt>
      <trkpt lat="44.1117" lon="6.98451">
        <ele>1594</ele>
        <time>2021-05-13T07:14:19.948Z</time>
      </trkpt>
      <trkpt lat="44.11173" lon="6.98452">
        <ele>1594</ele>
        <time>2021-05-13T07:14:23.950Z</time>
      </trkpt>
      <trkpt lat="44.11179" lon="6.98449">
        <ele>1594</ele>
        <time>2021-05-13T07:14:28.929Z</time>
      </trkpt>
      <trkpt lat="44.11183" lon="6.98448">
        <ele>1600</ele>
        <time>2021-05-13T07:14:32.937Z</time>
      </trkpt>
      <trkpt lat="44.11188" lon="6.98447">
        <ele>1600</ele>
        <time>2021-05-13T07:14:37.931Z</time>
      </trkpt>
      <trkpt lat="44.11192" lon="6.98445">
        <ele>1600</ele>
        <time>2021-05-13T07:14:42.934Z</time>
      </trkpt>
      <trkpt lat="44.11198" lon="6.98443">
        <ele>1600</ele>
        <time>2021-05-13T07:14:47.935Z</time>
      </trkpt>
      <trkpt lat="44.11202" lon="6.9844">
        <ele>1600</ele>
        <time>2021-05-13T07:14:52.937Z</time>
      </trkpt>
      <trkpt lat="44.11208" lon="6.98438">
        <ele>1600</ele>
        <time>2021-05-13T07:14:57.948Z</time>
      </trkpt>
      <trkpt lat="44.11213" lon="6.98432">
        <ele>1604</ele>
        <time>2021-05-13T07:15:02.934Z</time>
      </trkpt>
      <trkpt lat="44.11218" lon="6.98425">
        <ele>1603</ele>
        <time>2021-05-13T07:15:07.925Z</time>
      </trkpt>
      <trkpt lat="44.11222" lon="6.9842">
        <ele>1603</ele>
        <time>2021-05-13T07:15:12.927Z</time>
      </trkpt>
      <trkpt lat="44.11225" lon="6.98415">
        <ele>1603</ele>
        <time>2021-05-13T07:15:17.931Z</time>
      </trkpt>
      <trkpt lat="44.11228" lon="6.98412">
        <ele>1603</ele>
        <time>2021-05-13T07:15:21.938Z</time>
      </trkpt>
      <trkpt lat="44.11232" lon="6.98406">
        <ele>1603</ele>
        <time>2021-05-13T07:15:26.924Z</time>
      </trkpt>
      <trkpt lat="44.11235" lon="6.98403">
        <ele>1603</ele>
        <time>2021-05-13T07:15:30.934Z</time>
      </trkpt>
      <trkpt lat="44.11238" lon="6.98399">
        <ele>1604</ele>
        <time>2021-05-13T07:15:35.936Z</time>
      </trkpt>
      <trkpt lat="44.11242" lon="6.98395">
        <ele>1604</ele>
        <time>2021-05-13T07:15:40.935Z</time>
      </trkpt>
      <trkpt lat="44.11247" lon="6.9839">
        <ele>1604</ele>
        <time>2021-05-13T07:15:45.927Z</time>
      </trkpt>
      <trkpt lat="44.11252" lon="6.98386">
        <ele>1604</ele>
        <time>2021-05-13T07:15:50.929Z</time>
      </trkpt>
      <trkpt lat="44.11255" lon="6.98382">
        <ele>1604</ele>
        <time>2021-05-13T07:15:54.932Z</time>
      </trkpt>
      <trkpt lat="44.11259" lon="6.98378">
        <ele>1604</ele>
        <time>2021-05-13T07:15:59.924Z</time>
      </trkpt>
      <trkpt lat="44.11263" lon="6.98374">
        <ele>1603</ele>
        <time>2021-05-13T07:16:04.933Z</time>
      </trkpt>
      <trkpt lat="44.11267" lon="6.98371">
        <ele>1603</ele>
        <time>2021-05-13T07:16:09.950Z</time>
      </trkpt>
      <trkpt lat="44.1127" lon="6.98367">
        <ele>1603</ele>
        <time>2021-05-13T07:16:14.918Z</time>
      </trkpt>
      <trkpt lat="44.11274" lon="6.98366">
        <ele>1603</ele>
        <time>2021-05-13T07:16:18.936Z</time>
      </trkpt>
      <trkpt lat="44.1128" lon="6.98363">
        <ele>1603</ele>
        <time>2021-05-13T07:16:23.931Z</time>
      </trkpt>
      <trkpt lat="44.11283" lon="6.98357">
        <ele>1603</ele>
        <time>2021-05-13T07:16:28.937Z</time>
      </trkpt>
      <trkpt lat="44.11287" lon="6.98354">
        <ele>1603</ele>
        <time>2021-05-13T07:16:32.937Z</time>
      </trkpt>
      <trkpt lat="44.11293" lon="6.98349">
        <ele>1601</ele>
        <time>2021-05-13T07:16:37.930Z</time>
      </trkpt>
      <trkpt lat="44.11297" lon="6.98343">
        <ele>1605</ele>
        <time>2021-05-13T07:16:42.925Z</time>
      </trkpt>
      <trkpt lat="44.113" lon="6.98337">
        <ele>1605</ele>
        <time>2021-05-13T07:16:47.945Z</time>
      </trkpt>
      <trkpt lat="44.11303" lon="6.98333">
        <ele>1605</ele>
        <time>2021-05-13T07:16:52.942Z</time>
      </trkpt>
      <trkpt lat="44.11305" lon="6.98328">
        <ele>1605</ele>
        <time>2021-05-13T07:16:57.927Z</time>
      </trkpt>
      <trkpt lat="44.11309" lon="6.98323">
        <ele>1605</ele>
        <time>2021-05-13T07:17:02.945Z</time>
      </trkpt>
      <trkpt lat="44.11313" lon="6.98319">
        <ele>1609</ele>
        <time>2021-05-13T07:17:07.930Z</time>
      </trkpt>
      <trkpt lat="44.11317" lon="6.98314">
        <ele>1609</ele>
        <time>2021-05-13T07:17:12.935Z</time>
      </trkpt>
      <trkpt lat="44.11321" lon="6.98308">
        <ele>1609</ele>
        <time>2021-05-13T07:17:17.933Z</time>
      </trkpt>
      <trkpt lat="44.11326" lon="6.98305">
        <ele>1609</ele>
        <time>2021-05-13T07:17:21.944Z</time>
      </trkpt>
      <trkpt lat="44.11332" lon="6.983">
        <ele>1609</ele>
        <time>2021-05-13T07:17:26.943Z</time>
      </trkpt>
      <trkpt lat="44.11336" lon="6.98297">
        <ele>1609</ele>
        <time>2021-05-13T07:17:31.928Z</time>
      </trkpt>
      <trkpt lat="44.11341" lon="6.98292">
        <ele>1609</ele>
        <time>2021-05-13T07:17:36.937Z</time>
      </trkpt>
      <trkpt lat="44.11345" lon="6.98288">
        <ele>1611</ele>
        <time>2021-05-13T07:17:41.934Z</time>
      </trkpt>
      <trkpt lat="44.11349" lon="6.98283">
        <ele>1610</ele>
        <time>2021-05-13T07:17:46.926Z</time>
      </trkpt>
      <trkpt lat="44.11351" lon="6.9828">
        <ele>1610</ele>
        <time>2021-05-13T07:17:51.931Z</time>
      </trkpt>
      <trkpt lat="44.11355" lon="6.98271">
        <ele>1610</ele>
        <time>2021-05-13T07:17:56.925Z</time>
      </trkpt>
      <trkpt lat="44.11359" lon="6.98267">
        <ele>1610</ele>
        <time>2021-05-13T07:18:00.933Z</time>
      </trkpt>
      <trkpt lat="44.11364" lon="6.98263">
        <ele>1612</ele>
        <time>2021-05-13T07:18:05.928Z</time>
      </trkpt>
      <trkpt lat="44.11368" lon="6.98259">
        <ele>1612</ele>
        <time>2021-05-13T07:18:10.933Z</time>
      </trkpt>
      <trkpt lat="44.11372" lon="6.98253">
        <ele>1612</ele>
        <time>2021-05-13T07:18:15.929Z</time>
      </trkpt>
      <trkpt lat="44.11374" lon="6.98251">
        <ele>1612</ele>
        <time>2021-05-13T07:18:20.922Z</time>
      </trkpt>
      <trkpt lat="44.11378" lon="6.98246">
        <ele>1612</ele>
        <time>2021-05-13T07:18:24.945Z</time>
      </trkpt>
      <trkpt lat="44.11381" lon="6.98242">
        <ele>1612</ele>
        <time>2021-05-13T07:18:29.929Z</time>
      </trkpt>
      <trkpt lat="44.11383" lon="6.98241">
        <ele>1612</ele>
        <time>2021-05-13T07:18:34.924Z</time>
      </trkpt>
      <trkpt lat="44.11384" lon="6.98238">
        <ele>1612</ele>
        <time>2021-05-13T07:18:39.938Z</time>
      </trkpt>
      <trkpt lat="44.11385" lon="6.98233">
        <ele>1617</ele>
        <time>2021-05-13T07:18:44.925Z</time>
      </trkpt>
      <trkpt lat="44.11386" lon="6.98229">
        <ele>1617</ele>
        <time>2021-05-13T07:18:49.927Z</time>
      </trkpt>
      <trkpt lat="44.11387" lon="6.98223">
        <ele>1617</ele>
        <time>2021-05-13T07:18:54.940Z</time>
      </trkpt>
      <trkpt lat="44.11388" lon="6.98218">
        <ele>1617</ele>
        <time>2021-05-13T07:18:59.922Z</time>
      </trkpt>
      <trkpt lat="44.11388" lon="6.98215">
        <ele>1617</ele>
        <time>2021-05-13T07:19:04.927Z</time>
      </trkpt>
      <trkpt lat="44.11389" lon="6.98209">
        <ele>1617</ele>
        <time>2021-05-13T07:19:08.931Z</time>
      </trkpt>
      <trkpt lat="44.1139" lon="6.98205">
        <ele>1621</ele>
        <time>2021-05-13T07:19:13.929Z</time>
      </trkpt>
      <trkpt lat="44.1139" lon="6.98201">
        <ele>1621</ele>
        <time>2021-05-13T07:19:18.929Z</time>
      </trkpt>
      <trkpt lat="44.1139" lon="6.98198">
        <ele>1621</ele>
        <time>2021-05-13T07:19:23.930Z</time>
      </trkpt>
      <trkpt lat="44.11389" lon="6.98191">
        <ele>1621</ele>
        <time>2021-05-13T07:19:28.924Z</time>
      </trkpt>
      <trkpt lat="44.11388" lon="6.98187">
        <ele>1621</ele>
        <time>2021-05-13T07:19:33.931Z</time>
      </trkpt>
      <trkpt lat="44.11389" lon="6.98182">
        <ele>1621</ele>
        <time>2021-05-13T07:19:38.921Z</time>
      </trkpt>
      <trkpt lat="44.11389" lon="6.98177">
        <ele>1623</ele>
        <time>2021-05-13T07:19:42.931Z</time>
      </trkpt>
      <trkpt lat="44.11388" lon="6.98174">
        <ele>1623</ele>
        <time>2021-05-13T07:19:47.927Z</time>
      </trkpt>
      <trkpt lat="44.11388" lon="6.98167">
        <ele>1623</ele>
        <time>2021-05-13T07:19:51.947Z</time>
      </trkpt>
      <trkpt lat="44.11386" lon="6.98163">
        <ele>1623</ele>
        <time>2021-05-13T07:19:56.925Z</time>
      </trkpt>
      <trkpt lat="44.11386" lon="6.98161">
        <ele>1623</ele>
        <time>2021-05-13T07:20:01.932Z</time>
      </trkpt>
      <trkpt lat="44.11387" lon="6.98156">
        <ele>1623</ele>
        <time>2021-05-13T07:20:05.943Z</time>
      </trkpt>
      <trkpt lat="44.11387" lon="6.98152">
        <ele>1626</ele>
        <time>2021-05-13T07:20:10.930Z</time>
      </trkpt>
      <trkpt lat="44.11389" lon="6.98147">
        <ele>1626</ele>
        <time>2021-05-13T07:20:15.925Z</time>
      </trkpt>
      <trkpt lat="44.11388" lon="6.98141">
        <ele>1626</ele>
        <time>2021-05-13T07:20:20.926Z</time>
      </trkpt>
      <trkpt lat="44.11387" lon="6.9814">
        <ele>1626</ele>
        <time>2021-05-13T07:20:25.928Z</time>
      </trkpt>
      <trkpt lat="44.11389" lon="6.98136">
        <ele>1626</ele>
        <time>2021-05-13T07:20:30.932Z</time>
      </trkpt>
      <trkpt lat="44.11389" lon="6.98132">
        <ele>1626</ele>
        <time>2021-05-13T07:20:35.926Z</time>
      </trkpt>
      <trkpt lat="44.1139" lon="6.98127">
        <ele>1626</ele>
        <time>2021-05-13T07:20:40.940Z</time>
      </trkpt>
      <trkpt lat="44.1139" lon="6.98122">
        <ele>1630</ele>
        <time>2021-05-13T07:20:45.926Z</time>
      </trkpt>
      <trkpt lat="44.11391" lon="6.98118">
        <ele>1630</ele>
        <time>2021-05-13T07:20:50.931Z</time>
      </trkpt>
      <trkpt lat="44.11393" lon="6.98117">
        <ele>1630</ele>
        <time>2021-05-13T07:20:54.933Z</time>
      </trkpt>
      <trkpt lat="44.11395" lon="6.98114">
        <ele>1630</ele>
        <time>2021-05-13T07:20:59.931Z</time>
      </trkpt>
      <trkpt lat="44.11396" lon="6.9811">
        <ele>1630</ele>
        <time>2021-05-13T07:21:04.942Z</time>
      </trkpt>
      <trkpt lat="44.11398" lon="6.98107">
        <ele>1630</ele>
        <time>2021-05-13T07:21:09.925Z</time>
      </trkpt>
      <trkpt lat="44.11398" lon="6.98103">
        <ele>1630</ele>
        <time>2021-05-13T07:21:14.924Z</time>
      </trkpt>
      <trkpt lat="44.11399" lon="6.98097">
        <ele>1634</ele>
        <time>2021-05-13T07:21:19.933Z</time>
      </trkpt>
      <trkpt lat="44.114" lon="6.98093">
        <ele>1634</ele>
        <time>2021-05-13T07:21:24.920Z</time>
      </trkpt>
      <trkpt lat="44.11401" lon="6.98091">
        <ele>1634</ele>
        <time>2021-05-13T07:21:28.933Z</time>
      </trkpt>
      <trkpt lat="44.11403" lon="6.98088">
        <ele>1635</ele>
        <time>2021-05-13T07:21:33.930Z</time>
      </trkpt>
      <trkpt lat="44.11405" lon="6.98084">
        <ele>1635</ele>
        <time>2021-05-13T07:21:38.928Z</time>
      </trkpt>
      <trkpt lat="44.11406" lon="6.98079">
        <ele>1635</ele>
        <time>2021-05-13T07:21:43.931Z</time>
      </trkpt>
      <trkpt lat="44.11407" lon="6.98075">
        <ele>1635</ele>
        <time>2021-05-13T07:21:48.933Z</time>
      </trkpt>
      <trkpt lat="44.11408" lon="6.98071">
        <ele>1635</ele>
        <time>2021-05-13T07:21:52.931Z</time>
      </trkpt>
      <trkpt lat="44.1141" lon="6.98065">
        <ele>1638</ele>
        <time>2021-05-13T07:21:57.943Z</time>
      </trkpt>
      <trkpt lat="44.11412" lon="6.98059">
        <ele>1638</ele>
        <time>2021-05-13T07:22:02.932Z</time>
      </trkpt>
      <trkpt lat="44.11414" lon="6.98057">
        <ele>1638</ele>
        <time>2021-05-13T07:22:07.929Z</time>
      </trkpt>
      <trkpt lat="44.11415" lon="6.98056">
        <ele>1638</ele>
        <time>2021-05-13T07:22:12.926Z</time>
      </trkpt>
      <trkpt lat="44.11416" lon="6.98052">
        <ele>1638</ele>
        <time>2021-05-13T07:22:17.940Z</time>
      </trkpt>
      <trkpt lat="44.11419" lon="6.98049">
        <ele>1638</ele>
        <time>2021-05-13T07:22:22.931Z</time>
      </trkpt>
      <trkpt lat="44.11421" lon="6.98046">
        <ele>1638</ele>
        <time>2021-05-13T07:22:27.927Z</time>
      </trkpt>
      <trkpt lat="44.11422" lon="6.98045">
        <ele>1638</ele>
        <time>2021-05-13T07:22:32.909Z</time>
      </trkpt>
      <trkpt lat="44.11425" lon="6.9804">
        <ele>1638</ele>
        <time>2021-05-13T07:22:37.930Z</time>
      </trkpt>
      <trkpt lat="44.11426" lon="6.98036">
        <ele>1638</ele>
        <time>2021-05-13T07:22:42.923Z</time>
      </trkpt>
      <trkpt lat="44.11427" lon="6.98034">
        <ele>1638</ele>
        <time>2021-05-13T07:22:47.925Z</time>
      </trkpt>
      <trkpt lat="44.11431" lon="6.98029">
        <ele>1645</ele>
        <time>2021-05-13T07:22:52.929Z</time>
      </trkpt>
      <trkpt lat="44.11432" lon="6.98025">
        <ele>1645</ele>
        <time>2021-05-13T07:22:56.927Z</time>
      </trkpt>
      <trkpt lat="44.11433" lon="6.9802">
        <ele>1645</ele>
        <time>2021-05-13T07:23:01.930Z</time>
      </trkpt>
      <trkpt lat="44.11435" lon="6.98016">
        <ele>1645</ele>
        <time>2021-05-13T07:23:06.934Z</time>
      </trkpt>
      <trkpt lat="44.11437" lon="6.98015">
        <ele>1645</ele>
        <time>2021-05-13T07:23:11.925Z</time>
      </trkpt>
      <trkpt lat="44.11436" lon="6.98011">
        <ele>1647</ele>
        <time>2021-05-13T07:23:16.939Z</time>
      </trkpt>
      <trkpt lat="44.11438" lon="6.98004">
        <ele>1647</ele>
        <time>2021-05-13T07:23:21.926Z</time>
      </trkpt>
      <trkpt lat="44.11439" lon="6.98">
        <ele>1647</ele>
        <time>2021-05-13T07:23:26.925Z</time>
      </trkpt>
      <trkpt lat="44.11441" lon="6.97994">
        <ele>1647</ele>
        <time>2021-05-13T07:23:31.930Z</time>
      </trkpt>
      <trkpt lat="44.11444" lon="6.9799">
        <ele>1647</ele>
        <time>2021-05-13T07:23:36.929Z</time>
      </trkpt>
      <trkpt lat="44.11446" lon="6.97987">
        <ele>1647</ele>
        <time>2021-05-13T07:23:41.934Z</time>
      </trkpt>
      <trkpt lat="44.11447" lon="6.97983">
        <ele>1645</ele>
        <time>2021-05-13T07:23:46.925Z</time>
      </trkpt>
      <trkpt lat="44.11449" lon="6.9798">
        <ele>1645</ele>
        <time>2021-05-13T07:23:51.935Z</time>
      </trkpt>
      <trkpt lat="44.11452" lon="6.97975">
        <ele>1645</ele>
        <time>2021-05-13T07:23:56.937Z</time>
      </trkpt>
      <trkpt lat="44.11455" lon="6.9797">
        <ele>1645</ele>
        <time>2021-05-13T07:24:01.929Z</time>
      </trkpt>
      <trkpt lat="44.11455" lon="6.97966">
        <ele>1645</ele>
        <time>2021-05-13T07:24:06.925Z</time>
      </trkpt>
      <trkpt lat="44.11457" lon="6.97965">
        <ele>1645</ele>
        <time>2021-05-13T07:24:11.935Z</time>
      </trkpt>
      <trkpt lat="44.11457" lon="6.9796">
        <ele>1645</ele>
        <time>2021-05-13T07:24:16.932Z</time>
      </trkpt>
      <trkpt lat="44.11458" lon="6.97954">
        <ele>1643</ele>
        <time>2021-05-13T07:24:21.926Z</time>
      </trkpt>
      <trkpt lat="44.1146" lon="6.97949">
        <ele>1661</ele>
        <time>2021-05-13T07:24:26.923Z</time>
      </trkpt>
      <trkpt lat="44.11464" lon="6.97943">
        <ele>1661</ele>
        <time>2021-05-13T07:24:36.928Z</time>
      </trkpt>
      <trkpt lat="44.11465" lon="6.97942">
        <ele>1661</ele>
        <time>2021-05-13T07:24:41.939Z</time>
      </trkpt>
      <trkpt lat="44.11466" lon="6.97941">
        <ele>1661</ele>
        <time>2021-05-13T07:24:46.925Z</time>
      </trkpt>
      <trkpt lat="44.11467" lon="6.97938">
        <ele>1661</ele>
        <time>2021-05-13T07:24:50.930Z</time>
      </trkpt>
      <trkpt lat="44.11469" lon="6.97934">
        <ele>1661</ele>
        <time>2021-05-13T07:24:54.930Z</time>
      </trkpt>
      <trkpt lat="44.11473" lon="6.97929">
        <ele>1657</ele>
        <time>2021-05-13T07:25:04.920Z</time>
      </trkpt>
      <trkpt lat="44.11474" lon="6.97927">
        <ele>1657</ele>
        <time>2021-05-13T07:25:08.930Z</time>
      </trkpt>
      <trkpt lat="44.11475" lon="6.97922">
        <ele>1657</ele>
        <time>2021-05-13T07:25:13.930Z</time>
      </trkpt>
      <trkpt lat="44.11473" lon="6.97921">
        <ele>1657</ele>
        <time>2021-05-13T07:25:17.931Z</time>
      </trkpt>
      <trkpt lat="44.11475" lon="6.97917">
        <ele>1657</ele>
        <time>2021-05-13T07:25:22.933Z</time>
      </trkpt>
      <trkpt lat="44.11475" lon="6.97912">
        <ele>1657</ele>
        <time>2021-05-13T07:25:32.907Z</time>
      </trkpt>
      <trkpt lat="44.11477" lon="6.97907">
        <ele>1657</ele>
        <time>2021-05-13T07:25:42.910Z</time>
      </trkpt>
      <trkpt lat="44.11478" lon="6.97905">
        <ele>1657</ele>
        <time>2021-05-13T07:25:47.908Z</time>
      </trkpt>
      <trkpt lat="44.11479" lon="6.97902">
        <ele>1652</ele>
        <time>2021-05-13T07:25:52.926Z</time>
      </trkpt>
      <trkpt lat="44.11479" lon="6.97899">
        <ele>1652</ele>
        <time>2021-05-13T07:25:57.928Z</time>
      </trkpt>
      <trkpt lat="44.11483" lon="6.97899">
        <ele>1652</ele>
        <time>2021-05-13T07:26:02.918Z</time>
      </trkpt>
      <trkpt lat="44.11485" lon="6.97898">
        <ele>1652</ele>
        <time>2021-05-13T07:26:07.918Z</time>
      </trkpt>
      <trkpt lat="44.11487" lon="6.97895">
        <ele>1678</ele>
        <time>2021-05-13T07:26:12.927Z</time>
      </trkpt>
      <trkpt lat="44.11489" lon="6.97892">
        <ele>1678</ele>
        <time>2021-05-13T07:26:17.941Z</time>
      </trkpt>
      <trkpt lat="44.11492" lon="6.97891">
        <ele>1678</ele>
        <time>2021-05-13T07:26:22.923Z</time>
      </trkpt>
      <trkpt lat="44.11494" lon="6.97889">
        <ele>1678</ele>
        <time>2021-05-13T07:26:27.933Z</time>
      </trkpt>
      <trkpt lat="44.11496" lon="6.97889">
        <ele>1678</ele>
        <time>2021-05-13T07:26:32.923Z</time>
      </trkpt>
      <trkpt lat="44.11498" lon="6.97888">
        <ele>1678</ele>
        <time>2021-05-13T07:26:37.927Z</time>
      </trkpt>
      <trkpt lat="44.115" lon="6.97886">
        <ele>1678</ele>
        <time>2021-05-13T07:26:42.926Z</time>
      </trkpt>
      <trkpt lat="44.11503" lon="6.97881">
        <ele>1678</ele>
        <time>2021-05-13T07:26:47.923Z</time>
      </trkpt>
      <trkpt lat="44.11505" lon="6.97873">
        <ele>1674</ele>
        <time>2021-05-13T07:26:57.945Z</time>
      </trkpt>
      <trkpt lat="44.11507" lon="6.97871">
        <ele>1674</ele>
        <time>2021-05-13T07:27:02.928Z</time>
      </trkpt>
      <trkpt lat="44.11507" lon="6.9787">
        <ele>1674</ele>
        <time>2021-05-13T07:27:06.921Z</time>
      </trkpt>
      <trkpt lat="44.1151" lon="6.97869">
        <ele>1674</ele>
        <time>2021-05-13T07:27:11.917Z</time>
      </trkpt>
      <trkpt lat="44.11512" lon="6.9787">
        <ele>1674</ele>
        <time>2021-05-13T07:27:15.929Z</time>
      </trkpt>
      <trkpt lat="44.11512" lon="6.97867">
        <ele>1674</ele>
        <time>2021-05-13T07:27:20.924Z</time>
      </trkpt>
      <trkpt lat="44.11513" lon="6.97865">
        <ele>1674</ele>
        <time>2021-05-13T07:27:25.925Z</time>
      </trkpt>
      <trkpt lat="44.11514" lon="6.97862">
        <ele>1674</ele>
        <time>2021-05-13T07:27:30.928Z</time>
      </trkpt>
      <trkpt lat="44.11516" lon="6.97861">
        <ele>1682</ele>
        <time>2021-05-13T07:27:35.923Z</time>
      </trkpt>
      <trkpt lat="44.11517" lon="6.97857">
        <ele>1682</ele>
        <time>2021-05-13T07:27:40.927Z</time>
      </trkpt>
      <trkpt lat="44.11523" lon="6.9785">
        <ele>1682</ele>
        <time>2021-05-13T07:27:54.930Z</time>
      </trkpt>
      <trkpt lat="44.11523" lon="6.97849">
        <ele>1682</ele>
        <time>2021-05-13T07:27:59.925Z</time>
      </trkpt>
      <trkpt lat="44.11524" lon="6.97848">
        <ele>1682</ele>
        <time>2021-05-13T07:28:04.924Z</time>
      </trkpt>
      <trkpt lat="44.11525" lon="6.97846">
        <ele>1674</ele>
        <time>2021-05-13T07:28:08.932Z</time>
      </trkpt>
      <trkpt lat="44.11527" lon="6.97841">
        <ele>1674</ele>
        <time>2021-05-13T07:28:13.926Z</time>
      </trkpt>
      <trkpt lat="44.11529" lon="6.97836">
        <ele>1674</ele>
        <time>2021-05-13T07:28:18.931Z</time>
      </trkpt>
      <trkpt lat="44.11531" lon="6.97831">
        <ele>1674</ele>
        <time>2021-05-13T07:28:23.922Z</time>
      </trkpt>
      <trkpt lat="44.11534" lon="6.97827">
        <ele>1674</ele>
        <time>2021-05-13T07:28:28.925Z</time>
      </trkpt>
      <trkpt lat="44.11535" lon="6.97822">
        <ele>1674</ele>
        <time>2021-05-13T07:28:33.925Z</time>
      </trkpt>
      <trkpt lat="44.11537" lon="6.97819">
        <ele>1666</ele>
        <time>2021-05-13T07:28:52.930Z</time>
      </trkpt>
      <trkpt lat="44.11538" lon="6.97819">
        <ele>1666</ele>
        <time>2021-05-13T07:28:56.935Z</time>
      </trkpt>
      <trkpt lat="44.1154" lon="6.97816">
        <ele>1666</ele>
        <time>2021-05-13T07:29:01.937Z</time>
      </trkpt>
      <trkpt lat="44.11544" lon="6.97816">
        <ele>1682</ele>
        <time>2021-05-13T07:29:06.937Z</time>
      </trkpt>
      <trkpt lat="44.11547" lon="6.97816">
        <ele>1682</ele>
        <time>2021-05-13T07:29:11.934Z</time>
      </trkpt>
      <trkpt lat="44.11553" lon="6.97813">
        <ele>1682</ele>
        <time>2021-05-13T07:29:16.933Z</time>
      </trkpt>
      <trkpt lat="44.11556" lon="6.97814">
        <ele>1682</ele>
        <time>2021-05-13T07:29:21.943Z</time>
      </trkpt>
      <trkpt lat="44.1156" lon="6.97815">
        <ele>1682</ele>
        <time>2021-05-13T07:29:26.951Z</time>
      </trkpt>
      <trkpt lat="44.11564" lon="6.97816">
        <ele>1682</ele>
        <time>2021-05-13T07:29:31.937Z</time>
      </trkpt>
      <trkpt lat="44.11572" lon="6.97815">
        <ele>1689</ele>
        <time>2021-05-13T07:32:23.931Z</time>
      </trkpt>
      <trkpt lat="44.11571" lon="6.97812">
        <ele>1689</ele>
        <time>2021-05-13T07:32:28.929Z</time>
      </trkpt>
      <trkpt lat="44.11569" lon="6.97809">
        <ele>1682</ele>
        <time>2021-05-13T07:32:32.941Z</time>
      </trkpt>
      <trkpt lat="44.11568" lon="6.97807">
        <ele>1682</ele>
        <time>2021-05-13T07:32:37.943Z</time>
      </trkpt>
      <trkpt lat="44.11569" lon="6.97805">
        <ele>1682</ele>
        <time>2021-05-13T07:32:42.931Z</time>
      </trkpt>
      <trkpt lat="44.11569" lon="6.97797">
        <ele>1682</ele>
        <time>2021-05-13T07:32:57.938Z</time>
      </trkpt>
      <trkpt lat="44.1157" lon="6.97795">
        <ele>1689</ele>
        <time>2021-05-13T07:33:02.934Z</time>
      </trkpt>
      <trkpt lat="44.11571" lon="6.97794">
        <ele>1689</ele>
        <time>2021-05-13T07:33:06.945Z</time>
      </trkpt>
      <trkpt lat="44.11572" lon="6.97792">
        <ele>1689</ele>
        <time>2021-05-13T07:33:11.945Z</time>
      </trkpt>
      <trkpt lat="44.11573" lon="6.9779">
        <ele>1692</ele>
        <time>2021-05-13T07:33:16.929Z</time>
      </trkpt>
      <trkpt lat="44.11574" lon="6.97788">
        <ele>1692</ele>
        <time>2021-05-13T07:33:21.928Z</time>
      </trkpt>
      <trkpt lat="44.11577" lon="6.97786">
        <ele>1692</ele>
        <time>2021-05-13T07:33:26.935Z</time>
      </trkpt>
      <trkpt lat="44.11578" lon="6.9778">
        <ele>1692</ele>
        <time>2021-05-13T07:33:31.938Z</time>
      </trkpt>
      <trkpt lat="44.11578" lon="6.97779">
        <ele>1692</ele>
        <time>2021-05-13T07:33:36.916Z</time>
      </trkpt>
      <trkpt lat="44.1158" lon="6.97778">
        <ele>1692</ele>
        <time>2021-05-13T07:33:41.928Z</time>
      </trkpt>
      <trkpt lat="44.11583" lon="6.97778">
        <ele>1692</ele>
        <time>2021-05-13T07:33:45.934Z</time>
      </trkpt>
      <trkpt lat="44.11586" lon="6.97778">
        <ele>1692</ele>
        <time>2021-05-13T07:33:50.937Z</time>
      </trkpt>
      <trkpt lat="44.11589" lon="6.97778">
        <ele>1692</ele>
        <time>2021-05-13T07:33:55.926Z</time>
      </trkpt>
      <trkpt lat="44.11591" lon="6.97776">
        <ele>1692</ele>
        <time>2021-05-13T07:34:00.935Z</time>
      </trkpt>
      <trkpt lat="44.11594" lon="6.97774">
        <ele>1692</ele>
        <time>2021-05-13T07:34:05.940Z</time>
      </trkpt>
      <trkpt lat="44.11595" lon="6.97773">
        <ele>1692</ele>
        <time>2021-05-13T07:34:10.941Z</time>
      </trkpt>
      <trkpt lat="44.11598" lon="6.97773">
        <ele>1698</ele>
        <time>2021-05-13T07:34:15.939Z</time>
      </trkpt>
      <trkpt lat="44.11601" lon="6.97771">
        <ele>1698</ele>
        <time>2021-05-13T07:34:20.934Z</time>
      </trkpt>
      <trkpt lat="44.11604" lon="6.9777">
        <ele>1698</ele>
        <time>2021-05-13T07:34:25.934Z</time>
      </trkpt>
      <trkpt lat="44.11605" lon="6.97768">
        <ele>1698</ele>
        <time>2021-05-13T07:34:30.929Z</time>
      </trkpt>
      <trkpt lat="44.11605" lon="6.97767">
        <ele>1698</ele>
        <time>2021-05-13T07:34:34.941Z</time>
      </trkpt>
      <trkpt lat="44.11608" lon="6.97766">
        <ele>1698</ele>
        <time>2021-05-13T07:34:39.937Z</time>
      </trkpt>
      <trkpt lat="44.11608" lon="6.97764">
        <ele>1698</ele>
        <time>2021-05-13T07:34:44.934Z</time>
      </trkpt>
      <trkpt lat="44.11613" lon="6.97761">
        <ele>1707</ele>
        <time>2021-05-13T07:34:49.947Z</time>
      </trkpt>
      <trkpt lat="44.11616" lon="6.97759">
        <ele>1707</ele>
        <time>2021-05-13T07:34:54.939Z</time>
      </trkpt>
      <trkpt lat="44.11617" lon="6.97758">
        <ele>1707</ele>
        <time>2021-05-13T07:34:59.943Z</time>
      </trkpt>
      <trkpt lat="44.1162" lon="6.97756">
        <ele>1707</ele>
        <time>2021-05-13T07:35:04.932Z</time>
      </trkpt>
      <trkpt lat="44.11622" lon="6.97754">
        <ele>1707</ele>
        <time>2021-05-13T07:35:08.951Z</time>
      </trkpt>
      <trkpt lat="44.11624" lon="6.97752">
        <ele>1707</ele>
        <time>2021-05-13T07:35:13.940Z</time>
      </trkpt>
      <trkpt lat="44.11625" lon="6.97751">
        <ele>1711</ele>
        <time>2021-05-13T07:35:18.946Z</time>
      </trkpt>
      <trkpt lat="44.11627" lon="6.97749">
        <ele>1711</ele>
        <time>2021-05-13T07:35:23.929Z</time>
      </trkpt>
      <trkpt lat="44.1163" lon="6.97746">
        <ele>1711</ele>
        <time>2021-05-13T07:35:28.933Z</time>
      </trkpt>
      <trkpt lat="44.11633" lon="6.97745">
        <ele>1711</ele>
        <time>2021-05-13T07:35:33.942Z</time>
      </trkpt>
      <trkpt lat="44.11634" lon="6.97745">
        <ele>1711</ele>
        <time>2021-05-13T07:35:38.943Z</time>
      </trkpt>
      <trkpt lat="44.11635" lon="6.97742">
        <ele>1711</ele>
        <time>2021-05-13T07:35:43.932Z</time>
      </trkpt>
      <trkpt lat="44.11637" lon="6.97739">
        <ele>1711</ele>
        <time>2021-05-13T07:35:53.929Z</time>
      </trkpt>
      <trkpt lat="44.11637" lon="6.97733">
        <ele>1720</ele>
        <time>2021-05-13T07:35:58.936Z</time>
      </trkpt>
      <trkpt lat="44.11638" lon="6.97733">
        <ele>1720</ele>
        <time>2021-05-13T07:36:03.932Z</time>
      </trkpt>
      <trkpt lat="44.11638" lon="6.9773">
        <ele>1720</ele>
        <time>2021-05-13T07:36:08.926Z</time>
      </trkpt>
      <trkpt lat="44.11641" lon="6.97729">
        <ele>1720</ele>
        <time>2021-05-13T07:36:12.945Z</time>
      </trkpt>
      <trkpt lat="44.11641" lon="6.97728">
        <ele>1720</ele>
        <time>2021-05-13T07:36:22.939Z</time>
      </trkpt>
      <trkpt lat="44.11643" lon="6.97725">
        <ele>1720</ele>
        <time>2021-05-13T07:36:27.931Z</time>
      </trkpt>
      <trkpt lat="44.11643" lon="6.97725">
        <ele>1720</ele>
        <time>2021-05-13T07:36:32.944Z</time>
      </trkpt>
      <trkpt lat="44.11647" lon="6.97722">
        <ele>1720</ele>
        <time>2021-05-13T07:36:42.935Z</time>
      </trkpt>
      <trkpt lat="44.11649" lon="6.97721">
        <ele>1720</ele>
        <time>2021-05-13T07:36:47.926Z</time>
      </trkpt>
      <trkpt lat="44.11651" lon="6.97719">
        <ele>1720</ele>
        <time>2021-05-13T07:36:52.941Z</time>
      </trkpt>
      <trkpt lat="44.11654" lon="6.97716">
        <ele>1720</ele>
        <time>2021-05-13T07:36:57.943Z</time>
      </trkpt>
      <trkpt lat="44.11656" lon="6.97714">
        <ele>1720</ele>
        <time>2021-05-13T07:37:02.929Z</time>
      </trkpt>
      <trkpt lat="44.1166" lon="6.97713">
        <ele>1720</ele>
        <time>2021-05-13T07:37:07.929Z</time>
      </trkpt>
      <trkpt lat="44.11665" lon="6.97708">
        <ele>1731</ele>
        <time>2021-05-13T07:37:21.936Z</time>
      </trkpt>
      <trkpt lat="44.11666" lon="6.97706">
        <ele>1731</ele>
        <time>2021-05-13T07:37:26.937Z</time>
      </trkpt>
      <trkpt lat="44.11666" lon="6.97703">
        <ele>1731</ele>
        <time>2021-05-13T07:37:31.934Z</time>
      </trkpt>
      <trkpt lat="44.11667" lon="6.977">
        <ele>1731</ele>
        <time>2021-05-13T07:37:36.942Z</time>
      </trkpt>
      <trkpt lat="44.1167" lon="6.97699">
        <ele>1731</ele>
        <time>2021-05-13T07:37:41.936Z</time>
      </trkpt>
      <trkpt lat="44.11671" lon="6.97695">
        <ele>1731</ele>
        <time>2021-05-13T07:37:45.944Z</time>
      </trkpt>
      <trkpt lat="44.11672" lon="6.97691">
        <ele>1731</ele>
        <time>2021-05-13T07:37:50.939Z</time>
      </trkpt>
      <trkpt lat="44.11673" lon="6.9769">
        <ele>1731</ele>
        <time>2021-05-13T07:37:55.936Z</time>
      </trkpt>
      <trkpt lat="44.11676" lon="6.97688">
        <ele>1731</ele>
        <time>2021-05-13T07:38:00.938Z</time>
      </trkpt>
      <trkpt lat="44.11678" lon="6.97685">
        <ele>1731</ele>
        <time>2021-05-13T07:38:05.939Z</time>
      </trkpt>
      <trkpt lat="44.1168" lon="6.97678">
        <ele>1743</ele>
        <time>2021-05-13T07:38:15.935Z</time>
      </trkpt>
      <trkpt lat="44.11682" lon="6.97678">
        <ele>1745</ele>
        <time>2021-05-13T07:38:20.940Z</time>
      </trkpt>
      <trkpt lat="44.11682" lon="6.97675">
        <ele>1745</ele>
        <time>2021-05-13T07:38:25.937Z</time>
      </trkpt>
      <trkpt lat="44.11682" lon="6.97672">
        <ele>1745</ele>
        <time>2021-05-13T07:38:30.941Z</time>
      </trkpt>
      <trkpt lat="44.11681" lon="6.97667">
        <ele>1745</ele>
        <time>2021-05-13T07:38:35.947Z</time>
      </trkpt>
      <trkpt lat="44.11681" lon="6.97662">
        <ele>1745</ele>
        <time>2021-05-13T07:38:49.934Z</time>
      </trkpt>
      <trkpt lat="44.11681" lon="6.97659">
        <ele>1745</ele>
        <time>2021-05-13T07:38:54.939Z</time>
      </trkpt>
      <trkpt lat="44.11682" lon="6.97655">
        <ele>1745</ele>
        <time>2021-05-13T07:38:59.933Z</time>
      </trkpt>
      <trkpt lat="44.11683" lon="6.97655">
        <ele>1745</ele>
        <time>2021-05-13T07:39:04.934Z</time>
      </trkpt>
      <trkpt lat="44.11683" lon="6.9765">
        <ele>1752</ele>
        <time>2021-05-13T07:39:09.939Z</time>
      </trkpt>
      <trkpt lat="44.1168" lon="6.97643">
        <ele>1751</ele>
        <time>2021-05-13T07:39:29.945Z</time>
      </trkpt>
      <trkpt lat="44.1168" lon="6.97639">
        <ele>1751</ele>
        <time>2021-05-13T07:39:34.933Z</time>
      </trkpt>
      <trkpt lat="44.11678" lon="6.97638">
        <ele>1751</ele>
        <time>2021-05-13T07:39:39.946Z</time>
      </trkpt>
      <trkpt lat="44.11678" lon="6.97636">
        <ele>1751</ele>
        <time>2021-05-13T07:39:44.933Z</time>
      </trkpt>
      <trkpt lat="44.11677" lon="6.97633">
        <ele>1751</ele>
        <time>2021-05-13T07:39:49.938Z</time>
      </trkpt>
      <trkpt lat="44.11679" lon="6.9763">
        <ele>1751</ele>
        <time>2021-05-13T07:39:54.936Z</time>
      </trkpt>
      <trkpt lat="44.11681" lon="6.97627">
        <ele>1752</ele>
        <time>2021-05-13T07:39:59.933Z</time>
      </trkpt>
      <trkpt lat="44.11683" lon="6.97625">
        <ele>1752</ele>
        <time>2021-05-13T07:40:04.928Z</time>
      </trkpt>
      <trkpt lat="44.11683" lon="6.97623">
        <ele>1758</ele>
        <time>2021-05-13T07:40:09.937Z</time>
      </trkpt>
      <trkpt lat="44.11685" lon="6.97619">
        <ele>1758</ele>
        <time>2021-05-13T07:40:14.932Z</time>
      </trkpt>
      <trkpt lat="44.11689" lon="6.97613">
        <ele>1758</ele>
        <time>2021-05-13T07:40:29.942Z</time>
      </trkpt>
      <trkpt lat="44.11691" lon="6.97609">
        <ele>1758</ele>
        <time>2021-05-13T07:40:34.942Z</time>
      </trkpt>
      <trkpt lat="44.11692" lon="6.97608">
        <ele>1758</ele>
        <time>2021-05-13T07:40:39.938Z</time>
      </trkpt>
      <trkpt lat="44.11693" lon="6.97607">
        <ele>1758</ele>
        <time>2021-05-13T07:40:44.931Z</time>
      </trkpt>
      <trkpt lat="44.11696" lon="6.97602">
        <ele>1758</ele>
        <time>2021-05-13T07:40:54.939Z</time>
      </trkpt>
      <trkpt lat="44.11698" lon="6.97594">
        <ele>1762</ele>
        <time>2021-05-13T07:41:08.935Z</time>
      </trkpt>
      <trkpt lat="44.11698" lon="6.97592">
        <ele>1762</ele>
        <time>2021-05-13T07:41:13.948Z</time>
      </trkpt>
      <trkpt lat="44.11699" lon="6.9759">
        <ele>1762</ele>
        <time>2021-05-13T07:41:18.930Z</time>
      </trkpt>
      <trkpt lat="44.117" lon="6.97588">
        <ele>1762</ele>
        <time>2021-05-13T07:41:22.941Z</time>
      </trkpt>
      <trkpt lat="44.11702" lon="6.97587">
        <ele>1762</ele>
        <time>2021-05-13T07:41:27.934Z</time>
      </trkpt>
      <trkpt lat="44.11702" lon="6.97585">
        <ele>1762</ele>
        <time>2021-05-13T07:41:31.941Z</time>
      </trkpt>
      <trkpt lat="44.11704" lon="6.97583">
        <ele>1762</ele>
        <time>2021-05-13T07:41:36.929Z</time>
      </trkpt>
      <trkpt lat="44.11706" lon="6.9758">
        <ele>1762</ele>
        <time>2021-05-13T07:41:41.942Z</time>
      </trkpt>
      <trkpt lat="44.11707" lon="6.97578">
        <ele>1762</ele>
        <time>2021-05-13T07:41:46.935Z</time>
      </trkpt>
      <trkpt lat="44.11708" lon="6.97575">
        <ele>1766</ele>
        <time>2021-05-13T07:41:51.940Z</time>
      </trkpt>
      <trkpt lat="44.1171" lon="6.97572">
        <ele>1766</ele>
        <time>2021-05-13T07:41:56.941Z</time>
      </trkpt>
      <trkpt lat="44.11709" lon="6.97568">
        <ele>1772</ele>
        <time>2021-05-13T07:42:01.941Z</time>
      </trkpt>
      <trkpt lat="44.11708" lon="6.97565">
        <ele>1766</ele>
        <time>2021-05-13T07:42:06.940Z</time>
      </trkpt>
      <trkpt lat="44.11708" lon="6.97562">
        <ele>1766</ele>
        <time>2021-05-13T07:42:11.941Z</time>
      </trkpt>
      <trkpt lat="44.11707" lon="6.97557">
        <ele>1766</ele>
        <time>2021-05-13T07:42:16.933Z</time>
      </trkpt>
      <trkpt lat="44.11705" lon="6.97546">
        <ele>1766</ele>
        <time>2021-05-13T07:42:31.938Z</time>
      </trkpt>
      <trkpt lat="44.11704" lon="6.97545">
        <ele>1766</ele>
        <time>2021-05-13T07:42:35.940Z</time>
      </trkpt>
      <trkpt lat="44.11705" lon="6.97544">
        <ele>1766</ele>
        <time>2021-05-13T07:42:40.941Z</time>
      </trkpt>
      <trkpt lat="44.11705" lon="6.97541">
        <ele>1770</ele>
        <time>2021-05-13T07:42:45.946Z</time>
      </trkpt>
      <trkpt lat="44.11704" lon="6.97539">
        <ele>1770</ele>
        <time>2021-05-13T07:42:50.934Z</time>
      </trkpt>
      <trkpt lat="44.11704" lon="6.97537">
        <ele>1770</ele>
        <time>2021-05-13T07:42:55.945Z</time>
      </trkpt>
      <trkpt lat="44.11704" lon="6.97535">
        <ele>1770</ele>
        <time>2021-05-13T07:42:59.937Z</time>
      </trkpt>
      <trkpt lat="44.11702" lon="6.97531">
        <ele>1770</ele>
        <time>2021-05-13T07:43:04.935Z</time>
      </trkpt>
      <trkpt lat="44.11702" lon="6.97528">
        <ele>1770</ele>
        <time>2021-05-13T07:43:09.933Z</time>
      </trkpt>
      <trkpt lat="44.11701" lon="6.97522">
        <ele>1770</ele>
        <time>2021-05-13T07:43:14.944Z</time>
      </trkpt>
      <trkpt lat="44.11699" lon="6.97518">
        <ele>1770</ele>
        <time>2021-05-13T07:43:19.949Z</time>
      </trkpt>
      <trkpt lat="44.11699" lon="6.97515">
        <ele>1770</ele>
        <time>2021-05-13T07:43:56.941Z</time>
      </trkpt>
      <trkpt lat="44.117" lon="6.97514">
        <ele>1768</ele>
        <time>2021-05-13T07:44:01.939Z</time>
      </trkpt>
      <trkpt lat="44.11704" lon="6.97512">
        <ele>1768</ele>
        <time>2021-05-13T07:44:06.941Z</time>
      </trkpt>
      <trkpt lat="44.11706" lon="6.97509">
        <ele>1768</ele>
        <time>2021-05-13T07:44:10.944Z</time>
      </trkpt>
      <trkpt lat="44.11708" lon="6.97508">
        <ele>1768</ele>
        <time>2021-05-13T07:44:15.952Z</time>
      </trkpt>
      <trkpt lat="44.11711" lon="6.97506">
        <ele>1779</ele>
        <time>2021-05-13T07:44:19.958Z</time>
      </trkpt>
      <trkpt lat="44.11713" lon="6.97504">
        <ele>1779</ele>
        <time>2021-05-13T07:44:24.946Z</time>
      </trkpt>
      <trkpt lat="44.11714" lon="6.97501">
        <ele>1779</ele>
        <time>2021-05-13T07:44:29.943Z</time>
      </trkpt>
      <trkpt lat="44.11717" lon="6.97502">
        <ele>1779</ele>
        <time>2021-05-13T07:44:34.948Z</time>
      </trkpt>
      <trkpt lat="44.1172" lon="6.97503">
        <ele>1779</ele>
        <time>2021-05-13T07:44:39.946Z</time>
      </trkpt>
      <trkpt lat="44.1172" lon="6.97502">
        <ele>1779</ele>
        <time>2021-05-13T07:44:44.943Z</time>
      </trkpt>
      <trkpt lat="44.11723" lon="6.97497">
        <ele>1779</ele>
        <time>2021-05-13T07:44:49.936Z</time>
      </trkpt>
      <trkpt lat="44.11726" lon="6.97496">
        <ele>1779</ele>
        <time>2021-05-13T07:44:54.947Z</time>
      </trkpt>
      <trkpt lat="44.11726" lon="6.97494">
        <ele>1779</ele>
        <time>2021-05-13T07:44:59.941Z</time>
      </trkpt>
      <trkpt lat="44.11726" lon="6.97492">
        <ele>1779</ele>
        <time>2021-05-13T07:45:04.944Z</time>
      </trkpt>
      <trkpt lat="44.1173" lon="6.97492">
        <ele>1779</ele>
        <time>2021-05-13T07:45:09.944Z</time>
      </trkpt>
      <trkpt lat="44.11734" lon="6.9749">
        <ele>1779</ele>
        <time>2021-05-13T07:45:14.939Z</time>
      </trkpt>
      <trkpt lat="44.11738" lon="6.9749">
        <ele>1782</ele>
        <time>2021-05-13T07:45:19.942Z</time>
      </trkpt>
      <trkpt lat="44.11742" lon="6.97489">
        <ele>1782</ele>
        <time>2021-05-13T07:45:24.938Z</time>
      </trkpt>
      <trkpt lat="44.11746" lon="6.97487">
        <ele>1782</ele>
        <time>2021-05-13T07:45:29.941Z</time>
      </trkpt>
      <trkpt lat="44.11752" lon="6.97484">
        <ele>1783</ele>
        <time>2021-05-13T07:45:34.943Z</time>
      </trkpt>
      <trkpt lat="44.11757" lon="6.97481">
        <ele>1783</ele>
        <time>2021-05-13T07:45:39.943Z</time>
      </trkpt>
      <trkpt lat="44.11763" lon="6.97479">
        <ele>1783</ele>
        <time>2021-05-13T07:45:44.942Z</time>
      </trkpt>
      <trkpt lat="44.11767" lon="6.97477">
        <ele>1793</ele>
        <time>2021-05-13T07:45:49.934Z</time>
      </trkpt>
      <trkpt lat="44.11772" lon="6.97473">
        <ele>1793</ele>
        <time>2021-05-13T07:45:54.947Z</time>
      </trkpt>
      <trkpt lat="44.11776" lon="6.97473">
        <ele>1793</ele>
        <time>2021-05-13T07:45:59.935Z</time>
      </trkpt>
      <trkpt lat="44.1178" lon="6.9747">
        <ele>1793</ele>
        <time>2021-05-13T07:46:04.939Z</time>
      </trkpt>
      <trkpt lat="44.11783" lon="6.97465">
        <ele>1793</ele>
        <time>2021-05-13T07:46:09.951Z</time>
      </trkpt>
      <trkpt lat="44.11786" lon="6.97463">
        <ele>1793</ele>
        <time>2021-05-13T07:46:14.946Z</time>
      </trkpt>
      <trkpt lat="44.11789" lon="6.97459">
        <ele>1793</ele>
        <time>2021-05-13T07:46:19.940Z</time>
      </trkpt>
      <trkpt lat="44.11793" lon="6.97456">
        <ele>1795</ele>
        <time>2021-05-13T07:46:24.946Z</time>
      </trkpt>
      <trkpt lat="44.11796" lon="6.97452">
        <ele>1795</ele>
        <time>2021-05-13T07:46:29.950Z</time>
      </trkpt>
      <trkpt lat="44.11799" lon="6.9745">
        <ele>1795</ele>
        <time>2021-05-13T07:46:34.935Z</time>
      </trkpt>
      <trkpt lat="44.11801" lon="6.97445">
        <ele>1795</ele>
        <time>2021-05-13T07:46:39.936Z</time>
      </trkpt>
      <trkpt lat="44.11804" lon="6.97441">
        <ele>1795</ele>
        <time>2021-05-13T07:46:44.936Z</time>
      </trkpt>
      <trkpt lat="44.11807" lon="6.97437">
        <ele>1795</ele>
        <time>2021-05-13T07:46:49.942Z</time>
      </trkpt>
      <trkpt lat="44.11809" lon="6.97433">
        <ele>1795</ele>
        <time>2021-05-13T07:46:54.936Z</time>
      </trkpt>
      <trkpt lat="44.11812" lon="6.97429">
        <ele>1794</ele>
        <time>2021-05-13T07:46:59.939Z</time>
      </trkpt>
      <trkpt lat="44.11814" lon="6.97425">
        <ele>1794</ele>
        <time>2021-05-13T07:47:04.944Z</time>
      </trkpt>
      <trkpt lat="44.11817" lon="6.97421">
        <ele>1794</ele>
        <time>2021-05-13T07:47:09.934Z</time>
      </trkpt>
      <trkpt lat="44.1182" lon="6.97417">
        <ele>1806</ele>
        <time>2021-05-13T07:47:14.933Z</time>
      </trkpt>
      <trkpt lat="44.11823" lon="6.97414">
        <ele>1806</ele>
        <time>2021-05-13T07:47:18.948Z</time>
      </trkpt>
      <trkpt lat="44.11825" lon="6.9741">
        <ele>1806</ele>
        <time>2021-05-13T07:47:23.945Z</time>
      </trkpt>
      <trkpt lat="44.11827" lon="6.97406">
        <ele>1806</ele>
        <time>2021-05-13T07:47:28.933Z</time>
      </trkpt>
      <trkpt lat="44.1183" lon="6.97403">
        <ele>1806</ele>
        <time>2021-05-13T07:47:33.934Z</time>
      </trkpt>
      <trkpt lat="44.11833" lon="6.97399">
        <ele>1806</ele>
        <time>2021-05-13T07:47:38.939Z</time>
      </trkpt>
      <trkpt lat="44.11835" lon="6.97397">
        <ele>1806</ele>
        <time>2021-05-13T07:47:43.942Z</time>
      </trkpt>
      <trkpt lat="44.11838" lon="6.97393">
        <ele>1806</ele>
        <time>2021-05-13T07:47:48.942Z</time>
      </trkpt>
      <trkpt lat="44.11839" lon="6.9739">
        <ele>1806</ele>
        <time>2021-05-13T07:47:53.942Z</time>
      </trkpt>
      <trkpt lat="44.11842" lon="6.97386">
        <ele>1806</ele>
        <time>2021-05-13T07:47:58.948Z</time>
      </trkpt>
      <trkpt lat="44.11844" lon="6.97384">
        <ele>1806</ele>
        <time>2021-05-13T07:48:03.951Z</time>
      </trkpt>
      <trkpt lat="44.11847" lon="6.9738">
        <ele>1817</ele>
        <time>2021-05-13T07:48:08.938Z</time>
      </trkpt>
      <trkpt lat="44.11851" lon="6.97375">
        <ele>1817</ele>
        <time>2021-05-13T07:48:13.938Z</time>
      </trkpt>
      <trkpt lat="44.11854" lon="6.97373">
        <ele>1815</ele>
        <time>2021-05-13T07:48:18.934Z</time>
      </trkpt>
      <trkpt lat="44.11857" lon="6.9737">
        <ele>1815</ele>
        <time>2021-05-13T07:48:23.944Z</time>
      </trkpt>
      <trkpt lat="44.11861" lon="6.97369">
        <ele>1815</ele>
        <time>2021-05-13T07:48:28.941Z</time>
      </trkpt>
      <trkpt lat="44.11863" lon="6.97363">
        <ele>1815</ele>
        <time>2021-05-13T07:48:33.937Z</time>
      </trkpt>
      <trkpt lat="44.11865" lon="6.97361">
        <ele>1815</ele>
        <time>2021-05-13T07:48:37.946Z</time>
      </trkpt>
      <trkpt lat="44.1187" lon="6.97358">
        <ele>1815</ele>
        <time>2021-05-13T07:48:42.942Z</time>
      </trkpt>
      <trkpt lat="44.11873" lon="6.97356">
        <ele>1815</ele>
        <time>2021-05-13T07:48:47.936Z</time>
      </trkpt>
      <trkpt lat="44.11878" lon="6.97351">
        <ele>1822</ele>
        <time>2021-05-13T07:48:52.941Z</time>
      </trkpt>
      <trkpt lat="44.11883" lon="6.97346">
        <ele>1818</ele>
        <time>2021-05-13T07:48:57.942Z</time>
      </trkpt>
      <trkpt lat="44.11887" lon="6.97343">
        <ele>1818</ele>
        <time>2021-05-13T07:49:02.940Z</time>
      </trkpt>
      <trkpt lat="44.11891" lon="6.9734">
        <ele>1818</ele>
        <time>2021-05-13T07:49:06.939Z</time>
      </trkpt>
      <trkpt lat="44.11895" lon="6.97335">
        <ele>1818</ele>
        <time>2021-05-13T07:49:11.944Z</time>
      </trkpt>
      <trkpt lat="44.11899" lon="6.97332">
        <ele>1818</ele>
        <time>2021-05-13T07:49:16.932Z</time>
      </trkpt>
      <trkpt lat="44.11904" lon="6.97329">
        <ele>1822</ele>
        <time>2021-05-13T07:49:21.941Z</time>
      </trkpt>
      <trkpt lat="44.11908" lon="6.97326">
        <ele>1822</ele>
        <time>2021-05-13T07:49:26.940Z</time>
      </trkpt>
      <trkpt lat="44.11913" lon="6.97323">
        <ele>1822</ele>
        <time>2021-05-13T07:49:31.940Z</time>
      </trkpt>
      <trkpt lat="44.11917" lon="6.97321">
        <ele>1822</ele>
        <time>2021-05-13T07:49:35.942Z</time>
      </trkpt>
      <trkpt lat="44.11921" lon="6.97319">
        <ele>1825</ele>
        <time>2021-05-13T07:49:40.948Z</time>
      </trkpt>
      <trkpt lat="44.11925" lon="6.97316">
        <ele>1825</ele>
        <time>2021-05-13T07:49:45.938Z</time>
      </trkpt>
      <trkpt lat="44.11928" lon="6.97314">
        <ele>1825</ele>
        <time>2021-05-13T07:49:50.938Z</time>
      </trkpt>
      <trkpt lat="44.11931" lon="6.97312">
        <ele>1827</ele>
        <time>2021-05-13T07:49:54.944Z</time>
      </trkpt>
      <trkpt lat="44.11936" lon="6.9731">
        <ele>1827</ele>
        <time>2021-05-13T07:49:59.942Z</time>
      </trkpt>
      <trkpt lat="44.1194" lon="6.97308">
        <ele>1827</ele>
        <time>2021-05-13T07:50:04.952Z</time>
      </trkpt>
      <trkpt lat="44.11945" lon="6.97307">
        <ele>1827</ele>
        <time>2021-05-13T07:50:09.942Z</time>
      </trkpt>
      <trkpt lat="44.1195" lon="6.97304">
        <ele>1827</ele>
        <time>2021-05-13T07:50:14.940Z</time>
      </trkpt>
      <trkpt lat="44.11961" lon="6.973">
        <ele>1831</ele>
        <time>2021-05-13T07:51:34.924Z</time>
      </trkpt>
      <trkpt lat="44.11963" lon="6.97297">
        <ele>1831</ele>
        <time>2021-05-13T07:51:39.945Z</time>
      </trkpt>
      <trkpt lat="44.11965" lon="6.97293">
        <ele>1831</ele>
        <time>2021-05-13T07:51:44.931Z</time>
      </trkpt>
      <trkpt lat="44.11966" lon="6.97294">
        <ele>1831</ele>
        <time>2021-05-13T07:51:49.917Z</time>
      </trkpt>
      <trkpt lat="44.11967" lon="6.97293">
        <ele>1831</ele>
        <time>2021-05-13T07:51:53.936Z</time>
      </trkpt>
      <trkpt lat="44.1197" lon="6.97289">
        <ele>1833</ele>
        <time>2021-05-13T07:51:58.920Z</time>
      </trkpt>
      <trkpt lat="44.11972" lon="6.97285">
        <ele>1833</ele>
        <time>2021-05-13T07:52:03.940Z</time>
      </trkpt>
      <trkpt lat="44.11974" lon="6.97281">
        <ele>1833</ele>
        <time>2021-05-13T07:52:08.938Z</time>
      </trkpt>
      <trkpt lat="44.11978" lon="6.97277">
        <ele>1833</ele>
        <time>2021-05-13T07:52:13.945Z</time>
      </trkpt>
      <trkpt lat="44.11981" lon="6.97274">
        <ele>1833</ele>
        <time>2021-05-13T07:52:18.939Z</time>
      </trkpt>
      <trkpt lat="44.11983" lon="6.97273">
        <ele>1833</ele>
        <time>2021-05-13T07:52:23.949Z</time>
      </trkpt>
      <trkpt lat="44.11985" lon="6.97271">
        <ele>1833</ele>
        <time>2021-05-13T07:52:28.941Z</time>
      </trkpt>
      <trkpt lat="44.11987" lon="6.97268">
        <ele>1839</ele>
        <time>2021-05-13T07:52:33.939Z</time>
      </trkpt>
      <trkpt lat="44.1199" lon="6.97263">
        <ele>1842</ele>
        <time>2021-05-13T07:52:38.938Z</time>
      </trkpt>
      <trkpt lat="44.11992" lon="6.9726">
        <ele>1842</ele>
        <time>2021-05-13T07:52:43.946Z</time>
      </trkpt>
      <trkpt lat="44.11993" lon="6.97257">
        <ele>1842</ele>
        <time>2021-05-13T07:52:48.938Z</time>
      </trkpt>
      <trkpt lat="44.11996" lon="6.97255">
        <ele>1842</ele>
        <time>2021-05-13T07:52:53.950Z</time>
      </trkpt>
      <trkpt lat="44.11998" lon="6.97254">
        <ele>1842</ele>
        <time>2021-05-13T07:52:58.949Z</time>
      </trkpt>
      <trkpt lat="44.12001" lon="6.97253">
        <ele>1842</ele>
        <time>2021-05-13T07:53:03.934Z</time>
      </trkpt>
      <trkpt lat="44.12001" lon="6.97249">
        <ele>1842</ele>
        <time>2021-05-13T07:53:07.941Z</time>
      </trkpt>
      <trkpt lat="44.12003" lon="6.97246">
        <ele>1842</ele>
        <time>2021-05-13T07:53:12.936Z</time>
      </trkpt>
      <trkpt lat="44.12003" lon="6.97244">
        <ele>1842</ele>
        <time>2021-05-13T07:53:17.944Z</time>
      </trkpt>
      <trkpt lat="44.12004" lon="6.97241">
        <ele>1842</ele>
        <time>2021-05-13T07:53:22.939Z</time>
      </trkpt>
      <trkpt lat="44.12005" lon="6.97237">
        <ele>1842</ele>
        <time>2021-05-13T07:53:27.949Z</time>
      </trkpt>
      <trkpt lat="44.12007" lon="6.97234">
        <ele>1844</ele>
        <time>2021-05-13T07:53:32.949Z</time>
      </trkpt>
      <trkpt lat="44.12009" lon="6.97232">
        <ele>1844</ele>
        <time>2021-05-13T07:53:37.945Z</time>
      </trkpt>
      <trkpt lat="44.12012" lon="6.9723">
        <ele>1844</ele>
        <time>2021-05-13T07:53:42.934Z</time>
      </trkpt>
      <trkpt lat="44.12013" lon="6.97228">
        <ele>1844</ele>
        <time>2021-05-13T07:53:46.948Z</time>
      </trkpt>
      <trkpt lat="44.12015" lon="6.97225">
        <ele>1848</ele>
        <time>2021-05-13T07:53:51.939Z</time>
      </trkpt>
      <trkpt lat="44.12016" lon="6.9722">
        <ele>1848</ele>
        <time>2021-05-13T07:53:55.941Z</time>
      </trkpt>
      <trkpt lat="44.12018" lon="6.97217">
        <ele>1848</ele>
        <time>2021-05-13T07:54:00.939Z</time>
      </trkpt>
      <trkpt lat="44.12021" lon="6.97215">
        <ele>1848</ele>
        <time>2021-05-13T07:54:05.938Z</time>
      </trkpt>
      <trkpt lat="44.12022" lon="6.97212">
        <ele>1848</ele>
        <time>2021-05-13T07:54:10.944Z</time>
      </trkpt>
      <trkpt lat="44.12025" lon="6.97208">
        <ele>1848</ele>
        <time>2021-05-13T07:54:15.935Z</time>
      </trkpt>
      <trkpt lat="44.12027" lon="6.97206">
        <ele>1848</ele>
        <time>2021-05-13T07:54:20.941Z</time>
      </trkpt>
      <trkpt lat="44.12028" lon="6.97203">
        <ele>1848</ele>
        <time>2021-05-13T07:54:25.937Z</time>
      </trkpt>
      <trkpt lat="44.1203" lon="6.972">
        <ele>1848</ele>
        <time>2021-05-13T07:54:29.950Z</time>
      </trkpt>
      <trkpt lat="44.12033" lon="6.97198">
        <ele>1848</ele>
        <time>2021-05-13T07:54:34.927Z</time>
      </trkpt>
      <trkpt lat="44.12034" lon="6.97196">
        <ele>1848</ele>
        <time>2021-05-13T07:54:39.943Z</time>
      </trkpt>
      <trkpt lat="44.12037" lon="6.97193">
        <ele>1848</ele>
        <time>2021-05-13T07:54:49.937Z</time>
      </trkpt>
      <trkpt lat="44.12039" lon="6.9719">
        <ele>1848</ele>
        <time>2021-05-13T07:54:54.946Z</time>
      </trkpt>
      <trkpt lat="44.1204" lon="6.97189">
        <ele>1848</ele>
        <time>2021-05-13T07:54:58.939Z</time>
      </trkpt>
      <trkpt lat="44.12043" lon="6.97187">
        <ele>1859</ele>
        <time>2021-05-13T07:55:03.940Z</time>
      </trkpt>
      <trkpt lat="44.12045" lon="6.97184">
        <ele>1859</ele>
        <time>2021-05-13T07:55:08.937Z</time>
      </trkpt>
      <trkpt lat="44.12048" lon="6.97181">
        <ele>1859</ele>
        <time>2021-05-13T07:55:13.937Z</time>
      </trkpt>
      <trkpt lat="44.1205" lon="6.97177">
        <ele>1861</ele>
        <time>2021-05-13T07:55:18.943Z</time>
      </trkpt>
      <trkpt lat="44.12052" lon="6.97173">
        <ele>1861</ele>
        <time>2021-05-13T07:55:23.940Z</time>
      </trkpt>
      <trkpt lat="44.12053" lon="6.97172">
        <ele>1861</ele>
        <time>2021-05-13T07:55:28.942Z</time>
      </trkpt>
      <trkpt lat="44.12054" lon="6.9717">
        <ele>1861</ele>
        <time>2021-05-13T07:55:33.943Z</time>
      </trkpt>
      <trkpt lat="44.12058" lon="6.97167">
        <ele>1861</ele>
        <time>2021-05-13T07:55:38.944Z</time>
      </trkpt>
      <trkpt lat="44.1206" lon="6.97164">
        <ele>1861</ele>
        <time>2021-05-13T07:55:43.932Z</time>
      </trkpt>
      <trkpt lat="44.1206" lon="6.97162">
        <ele>1861</ele>
        <time>2021-05-13T07:55:48.935Z</time>
      </trkpt>
      <trkpt lat="44.12064" lon="6.9716">
        <ele>1861</ele>
        <time>2021-05-13T07:55:53.935Z</time>
      </trkpt>
      <trkpt lat="44.12067" lon="6.97156">
        <ele>1861</ele>
        <time>2021-05-13T07:55:58.945Z</time>
      </trkpt>
      <trkpt lat="44.12067" lon="6.97155">
        <ele>1861</ele>
        <time>2021-05-13T07:56:03.942Z</time>
      </trkpt>
      <trkpt lat="44.1207" lon="6.97152">
        <ele>1879</ele>
        <time>2021-05-13T07:56:08.940Z</time>
      </trkpt>
      <trkpt lat="44.12071" lon="6.97149">
        <ele>1879</ele>
        <time>2021-05-13T07:56:13.937Z</time>
      </trkpt>
      <trkpt lat="44.12074" lon="6.97147">
        <ele>1879</ele>
        <time>2021-05-13T07:56:18.937Z</time>
      </trkpt>
      <trkpt lat="44.12078" lon="6.97141">
        <ele>1879</ele>
        <time>2021-05-13T07:56:28.940Z</time>
      </trkpt>
      <trkpt lat="44.12081" lon="6.97139">
        <ele>1879</ele>
        <time>2021-05-13T07:56:33.943Z</time>
      </trkpt>
      <trkpt lat="44.12083" lon="6.97139">
        <ele>1879</ele>
        <time>2021-05-13T07:56:38.943Z</time>
      </trkpt>
      <trkpt lat="44.12084" lon="6.9714">
        <ele>1879</ele>
        <time>2021-05-13T07:56:43.937Z</time>
      </trkpt>
      <trkpt lat="44.12085" lon="6.97143">
        <ele>1879</ele>
        <time>2021-05-13T07:56:48.938Z</time>
      </trkpt>
      <trkpt lat="44.12087" lon="6.97147">
        <ele>1879</ele>
        <time>2021-05-13T07:56:53.933Z</time>
      </trkpt>
      <trkpt lat="44.12089" lon="6.9715">
        <ele>1879</ele>
        <time>2021-05-13T07:56:58.939Z</time>
      </trkpt>
      <trkpt lat="44.1209" lon="6.97155">
        <ele>1881</ele>
        <time>2021-05-13T07:57:03.945Z</time>
      </trkpt>
      <trkpt lat="44.1209" lon="6.97159">
        <ele>1881</ele>
        <time>2021-05-13T07:57:08.939Z</time>
      </trkpt>
      <trkpt lat="44.1209" lon="6.97163">
        <ele>1881</ele>
        <time>2021-05-13T07:57:13.935Z</time>
      </trkpt>
      <trkpt lat="44.1209" lon="6.97166">
        <ele>1881</ele>
        <time>2021-05-13T07:57:18.947Z</time>
      </trkpt>
      <trkpt lat="44.12091" lon="6.97171">
        <ele>1881</ele>
        <time>2021-05-13T07:57:23.938Z</time>
      </trkpt>
      <trkpt lat="44.12091" lon="6.97174">
        <ele>1881</ele>
        <time>2021-05-13T07:57:28.941Z</time>
      </trkpt>
      <trkpt lat="44.12092" lon="6.97177">
        <ele>1881</ele>
        <time>2021-05-13T07:57:33.935Z</time>
      </trkpt>
      <trkpt lat="44.12093" lon="6.97183">
        <ele>1882</ele>
        <time>2021-05-13T07:57:38.937Z</time>
      </trkpt>
      <trkpt lat="44.12094" lon="6.97187">
        <ele>1882</ele>
        <time>2021-05-13T07:57:43.927Z</time>
      </trkpt>
      <trkpt lat="44.12093" lon="6.97191">
        <ele>1882</ele>
        <time>2021-05-13T07:57:47.948Z</time>
      </trkpt>
      <trkpt lat="44.12095" lon="6.97196">
        <ele>1882</ele>
        <time>2021-05-13T07:57:52.938Z</time>
      </trkpt>
      <trkpt lat="44.12096" lon="6.972">
        <ele>1882</ele>
        <time>2021-05-13T07:57:56.938Z</time>
      </trkpt>
      <trkpt lat="44.12097" lon="6.97205">
        <ele>1882</ele>
        <time>2021-05-13T07:58:01.941Z</time>
      </trkpt>
      <trkpt lat="44.12097" lon="6.97208">
        <ele>1882</ele>
        <time>2021-05-13T07:58:06.947Z</time>
      </trkpt>
      <trkpt lat="44.12098" lon="6.97212">
        <ele>1896</ele>
        <time>2021-05-13T07:58:11.936Z</time>
      </trkpt>
      <trkpt lat="44.12099" lon="6.97217">
        <ele>1896</ele>
        <time>2021-05-13T07:58:16.941Z</time>
      </trkpt>
      <trkpt lat="44.12101" lon="6.97221">
        <ele>1896</ele>
        <time>2021-05-13T07:58:21.949Z</time>
      </trkpt>
      <trkpt lat="44.12102" lon="6.97225">
        <ele>1896</ele>
        <time>2021-05-13T07:58:26.942Z</time>
      </trkpt>
      <trkpt lat="44.12104" lon="6.97229">
        <ele>1896</ele>
        <time>2021-05-13T07:58:31.941Z</time>
      </trkpt>
      <trkpt lat="44.12105" lon="6.97232">
        <ele>1896</ele>
        <time>2021-05-13T07:58:36.944Z</time>
      </trkpt>
      <trkpt lat="44.12106" lon="6.97235">
        <ele>1896</ele>
        <time>2021-05-13T07:58:41.945Z</time>
      </trkpt>
      <trkpt lat="44.12109" lon="6.97238">
        <ele>1891</ele>
        <time>2021-05-13T07:58:46.945Z</time>
      </trkpt>
      <trkpt lat="44.12112" lon="6.97241">
        <ele>1891</ele>
        <time>2021-05-13T07:58:51.947Z</time>
      </trkpt>
      <trkpt lat="44.12113" lon="6.97244">
        <ele>1891</ele>
        <time>2021-05-13T07:58:56.944Z</time>
      </trkpt>
      <trkpt lat="44.12115" lon="6.97247">
        <ele>1891</ele>
        <time>2021-05-13T07:59:01.943Z</time>
      </trkpt>
      <trkpt lat="44.12116" lon="6.9725">
        <ele>1891</ele>
        <time>2021-05-13T07:59:05.949Z</time>
      </trkpt>
      <trkpt lat="44.12118" lon="6.97254">
        <ele>1891</ele>
        <time>2021-05-13T07:59:10.945Z</time>
      </trkpt>
      <trkpt lat="44.12119" lon="6.97256">
        <ele>1891</ele>
        <time>2021-05-13T07:59:14.945Z</time>
      </trkpt>
      <trkpt lat="44.12123" lon="6.97259">
        <ele>1891</ele>
        <time>2021-05-13T07:59:19.942Z</time>
      </trkpt>
      <trkpt lat="44.12124" lon="6.97264">
        <ele>1891</ele>
        <time>2021-05-13T07:59:24.940Z</time>
      </trkpt>
      <trkpt lat="44.12128" lon="6.97265">
        <ele>1897</ele>
        <time>2021-05-13T07:59:29.942Z</time>
      </trkpt>
      <trkpt lat="44.12131" lon="6.97268">
        <ele>1897</ele>
        <time>2021-05-13T07:59:34.945Z</time>
      </trkpt>
      <trkpt lat="44.12133" lon="6.97269">
        <ele>1897</ele>
        <time>2021-05-13T07:59:39.939Z</time>
      </trkpt>
      <trkpt lat="44.12137" lon="6.97272">
        <ele>1897</ele>
        <time>2021-05-13T07:59:44.943Z</time>
      </trkpt>
      <trkpt lat="44.12139" lon="6.97275">
        <ele>1897</ele>
        <time>2021-05-13T07:59:48.949Z</time>
      </trkpt>
      <trkpt lat="44.12142" lon="6.97277">
        <ele>1897</ele>
        <time>2021-05-13T07:59:53.939Z</time>
      </trkpt>
      <trkpt lat="44.12144" lon="6.9728">
        <ele>1897</ele>
        <time>2021-05-13T07:59:58.949Z</time>
      </trkpt>
      <trkpt lat="44.12145" lon="6.97281">
        <ele>1897</ele>
        <time>2021-05-13T08:00:03.943Z</time>
      </trkpt>
      <trkpt lat="44.12149" lon="6.97285">
        <ele>1897</ele>
        <time>2021-05-13T08:00:08.937Z</time>
      </trkpt>
      <trkpt lat="44.12153" lon="6.97288">
        <ele>1908</ele>
        <time>2021-05-13T08:00:13.943Z</time>
      </trkpt>
      <trkpt lat="44.12157" lon="6.9729">
        <ele>1908</ele>
        <time>2021-05-13T08:00:18.940Z</time>
      </trkpt>
      <trkpt lat="44.12159" lon="6.97293">
        <ele>1903</ele>
        <time>2021-05-13T08:00:23.946Z</time>
      </trkpt>
      <trkpt lat="44.1216" lon="6.97296">
        <ele>1903</ele>
        <time>2021-05-13T08:00:28.940Z</time>
      </trkpt>
      <trkpt lat="44.12163" lon="6.97298">
        <ele>1903</ele>
        <time>2021-05-13T08:00:33.939Z</time>
      </trkpt>
      <trkpt lat="44.12166" lon="6.97299">
        <ele>1903</ele>
        <time>2021-05-13T08:00:38.946Z</time>
      </trkpt>
      <trkpt lat="44.12168" lon="6.97301">
        <ele>1903</ele>
        <time>2021-05-13T08:00:43.938Z</time>
      </trkpt>
      <trkpt lat="44.12171" lon="6.97303">
        <ele>1903</ele>
        <time>2021-05-13T08:00:48.937Z</time>
      </trkpt>
      <trkpt lat="44.12172" lon="6.97304">
        <ele>1903</ele>
        <time>2021-05-13T08:00:53.944Z</time>
      </trkpt>
      <trkpt lat="44.12175" lon="6.97307">
        <ele>1903</ele>
        <time>2021-05-13T08:01:03.937Z</time>
      </trkpt>
      <trkpt lat="44.12176" lon="6.97307">
        <ele>1903</ele>
        <time>2021-05-13T08:01:08.942Z</time>
      </trkpt>
      <trkpt lat="44.12178" lon="6.97308">
        <ele>1903</ele>
        <time>2021-05-13T08:01:13.944Z</time>
      </trkpt>
      <trkpt lat="44.12181" lon="6.97309">
        <ele>1914</ele>
        <time>2021-05-13T08:01:18.945Z</time>
      </trkpt>
      <trkpt lat="44.12183" lon="6.97311">
        <ele>1914</ele>
        <time>2021-05-13T08:01:23.944Z</time>
      </trkpt>
      <trkpt lat="44.12185" lon="6.97312">
        <ele>1914</ele>
        <time>2021-05-13T08:01:33.935Z</time>
      </trkpt>
      <trkpt lat="44.12185" lon="6.97314">
        <ele>1914</ele>
        <time>2021-05-13T08:01:38.949Z</time>
      </trkpt>
      <trkpt lat="44.12186" lon="6.97316">
        <ele>1914</ele>
        <time>2021-05-13T08:01:43.946Z</time>
      </trkpt>
      <trkpt lat="44.12189" lon="6.97317">
        <ele>1914</ele>
        <time>2021-05-13T08:01:48.938Z</time>
      </trkpt>
      <trkpt lat="44.12192" lon="6.9732">
        <ele>1906</ele>
        <time>2021-05-13T08:01:53.941Z</time>
      </trkpt>
      <trkpt lat="44.12196" lon="6.97321">
        <ele>1906</ele>
        <time>2021-05-13T08:01:58.945Z</time>
      </trkpt>
      <trkpt lat="44.12199" lon="6.97322">
        <ele>1906</ele>
        <time>2021-05-13T08:02:03.942Z</time>
      </trkpt>
      <trkpt lat="44.12201" lon="6.97323">
        <ele>1906</ele>
        <time>2021-05-13T08:02:07.961Z</time>
      </trkpt>
      <trkpt lat="44.12204" lon="6.97323">
        <ele>1906</ele>
        <time>2021-05-13T08:02:12.941Z</time>
      </trkpt>
      <trkpt lat="44.12207" lon="6.97324">
        <ele>1906</ele>
        <time>2021-05-13T08:02:17.938Z</time>
      </trkpt>
      <trkpt lat="44.12209" lon="6.97326">
        <ele>1917</ele>
        <time>2021-05-13T08:02:22.943Z</time>
      </trkpt>
      <trkpt lat="44.12212" lon="6.97329">
        <ele>1917</ele>
        <time>2021-05-13T08:02:27.944Z</time>
      </trkpt>
      <trkpt lat="44.12215" lon="6.9733">
        <ele>1917</ele>
        <time>2021-05-13T08:02:32.936Z</time>
      </trkpt>
      <trkpt lat="44.12217" lon="6.9733">
        <ele>1917</ele>
        <time>2021-05-13T08:02:36.940Z</time>
      </trkpt>
      <trkpt lat="44.12219" lon="6.97333">
        <ele>1917</ele>
        <time>2021-05-13T08:02:41.938Z</time>
      </trkpt>
      <trkpt lat="44.12223" lon="6.97337">
        <ele>1917</ele>
        <time>2021-05-13T08:02:46.943Z</time>
      </trkpt>
      <trkpt lat="44.12226" lon="6.97337">
        <ele>1917</ele>
        <time>2021-05-13T08:02:51.944Z</time>
      </trkpt>
      <trkpt lat="44.12229" lon="6.97337">
        <ele>1917</ele>
        <time>2021-05-13T08:02:56.925Z</time>
      </trkpt>
      <trkpt lat="44.12232" lon="6.97337">
        <ele>1917</ele>
        <time>2021-05-13T08:03:00.938Z</time>
      </trkpt>
      <trkpt lat="44.12235" lon="6.97337">
        <ele>1917</ele>
        <time>2021-05-13T08:03:05.938Z</time>
      </trkpt>
      <trkpt lat="44.12238" lon="6.97335">
        <ele>1924</ele>
        <time>2021-05-13T08:03:10.948Z</time>
      </trkpt>
      <trkpt lat="44.12241" lon="6.97335">
        <ele>1924</ele>
        <time>2021-05-13T08:03:15.940Z</time>
      </trkpt>
      <trkpt lat="44.12248" lon="6.97334">
        <ele>1924</ele>
        <time>2021-05-13T08:03:24.943Z</time>
      </trkpt>
      <trkpt lat="44.12252" lon="6.97332">
        <ele>1924</ele>
        <time>2021-05-13T08:03:29.940Z</time>
      </trkpt>
      <trkpt lat="44.12254" lon="6.97328">
        <ele>1924</ele>
        <time>2021-05-13T08:03:34.938Z</time>
      </trkpt>
      <trkpt lat="44.12256" lon="6.97324">
        <ele>1924</ele>
        <time>2021-05-13T08:03:39.948Z</time>
      </trkpt>
      <trkpt lat="44.12258" lon="6.97322">
        <ele>1924</ele>
        <time>2021-05-13T08:03:44.946Z</time>
      </trkpt>
      <trkpt lat="44.1226" lon="6.97319">
        <ele>1931</ele>
        <time>2021-05-13T08:03:49.939Z</time>
      </trkpt>
      <trkpt lat="44.12259" lon="6.97314">
        <ele>1931</ele>
        <time>2021-05-13T08:03:54.949Z</time>
      </trkpt>
      <trkpt lat="44.12258" lon="6.97309">
        <ele>1931</ele>
        <time>2021-05-13T08:03:59.945Z</time>
      </trkpt>
      <trkpt lat="44.12256" lon="6.97304">
        <ele>1931</ele>
        <time>2021-05-13T08:04:04.941Z</time>
      </trkpt>
      <trkpt lat="44.12254" lon="6.97301">
        <ele>1931</ele>
        <time>2021-05-13T08:04:09.918Z</time>
      </trkpt>
      <trkpt lat="44.12253" lon="6.97299">
        <ele>1931</ele>
        <time>2021-05-13T08:04:13.943Z</time>
      </trkpt>
      <trkpt lat="44.1225" lon="6.97297">
        <ele>1931</ele>
        <time>2021-05-13T08:04:18.923Z</time>
      </trkpt>
      <trkpt lat="44.12249" lon="6.97293">
        <ele>1931</ele>
        <time>2021-05-13T08:04:22.945Z</time>
      </trkpt>
      <trkpt lat="44.12247" lon="6.97289">
        <ele>1935</ele>
        <time>2021-05-13T08:04:27.939Z</time>
      </trkpt>
      <trkpt lat="44.12246" lon="6.97287">
        <ele>1935</ele>
        <time>2021-05-13T08:04:32.943Z</time>
      </trkpt>
      <trkpt lat="44.12247" lon="6.97281">
        <ele>1935</ele>
        <time>2021-05-13T08:04:37.937Z</time>
      </trkpt>
      <trkpt lat="44.12247" lon="6.9728">
        <ele>1935</ele>
        <time>2021-05-13T08:04:42.934Z</time>
      </trkpt>
      <trkpt lat="44.12245" lon="6.97277">
        <ele>1935</ele>
        <time>2021-05-13T08:04:46.939Z</time>
      </trkpt>
      <trkpt lat="44.12244" lon="6.97274">
        <ele>1935</ele>
        <time>2021-05-13T08:04:51.951Z</time>
      </trkpt>
      <trkpt lat="44.12243" lon="6.97262">
        <ele>1939</ele>
        <time>2021-05-13T08:05:21.935Z</time>
      </trkpt>
      <trkpt lat="44.12246" lon="6.97259">
        <ele>1939</ele>
        <time>2021-05-13T08:05:26.938Z</time>
      </trkpt>
      <trkpt lat="44.12247" lon="6.97257">
        <ele>1939</ele>
        <time>2021-05-13T08:05:30.944Z</time>
      </trkpt>
      <trkpt lat="44.12249" lon="6.97255">
        <ele>1939</ele>
        <time>2021-05-13T08:05:35.944Z</time>
      </trkpt>
      <trkpt lat="44.12252" lon="6.97252">
        <ele>1939</ele>
        <time>2021-05-13T08:05:40.944Z</time>
      </trkpt>
      <trkpt lat="44.12257" lon="6.97248">
        <ele>1939</ele>
        <time>2021-05-13T08:05:49.943Z</time>
      </trkpt>
      <trkpt lat="44.12258" lon="6.97248">
        <ele>1939</ele>
        <time>2021-05-13T08:05:54.942Z</time>
      </trkpt>
      <trkpt lat="44.12258" lon="6.97248">
        <ele>1939</ele>
        <time>2021-05-13T08:05:59.939Z</time>
      </trkpt>
      <trkpt lat="44.12262" lon="6.97249">
        <ele>1939</ele>
        <time>2021-05-13T08:06:04.939Z</time>
      </trkpt>
      <trkpt lat="44.12265" lon="6.97249">
        <ele>1941</ele>
        <time>2021-05-13T08:06:09.938Z</time>
      </trkpt>
      <trkpt lat="44.12266" lon="6.97249">
        <ele>1941</ele>
        <time>2021-05-13T08:06:14.947Z</time>
      </trkpt>
      <trkpt lat="44.1227" lon="6.97248">
        <ele>1941</ele>
        <time>2021-05-13T08:06:19.944Z</time>
      </trkpt>
      <trkpt lat="44.12274" lon="6.97245">
        <ele>1941</ele>
        <time>2021-05-13T08:06:24.949Z</time>
      </trkpt>
      <trkpt lat="44.12278" lon="6.97243">
        <ele>1941</ele>
        <time>2021-05-13T08:06:29.937Z</time>
      </trkpt>
      <trkpt lat="44.12281" lon="6.97241">
        <ele>1941</ele>
        <time>2021-05-13T08:06:34.938Z</time>
      </trkpt>
      <trkpt lat="44.12286" lon="6.97239">
        <ele>1941</ele>
        <time>2021-05-13T08:06:39.949Z</time>
      </trkpt>
      <trkpt lat="44.1229" lon="6.97239">
        <ele>1941</ele>
        <time>2021-05-13T08:06:44.946Z</time>
      </trkpt>
      <trkpt lat="44.12294" lon="6.97236">
        <ele>1959</ele>
        <time>2021-05-13T08:06:48.944Z</time>
      </trkpt>
      <trkpt lat="44.12297" lon="6.9723">
        <ele>1959</ele>
        <time>2021-05-13T08:06:53.936Z</time>
      </trkpt>
      <trkpt lat="44.12299" lon="6.97225">
        <ele>1959</ele>
        <time>2021-05-13T08:06:58.940Z</time>
      </trkpt>
      <trkpt lat="44.12302" lon="6.97221">
        <ele>1959</ele>
        <time>2021-05-13T08:07:03.935Z</time>
      </trkpt>
      <trkpt lat="44.12303" lon="6.97217">
        <ele>1959</ele>
        <time>2021-05-13T08:07:08.954Z</time>
      </trkpt>
      <trkpt lat="44.12304" lon="6.97212">
        <ele>1959</ele>
        <time>2021-05-13T08:07:13.939Z</time>
      </trkpt>
      <trkpt lat="44.12305" lon="6.97206">
        <ele>1966</ele>
        <time>2021-05-13T08:07:18.938Z</time>
      </trkpt>
      <trkpt lat="44.12305" lon="6.97201">
        <ele>1966</ele>
        <time>2021-05-13T08:07:23.943Z</time>
      </trkpt>
      <trkpt lat="44.12306" lon="6.97194">
        <ele>1966</ele>
        <time>2021-05-13T08:07:28.936Z</time>
      </trkpt>
      <trkpt lat="44.12306" lon="6.9719">
        <ele>1966</ele>
        <time>2021-05-13T08:07:32.934Z</time>
      </trkpt>
      <trkpt lat="44.12309" lon="6.97186">
        <ele>1966</ele>
        <time>2021-05-13T08:07:37.933Z</time>
      </trkpt>
      <trkpt lat="44.12312" lon="6.97183">
        <ele>1966</ele>
        <time>2021-05-13T08:07:42.947Z</time>
      </trkpt>
      <trkpt lat="44.12313" lon="6.97182">
        <ele>1966</ele>
        <time>2021-05-13T08:07:47.945Z</time>
      </trkpt>
      <trkpt lat="44.12313" lon="6.97181">
        <ele>1966</ele>
        <time>2021-05-13T08:07:52.927Z</time>
      </trkpt>
      <trkpt lat="44.12312" lon="6.97182">
        <ele>1966</ele>
        <time>2021-05-13T08:08:40.950Z</time>
      </trkpt>
      <trkpt lat="44.12313" lon="6.97185">
        <ele>1966</ele>
        <time>2021-05-13T08:08:45.940Z</time>
      </trkpt>
      <trkpt lat="44.12313" lon="6.97188">
        <ele>1966</ele>
        <time>2021-05-13T08:08:50.943Z</time>
      </trkpt>
      <trkpt lat="44.12314" lon="6.97192">
        <ele>1966</ele>
        <time>2021-05-13T08:08:55.951Z</time>
      </trkpt>
      <trkpt lat="44.12317" lon="6.97196">
        <ele>1966</ele>
        <time>2021-05-13T08:09:00.944Z</time>
      </trkpt>
      <trkpt lat="44.12322" lon="6.972">
        <ele>1975</ele>
        <time>2021-05-13T08:09:05.940Z</time>
      </trkpt>
      <trkpt lat="44.12323" lon="6.97205">
        <ele>1975</ele>
        <time>2021-05-13T08:09:10.937Z</time>
      </trkpt>
      <trkpt lat="44.12325" lon="6.9721">
        <ele>1971</ele>
        <time>2021-05-13T08:09:15.942Z</time>
      </trkpt>
      <trkpt lat="44.12327" lon="6.97214">
        <ele>1971</ele>
        <time>2021-05-13T08:09:20.940Z</time>
      </trkpt>
      <trkpt lat="44.12329" lon="6.97217">
        <ele>1971</ele>
        <time>2021-05-13T08:09:29.943Z</time>
      </trkpt>
      <trkpt lat="44.12329" lon="6.97219">
        <ele>1971</ele>
        <time>2021-05-13T08:09:34.948Z</time>
      </trkpt>
      <trkpt lat="44.1233" lon="6.97224">
        <ele>1971</ele>
        <time>2021-05-13T08:09:39.947Z</time>
      </trkpt>
      <trkpt lat="44.12332" lon="6.97227">
        <ele>1971</ele>
        <time>2021-05-13T08:09:43.944Z</time>
      </trkpt>
      <trkpt lat="44.12335" lon="6.97229">
        <ele>1971</ele>
        <time>2021-05-13T08:09:48.938Z</time>
      </trkpt>
      <trkpt lat="44.12338" lon="6.97231">
        <ele>1971</ele>
        <time>2021-05-13T08:09:53.944Z</time>
      </trkpt>
      <trkpt lat="44.12338" lon="6.97234">
        <ele>1971</ele>
        <time>2021-05-13T08:09:58.935Z</time>
      </trkpt>
      <trkpt lat="44.12342" lon="6.97237">
        <ele>1962</ele>
        <time>2021-05-13T08:10:03.940Z</time>
      </trkpt>
      <trkpt lat="44.12345" lon="6.97239">
        <ele>1962</ele>
        <time>2021-05-13T08:10:08.935Z</time>
      </trkpt>
      <trkpt lat="44.1235" lon="6.97241">
        <ele>1969</ele>
        <time>2021-05-13T08:10:13.937Z</time>
      </trkpt>
      <trkpt lat="44.12351" lon="6.97244">
        <ele>1969</ele>
        <time>2021-05-13T08:10:18.946Z</time>
      </trkpt>
      <trkpt lat="44.12354" lon="6.97245">
        <ele>1969</ele>
        <time>2021-05-13T08:10:23.939Z</time>
      </trkpt>
      <trkpt lat="44.12358" lon="6.97245">
        <ele>1969</ele>
        <time>2021-05-13T08:10:28.932Z</time>
      </trkpt>
      <trkpt lat="44.12362" lon="6.97246">
        <ele>1969</ele>
        <time>2021-05-13T08:10:33.948Z</time>
      </trkpt>
      <trkpt lat="44.12365" lon="6.97248">
        <ele>1969</ele>
        <time>2021-05-13T08:10:38.947Z</time>
      </trkpt>
      <trkpt lat="44.12368" lon="6.97249">
        <ele>1969</ele>
        <time>2021-05-13T08:10:43.940Z</time>
      </trkpt>
      <trkpt lat="44.12369" lon="6.9725">
        <ele>1969</ele>
        <time>2021-05-13T08:10:48.935Z</time>
      </trkpt>
      <trkpt lat="44.12373" lon="6.97252">
        <ele>1969</ele>
        <time>2021-05-13T08:10:53.938Z</time>
      </trkpt>
      <trkpt lat="44.12377" lon="6.97252">
        <ele>1975</ele>
        <time>2021-05-13T08:10:58.925Z</time>
      </trkpt>
      <trkpt lat="44.12379" lon="6.97254">
        <ele>1975</ele>
        <time>2021-05-13T08:11:02.948Z</time>
      </trkpt>
      <trkpt lat="44.12382" lon="6.97255">
        <ele>1975</ele>
        <time>2021-05-13T08:11:07.944Z</time>
      </trkpt>
      <trkpt lat="44.12387" lon="6.97255">
        <ele>1975</ele>
        <time>2021-05-13T08:11:12.945Z</time>
      </trkpt>
      <trkpt lat="44.12389" lon="6.97256">
        <ele>1975</ele>
        <time>2021-05-13T08:11:17.941Z</time>
      </trkpt>
      <trkpt lat="44.12394" lon="6.97256">
        <ele>1975</ele>
        <time>2021-05-13T08:11:27.939Z</time>
      </trkpt>
      <trkpt lat="44.12395" lon="6.97258">
        <ele>1975</ele>
        <time>2021-05-13T08:11:32.936Z</time>
      </trkpt>
      <trkpt lat="44.12397" lon="6.97257">
        <ele>1975</ele>
        <time>2021-05-13T08:11:37.938Z</time>
      </trkpt>
      <trkpt lat="44.12399" lon="6.97257">
        <ele>1975</ele>
        <time>2021-05-13T08:11:42.937Z</time>
      </trkpt>
      <trkpt lat="44.12402" lon="6.97256">
        <ele>1975</ele>
        <time>2021-05-13T08:11:47.937Z</time>
      </trkpt>
      <trkpt lat="44.12406" lon="6.97255">
        <ele>1980</ele>
        <time>2021-05-13T08:11:57.939Z</time>
      </trkpt>
      <trkpt lat="44.1241" lon="6.97257">
        <ele>1980</ele>
        <time>2021-05-13T08:12:02.939Z</time>
      </trkpt>
      <trkpt lat="44.12412" lon="6.97255">
        <ele>1980</ele>
        <time>2021-05-13T08:12:07.942Z</time>
      </trkpt>
      <trkpt lat="44.12413" lon="6.97253">
        <ele>1980</ele>
        <time>2021-05-13T08:12:12.936Z</time>
      </trkpt>
      <trkpt lat="44.12418" lon="6.97249">
        <ele>1980</ele>
        <time>2021-05-13T08:12:17.944Z</time>
      </trkpt>
      <trkpt lat="44.12419" lon="6.97246">
        <ele>1980</ele>
        <time>2021-05-13T08:12:22.943Z</time>
      </trkpt>
      <trkpt lat="44.12419" lon="6.97245">
        <ele>1980</ele>
        <time>2021-05-13T08:12:27.940Z</time>
      </trkpt>
      <trkpt lat="44.12422" lon="6.9724">
        <ele>1980</ele>
        <time>2021-05-13T08:12:32.938Z</time>
      </trkpt>
      <trkpt lat="44.12423" lon="6.97237">
        <ele>1980</ele>
        <time>2021-05-13T08:12:36.945Z</time>
      </trkpt>
      <trkpt lat="44.12426" lon="6.97234">
        <ele>1985</ele>
        <time>2021-05-13T08:12:41.934Z</time>
      </trkpt>
      <trkpt lat="44.12427" lon="6.97231">
        <ele>1985</ele>
        <time>2021-05-13T08:12:45.947Z</time>
      </trkpt>
      <trkpt lat="44.12429" lon="6.97229">
        <ele>1985</ele>
        <time>2021-05-13T08:12:50.949Z</time>
      </trkpt>
      <trkpt lat="44.12431" lon="6.97223">
        <ele>1990</ele>
        <time>2021-05-13T08:12:55.953Z</time>
      </trkpt>
      <trkpt lat="44.12433" lon="6.97221">
        <ele>1990</ele>
        <time>2021-05-13T08:13:00.937Z</time>
      </trkpt>
      <trkpt lat="44.12435" lon="6.97218">
        <ele>1990</ele>
        <time>2021-05-13T08:13:05.938Z</time>
      </trkpt>
      <trkpt lat="44.12435" lon="6.97214">
        <ele>1990</ele>
        <time>2021-05-13T08:13:15.935Z</time>
      </trkpt>
      <trkpt lat="44.12436" lon="6.97208">
        <ele>1994</ele>
        <time>2021-05-13T08:13:20.933Z</time>
      </trkpt>
      <trkpt lat="44.12437" lon="6.97205">
        <ele>1994</ele>
        <time>2021-05-13T08:13:24.947Z</time>
      </trkpt>
      <trkpt lat="44.1244" lon="6.97201">
        <ele>1994</ele>
        <time>2021-05-13T08:13:29.933Z</time>
      </trkpt>
      <trkpt lat="44.12442" lon="6.97199">
        <ele>1994</ele>
        <time>2021-05-13T08:13:33.952Z</time>
      </trkpt>
      <trkpt lat="44.12444" lon="6.97195">
        <ele>1994</ele>
        <time>2021-05-13T08:13:38.943Z</time>
      </trkpt>
      <trkpt lat="44.12447" lon="6.97192">
        <ele>1994</ele>
        <time>2021-05-13T08:13:43.938Z</time>
      </trkpt>
      <trkpt lat="44.12449" lon="6.97188">
        <ele>1994</ele>
        <time>2021-05-13T08:13:48.934Z</time>
      </trkpt>
      <trkpt lat="44.1245" lon="6.97182">
        <ele>1994</ele>
        <time>2021-05-13T08:13:53.949Z</time>
      </trkpt>
      <trkpt lat="44.12451" lon="6.97178">
        <ele>1996</ele>
        <time>2021-05-13T08:13:58.954Z</time>
      </trkpt>
      <trkpt lat="44.12453" lon="6.97174">
        <ele>1996</ele>
        <time>2021-05-13T08:14:03.939Z</time>
      </trkpt>
      <trkpt lat="44.12455" lon="6.97171">
        <ele>1996</ele>
        <time>2021-05-13T08:14:08.938Z</time>
      </trkpt>
      <trkpt lat="44.12457" lon="6.97165">
        <ele>1996</ele>
        <time>2021-05-13T08:14:13.943Z</time>
      </trkpt>
      <trkpt lat="44.12459" lon="6.97159">
        <ele>2005</ele>
        <time>2021-05-13T08:14:18.942Z</time>
      </trkpt>
      <trkpt lat="44.12461" lon="6.97153">
        <ele>2005</ele>
        <time>2021-05-13T08:14:23.940Z</time>
      </trkpt>
      <trkpt lat="44.12464" lon="6.97151">
        <ele>2009</ele>
        <time>2021-05-13T08:14:28.945Z</time>
      </trkpt>
      <trkpt lat="44.12466" lon="6.97146">
        <ele>2009</ele>
        <time>2021-05-13T08:14:33.947Z</time>
      </trkpt>
      <trkpt lat="44.12468" lon="6.9714">
        <ele>2009</ele>
        <time>2021-05-13T08:14:38.943Z</time>
      </trkpt>
      <trkpt lat="44.12471" lon="6.97135">
        <ele>2009</ele>
        <time>2021-05-13T08:14:43.945Z</time>
      </trkpt>
      <trkpt lat="44.12472" lon="6.97131">
        <ele>2009</ele>
        <time>2021-05-13T08:14:48.945Z</time>
      </trkpt>
      <trkpt lat="44.12475" lon="6.97126">
        <ele>2009</ele>
        <time>2021-05-13T08:14:53.939Z</time>
      </trkpt>
      <trkpt lat="44.12476" lon="6.97122">
        <ele>2009</ele>
        <time>2021-05-13T08:14:58.936Z</time>
      </trkpt>
      <trkpt lat="44.12477" lon="6.97122">
        <ele>2009</ele>
        <time>2021-05-13T08:15:02.938Z</time>
      </trkpt>
      <trkpt lat="44.1248" lon="6.97116">
        <ele>2009</ele>
        <time>2021-05-13T08:15:07.926Z</time>
      </trkpt>
      <trkpt lat="44.12481" lon="6.97111">
        <ele>2009</ele>
        <time>2021-05-13T08:15:12.934Z</time>
      </trkpt>
      <trkpt lat="44.12482" lon="6.97109">
        <ele>2009</ele>
        <time>2021-05-13T08:15:17.937Z</time>
      </trkpt>
      <trkpt lat="44.12483" lon="6.97103">
        <ele>2009</ele>
        <time>2021-05-13T08:15:22.945Z</time>
      </trkpt>
      <trkpt lat="44.12486" lon="6.971">
        <ele>2009</ele>
        <time>2021-05-13T08:15:27.942Z</time>
      </trkpt>
      <trkpt lat="44.1249" lon="6.97099">
        <ele>2022</ele>
        <time>2021-05-13T08:15:37.934Z</time>
      </trkpt>
      <trkpt lat="44.12492" lon="6.97099">
        <ele>2022</ele>
        <time>2021-05-13T08:15:42.943Z</time>
      </trkpt>
      <trkpt lat="44.12494" lon="6.97099">
        <ele>2022</ele>
        <time>2021-05-13T08:15:47.940Z</time>
      </trkpt>
      <trkpt lat="44.12496" lon="6.97103">
        <ele>2022</ele>
        <time>2021-05-13T08:15:52.940Z</time>
      </trkpt>
      <trkpt lat="44.12496" lon="6.97107">
        <ele>2022</ele>
        <time>2021-05-13T08:15:57.938Z</time>
      </trkpt>
      <trkpt lat="44.12497" lon="6.97111">
        <ele>2022</ele>
        <time>2021-05-13T08:16:02.928Z</time>
      </trkpt>
      <trkpt lat="44.12499" lon="6.97115">
        <ele>2022</ele>
        <time>2021-05-13T08:16:06.950Z</time>
      </trkpt>
      <trkpt lat="44.12501" lon="6.9712">
        <ele>2022</ele>
        <time>2021-05-13T08:16:11.934Z</time>
      </trkpt>
      <trkpt lat="44.12503" lon="6.97123">
        <ele>2022</ele>
        <time>2021-05-13T08:16:15.943Z</time>
      </trkpt>
      <trkpt lat="44.12505" lon="6.97126">
        <ele>2023</ele>
        <time>2021-05-13T08:16:20.936Z</time>
      </trkpt>
      <trkpt lat="44.12506" lon="6.97129">
        <ele>2023</ele>
        <time>2021-05-13T08:16:25.943Z</time>
      </trkpt>
      <trkpt lat="44.12506" lon="6.97132">
        <ele>2023</ele>
        <time>2021-05-13T08:16:29.941Z</time>
      </trkpt>
      <trkpt lat="44.12507" lon="6.97135">
        <ele>2023</ele>
        <time>2021-05-13T08:16:34.934Z</time>
      </trkpt>
      <trkpt lat="44.12509" lon="6.97138">
        <ele>2023</ele>
        <time>2021-05-13T08:16:39.940Z</time>
      </trkpt>
      <trkpt lat="44.12515" lon="6.97144">
        <ele>2038</ele>
        <time>2021-05-13T08:16:59.950Z</time>
      </trkpt>
      <trkpt lat="44.12516" lon="6.97146">
        <ele>2038</ele>
        <time>2021-05-13T08:17:03.946Z</time>
      </trkpt>
      <trkpt lat="44.12516" lon="6.97146">
        <ele>2038</ele>
        <time>2021-05-13T08:17:08.936Z</time>
      </trkpt>
      <trkpt lat="44.12516" lon="6.97149">
        <ele>2038</ele>
        <time>2021-05-13T08:17:13.938Z</time>
      </trkpt>
      <trkpt lat="44.12517" lon="6.97151">
        <ele>2038</ele>
        <time>2021-05-13T08:17:17.944Z</time>
      </trkpt>
      <trkpt lat="44.12522" lon="6.97154">
        <ele>2036</ele>
        <time>2021-05-13T08:17:27.956Z</time>
      </trkpt>
      <trkpt lat="44.12523" lon="6.97156">
        <ele>2036</ele>
        <time>2021-05-13T08:17:32.941Z</time>
      </trkpt>
      <trkpt lat="44.12524" lon="6.97159">
        <ele>2036</ele>
        <time>2021-05-13T08:17:37.940Z</time>
      </trkpt>
      <trkpt lat="44.12525" lon="6.97162">
        <ele>2036</ele>
        <time>2021-05-13T08:17:42.940Z</time>
      </trkpt>
      <trkpt lat="44.12526" lon="6.97166">
        <ele>2036</ele>
        <time>2021-05-13T08:17:47.935Z</time>
      </trkpt>
      <trkpt lat="44.12526" lon="6.97167">
        <ele>2036</ele>
        <time>2021-05-13T08:17:52.939Z</time>
      </trkpt>
      <trkpt lat="44.12527" lon="6.97171">
        <ele>2036</ele>
        <time>2021-05-13T08:17:57.939Z</time>
      </trkpt>
      <trkpt lat="44.12529" lon="6.97173">
        <ele>2036</ele>
        <time>2021-05-13T08:18:02.940Z</time>
      </trkpt>
      <trkpt lat="44.12533" lon="6.97176">
        <ele>2036</ele>
        <time>2021-05-13T08:18:07.943Z</time>
      </trkpt>
      <trkpt lat="44.12533" lon="6.97182">
        <ele>2033</ele>
        <time>2021-05-13T08:18:12.933Z</time>
      </trkpt>
      <trkpt lat="44.12538" lon="6.97183">
        <ele>2033</ele>
        <time>2021-05-13T08:18:36.942Z</time>
      </trkpt>
      <trkpt lat="44.12539" lon="6.97182">
        <ele>2033</ele>
        <time>2021-05-13T08:18:46.933Z</time>
      </trkpt>
      <trkpt lat="44.1254" lon="6.97184">
        <ele>2033</ele>
        <time>2021-05-13T08:18:51.933Z</time>
      </trkpt>
      <trkpt lat="44.12542" lon="6.97185">
        <ele>2033</ele>
        <time>2021-05-13T08:18:55.943Z</time>
      </trkpt>
      <trkpt lat="44.12543" lon="6.97188">
        <ele>2045</ele>
        <time>2021-05-13T08:19:00.934Z</time>
      </trkpt>
      <trkpt lat="44.12551" lon="6.97194">
        <ele>2045</ele>
        <time>2021-05-13T08:19:44.930Z</time>
      </trkpt>
      <trkpt lat="44.12552" lon="6.97194">
        <ele>2045</ele>
        <time>2021-05-13T08:19:49.936Z</time>
      </trkpt>
      <trkpt lat="44.12553" lon="6.97196">
        <ele>2045</ele>
        <time>2021-05-13T08:19:54.950Z</time>
      </trkpt>
      <trkpt lat="44.12553" lon="6.97196">
        <ele>2045</ele>
        <time>2021-05-13T08:19:58.946Z</time>
      </trkpt>
      <trkpt lat="44.12555" lon="6.97196">
        <ele>2045</ele>
        <time>2021-05-13T08:20:03.940Z</time>
      </trkpt>
      <trkpt lat="44.12559" lon="6.9719">
        <ele>2045</ele>
        <time>2021-05-13T08:20:27.935Z</time>
      </trkpt>
      <trkpt lat="44.1256" lon="6.97188">
        <ele>2045</ele>
        <time>2021-05-13T08:20:32.943Z</time>
      </trkpt>
      <trkpt lat="44.12562" lon="6.97189">
        <ele>2045</ele>
        <time>2021-05-13T08:20:37.919Z</time>
      </trkpt>
      <trkpt lat="44.12563" lon="6.9719">
        <ele>2045</ele>
        <time>2021-05-13T08:20:41.939Z</time>
      </trkpt>
      <trkpt lat="44.12565" lon="6.9719">
        <ele>2045</ele>
        <time>2021-05-13T08:20:46.951Z</time>
      </trkpt>
      <trkpt lat="44.12567" lon="6.97194">
        <ele>2045</ele>
        <time>2021-05-13T08:21:01.935Z</time>
      </trkpt>
      <trkpt lat="44.12569" lon="6.97197">
        <ele>2045</ele>
        <time>2021-05-13T08:21:06.935Z</time>
      </trkpt>
      <trkpt lat="44.12568" lon="6.97199">
        <ele>2045</ele>
        <time>2021-05-13T08:21:10.942Z</time>
      </trkpt>
      <trkpt lat="44.1257" lon="6.97199">
        <ele>2054</ele>
        <time>2021-05-13T08:21:15.934Z</time>
      </trkpt>
      <trkpt lat="44.12571" lon="6.97202">
        <ele>2054</ele>
        <time>2021-05-13T08:21:20.938Z</time>
      </trkpt>
      <trkpt lat="44.12571" lon="6.97206">
        <ele>2054</ele>
        <time>2021-05-13T08:21:30.935Z</time>
      </trkpt>
      <trkpt lat="44.12571" lon="6.97209">
        <ele>2055</ele>
        <time>2021-05-13T08:21:35.934Z</time>
      </trkpt>
      <trkpt lat="44.12572" lon="6.97211">
        <ele>2055</ele>
        <time>2021-05-13T08:21:39.940Z</time>
      </trkpt>
      <trkpt lat="44.12575" lon="6.97212">
        <ele>2055</ele>
        <time>2021-05-13T08:21:44.937Z</time>
      </trkpt>
      <trkpt lat="44.12576" lon="6.97215">
        <ele>2055</ele>
        <time>2021-05-13T08:21:49.939Z</time>
      </trkpt>
      <trkpt lat="44.12574" lon="6.97217">
        <ele>2055</ele>
        <time>2021-05-13T08:21:54.933Z</time>
      </trkpt>
      <trkpt lat="44.12576" lon="6.97221">
        <ele>2055</ele>
        <time>2021-05-13T08:21:59.939Z</time>
      </trkpt>
      <trkpt lat="44.12579" lon="6.97225">
        <ele>2055</ele>
        <time>2021-05-13T08:22:04.937Z</time>
      </trkpt>
      <trkpt lat="44.1258" lon="6.97226">
        <ele>2055</ele>
        <time>2021-05-13T08:22:09.940Z</time>
      </trkpt>
      <trkpt lat="44.12582" lon="6.9723">
        <ele>2055</ele>
        <time>2021-05-13T08:22:14.942Z</time>
      </trkpt>
      <trkpt lat="44.12583" lon="6.97235">
        <ele>2055</ele>
        <time>2021-05-13T08:22:52.936Z</time>
      </trkpt>
      <trkpt lat="44.12584" lon="6.97235">
        <ele>2055</ele>
        <time>2021-05-13T08:23:11.939Z</time>
      </trkpt>
      <trkpt lat="44.12585" lon="6.97234">
        <ele>2055</ele>
        <time>2021-05-13T08:23:16.945Z</time>
      </trkpt>
      <trkpt lat="44.12587" lon="6.97229">
        <ele>2055</ele>
        <time>2021-05-13T08:23:21.931Z</time>
      </trkpt>
      <trkpt lat="44.12588" lon="6.97221">
        <ele>2055</ele>
        <time>2021-05-13T08:23:26.948Z</time>
      </trkpt>
      <trkpt lat="44.12589" lon="6.97218">
        <ele>2055</ele>
        <time>2021-05-13T08:23:31.929Z</time>
      </trkpt>
      <trkpt lat="44.12592" lon="6.97214">
        <ele>2055</ele>
        <time>2021-05-13T08:23:36.930Z</time>
      </trkpt>
      <trkpt lat="44.12593" lon="6.97211">
        <ele>2055</ele>
        <time>2021-05-13T08:23:41.934Z</time>
      </trkpt>
      <trkpt lat="44.12595" lon="6.97206">
        <ele>2054</ele>
        <time>2021-05-13T08:23:46.933Z</time>
      </trkpt>
      <trkpt lat="44.12596" lon="6.97201">
        <ele>2054</ele>
        <time>2021-05-13T08:23:51.932Z</time>
      </trkpt>
      <trkpt lat="44.12597" lon="6.97199">
        <ele>2054</ele>
        <time>2021-05-13T08:23:56.935Z</time>
      </trkpt>
      <trkpt lat="44.12598" lon="6.97195">
        <ele>2069</ele>
        <time>2021-05-13T08:24:00.940Z</time>
      </trkpt>
      <trkpt lat="44.126" lon="6.97188">
        <ele>2069</ele>
        <time>2021-05-13T08:24:05.934Z</time>
      </trkpt>
      <trkpt lat="44.12603" lon="6.97186">
        <ele>2069</ele>
        <time>2021-05-13T08:24:10.955Z</time>
      </trkpt>
      <trkpt lat="44.12603" lon="6.97182">
        <ele>2069</ele>
        <time>2021-05-13T08:24:15.937Z</time>
      </trkpt>
      <trkpt lat="44.12603" lon="6.97177">
        <ele>2074</ele>
        <time>2021-05-13T08:24:20.932Z</time>
      </trkpt>
      <trkpt lat="44.12603" lon="6.97174">
        <ele>2074</ele>
        <time>2021-05-13T08:24:25.946Z</time>
      </trkpt>
      <trkpt lat="44.12602" lon="6.97167">
        <ele>2074</ele>
        <time>2021-05-13T08:24:30.934Z</time>
      </trkpt>
      <trkpt lat="44.12601" lon="6.97163">
        <ele>2074</ele>
        <time>2021-05-13T08:24:35.939Z</time>
      </trkpt>
      <trkpt lat="44.12599" lon="6.97159">
        <ele>2074</ele>
        <time>2021-05-13T08:24:40.937Z</time>
      </trkpt>
      <trkpt lat="44.12598" lon="6.97153">
        <ele>2078</ele>
        <time>2021-05-13T08:24:45.930Z</time>
      </trkpt>
      <trkpt lat="44.12597" lon="6.97146">
        <ele>2078</ele>
        <time>2021-05-13T08:24:50.929Z</time>
      </trkpt>
      <trkpt lat="44.12597" lon="6.9714">
        <ele>2060</ele>
        <time>2021-05-13T08:24:55.942Z</time>
      </trkpt>
      <trkpt lat="44.12596" lon="6.97135">
        <ele>2060</ele>
        <time>2021-05-13T08:25:00.939Z</time>
      </trkpt>
      <trkpt lat="44.12595" lon="6.97128">
        <ele>2060</ele>
        <time>2021-05-13T08:25:05.927Z</time>
      </trkpt>
      <trkpt lat="44.12595" lon="6.97124">
        <ele>2062</ele>
        <time>2021-05-13T08:25:10.934Z</time>
      </trkpt>
      <trkpt lat="44.12593" lon="6.97116">
        <ele>2062</ele>
        <time>2021-05-13T08:25:49.937Z</time>
      </trkpt>
      <trkpt lat="44.12596" lon="6.97115">
        <ele>2062</ele>
        <time>2021-05-13T08:25:54.942Z</time>
      </trkpt>
      <trkpt lat="44.12599" lon="6.97119">
        <ele>2082</ele>
        <time>2021-05-13T08:25:59.941Z</time>
      </trkpt>
      <trkpt lat="44.12602" lon="6.97119">
        <ele>2082</ele>
        <time>2021-05-13T08:26:04.924Z</time>
      </trkpt>
      <trkpt lat="44.12606" lon="6.97115">
        <ele>2082</ele>
        <time>2021-05-13T08:26:09.938Z</time>
      </trkpt>
      <trkpt lat="44.12612" lon="6.9711">
        <ele>2082</ele>
        <time>2021-05-13T08:26:24.943Z</time>
      </trkpt>
      <trkpt lat="44.12613" lon="6.97111">
        <ele>2082</ele>
        <time>2021-05-13T08:26:29.938Z</time>
      </trkpt>
      <trkpt lat="44.12614" lon="6.97113">
        <ele>2082</ele>
        <time>2021-05-13T08:26:34.934Z</time>
      </trkpt>
      <trkpt lat="44.12616" lon="6.97114">
        <ele>2082</ele>
        <time>2021-05-13T08:26:39.940Z</time>
      </trkpt>
      <trkpt lat="44.12618" lon="6.97118">
        <ele>2082</ele>
        <time>2021-05-13T08:26:44.934Z</time>
      </trkpt>
      <trkpt lat="44.1262" lon="6.9712">
        <ele>2082</ele>
        <time>2021-05-13T08:26:49.936Z</time>
      </trkpt>
      <trkpt lat="44.12622" lon="6.97121">
        <ele>2082</ele>
        <time>2021-05-13T08:26:54.934Z</time>
      </trkpt>
      <trkpt lat="44.12625" lon="6.97123">
        <ele>2082</ele>
        <time>2021-05-13T08:26:59.941Z</time>
      </trkpt>
      <trkpt lat="44.12627" lon="6.97126">
        <ele>2097</ele>
        <time>2021-05-13T08:27:04.934Z</time>
      </trkpt>
      <trkpt lat="44.12629" lon="6.97128">
        <ele>2097</ele>
        <time>2021-05-13T08:27:08.937Z</time>
      </trkpt>
      <trkpt lat="44.12632" lon="6.97133">
        <ele>2097</ele>
        <time>2021-05-13T08:27:18.940Z</time>
      </trkpt>
      <trkpt lat="44.12634" lon="6.97134">
        <ele>2097</ele>
        <time>2021-05-13T08:27:23.931Z</time>
      </trkpt>
      <trkpt lat="44.12637" lon="6.97134">
        <ele>2097</ele>
        <time>2021-05-13T08:27:28.933Z</time>
      </trkpt>
      <trkpt lat="44.12639" lon="6.97135">
        <ele>2097</ele>
        <time>2021-05-13T08:27:33.936Z</time>
      </trkpt>
      <trkpt lat="44.12641" lon="6.97137">
        <ele>2097</ele>
        <time>2021-05-13T08:27:38.937Z</time>
      </trkpt>
      <trkpt lat="44.12645" lon="6.97143">
        <ele>2097</ele>
        <time>2021-05-13T08:27:48.937Z</time>
      </trkpt>
      <trkpt lat="44.12647" lon="6.97143">
        <ele>2097</ele>
        <time>2021-05-13T08:27:53.942Z</time>
      </trkpt>
      <trkpt lat="44.12648" lon="6.97145">
        <ele>2097</ele>
        <time>2021-05-13T08:27:58.932Z</time>
      </trkpt>
      <trkpt lat="44.12649" lon="6.97146">
        <ele>2097</ele>
        <time>2021-05-13T08:28:03.931Z</time>
      </trkpt>
      <trkpt lat="44.12652" lon="6.97147">
        <ele>2097</ele>
        <time>2021-05-13T08:28:07.937Z</time>
      </trkpt>
      <trkpt lat="44.12654" lon="6.97149">
        <ele>2106</ele>
        <time>2021-05-13T08:28:12.933Z</time>
      </trkpt>
      <trkpt lat="44.12654" lon="6.97152">
        <ele>2106</ele>
        <time>2021-05-13T08:28:17.936Z</time>
      </trkpt>
      <trkpt lat="44.12655" lon="6.97155">
        <ele>2102</ele>
        <time>2021-05-13T08:28:22.929Z</time>
      </trkpt>
      <trkpt lat="44.12657" lon="6.97158">
        <ele>2102</ele>
        <time>2021-05-13T08:28:27.928Z</time>
      </trkpt>
      <trkpt lat="44.12659" lon="6.9716">
        <ele>2102</ele>
        <time>2021-05-13T08:28:32.927Z</time>
      </trkpt>
      <trkpt lat="44.12666" lon="6.97154">
        <ele>2102</ele>
        <time>2021-05-13T08:30:26.932Z</time>
      </trkpt>
      <trkpt lat="44.12666" lon="6.97151">
        <ele>2106</ele>
        <time>2021-05-13T08:30:31.931Z</time>
      </trkpt>
      <trkpt lat="44.12666" lon="6.9715">
        <ele>2106</ele>
        <time>2021-05-13T08:30:36.926Z</time>
      </trkpt>
      <trkpt lat="44.12665" lon="6.97146">
        <ele>2106</ele>
        <time>2021-05-13T08:30:41.930Z</time>
      </trkpt>
      <trkpt lat="44.12665" lon="6.97144">
        <ele>2106</ele>
        <time>2021-05-13T08:30:45.934Z</time>
      </trkpt>
      <trkpt lat="44.12662" lon="6.9714">
        <ele>2106</ele>
        <time>2021-05-13T08:30:50.929Z</time>
      </trkpt>
      <trkpt lat="44.12662" lon="6.97134">
        <ele>2106</ele>
        <time>2021-05-13T08:30:55.936Z</time>
      </trkpt>
      <trkpt lat="44.12662" lon="6.97129">
        <ele>2106</ele>
        <time>2021-05-13T08:31:00.939Z</time>
      </trkpt>
      <trkpt lat="44.12663" lon="6.97125">
        <ele>2106</ele>
        <time>2021-05-13T08:31:05.929Z</time>
      </trkpt>
      <trkpt lat="44.12664" lon="6.97121">
        <ele>2110</ele>
        <time>2021-05-13T08:31:14.943Z</time>
      </trkpt>
      <trkpt lat="44.12665" lon="6.97117">
        <ele>2110</ele>
        <time>2021-05-13T08:31:19.937Z</time>
      </trkpt>
      <trkpt lat="44.12665" lon="6.97112">
        <ele>2110</ele>
        <time>2021-05-13T08:31:24.934Z</time>
      </trkpt>
      <trkpt lat="44.12667" lon="6.97109">
        <ele>2110</ele>
        <time>2021-05-13T08:31:29.930Z</time>
      </trkpt>
      <trkpt lat="44.12668" lon="6.97106">
        <ele>2110</ele>
        <time>2021-05-13T08:31:34.945Z</time>
      </trkpt>
      <trkpt lat="44.12668" lon="6.97103">
        <ele>2110</ele>
        <time>2021-05-13T08:31:39.937Z</time>
      </trkpt>
      <trkpt lat="44.12668" lon="6.97098">
        <ele>2110</ele>
        <time>2021-05-13T08:31:44.935Z</time>
      </trkpt>
      <trkpt lat="44.12668" lon="6.97094">
        <ele>2112</ele>
        <time>2021-05-13T08:31:49.934Z</time>
      </trkpt>
      <trkpt lat="44.12669" lon="6.97092">
        <ele>2112</ele>
        <time>2021-05-13T08:31:54.938Z</time>
      </trkpt>
      <trkpt lat="44.12671" lon="6.9709">
        <ele>2112</ele>
        <time>2021-05-13T08:31:59.949Z</time>
      </trkpt>
      <trkpt lat="44.12674" lon="6.97085">
        <ele>2112</ele>
        <time>2021-05-13T08:32:04.935Z</time>
      </trkpt>
      <trkpt lat="44.12673" lon="6.9708">
        <ele>2112</ele>
        <time>2021-05-13T08:32:09.933Z</time>
      </trkpt>
      <trkpt lat="44.12672" lon="6.97074">
        <ele>2112</ele>
        <time>2021-05-13T08:32:14.919Z</time>
      </trkpt>
      <trkpt lat="44.12672" lon="6.9707">
        <ele>2112</ele>
        <time>2021-05-13T08:32:18.937Z</time>
      </trkpt>
      <trkpt lat="44.12671" lon="6.97064">
        <ele>2115</ele>
        <time>2021-05-13T08:32:23.948Z</time>
      </trkpt>
      <trkpt lat="44.12671" lon="6.97059">
        <ele>2115</ele>
        <time>2021-05-13T08:32:28.941Z</time>
      </trkpt>
      <trkpt lat="44.12672" lon="6.97061">
        <ele>2115</ele>
        <time>2021-05-13T08:32:32.938Z</time>
      </trkpt>
      <trkpt lat="44.12673" lon="6.97066">
        <ele>2115</ele>
        <time>2021-05-13T08:32:37.930Z</time>
      </trkpt>
      <trkpt lat="44.12676" lon="6.97069">
        <ele>2115</ele>
        <time>2021-05-13T08:32:42.937Z</time>
      </trkpt>
      <trkpt lat="44.12676" lon="6.97075">
        <ele>2112</ele>
        <time>2021-05-13T08:32:47.943Z</time>
      </trkpt>
      <trkpt lat="44.12677" lon="6.97081">
        <ele>2112</ele>
        <time>2021-05-13T08:32:52.942Z</time>
      </trkpt>
      <trkpt lat="44.12677" lon="6.97086">
        <ele>2112</ele>
        <time>2021-05-13T08:32:57.945Z</time>
      </trkpt>
      <trkpt lat="44.12678" lon="6.9709">
        <ele>2112</ele>
        <time>2021-05-13T08:33:02.946Z</time>
      </trkpt>
      <trkpt lat="44.1268" lon="6.97093">
        <ele>2112</ele>
        <time>2021-05-13T08:33:07.935Z</time>
      </trkpt>
      <trkpt lat="44.1268" lon="6.97098">
        <ele>2110</ele>
        <time>2021-05-13T08:33:12.932Z</time>
      </trkpt>
      <trkpt lat="44.12681" lon="6.97103">
        <ele>2123</ele>
        <time>2021-05-13T08:33:17.933Z</time>
      </trkpt>
      <trkpt lat="44.1268" lon="6.97108">
        <ele>2110</ele>
        <time>2021-05-13T08:33:22.930Z</time>
      </trkpt>
      <trkpt lat="44.12682" lon="6.97112">
        <ele>2123</ele>
        <time>2021-05-13T08:33:27.940Z</time>
      </trkpt>
      <trkpt lat="44.12685" lon="6.97115">
        <ele>2123</ele>
        <time>2021-05-13T08:33:32.935Z</time>
      </trkpt>
      <trkpt lat="44.12688" lon="6.9712">
        <ele>2123</ele>
        <time>2021-05-13T08:33:37.933Z</time>
      </trkpt>
      <trkpt lat="44.1269" lon="6.97123">
        <ele>2123</ele>
        <time>2021-05-13T08:33:42.937Z</time>
      </trkpt>
      <trkpt lat="44.12693" lon="6.97127">
        <ele>2118</ele>
        <time>2021-05-13T08:33:47.931Z</time>
      </trkpt>
      <trkpt lat="44.12696" lon="6.9713">
        <ele>2118</ele>
        <time>2021-05-13T08:33:52.930Z</time>
      </trkpt>
      <trkpt lat="44.12698" lon="6.97133">
        <ele>2118</ele>
        <time>2021-05-13T08:33:56.938Z</time>
      </trkpt>
      <trkpt lat="44.127" lon="6.97135">
        <ele>2118</ele>
        <time>2021-05-13T08:34:01.939Z</time>
      </trkpt>
      <trkpt lat="44.12703" lon="6.97138">
        <ele>2118</ele>
        <time>2021-05-13T08:34:06.940Z</time>
      </trkpt>
      <trkpt lat="44.12705" lon="6.97139">
        <ele>2118</ele>
        <time>2021-05-13T08:34:11.943Z</time>
      </trkpt>
      <trkpt lat="44.12707" lon="6.97142">
        <ele>2118</ele>
        <time>2021-05-13T08:34:16.930Z</time>
      </trkpt>
      <trkpt lat="44.12709" lon="6.97145">
        <ele>2135</ele>
        <time>2021-05-13T08:34:21.933Z</time>
      </trkpt>
      <trkpt lat="44.12711" lon="6.97147">
        <ele>2135</ele>
        <time>2021-05-13T08:34:26.935Z</time>
      </trkpt>
      <trkpt lat="44.12713" lon="6.9715">
        <ele>2135</ele>
        <time>2021-05-13T08:34:31.932Z</time>
      </trkpt>
      <trkpt lat="44.12715" lon="6.97152">
        <ele>2135</ele>
        <time>2021-05-13T08:34:36.926Z</time>
      </trkpt>
      <trkpt lat="44.12718" lon="6.97153">
        <ele>2129</ele>
        <time>2021-05-13T08:34:41.931Z</time>
      </trkpt>
      <trkpt lat="44.12721" lon="6.97154">
        <ele>2129</ele>
        <time>2021-05-13T08:34:45.933Z</time>
      </trkpt>
      <trkpt lat="44.12724" lon="6.97158">
        <ele>2129</ele>
        <time>2021-05-13T08:34:50.932Z</time>
      </trkpt>
      <trkpt lat="44.12728" lon="6.97159">
        <ele>2129</ele>
        <time>2021-05-13T08:34:55.937Z</time>
      </trkpt>
      <trkpt lat="44.12732" lon="6.97162">
        <ele>2129</ele>
        <time>2021-05-13T08:35:00.937Z</time>
      </trkpt>
      <trkpt lat="44.12733" lon="6.97163">
        <ele>2129</ele>
        <time>2021-05-13T08:35:05.939Z</time>
      </trkpt>
      <trkpt lat="44.12736" lon="6.97166">
        <ele>2129</ele>
        <time>2021-05-13T08:35:10.931Z</time>
      </trkpt>
      <trkpt lat="44.12737" lon="6.97168">
        <ele>2144</ele>
        <time>2021-05-13T08:35:14.932Z</time>
      </trkpt>
      <trkpt lat="44.12741" lon="6.97171">
        <ele>2144</ele>
        <time>2021-05-13T08:35:19.935Z</time>
      </trkpt>
      <trkpt lat="44.12744" lon="6.97172">
        <ele>2144</ele>
        <time>2021-05-13T08:35:24.942Z</time>
      </trkpt>
      <trkpt lat="44.12747" lon="6.97173">
        <ele>2144</ele>
        <time>2021-05-13T08:35:29.936Z</time>
      </trkpt>
      <trkpt lat="44.12749" lon="6.97175">
        <ele>2144</ele>
        <time>2021-05-13T08:35:34.927Z</time>
      </trkpt>
      <trkpt lat="44.12751" lon="6.97176">
        <ele>2144</ele>
        <time>2021-05-13T08:35:39.934Z</time>
      </trkpt>
      <trkpt lat="44.12753" lon="6.97178">
        <ele>2144</ele>
        <time>2021-05-13T08:35:44.931Z</time>
      </trkpt>
      <trkpt lat="44.12756" lon="6.97181">
        <ele>2136</ele>
        <time>2021-05-13T08:35:49.927Z</time>
      </trkpt>
      <trkpt lat="44.12758" lon="6.97182">
        <ele>2136</ele>
        <time>2021-05-13T08:35:54.931Z</time>
      </trkpt>
      <trkpt lat="44.12763" lon="6.97185">
        <ele>2136</ele>
        <time>2021-05-13T08:35:58.934Z</time>
      </trkpt>
      <trkpt lat="44.12766" lon="6.97187">
        <ele>2147</ele>
        <time>2021-05-13T08:36:03.937Z</time>
      </trkpt>
      <trkpt lat="44.12769" lon="6.97189">
        <ele>2147</ele>
        <time>2021-05-13T08:36:08.933Z</time>
      </trkpt>
      <trkpt lat="44.12772" lon="6.97191">
        <ele>2147</ele>
        <time>2021-05-13T08:36:13.939Z</time>
      </trkpt>
      <trkpt lat="44.12774" lon="6.97191">
        <ele>2147</ele>
        <time>2021-05-13T08:36:18.933Z</time>
      </trkpt>
      <trkpt lat="44.12777" lon="6.97192">
        <ele>2147</ele>
        <time>2021-05-13T08:36:23.930Z</time>
      </trkpt>
      <trkpt lat="44.12779" lon="6.97195">
        <ele>2147</ele>
        <time>2021-05-13T08:36:28.937Z</time>
      </trkpt>
      <trkpt lat="44.12781" lon="6.97196">
        <ele>2147</ele>
        <time>2021-05-13T08:36:33.933Z</time>
      </trkpt>
      <trkpt lat="44.12786" lon="6.97199">
        <ele>2147</ele>
        <time>2021-05-13T08:36:38.939Z</time>
      </trkpt>
      <trkpt lat="44.12788" lon="6.97201">
        <ele>2147</ele>
        <time>2021-05-13T08:36:43.927Z</time>
      </trkpt>
      <trkpt lat="44.12792" lon="6.97204">
        <ele>2147</ele>
        <time>2021-05-13T08:36:48.932Z</time>
      </trkpt>
      <trkpt lat="44.12793" lon="6.97207">
        <ele>2161</ele>
        <time>2021-05-13T08:36:52.940Z</time>
      </trkpt>
      <trkpt lat="44.12794" lon="6.97207">
        <ele>2161</ele>
        <time>2021-05-13T08:36:57.936Z</time>
      </trkpt>
      <trkpt lat="44.12798" lon="6.97209">
        <ele>2159</ele>
        <time>2021-05-13T08:37:02.938Z</time>
      </trkpt>
      <trkpt lat="44.12801" lon="6.97211">
        <ele>2159</ele>
        <time>2021-05-13T08:37:07.930Z</time>
      </trkpt>
      <trkpt lat="44.12804" lon="6.97213">
        <ele>2159</ele>
        <time>2021-05-13T08:37:12.937Z</time>
      </trkpt>
      <trkpt lat="44.12808" lon="6.97215">
        <ele>2159</ele>
        <time>2021-05-13T08:37:17.935Z</time>
      </trkpt>
      <trkpt lat="44.12811" lon="6.97217">
        <ele>2159</ele>
        <time>2021-05-13T08:37:21.934Z</time>
      </trkpt>
      <trkpt lat="44.12813" lon="6.97217">
        <ele>2159</ele>
        <time>2021-05-13T08:37:26.932Z</time>
      </trkpt>
      <trkpt lat="44.12816" lon="6.97218">
        <ele>2159</ele>
        <time>2021-05-13T08:37:31.933Z</time>
      </trkpt>
      <trkpt lat="44.1282" lon="6.97219">
        <ele>2171</ele>
        <time>2021-05-13T08:37:36.939Z</time>
      </trkpt>
      <trkpt lat="44.12823" lon="6.97221">
        <ele>2171</ele>
        <time>2021-05-13T08:37:41.929Z</time>
      </trkpt>
      <trkpt lat="44.12825" lon="6.97221">
        <ele>2171</ele>
        <time>2021-05-13T08:37:45.937Z</time>
      </trkpt>
      <trkpt lat="44.12827" lon="6.97222">
        <ele>2171</ele>
        <time>2021-05-13T08:37:50.935Z</time>
      </trkpt>
      <trkpt lat="44.12831" lon="6.97224">
        <ele>2171</ele>
        <time>2021-05-13T08:37:55.934Z</time>
      </trkpt>
      <trkpt lat="44.12833" lon="6.97225">
        <ele>2171</ele>
        <time>2021-05-13T08:38:00.938Z</time>
      </trkpt>
      <trkpt lat="44.12837" lon="6.97226">
        <ele>2171</ele>
        <time>2021-05-13T08:38:05.934Z</time>
      </trkpt>
      <trkpt lat="44.1284" lon="6.97228">
        <ele>2171</ele>
        <time>2021-05-13T08:38:10.937Z</time>
      </trkpt>
      <trkpt lat="44.12845" lon="6.97228">
        <ele>2171</ele>
        <time>2021-05-13T08:38:15.931Z</time>
      </trkpt>
      <trkpt lat="44.1285" lon="6.97229">
        <ele>2178</ele>
        <time>2021-05-13T08:38:20.932Z</time>
      </trkpt>
      <trkpt lat="44.12851" lon="6.9723">
        <ele>2178</ele>
        <time>2021-05-13T08:38:25.944Z</time>
      </trkpt>
      <trkpt lat="44.12856" lon="6.97231">
        <ele>2178</ele>
        <time>2021-05-13T08:38:30.928Z</time>
      </trkpt>
      <trkpt lat="44.12861" lon="6.97232">
        <ele>2178</ele>
        <time>2021-05-13T08:38:35.929Z</time>
      </trkpt>
      <trkpt lat="44.12864" lon="6.97233">
        <ele>2178</ele>
        <time>2021-05-13T08:38:40.937Z</time>
      </trkpt>
      <trkpt lat="44.12868" lon="6.97232">
        <ele>2178</ele>
        <time>2021-05-13T08:38:45.940Z</time>
      </trkpt>
      <trkpt lat="44.12871" lon="6.97234">
        <ele>2178</ele>
        <time>2021-05-13T08:38:50.937Z</time>
      </trkpt>
      <trkpt lat="44.12874" lon="6.97235">
        <ele>2178</ele>
        <time>2021-05-13T08:38:55.947Z</time>
      </trkpt>
      <trkpt lat="44.12876" lon="6.97235">
        <ele>2184</ele>
        <time>2021-05-13T08:39:00.931Z</time>
      </trkpt>
      <trkpt lat="44.12879" lon="6.97236">
        <ele>2179</ele>
        <time>2021-05-13T08:39:05.942Z</time>
      </trkpt>
      <trkpt lat="44.12883" lon="6.97236">
        <ele>2184</ele>
        <time>2021-05-13T08:39:10.933Z</time>
      </trkpt>
      <trkpt lat="44.12885" lon="6.97236">
        <ele>2184</ele>
        <time>2021-05-13T08:39:15.930Z</time>
      </trkpt>
      <trkpt lat="44.12887" lon="6.97236">
        <ele>2184</ele>
        <time>2021-05-13T08:39:20.938Z</time>
      </trkpt>
      <trkpt lat="44.12889" lon="6.97237">
        <ele>2179</ele>
        <time>2021-05-13T08:39:25.938Z</time>
      </trkpt>
      <trkpt lat="44.12892" lon="6.97238">
        <ele>2179</ele>
        <time>2021-05-13T08:39:30.935Z</time>
      </trkpt>
      <trkpt lat="44.12895" lon="6.97238">
        <ele>2179</ele>
        <time>2021-05-13T08:39:35.935Z</time>
      </trkpt>
      <trkpt lat="44.12898" lon="6.9724">
        <ele>2179</ele>
        <time>2021-05-13T08:39:40.934Z</time>
      </trkpt>
      <trkpt lat="44.12901" lon="6.9724">
        <ele>2179</ele>
        <time>2021-05-13T08:39:45.934Z</time>
      </trkpt>
      <trkpt lat="44.12902" lon="6.9724">
        <ele>2179</ele>
        <time>2021-05-13T08:39:50.947Z</time>
      </trkpt>
      <trkpt lat="44.12907" lon="6.97241">
        <ele>2186</ele>
        <time>2021-05-13T08:39:55.942Z</time>
      </trkpt>
      <trkpt lat="44.12909" lon="6.9724">
        <ele>2186</ele>
        <time>2021-05-13T08:39:59.935Z</time>
      </trkpt>
      <trkpt lat="44.12912" lon="6.97241">
        <ele>2186</ele>
        <time>2021-05-13T08:40:04.934Z</time>
      </trkpt>
      <trkpt lat="44.12915" lon="6.97241">
        <ele>2186</ele>
        <time>2021-05-13T08:40:09.931Z</time>
      </trkpt>
      <trkpt lat="44.12919" lon="6.97241">
        <ele>2186</ele>
        <time>2021-05-13T08:40:14.935Z</time>
      </trkpt>
      <trkpt lat="44.1292" lon="6.97244">
        <ele>2186</ele>
        <time>2021-05-13T08:40:19.932Z</time>
      </trkpt>
      <trkpt lat="44.12923" lon="6.97244">
        <ele>2186</ele>
        <time>2021-05-13T08:40:24.935Z</time>
      </trkpt>
      <trkpt lat="44.12927" lon="6.97244">
        <ele>2186</ele>
        <time>2021-05-13T08:40:29.931Z</time>
      </trkpt>
      <trkpt lat="44.12932" lon="6.97244">
        <ele>2196</ele>
        <time>2021-05-13T08:40:34.916Z</time>
      </trkpt>
      <trkpt lat="44.12936" lon="6.97245">
        <ele>2196</ele>
        <time>2021-05-13T08:40:38.933Z</time>
      </trkpt>
      <trkpt lat="44.1294" lon="6.97245">
        <ele>2196</ele>
        <time>2021-05-13T08:40:43.933Z</time>
      </trkpt>
      <trkpt lat="44.12943" lon="6.97247">
        <ele>2196</ele>
        <time>2021-05-13T08:40:48.948Z</time>
      </trkpt>
      <trkpt lat="44.12944" lon="6.9725">
        <ele>2196</ele>
        <time>2021-05-13T08:42:07.949Z</time>
      </trkpt>
      <trkpt lat="44.12948" lon="6.97249">
        <ele>2196</ele>
        <time>2021-05-13T08:42:12.955Z</time>
      </trkpt>
      <trkpt lat="44.12951" lon="6.97244">
        <ele>2196</ele>
        <time>2021-05-13T08:42:17.947Z</time>
      </trkpt>
      <trkpt lat="44.12952" lon="6.97237">
        <ele>2196</ele>
        <time>2021-05-13T08:42:22.941Z</time>
      </trkpt>
      <trkpt lat="44.12953" lon="6.97233">
        <ele>2205</ele>
        <time>2021-05-13T08:42:27.943Z</time>
      </trkpt>
      <trkpt lat="44.12952" lon="6.97228">
        <ele>2205</ele>
        <time>2021-05-13T08:42:32.951Z</time>
      </trkpt>
      <trkpt lat="44.12954" lon="6.97224">
        <ele>2205</ele>
        <time>2021-05-13T08:42:37.937Z</time>
      </trkpt>
      <trkpt lat="44.12955" lon="6.97218">
        <ele>2205</ele>
        <time>2021-05-13T08:42:42.950Z</time>
      </trkpt>
      <trkpt lat="44.12954" lon="6.97212">
        <ele>2205</ele>
        <time>2021-05-13T08:42:47.940Z</time>
      </trkpt>
      <trkpt lat="44.12953" lon="6.97208">
        <ele>2208</ele>
        <time>2021-05-13T08:42:51.944Z</time>
      </trkpt>
      <trkpt lat="44.12953" lon="6.97203">
        <ele>2208</ele>
        <time>2021-05-13T08:42:56.944Z</time>
      </trkpt>
      <trkpt lat="44.12955" lon="6.97197">
        <ele>2208</ele>
        <time>2021-05-13T08:43:01.945Z</time>
      </trkpt>
      <trkpt lat="44.12954" lon="6.97191">
        <ele>2208</ele>
        <time>2021-05-13T08:43:06.936Z</time>
      </trkpt>
      <trkpt lat="44.12955" lon="6.97187">
        <ele>2208</ele>
        <time>2021-05-13T08:43:11.948Z</time>
      </trkpt>
      <trkpt lat="44.12956" lon="6.97181">
        <ele>2208</ele>
        <time>2021-05-13T08:43:16.946Z</time>
      </trkpt>
      <trkpt lat="44.12956" lon="6.97176">
        <ele>2210</ele>
        <time>2021-05-13T08:43:21.945Z</time>
      </trkpt>
      <trkpt lat="44.12956" lon="6.97171">
        <ele>2210</ele>
        <time>2021-05-13T08:43:26.952Z</time>
      </trkpt>
      <trkpt lat="44.12957" lon="6.97166">
        <ele>2210</ele>
        <time>2021-05-13T08:43:31.942Z</time>
      </trkpt>
      <trkpt lat="44.12958" lon="6.97162">
        <ele>2210</ele>
        <time>2021-05-13T08:43:36.940Z</time>
      </trkpt>
      <trkpt lat="44.12959" lon="6.97158">
        <ele>2218</ele>
        <time>2021-05-13T08:43:41.948Z</time>
      </trkpt>
      <trkpt lat="44.1296" lon="6.97153">
        <ele>2218</ele>
        <time>2021-05-13T08:43:46.937Z</time>
      </trkpt>
      <trkpt lat="44.12967" lon="6.97144">
        <ele>2223</ele>
        <time>2021-05-13T08:44:11.944Z</time>
      </trkpt>
      <trkpt lat="44.12968" lon="6.97146">
        <ele>2223</ele>
        <time>2021-05-13T08:44:15.941Z</time>
      </trkpt>
      <trkpt lat="44.12971" lon="6.9715">
        <ele>2223</ele>
        <time>2021-05-13T08:44:20.939Z</time>
      </trkpt>
      <trkpt lat="44.12973" lon="6.97154">
        <ele>2218</ele>
        <time>2021-05-13T08:44:25.948Z</time>
      </trkpt>
      <trkpt lat="44.12974" lon="6.97157">
        <ele>2218</ele>
        <time>2021-05-13T08:44:30.943Z</time>
      </trkpt>
      <trkpt lat="44.12975" lon="6.97161">
        <ele>2218</ele>
        <time>2021-05-13T08:44:35.944Z</time>
      </trkpt>
      <trkpt lat="44.12975" lon="6.97164">
        <ele>2218</ele>
        <time>2021-05-13T08:44:39.941Z</time>
      </trkpt>
      <trkpt lat="44.12977" lon="6.97167">
        <ele>2218</ele>
        <time>2021-05-13T08:44:44.944Z</time>
      </trkpt>
      <trkpt lat="44.12979" lon="6.97169">
        <ele>2218</ele>
        <time>2021-05-13T08:44:49.954Z</time>
      </trkpt>
      <trkpt lat="44.12981" lon="6.97172">
        <ele>2218</ele>
        <time>2021-05-13T08:44:54.948Z</time>
      </trkpt>
      <trkpt lat="44.12983" lon="6.97176">
        <ele>2218</ele>
        <time>2021-05-13T08:44:59.941Z</time>
      </trkpt>
      <trkpt lat="44.12984" lon="6.97181">
        <ele>2213</ele>
        <time>2021-05-13T08:45:04.946Z</time>
      </trkpt>
      <trkpt lat="44.12985" lon="6.97183">
        <ele>2213</ele>
        <time>2021-05-13T08:45:08.943Z</time>
      </trkpt>
      <trkpt lat="44.12988" lon="6.97187">
        <ele>2223</ele>
        <time>2021-05-13T08:45:13.941Z</time>
      </trkpt>
      <trkpt lat="44.1299" lon="6.9719">
        <ele>2223</ele>
        <time>2021-05-13T08:45:18.941Z</time>
      </trkpt>
      <trkpt lat="44.12992" lon="6.97193">
        <ele>2223</ele>
        <time>2021-05-13T08:45:23.938Z</time>
      </trkpt>
      <trkpt lat="44.12994" lon="6.97197">
        <ele>2223</ele>
        <time>2021-05-13T08:45:28.938Z</time>
      </trkpt>
      <trkpt lat="44.12995" lon="6.97202">
        <ele>2223</ele>
        <time>2021-05-13T08:45:33.941Z</time>
      </trkpt>
      <trkpt lat="44.12997" lon="6.97205">
        <ele>2223</ele>
        <time>2021-05-13T08:45:38.942Z</time>
      </trkpt>
      <trkpt lat="44.12998" lon="6.97207">
        <ele>2223</ele>
        <time>2021-05-13T08:45:43.941Z</time>
      </trkpt>
      <trkpt lat="44.13001" lon="6.9721">
        <ele>2219</ele>
        <time>2021-05-13T08:45:48.950Z</time>
      </trkpt>
      <trkpt lat="44.13004" lon="6.97212">
        <ele>2219</ele>
        <time>2021-05-13T08:45:53.936Z</time>
      </trkpt>
      <trkpt lat="44.13007" lon="6.97214">
        <ele>2219</ele>
        <time>2021-05-13T08:45:58.941Z</time>
      </trkpt>
      <trkpt lat="44.13009" lon="6.97217">
        <ele>2219</ele>
        <time>2021-05-13T08:46:03.945Z</time>
      </trkpt>
      <trkpt lat="44.13013" lon="6.97219">
        <ele>2219</ele>
        <time>2021-05-13T08:46:08.957Z</time>
      </trkpt>
      <trkpt lat="44.13016" lon="6.97221">
        <ele>2225</ele>
        <time>2021-05-13T08:46:13.949Z</time>
      </trkpt>
      <trkpt lat="44.13018" lon="6.97225">
        <ele>2225</ele>
        <time>2021-05-13T08:46:18.942Z</time>
      </trkpt>
      <trkpt lat="44.13021" lon="6.97226">
        <ele>2225</ele>
        <time>2021-05-13T08:46:23.940Z</time>
      </trkpt>
      <trkpt lat="44.13024" lon="6.97228">
        <ele>2225</ele>
        <time>2021-05-13T08:46:28.937Z</time>
      </trkpt>
      <trkpt lat="44.13026" lon="6.97228">
        <ele>2225</ele>
        <time>2021-05-13T08:46:32.948Z</time>
      </trkpt>
      <trkpt lat="44.13029" lon="6.9723">
        <ele>2225</ele>
        <time>2021-05-13T08:46:37.940Z</time>
      </trkpt>
      <trkpt lat="44.13032" lon="6.97232">
        <ele>2225</ele>
        <time>2021-05-13T08:46:42.943Z</time>
      </trkpt>
      <trkpt lat="44.13033" lon="6.97229">
        <ele>2225</ele>
        <time>2021-05-13T08:46:47.947Z</time>
      </trkpt>
      <trkpt lat="44.13032" lon="6.97225">
        <ele>2225</ele>
        <time>2021-05-13T08:46:52.943Z</time>
      </trkpt>
      <trkpt lat="44.13031" lon="6.97222">
        <ele>2225</ele>
        <time>2021-05-13T08:46:56.938Z</time>
      </trkpt>
      <trkpt lat="44.1303" lon="6.97217">
        <ele>2225</ele>
        <time>2021-05-13T08:47:01.941Z</time>
      </trkpt>
      <trkpt lat="44.13031" lon="6.97214">
        <ele>2225</ele>
        <time>2021-05-13T08:47:06.940Z</time>
      </trkpt>
      <trkpt lat="44.1303" lon="6.97211">
        <ele>2225</ele>
        <time>2021-05-13T08:47:11.941Z</time>
      </trkpt>
      <trkpt lat="44.1303" lon="6.97208">
        <ele>2225</ele>
        <time>2021-05-13T08:47:16.941Z</time>
      </trkpt>
      <trkpt lat="44.13028" lon="6.97202">
        <ele>2233</ele>
        <time>2021-05-13T08:47:21.946Z</time>
      </trkpt>
      <trkpt lat="44.13029" lon="6.97193">
        <ele>2233</ele>
        <time>2021-05-13T08:47:30.950Z</time>
      </trkpt>
      <trkpt lat="44.13032" lon="6.97195">
        <ele>2233</ele>
        <time>2021-05-13T08:47:35.949Z</time>
      </trkpt>
      <trkpt lat="44.13034" lon="6.97197">
        <ele>2233</ele>
        <time>2021-05-13T08:47:40.946Z</time>
      </trkpt>
      <trkpt lat="44.13037" lon="6.972">
        <ele>2233</ele>
        <time>2021-05-13T08:47:45.941Z</time>
      </trkpt>
      <trkpt lat="44.13039" lon="6.97203">
        <ele>2233</ele>
        <time>2021-05-13T08:47:50.937Z</time>
      </trkpt>
      <trkpt lat="44.13043" lon="6.97204">
        <ele>2241</ele>
        <time>2021-05-13T08:47:55.942Z</time>
      </trkpt>
      <trkpt lat="44.13047" lon="6.97206">
        <ele>2241</ele>
        <time>2021-05-13T08:48:00.938Z</time>
      </trkpt>
      <trkpt lat="44.13049" lon="6.97208">
        <ele>2241</ele>
        <time>2021-05-13T08:48:05.941Z</time>
      </trkpt>
      <trkpt lat="44.13053" lon="6.97207">
        <ele>2241</ele>
        <time>2021-05-13T08:48:10.941Z</time>
      </trkpt>
      <trkpt lat="44.13058" lon="6.97206">
        <ele>2241</ele>
        <time>2021-05-13T08:48:14.947Z</time>
      </trkpt>
      <trkpt lat="44.13062" lon="6.97207">
        <ele>2241</ele>
        <time>2021-05-13T08:48:19.937Z</time>
      </trkpt>
      <trkpt lat="44.13065" lon="6.97208">
        <ele>2241</ele>
        <time>2021-05-13T08:48:24.953Z</time>
      </trkpt>
      <trkpt lat="44.13068" lon="6.97209">
        <ele>2230</ele>
        <time>2021-05-13T08:48:28.955Z</time>
      </trkpt>
      <trkpt lat="44.1307" lon="6.97206">
        <ele>2251</ele>
        <time>2021-05-13T08:48:33.944Z</time>
      </trkpt>
      <trkpt lat="44.1307" lon="6.97203">
        <ele>2251</ele>
        <time>2021-05-13T08:48:37.950Z</time>
      </trkpt>
      <trkpt lat="44.13069" lon="6.97199">
        <ele>2241</ele>
        <time>2021-05-13T08:48:42.939Z</time>
      </trkpt>
      <trkpt lat="44.13068" lon="6.97196">
        <ele>2241</ele>
        <time>2021-05-13T08:48:47.946Z</time>
      </trkpt>
      <trkpt lat="44.13068" lon="6.97192">
        <ele>2241</ele>
        <time>2021-05-13T08:48:52.950Z</time>
      </trkpt>
      <trkpt lat="44.13068" lon="6.97188">
        <ele>2241</ele>
        <time>2021-05-13T08:48:57.948Z</time>
      </trkpt>
      <trkpt lat="44.13068" lon="6.97183">
        <ele>2241</ele>
        <time>2021-05-13T08:49:02.955Z</time>
      </trkpt>
      <trkpt lat="44.13067" lon="6.9718">
        <ele>2250</ele>
        <time>2021-05-13T08:49:06.956Z</time>
      </trkpt>
      <trkpt lat="44.13068" lon="6.97175">
        <ele>2250</ele>
        <time>2021-05-13T08:49:11.946Z</time>
      </trkpt>
      <trkpt lat="44.13067" lon="6.9717">
        <ele>2250</ele>
        <time>2021-05-13T08:49:16.951Z</time>
      </trkpt>
      <trkpt lat="44.13068" lon="6.97166">
        <ele>2250</ele>
        <time>2021-05-13T08:49:21.942Z</time>
      </trkpt>
      <trkpt lat="44.13068" lon="6.97162">
        <ele>2250</ele>
        <time>2021-05-13T08:49:25.945Z</time>
      </trkpt>
      <trkpt lat="44.13069" lon="6.97157">
        <ele>2250</ele>
        <time>2021-05-13T08:49:30.948Z</time>
      </trkpt>
      <trkpt lat="44.13071" lon="6.97147">
        <ele>2262</ele>
        <time>2021-05-13T08:49:40.943Z</time>
      </trkpt>
      <trkpt lat="44.13071" lon="6.97145">
        <ele>2262</ele>
        <time>2021-05-13T08:49:44.964Z</time>
      </trkpt>
      <trkpt lat="44.13072" lon="6.97142">
        <ele>2262</ele>
        <time>2021-05-13T08:49:49.956Z</time>
      </trkpt>
      <trkpt lat="44.13072" lon="6.97139">
        <ele>2262</ele>
        <time>2021-05-13T08:49:54.946Z</time>
      </trkpt>
      <trkpt lat="44.13073" lon="6.97135">
        <ele>2262</ele>
        <time>2021-05-13T08:49:59.946Z</time>
      </trkpt>
      <trkpt lat="44.13073" lon="6.9713">
        <ele>2262</ele>
        <time>2021-05-13T08:50:04.942Z</time>
      </trkpt>
      <trkpt lat="44.13073" lon="6.97125">
        <ele>2262</ele>
        <time>2021-05-13T08:50:09.945Z</time>
      </trkpt>
      <trkpt lat="44.13074" lon="6.9712">
        <ele>2264</ele>
        <time>2021-05-13T08:50:14.954Z</time>
      </trkpt>
      <trkpt lat="44.13075" lon="6.97117">
        <ele>2264</ele>
        <time>2021-05-13T08:50:19.941Z</time>
      </trkpt>
      <trkpt lat="44.13078" lon="6.97117">
        <ele>2264</ele>
        <time>2021-05-13T08:50:29.952Z</time>
      </trkpt>
      <trkpt lat="44.1308" lon="6.97119">
        <ele>2264</ele>
        <time>2021-05-13T08:50:34.940Z</time>
      </trkpt>
      <trkpt lat="44.13082" lon="6.97121">
        <ele>2264</ele>
        <time>2021-05-13T08:50:38.951Z</time>
      </trkpt>
      <trkpt lat="44.13084" lon="6.97123">
        <ele>2264</ele>
        <time>2021-05-13T08:50:43.937Z</time>
      </trkpt>
      <trkpt lat="44.13087" lon="6.97127">
        <ele>2262</ele>
        <time>2021-05-13T08:50:48.948Z</time>
      </trkpt>
      <trkpt lat="44.13088" lon="6.97131">
        <ele>2262</ele>
        <time>2021-05-13T08:50:53.942Z</time>
      </trkpt>
      <trkpt lat="44.13089" lon="6.97134">
        <ele>2262</ele>
        <time>2021-05-13T08:50:57.948Z</time>
      </trkpt>
      <trkpt lat="44.13092" lon="6.97136">
        <ele>2262</ele>
        <time>2021-05-13T08:51:02.945Z</time>
      </trkpt>
      <trkpt lat="44.13094" lon="6.97139">
        <ele>2262</ele>
        <time>2021-05-13T08:51:07.937Z</time>
      </trkpt>
      <trkpt lat="44.13096" lon="6.97142">
        <ele>2262</ele>
        <time>2021-05-13T08:51:12.941Z</time>
      </trkpt>
      <trkpt lat="44.13098" lon="6.97144">
        <ele>2269</ele>
        <time>2021-05-13T08:51:16.939Z</time>
      </trkpt>
      <trkpt lat="44.13101" lon="6.97141">
        <ele>2269</ele>
        <time>2021-05-13T08:51:21.938Z</time>
      </trkpt>
      <trkpt lat="44.13101" lon="6.97137">
        <ele>2269</ele>
        <time>2021-05-13T08:51:26.937Z</time>
      </trkpt>
      <trkpt lat="44.13102" lon="6.97134">
        <ele>2269</ele>
        <time>2021-05-13T08:51:31.942Z</time>
      </trkpt>
      <trkpt lat="44.13103" lon="6.9713">
        <ele>2269</ele>
        <time>2021-05-13T08:51:35.951Z</time>
      </trkpt>
      <trkpt lat="44.13102" lon="6.97126">
        <ele>2269</ele>
        <time>2021-05-13T08:51:40.958Z</time>
      </trkpt>
      <trkpt lat="44.13102" lon="6.97121">
        <ele>2274</ele>
        <time>2021-05-13T08:51:45.961Z</time>
      </trkpt>
      <trkpt lat="44.13102" lon="6.97116">
        <ele>2274</ele>
        <time>2021-05-13T08:51:50.950Z</time>
      </trkpt>
      <trkpt lat="44.13102" lon="6.97111">
        <ele>2274</ele>
        <time>2021-05-13T08:51:55.941Z</time>
      </trkpt>
      <trkpt lat="44.13103" lon="6.97106">
        <ele>2274</ele>
        <time>2021-05-13T08:52:00.946Z</time>
      </trkpt>
      <trkpt lat="44.13105" lon="6.97103">
        <ele>2274</ele>
        <time>2021-05-13T08:52:05.958Z</time>
      </trkpt>
      <trkpt lat="44.13106" lon="6.971">
        <ele>2274</ele>
        <time>2021-05-13T08:52:10.953Z</time>
      </trkpt>
      <trkpt lat="44.13108" lon="6.97095">
        <ele>2277</ele>
        <time>2021-05-13T08:52:15.947Z</time>
      </trkpt>
      <trkpt lat="44.1311" lon="6.97091">
        <ele>2277</ele>
        <time>2021-05-13T08:52:20.950Z</time>
      </trkpt>
      <trkpt lat="44.1311" lon="6.97087">
        <ele>2277</ele>
        <time>2021-05-13T08:52:25.953Z</time>
      </trkpt>
      <trkpt lat="44.1311" lon="6.97083">
        <ele>2277</ele>
        <time>2021-05-13T08:52:30.948Z</time>
      </trkpt>
      <trkpt lat="44.1311" lon="6.97077">
        <ele>2277</ele>
        <time>2021-05-13T08:52:35.956Z</time>
      </trkpt>
      <trkpt lat="44.13118" lon="6.97071">
        <ele>2277</ele>
        <time>2021-05-13T08:53:20.937Z</time>
      </trkpt>
      <trkpt lat="44.1312" lon="6.97073">
        <ele>2277</ele>
        <time>2021-05-13T08:53:25.954Z</time>
      </trkpt>
      <trkpt lat="44.13122" lon="6.97077">
        <ele>2277</ele>
        <time>2021-05-13T08:53:30.945Z</time>
      </trkpt>
      <trkpt lat="44.13124" lon="6.9708">
        <ele>2277</ele>
        <time>2021-05-13T08:53:34.951Z</time>
      </trkpt>
      <trkpt lat="44.13127" lon="6.97083">
        <ele>2282</ele>
        <time>2021-05-13T08:53:39.940Z</time>
      </trkpt>
      <trkpt lat="44.1313" lon="6.97086">
        <ele>2282</ele>
        <time>2021-05-13T08:53:44.943Z</time>
      </trkpt>
      <trkpt lat="44.13134" lon="6.97088">
        <ele>2282</ele>
        <time>2021-05-13T08:53:49.939Z</time>
      </trkpt>
      <trkpt lat="44.13137" lon="6.97088">
        <ele>2282</ele>
        <time>2021-05-13T08:53:54.955Z</time>
      </trkpt>
      <trkpt lat="44.13139" lon="6.97085">
        <ele>2282</ele>
        <time>2021-05-13T08:53:59.954Z</time>
      </trkpt>
      <trkpt lat="44.1314" lon="6.97081">
        <ele>2282</ele>
        <time>2021-05-13T08:54:04.938Z</time>
      </trkpt>
      <trkpt lat="44.13142" lon="6.97071">
        <ele>2282</ele>
        <time>2021-05-13T08:54:24.945Z</time>
      </trkpt>
      <trkpt lat="44.13143" lon="6.97069">
        <ele>2287</ele>
        <time>2021-05-13T08:54:29.942Z</time>
      </trkpt>
      <trkpt lat="44.13144" lon="6.97064">
        <ele>2287</ele>
        <time>2021-05-13T08:54:34.942Z</time>
      </trkpt>
      <trkpt lat="44.13144" lon="6.97059">
        <ele>2287</ele>
        <time>2021-05-13T08:54:39.941Z</time>
      </trkpt>
      <trkpt lat="44.13145" lon="6.97054">
        <ele>2287</ele>
        <time>2021-05-13T08:54:44.940Z</time>
      </trkpt>
      <trkpt lat="44.13145" lon="6.97049">
        <ele>2287</ele>
        <time>2021-05-13T08:54:49.939Z</time>
      </trkpt>
      <trkpt lat="44.13147" lon="6.97044">
        <ele>2287</ele>
        <time>2021-05-13T08:54:54.950Z</time>
      </trkpt>
      <trkpt lat="44.13149" lon="6.97038">
        <ele>2289</ele>
        <time>2021-05-13T08:54:59.960Z</time>
      </trkpt>
      <trkpt lat="44.13151" lon="6.97032">
        <ele>2289</ele>
        <time>2021-05-13T08:55:04.950Z</time>
      </trkpt>
      <trkpt lat="44.13153" lon="6.97029">
        <ele>2298</ele>
        <time>2021-05-13T08:55:09.943Z</time>
      </trkpt>
      <trkpt lat="44.13155" lon="6.97025">
        <ele>2298</ele>
        <time>2021-05-13T08:55:14.944Z</time>
      </trkpt>
      <trkpt lat="44.13157" lon="6.97021">
        <ele>2298</ele>
        <time>2021-05-13T08:55:19.944Z</time>
      </trkpt>
      <trkpt lat="44.13159" lon="6.9702">
        <ele>2298</ele>
        <time>2021-05-13T08:55:24.948Z</time>
      </trkpt>
      <trkpt lat="44.13161" lon="6.97016">
        <ele>2298</ele>
        <time>2021-05-13T08:55:29.944Z</time>
      </trkpt>
      <trkpt lat="44.13164" lon="6.97013">
        <ele>2301</ele>
        <time>2021-05-13T08:55:33.951Z</time>
      </trkpt>
      <trkpt lat="44.13167" lon="6.97008">
        <ele>2301</ele>
        <time>2021-05-13T08:55:38.944Z</time>
      </trkpt>
      <trkpt lat="44.1317" lon="6.97003">
        <ele>2301</ele>
        <time>2021-05-13T08:55:43.941Z</time>
      </trkpt>
      <trkpt lat="44.13173" lon="6.96999">
        <ele>2301</ele>
        <time>2021-05-13T08:55:48.946Z</time>
      </trkpt>
      <trkpt lat="44.13175" lon="6.96994">
        <ele>2301</ele>
        <time>2021-05-13T08:55:53.952Z</time>
      </trkpt>
      <trkpt lat="44.13177" lon="6.96991">
        <ele>2301</ele>
        <time>2021-05-13T08:55:58.955Z</time>
      </trkpt>
      <trkpt lat="44.13179" lon="6.96987">
        <ele>2301</ele>
        <time>2021-05-13T08:56:03.953Z</time>
      </trkpt>
      <trkpt lat="44.13181" lon="6.96983">
        <ele>2311</ele>
        <time>2021-05-13T08:56:08.944Z</time>
      </trkpt>
      <trkpt lat="44.1319" lon="6.96974">
        <ele>2311</ele>
        <time>2021-05-13T08:56:33.944Z</time>
      </trkpt>
      <trkpt lat="44.13191" lon="6.96977">
        <ele>2311</ele>
        <time>2021-05-13T08:56:38.943Z</time>
      </trkpt>
      <trkpt lat="44.13193" lon="6.96981">
        <ele>2311</ele>
        <time>2021-05-13T08:56:43.945Z</time>
      </trkpt>
      <trkpt lat="44.13194" lon="6.96985">
        <ele>2311</ele>
        <time>2021-05-13T08:56:48.942Z</time>
      </trkpt>
      <trkpt lat="44.13196" lon="6.96987">
        <ele>2306</ele>
        <time>2021-05-13T08:56:52.948Z</time>
      </trkpt>
      <trkpt lat="44.13197" lon="6.96992">
        <ele>2306</ele>
        <time>2021-05-13T08:56:57.929Z</time>
      </trkpt>
      <trkpt lat="44.13197" lon="6.96995">
        <ele>2306</ele>
        <time>2021-05-13T08:57:01.954Z</time>
      </trkpt>
      <trkpt lat="44.13201" lon="6.96997">
        <ele>2306</ele>
        <time>2021-05-13T08:57:06.941Z</time>
      </trkpt>
      <trkpt lat="44.13204" lon="6.96996">
        <ele>2306</ele>
        <time>2021-05-13T08:57:10.940Z</time>
      </trkpt>
      <trkpt lat="44.13206" lon="6.96991">
        <ele>2306</ele>
        <time>2021-05-13T08:57:15.957Z</time>
      </trkpt>
      <trkpt lat="44.13207" lon="6.96986">
        <ele>2311</ele>
        <time>2021-05-13T08:57:20.945Z</time>
      </trkpt>
      <trkpt lat="44.13208" lon="6.96981">
        <ele>2311</ele>
        <time>2021-05-13T08:57:25.942Z</time>
      </trkpt>
      <trkpt lat="44.13208" lon="6.96975">
        <ele>2311</ele>
        <time>2021-05-13T08:57:30.959Z</time>
      </trkpt>
      <trkpt lat="44.13211" lon="6.96972">
        <ele>2316</ele>
        <time>2021-05-13T08:57:35.948Z</time>
      </trkpt>
      <trkpt lat="44.13214" lon="6.96969">
        <ele>2316</ele>
        <time>2021-05-13T08:57:40.941Z</time>
      </trkpt>
      <trkpt lat="44.13216" lon="6.9697">
        <ele>2316</ele>
        <time>2021-05-13T08:57:45.940Z</time>
      </trkpt>
      <trkpt lat="44.13217" lon="6.96969">
        <ele>2316</ele>
        <time>2021-05-13T08:57:50.938Z</time>
      </trkpt>
      <trkpt lat="44.13221" lon="6.96967">
        <ele>2316</ele>
        <time>2021-05-13T08:57:55.945Z</time>
      </trkpt>
      <trkpt lat="44.13223" lon="6.96964">
        <ele>2316</ele>
        <time>2021-05-13T08:58:00.939Z</time>
      </trkpt>
      <trkpt lat="44.13224" lon="6.9696">
        <ele>2316</ele>
        <time>2021-05-13T08:58:05.956Z</time>
      </trkpt>
      <trkpt lat="44.13225" lon="6.96956">
        <ele>2321</ele>
        <time>2021-05-13T08:58:10.943Z</time>
      </trkpt>
      <trkpt lat="44.13224" lon="6.96952">
        <ele>2321</ele>
        <time>2021-05-13T08:58:15.946Z</time>
      </trkpt>
      <trkpt lat="44.13226" lon="6.96948">
        <ele>2321</ele>
        <time>2021-05-13T08:58:20.941Z</time>
      </trkpt>
      <trkpt lat="44.13227" lon="6.96944">
        <ele>2321</ele>
        <time>2021-05-13T08:58:25.942Z</time>
      </trkpt>
      <trkpt lat="44.13227" lon="6.9694">
        <ele>2321</ele>
        <time>2021-05-13T08:58:30.948Z</time>
      </trkpt>
      <trkpt lat="44.13228" lon="6.96937">
        <ele>2321</ele>
        <time>2021-05-13T08:58:35.941Z</time>
      </trkpt>
      <trkpt lat="44.13228" lon="6.96932">
        <ele>2321</ele>
        <time>2021-05-13T08:58:40.941Z</time>
      </trkpt>
      <trkpt lat="44.13229" lon="6.96927">
        <ele>2324</ele>
        <time>2021-05-13T08:58:45.939Z</time>
      </trkpt>
      <trkpt lat="44.13228" lon="6.96922">
        <ele>2324</ele>
        <time>2021-05-13T08:58:49.949Z</time>
      </trkpt>
      <trkpt lat="44.13229" lon="6.96917">
        <ele>2324</ele>
        <time>2021-05-13T08:58:54.937Z</time>
      </trkpt>
      <trkpt lat="44.1323" lon="6.96912">
        <ele>2324</ele>
        <time>2021-05-13T08:58:59.947Z</time>
      </trkpt>
      <trkpt lat="44.1323" lon="6.96908">
        <ele>2324</ele>
        <time>2021-05-13T08:59:04.952Z</time>
      </trkpt>
      <trkpt lat="44.13231" lon="6.96903">
        <ele>2324</ele>
        <time>2021-05-13T08:59:09.944Z</time>
      </trkpt>
      <trkpt lat="44.13233" lon="6.96901">
        <ele>2326</ele>
        <time>2021-05-13T08:59:14.946Z</time>
      </trkpt>
      <trkpt lat="44.13235" lon="6.96902">
        <ele>2326</ele>
        <time>2021-05-13T08:59:19.947Z</time>
      </trkpt>
      <trkpt lat="44.13239" lon="6.96904">
        <ele>2332</ele>
        <time>2021-05-13T08:59:29.940Z</time>
      </trkpt>
      <trkpt lat="44.13241" lon="6.96907">
        <ele>2332</ele>
        <time>2021-05-13T08:59:34.921Z</time>
      </trkpt>
      <trkpt lat="44.13244" lon="6.96908">
        <ele>2332</ele>
        <time>2021-05-13T08:59:38.955Z</time>
      </trkpt>
      <trkpt lat="44.13246" lon="6.96908">
        <ele>2332</ele>
        <time>2021-05-13T08:59:43.937Z</time>
      </trkpt>
      <trkpt lat="44.1325" lon="6.96908">
        <ele>2332</ele>
        <time>2021-05-13T08:59:47.944Z</time>
      </trkpt>
      <trkpt lat="44.13254" lon="6.96909">
        <ele>2332</ele>
        <time>2021-05-13T08:59:52.945Z</time>
      </trkpt>
      <trkpt lat="44.13259" lon="6.96907">
        <ele>2332</ele>
        <time>2021-05-13T08:59:57.937Z</time>
      </trkpt>
      <trkpt lat="44.13262" lon="6.96906">
        <ele>2332</ele>
        <time>2021-05-13T09:00:02.942Z</time>
      </trkpt>
      <trkpt lat="44.13265" lon="6.96904">
        <ele>2338</ele>
        <time>2021-05-13T09:00:07.954Z</time>
      </trkpt>
      <trkpt lat="44.13265" lon="6.969">
        <ele>2341</ele>
        <time>2021-05-13T09:00:12.952Z</time>
      </trkpt>
      <trkpt lat="44.13264" lon="6.96897">
        <ele>2335</ele>
        <time>2021-05-13T09:00:17.940Z</time>
      </trkpt>
      <trkpt lat="44.13265" lon="6.96895">
        <ele>2341</ele>
        <time>2021-05-13T09:00:22.951Z</time>
      </trkpt>
      <trkpt lat="44.13265" lon="6.9689">
        <ele>2341</ele>
        <time>2021-05-13T09:00:27.940Z</time>
      </trkpt>
      <trkpt lat="44.13265" lon="6.96886">
        <ele>2341</ele>
        <time>2021-05-13T09:00:32.939Z</time>
      </trkpt>
      <trkpt lat="44.13265" lon="6.96881">
        <ele>2341</ele>
        <time>2021-05-13T09:00:37.945Z</time>
      </trkpt>
      <trkpt lat="44.13266" lon="6.96876">
        <ele>2341</ele>
        <time>2021-05-13T09:00:41.942Z</time>
      </trkpt>
      <trkpt lat="44.13268" lon="6.96871">
        <ele>2344</ele>
        <time>2021-05-13T09:00:46.952Z</time>
      </trkpt>
      <trkpt lat="44.1327" lon="6.96869">
        <ele>2344</ele>
        <time>2021-05-13T09:00:51.937Z</time>
      </trkpt>
      <trkpt lat="44.13272" lon="6.96865">
        <ele>2344</ele>
        <time>2021-05-13T09:00:56.945Z</time>
      </trkpt>
      <trkpt lat="44.13274" lon="6.96865">
        <ele>2344</ele>
        <time>2021-05-13T09:01:01.947Z</time>
      </trkpt>
      <trkpt lat="44.13276" lon="6.96861">
        <ele>2344</ele>
        <time>2021-05-13T09:01:06.942Z</time>
      </trkpt>
      <trkpt lat="44.13279" lon="6.96857">
        <ele>2344</ele>
        <time>2021-05-13T09:01:11.937Z</time>
      </trkpt>
      <trkpt lat="44.1328" lon="6.96854">
        <ele>2344</ele>
        <time>2021-05-13T09:01:15.941Z</time>
      </trkpt>
      <trkpt lat="44.13282" lon="6.96851">
        <ele>2344</ele>
        <time>2021-05-13T09:01:20.944Z</time>
      </trkpt>
      <trkpt lat="44.13282" lon="6.96846">
        <ele>2347</ele>
        <time>2021-05-13T09:01:25.937Z</time>
      </trkpt>
      <trkpt lat="44.13282" lon="6.96843">
        <ele>2347</ele>
        <time>2021-05-13T09:01:30.938Z</time>
      </trkpt>
      <trkpt lat="44.13285" lon="6.96838">
        <ele>2347</ele>
        <time>2021-05-13T09:01:35.946Z</time>
      </trkpt>
      <trkpt lat="44.13286" lon="6.96833">
        <ele>2347</ele>
        <time>2021-05-13T09:01:40.957Z</time>
      </trkpt>
      <trkpt lat="44.13287" lon="6.96828">
        <ele>2347</ele>
        <time>2021-05-13T09:01:45.946Z</time>
      </trkpt>
      <trkpt lat="44.13287" lon="6.96823">
        <ele>2347</ele>
        <time>2021-05-13T09:01:50.945Z</time>
      </trkpt>
      <trkpt lat="44.1329" lon="6.96818">
        <ele>2349</ele>
        <time>2021-05-13T09:01:55.940Z</time>
      </trkpt>
      <trkpt lat="44.13289" lon="6.96813">
        <ele>2349</ele>
        <time>2021-05-13T09:02:00.937Z</time>
      </trkpt>
      <trkpt lat="44.13291" lon="6.96809">
        <ele>2349</ele>
        <time>2021-05-13T09:02:05.952Z</time>
      </trkpt>
      <trkpt lat="44.13291" lon="6.96804">
        <ele>2349</ele>
        <time>2021-05-13T09:02:10.936Z</time>
      </trkpt>
      <trkpt lat="44.13291" lon="6.968">
        <ele>2349</ele>
        <time>2021-05-13T09:02:15.941Z</time>
      </trkpt>
      <trkpt lat="44.1329" lon="6.96795">
        <ele>2349</ele>
        <time>2021-05-13T09:02:19.959Z</time>
      </trkpt>
      <trkpt lat="44.1329" lon="6.96791">
        <ele>2352</ele>
        <time>2021-05-13T09:02:24.940Z</time>
      </trkpt>
      <trkpt lat="44.13292" lon="6.96787">
        <ele>2352</ele>
        <time>2021-05-13T09:02:29.953Z</time>
      </trkpt>
      <trkpt lat="44.13292" lon="6.96783">
        <ele>2362</ele>
        <time>2021-05-13T09:02:34.938Z</time>
      </trkpt>
      <trkpt lat="44.13293" lon="6.96777">
        <ele>2362</ele>
        <time>2021-05-13T09:02:39.957Z</time>
      </trkpt>
      <trkpt lat="44.13293" lon="6.96773">
        <ele>2362</ele>
        <time>2021-05-13T09:02:44.945Z</time>
      </trkpt>
      <trkpt lat="44.13294" lon="6.96769">
        <ele>2362</ele>
        <time>2021-05-13T09:02:49.940Z</time>
      </trkpt>
      <trkpt lat="44.13294" lon="6.96765">
        <ele>2362</ele>
        <time>2021-05-13T09:02:53.956Z</time>
      </trkpt>
      <trkpt lat="44.13295" lon="6.96762">
        <ele>2368</ele>
        <time>2021-05-13T09:02:58.945Z</time>
      </trkpt>
      <trkpt lat="44.13296" lon="6.96759">
        <ele>2368</ele>
        <time>2021-05-13T09:03:03.939Z</time>
      </trkpt>
      <trkpt lat="44.13295" lon="6.96753">
        <ele>2368</ele>
        <time>2021-05-13T09:03:08.944Z</time>
      </trkpt>
      <trkpt lat="44.13295" lon="6.96748">
        <ele>2368</ele>
        <time>2021-05-13T09:03:13.944Z</time>
      </trkpt>
      <trkpt lat="44.13295" lon="6.96743">
        <ele>2368</ele>
        <time>2021-05-13T09:03:18.951Z</time>
      </trkpt>
      <trkpt lat="44.13295" lon="6.96738">
        <ele>2368</ele>
        <time>2021-05-13T09:03:23.928Z</time>
      </trkpt>
      <trkpt lat="44.13295" lon="6.96734">
        <ele>2372</ele>
        <time>2021-05-13T09:03:28.941Z</time>
      </trkpt>
      <trkpt lat="44.13296" lon="6.9673">
        <ele>2372</ele>
        <time>2021-05-13T09:03:33.940Z</time>
      </trkpt>
      <trkpt lat="44.13296" lon="6.96727">
        <ele>2372</ele>
        <time>2021-05-13T09:03:38.938Z</time>
      </trkpt>
      <trkpt lat="44.13295" lon="6.96722">
        <ele>2372</ele>
        <time>2021-05-13T09:03:43.945Z</time>
      </trkpt>
      <trkpt lat="44.13295" lon="6.96716">
        <ele>2372</ele>
        <time>2021-05-13T09:03:53.941Z</time>
      </trkpt>
      <trkpt lat="44.13295" lon="6.96713">
        <ele>2372</ele>
        <time>2021-05-13T09:03:58.934Z</time>
      </trkpt>
      <trkpt lat="44.13295" lon="6.96708">
        <ele>2372</ele>
        <time>2021-05-13T09:04:03.938Z</time>
      </trkpt>
      <trkpt lat="44.13295" lon="6.96705">
        <ele>2375</ele>
        <time>2021-05-13T09:04:08.935Z</time>
      </trkpt>
      <trkpt lat="44.13294" lon="6.96703">
        <ele>2375</ele>
        <time>2021-05-13T09:04:13.948Z</time>
      </trkpt>
      <trkpt lat="44.13295" lon="6.96695">
        <ele>2375</ele>
        <time>2021-05-13T09:04:23.950Z</time>
      </trkpt>
      <trkpt lat="44.13296" lon="6.96692">
        <ele>2375</ele>
        <time>2021-05-13T09:04:28.946Z</time>
      </trkpt>
      <trkpt lat="44.13295" lon="6.96689">
        <ele>2375</ele>
        <time>2021-05-13T09:04:33.938Z</time>
      </trkpt>
      <trkpt lat="44.13295" lon="6.96687">
        <ele>2375</ele>
        <time>2021-05-13T09:04:37.949Z</time>
      </trkpt>
      <trkpt lat="44.13296" lon="6.96682">
        <ele>2375</ele>
        <time>2021-05-13T09:04:42.938Z</time>
      </trkpt>
      <trkpt lat="44.13297" lon="6.96673">
        <ele>2378</ele>
        <time>2021-05-13T09:04:57.945Z</time>
      </trkpt>
      <trkpt lat="44.13298" lon="6.96674">
        <ele>2378</ele>
        <time>2021-05-13T09:05:02.939Z</time>
      </trkpt>
      <trkpt lat="44.133" lon="6.96676">
        <ele>2378</ele>
        <time>2021-05-13T09:05:07.945Z</time>
      </trkpt>
      <trkpt lat="44.13303" lon="6.96678">
        <ele>2378</ele>
        <time>2021-05-13T09:05:12.942Z</time>
      </trkpt>
      <trkpt lat="44.13305" lon="6.9668">
        <ele>2378</ele>
        <time>2021-05-13T09:05:17.938Z</time>
      </trkpt>
      <trkpt lat="44.13307" lon="6.96682">
        <ele>2375</ele>
        <time>2021-05-13T09:05:22.947Z</time>
      </trkpt>
      <trkpt lat="44.1331" lon="6.96684">
        <ele>2375</ele>
        <time>2021-05-13T09:05:27.948Z</time>
      </trkpt>
      <trkpt lat="44.13312" lon="6.96686">
        <ele>2375</ele>
        <time>2021-05-13T09:05:32.944Z</time>
      </trkpt>
      <trkpt lat="44.13315" lon="6.96688">
        <ele>2375</ele>
        <time>2021-05-13T09:05:37.943Z</time>
      </trkpt>
      <trkpt lat="44.13317" lon="6.96692">
        <ele>2375</ele>
        <time>2021-05-13T09:05:42.940Z</time>
      </trkpt>
      <trkpt lat="44.1332" lon="6.96694">
        <ele>2386</ele>
        <time>2021-05-13T09:05:47.943Z</time>
      </trkpt>
      <trkpt lat="44.13323" lon="6.96694">
        <ele>2386</ele>
        <time>2021-05-13T09:05:52.946Z</time>
      </trkpt>
      <trkpt lat="44.13325" lon="6.96696">
        <ele>2386</ele>
        <time>2021-05-13T09:05:57.940Z</time>
      </trkpt>
      <trkpt lat="44.13329" lon="6.96698">
        <ele>2386</ele>
        <time>2021-05-13T09:06:02.943Z</time>
      </trkpt>
      <trkpt lat="44.13333" lon="6.96698">
        <ele>2386</ele>
        <time>2021-05-13T09:06:07.950Z</time>
      </trkpt>
      <trkpt lat="44.13337" lon="6.96698">
        <ele>2386</ele>
        <time>2021-05-13T09:06:12.942Z</time>
      </trkpt>
      <trkpt lat="44.1334" lon="6.96696">
        <ele>2386</ele>
        <time>2021-05-13T09:06:17.941Z</time>
      </trkpt>
      <trkpt lat="44.13343" lon="6.96694">
        <ele>2386</ele>
        <time>2021-05-13T09:06:22.938Z</time>
      </trkpt>
      <trkpt lat="44.13344" lon="6.96689">
        <ele>2386</ele>
        <time>2021-05-13T09:06:27.947Z</time>
      </trkpt>
      <trkpt lat="44.13345" lon="6.96684">
        <ele>2386</ele>
        <time>2021-05-13T09:06:32.939Z</time>
      </trkpt>
      <trkpt lat="44.13346" lon="6.96679">
        <ele>2390</ele>
        <time>2021-05-13T09:06:37.946Z</time>
      </trkpt>
      <trkpt lat="44.13345" lon="6.96673">
        <ele>2390</ele>
        <time>2021-05-13T09:06:42.938Z</time>
      </trkpt>
      <trkpt lat="44.13345" lon="6.96668">
        <ele>2390</ele>
        <time>2021-05-13T09:06:47.942Z</time>
      </trkpt>
      <trkpt lat="44.13344" lon="6.96663">
        <ele>2390</ele>
        <time>2021-05-13T09:06:52.951Z</time>
      </trkpt>
      <trkpt lat="44.13343" lon="6.96658">
        <ele>2390</ele>
        <time>2021-05-13T09:06:57.943Z</time>
      </trkpt>
      <trkpt lat="44.13342" lon="6.96653">
        <ele>2390</ele>
        <time>2021-05-13T09:07:02.938Z</time>
      </trkpt>
      <trkpt lat="44.13343" lon="6.96648">
        <ele>2392</ele>
        <time>2021-05-13T09:07:07.960Z</time>
      </trkpt>
      <trkpt lat="44.13345" lon="6.96643">
        <ele>2392</ele>
        <time>2021-05-13T09:07:12.952Z</time>
      </trkpt>
      <trkpt lat="44.13345" lon="6.96637">
        <ele>2392</ele>
        <time>2021-05-13T09:07:17.947Z</time>
      </trkpt>
      <trkpt lat="44.13347" lon="6.96632">
        <ele>2392</ele>
        <time>2021-05-13T09:07:22.945Z</time>
      </trkpt>
      <trkpt lat="44.1335" lon="6.96629">
        <ele>2400</ele>
        <time>2021-05-13T09:07:27.937Z</time>
      </trkpt>
      <trkpt lat="44.13353" lon="6.96625">
        <ele>2402</ele>
        <time>2021-05-13T09:07:32.942Z</time>
      </trkpt>
      <trkpt lat="44.13356" lon="6.96621">
        <ele>2402</ele>
        <time>2021-05-13T09:07:37.945Z</time>
      </trkpt>
      <trkpt lat="44.13357" lon="6.96616">
        <ele>2402</ele>
        <time>2021-05-13T09:07:42.940Z</time>
      </trkpt>
      <trkpt lat="44.1336" lon="6.96614">
        <ele>2402</ele>
        <time>2021-05-13T09:07:47.947Z</time>
      </trkpt>
      <trkpt lat="44.13363" lon="6.9661">
        <ele>2402</ele>
        <time>2021-05-13T09:07:52.942Z</time>
      </trkpt>
      <trkpt lat="44.13365" lon="6.96606">
        <ele>2402</ele>
        <time>2021-05-13T09:07:57.949Z</time>
      </trkpt>
      <trkpt lat="44.13368" lon="6.96603">
        <ele>2402</ele>
        <time>2021-05-13T09:08:01.945Z</time>
      </trkpt>
      <trkpt lat="44.1337" lon="6.966">
        <ele>2402</ele>
        <time>2021-05-13T09:08:06.939Z</time>
      </trkpt>
      <trkpt lat="44.13374" lon="6.96597">
        <ele>2405</ele>
        <time>2021-05-13T09:08:11.939Z</time>
      </trkpt>
      <trkpt lat="44.13378" lon="6.96595">
        <ele>2410</ele>
        <time>2021-05-13T09:08:16.941Z</time>
      </trkpt>
      <trkpt lat="44.13383" lon="6.96592">
        <ele>2410</ele>
        <time>2021-05-13T09:08:21.948Z</time>
      </trkpt>
      <trkpt lat="44.13386" lon="6.96591">
        <ele>2410</ele>
        <time>2021-05-13T09:08:26.937Z</time>
      </trkpt>
      <trkpt lat="44.1339" lon="6.9659">
        <ele>2410</ele>
        <time>2021-05-13T09:08:31.935Z</time>
      </trkpt>
      <trkpt lat="44.13393" lon="6.96589">
        <ele>2410</ele>
        <time>2021-05-13T09:08:35.938Z</time>
      </trkpt>
      <trkpt lat="44.13397" lon="6.96587">
        <ele>2410</ele>
        <time>2021-05-13T09:08:40.938Z</time>
      </trkpt>
      <trkpt lat="44.134" lon="6.96583">
        <ele>2410</ele>
        <time>2021-05-13T09:08:45.956Z</time>
      </trkpt>
      <trkpt lat="44.13405" lon="6.96579">
        <ele>2413</ele>
        <time>2021-05-13T09:08:50.941Z</time>
      </trkpt>
      <trkpt lat="44.13409" lon="6.96578">
        <ele>2413</ele>
        <time>2021-05-13T09:08:55.947Z</time>
      </trkpt>
      <trkpt lat="44.13413" lon="6.96575">
        <ele>2413</ele>
        <time>2021-05-13T09:09:00.941Z</time>
      </trkpt>
      <trkpt lat="44.13417" lon="6.96573">
        <ele>2413</ele>
        <time>2021-05-13T09:09:05.950Z</time>
      </trkpt>
      <trkpt lat="44.13421" lon="6.96572">
        <ele>2413</ele>
        <time>2021-05-13T09:09:10.939Z</time>
      </trkpt>
      <trkpt lat="44.13426" lon="6.96572">
        <ele>2413</ele>
        <time>2021-05-13T09:09:15.942Z</time>
      </trkpt>
      <trkpt lat="44.13431" lon="6.96573">
        <ele>2414</ele>
        <time>2021-05-13T09:09:20.938Z</time>
      </trkpt>
      <trkpt lat="44.13435" lon="6.96573">
        <ele>2414</ele>
        <time>2021-05-13T09:09:25.941Z</time>
      </trkpt>
      <trkpt lat="44.1344" lon="6.96573">
        <ele>2414</ele>
        <time>2021-05-13T09:09:29.945Z</time>
      </trkpt>
      <trkpt lat="44.13441" lon="6.96572">
        <ele>2414</ele>
        <time>2021-05-13T09:09:34.940Z</time>
      </trkpt>
      <trkpt lat="44.13446" lon="6.96572">
        <ele>2414</ele>
        <time>2021-05-13T09:09:39.940Z</time>
      </trkpt>
      <trkpt lat="44.1345" lon="6.96572">
        <ele>2414</ele>
        <time>2021-05-13T09:09:43.948Z</time>
      </trkpt>
      <trkpt lat="44.13454" lon="6.9657">
        <ele>2414</ele>
        <time>2021-05-13T09:09:48.939Z</time>
      </trkpt>
      <trkpt lat="44.13458" lon="6.9657">
        <ele>2414</ele>
        <time>2021-05-13T09:09:53.937Z</time>
      </trkpt>
      <trkpt lat="44.13461" lon="6.96571">
        <ele>2415</ele>
        <time>2021-05-13T09:09:57.951Z</time>
      </trkpt>
      <trkpt lat="44.13465" lon="6.96573">
        <ele>2415</ele>
        <time>2021-05-13T09:10:02.947Z</time>
      </trkpt>
      <trkpt lat="44.1347" lon="6.96575">
        <ele>2415</ele>
        <time>2021-05-13T09:10:07.944Z</time>
      </trkpt>
      <trkpt lat="44.13473" lon="6.96577">
        <ele>2415</ele>
        <time>2021-05-13T09:10:12.950Z</time>
      </trkpt>
      <trkpt lat="44.13477" lon="6.96578">
        <ele>2415</ele>
        <time>2021-05-13T09:10:17.943Z</time>
      </trkpt>
      <trkpt lat="44.13477" lon="6.96578">
        <ele>2415</ele>
        <time>2021-05-13T09:10:22.944Z</time>
      </trkpt>
      <trkpt lat="44.13481" lon="6.96581">
        <ele>2415</ele>
        <time>2021-05-13T09:10:27.938Z</time>
      </trkpt>
      <trkpt lat="44.13482" lon="6.9658">
        <ele>2415</ele>
        <time>2021-05-13T09:10:32.927Z</time>
      </trkpt>
      <trkpt lat="44.13481" lon="6.96581">
        <ele>2415</ele>
        <time>2021-05-13T09:11:00.925Z</time>
      </trkpt>
      <trkpt lat="44.13486" lon="6.96582">
        <ele>2420</ele>
        <time>2021-05-13T09:11:05.945Z</time>
      </trkpt>
      <trkpt lat="44.13492" lon="6.9658">
        <ele>2420</ele>
        <time>2021-05-13T09:11:10.938Z</time>
      </trkpt>
      <trkpt lat="44.13496" lon="6.96579">
        <ele>2420</ele>
        <time>2021-05-13T09:11:15.937Z</time>
      </trkpt>
      <trkpt lat="44.13501" lon="6.96577">
        <ele>2420</ele>
        <time>2021-05-13T09:11:20.944Z</time>
      </trkpt>
      <trkpt lat="44.13506" lon="6.96575">
        <ele>2420</ele>
        <time>2021-05-13T09:11:25.946Z</time>
      </trkpt>
      <trkpt lat="44.1351" lon="6.96574">
        <ele>2420</ele>
        <time>2021-05-13T09:11:30.937Z</time>
      </trkpt>
      <trkpt lat="44.13514" lon="6.96575">
        <ele>2426</ele>
        <time>2021-05-13T09:11:35.937Z</time>
      </trkpt>
      <trkpt lat="44.13518" lon="6.96576">
        <ele>2426</ele>
        <time>2021-05-13T09:11:40.939Z</time>
      </trkpt>
      <trkpt lat="44.13521" lon="6.96579">
        <ele>2426</ele>
        <time>2021-05-13T09:11:45.937Z</time>
      </trkpt>
      <trkpt lat="44.13525" lon="6.96578">
        <ele>2426</ele>
        <time>2021-05-13T09:11:50.943Z</time>
      </trkpt>
      <trkpt lat="44.13529" lon="6.96576">
        <ele>2426</ele>
        <time>2021-05-13T09:11:55.946Z</time>
      </trkpt>
      <trkpt lat="44.13533" lon="6.96576">
        <ele>2426</ele>
        <time>2021-05-13T09:12:00.946Z</time>
      </trkpt>
      <trkpt lat="44.13537" lon="6.96577">
        <ele>2426</ele>
        <time>2021-05-13T09:12:05.941Z</time>
      </trkpt>
      <trkpt lat="44.13542" lon="6.96579">
        <ele>2430</ele>
        <time>2021-05-13T09:12:10.949Z</time>
      </trkpt>
      <trkpt lat="44.13546" lon="6.96581">
        <ele>2430</ele>
        <time>2021-05-13T09:12:15.944Z</time>
      </trkpt>
      <trkpt lat="44.1355" lon="6.9658">
        <ele>2430</ele>
        <time>2021-05-13T09:12:19.950Z</time>
      </trkpt>
      <trkpt lat="44.13555" lon="6.96576">
        <ele>2430</ele>
        <time>2021-05-13T09:12:24.943Z</time>
      </trkpt>
      <trkpt lat="44.1356" lon="6.96573">
        <ele>2430</ele>
        <time>2021-05-13T09:12:29.936Z</time>
      </trkpt>
      <trkpt lat="44.13564" lon="6.96573">
        <ele>2430</ele>
        <time>2021-05-13T09:12:34.945Z</time>
      </trkpt>
      <trkpt lat="44.13567" lon="6.96569">
        <ele>2426</ele>
        <time>2021-05-13T09:12:39.941Z</time>
      </trkpt>
      <trkpt lat="44.13569" lon="6.96568">
        <ele>2428</ele>
        <time>2021-05-13T09:12:44.943Z</time>
      </trkpt>
      <trkpt lat="44.13572" lon="6.96567">
        <ele>2428</ele>
        <time>2021-05-13T09:12:49.940Z</time>
      </trkpt>
      <trkpt lat="44.13574" lon="6.96567">
        <ele>2428</ele>
        <time>2021-05-13T09:12:54.940Z</time>
      </trkpt>
      <trkpt lat="44.13578" lon="6.96568">
        <ele>2428</ele>
        <time>2021-05-13T09:12:59.951Z</time>
      </trkpt>
      <trkpt lat="44.13582" lon="6.96564">
        <ele>2428</ele>
        <time>2021-05-13T09:13:04.940Z</time>
      </trkpt>
      <trkpt lat="44.13586" lon="6.96563">
        <ele>2428</ele>
        <time>2021-05-13T09:13:08.948Z</time>
      </trkpt>
      <trkpt lat="44.13591" lon="6.9656">
        <ele>2428</ele>
        <time>2021-05-13T09:13:13.944Z</time>
      </trkpt>
      <trkpt lat="44.13595" lon="6.96555">
        <ele>2428</ele>
        <time>2021-05-13T09:13:18.935Z</time>
      </trkpt>
      <trkpt lat="44.13599" lon="6.96554">
        <ele>2429</ele>
        <time>2021-05-13T09:13:23.947Z</time>
      </trkpt>
      <trkpt lat="44.13602" lon="6.96552">
        <ele>2429</ele>
        <time>2021-05-13T09:13:28.940Z</time>
      </trkpt>
      <trkpt lat="44.13606" lon="6.96551">
        <ele>2429</ele>
        <time>2021-05-13T09:13:33.952Z</time>
      </trkpt>
      <trkpt lat="44.13611" lon="6.96551">
        <ele>2429</ele>
        <time>2021-05-13T09:13:38.937Z</time>
      </trkpt>
      <trkpt lat="44.13616" lon="6.96551">
        <ele>2429</ele>
        <time>2021-05-13T09:13:43.941Z</time>
      </trkpt>
      <trkpt lat="44.13617" lon="6.9655">
        <ele>2429</ele>
        <time>2021-05-13T09:14:28.941Z</time>
      </trkpt>
      <trkpt lat="44.13618" lon="6.96549">
        <ele>2429</ele>
        <time>2021-05-13T09:14:57.942Z</time>
      </trkpt>
      <trkpt lat="44.13622" lon="6.96548">
        <ele>2429</ele>
        <time>2021-05-13T09:15:02.935Z</time>
      </trkpt>
      <trkpt lat="44.13625" lon="6.96547">
        <ele>2429</ele>
        <time>2021-05-13T09:15:07.945Z</time>
      </trkpt>
      <trkpt lat="44.13629" lon="6.96543">
        <ele>2433</ele>
        <time>2021-05-13T09:15:12.946Z</time>
      </trkpt>
      <trkpt lat="44.13634" lon="6.96536">
        <ele>2436</ele>
        <time>2021-05-13T09:15:17.938Z</time>
      </trkpt>
      <trkpt lat="44.13639" lon="6.96531">
        <ele>2436</ele>
        <time>2021-05-13T09:15:22.947Z</time>
      </trkpt>
      <trkpt lat="44.13644" lon="6.96526">
        <ele>2436</ele>
        <time>2021-05-13T09:15:27.940Z</time>
      </trkpt>
      <trkpt lat="44.13647" lon="6.9652">
        <ele>2436</ele>
        <time>2021-05-13T09:15:32.937Z</time>
      </trkpt>
      <trkpt lat="44.13652" lon="6.96515">
        <ele>2436</ele>
        <time>2021-05-13T09:15:37.939Z</time>
      </trkpt>
      <trkpt lat="44.13654" lon="6.96513">
        <ele>2441</ele>
        <time>2021-05-13T09:15:42.940Z</time>
      </trkpt>
      <trkpt lat="44.13655" lon="6.96513">
        <ele>2441</ele>
        <time>2021-05-13T09:15:47.937Z</time>
      </trkpt>
      <trkpt lat="44.13658" lon="6.96508">
        <ele>2441</ele>
        <time>2021-05-13T09:15:52.944Z</time>
      </trkpt>
      <trkpt lat="44.1366" lon="6.96504">
        <ele>2441</ele>
        <time>2021-05-13T09:15:57.946Z</time>
      </trkpt>
      <trkpt lat="44.1366" lon="6.96502">
        <ele>2441</ele>
        <time>2021-05-13T09:16:02.942Z</time>
      </trkpt>
      <trkpt lat="44.13661" lon="6.96501">
        <ele>2441</ele>
        <time>2021-05-13T09:16:07.918Z</time>
      </trkpt>
      <trkpt lat="44.13662" lon="6.96498">
        <ele>2441</ele>
        <time>2021-05-13T09:16:11.942Z</time>
      </trkpt>
      <trkpt lat="44.13665" lon="6.96496">
        <ele>2441</ele>
        <time>2021-05-13T09:16:16.941Z</time>
      </trkpt>
      <trkpt lat="44.13666" lon="6.96492">
        <ele>2441</ele>
        <time>2021-05-13T09:16:21.946Z</time>
      </trkpt>
      <trkpt lat="44.13667" lon="6.9649">
        <ele>2441</ele>
        <time>2021-05-13T09:16:31.948Z</time>
      </trkpt>
      <trkpt lat="44.13668" lon="6.96488">
        <ele>2441</ele>
        <time>2021-05-13T09:16:36.936Z</time>
      </trkpt>
      <trkpt lat="44.13668" lon="6.96484">
        <ele>2442</ele>
        <time>2021-05-13T09:16:41.937Z</time>
      </trkpt>
      <trkpt lat="44.13668" lon="6.96482">
        <ele>2442</ele>
        <time>2021-05-13T09:16:45.944Z</time>
      </trkpt>
      <trkpt lat="44.13668" lon="6.96477">
        <ele>2442</ele>
        <time>2021-05-13T09:16:50.950Z</time>
      </trkpt>
      <trkpt lat="44.13669" lon="6.96471">
        <ele>2442</ele>
        <time>2021-05-13T09:16:55.925Z</time>
      </trkpt>
      <trkpt lat="44.13671" lon="6.96467">
        <ele>2442</ele>
        <time>2021-05-13T09:16:59.948Z</time>
      </trkpt>
      <trkpt lat="44.13674" lon="6.96465">
        <ele>2442</ele>
        <time>2021-05-13T09:17:04.961Z</time>
      </trkpt>
      <trkpt lat="44.13677" lon="6.96464">
        <ele>2442</ele>
        <time>2021-05-13T09:17:09.934Z</time>
      </trkpt>
      <trkpt lat="44.13679" lon="6.96462">
        <ele>2442</ele>
        <time>2021-05-13T09:17:13.939Z</time>
      </trkpt>
      <trkpt lat="44.13682" lon="6.9646">
        <ele>2451</ele>
        <time>2021-05-13T09:17:18.945Z</time>
      </trkpt>
      <trkpt lat="44.13686" lon="6.96459">
        <ele>2451</ele>
        <time>2021-05-13T09:17:23.943Z</time>
      </trkpt>
      <trkpt lat="44.13687" lon="6.96457">
        <ele>2454</ele>
        <time>2021-05-13T09:17:28.946Z</time>
      </trkpt>
      <trkpt lat="44.1369" lon="6.96455">
        <ele>2454</ele>
        <time>2021-05-13T09:17:33.945Z</time>
      </trkpt>
      <trkpt lat="44.13693" lon="6.96451">
        <ele>2454</ele>
        <time>2021-05-13T09:17:38.941Z</time>
      </trkpt>
      <trkpt lat="44.13697" lon="6.96447">
        <ele>2454</ele>
        <time>2021-05-13T09:17:43.939Z</time>
      </trkpt>
      <trkpt lat="44.137" lon="6.96444">
        <ele>2454</ele>
        <time>2021-05-13T09:17:48.943Z</time>
      </trkpt>
      <trkpt lat="44.13703" lon="6.96438">
        <ele>2454</ele>
        <time>2021-05-13T09:17:53.937Z</time>
      </trkpt>
      <trkpt lat="44.13706" lon="6.96431">
        <ele>2454</ele>
        <time>2021-05-13T09:17:58.938Z</time>
      </trkpt>
      <trkpt lat="44.13709" lon="6.96427">
        <ele>2452</ele>
        <time>2021-05-13T09:18:03.941Z</time>
      </trkpt>
      <trkpt lat="44.13712" lon="6.96424">
        <ele>2452</ele>
        <time>2021-05-13T09:18:08.940Z</time>
      </trkpt>
      <trkpt lat="44.13713" lon="6.9642">
        <ele>2452</ele>
        <time>2021-05-13T09:18:12.951Z</time>
      </trkpt>
      <trkpt lat="44.13715" lon="6.96415">
        <ele>2452</ele>
        <time>2021-05-13T09:18:17.955Z</time>
      </trkpt>
      <trkpt lat="44.13717" lon="6.9641">
        <ele>2452</ele>
        <time>2021-05-13T09:18:21.938Z</time>
      </trkpt>
      <trkpt lat="44.13718" lon="6.96404">
        <ele>2452</ele>
        <time>2021-05-13T09:18:26.947Z</time>
      </trkpt>
      <trkpt lat="44.1372" lon="6.96398">
        <ele>2455</ele>
        <time>2021-05-13T09:18:31.939Z</time>
      </trkpt>
      <trkpt lat="44.13722" lon="6.96393">
        <ele>2455</ele>
        <time>2021-05-13T09:18:35.944Z</time>
      </trkpt>
      <trkpt lat="44.13725" lon="6.96391">
        <ele>2455</ele>
        <time>2021-05-13T09:18:40.937Z</time>
      </trkpt>
      <trkpt lat="44.13728" lon="6.96389">
        <ele>2455</ele>
        <time>2021-05-13T09:18:44.942Z</time>
      </trkpt>
      <trkpt lat="44.1373" lon="6.96384">
        <ele>2455</ele>
        <time>2021-05-13T09:18:49.941Z</time>
      </trkpt>
      <trkpt lat="44.13733" lon="6.9638">
        <ele>2455</ele>
        <time>2021-05-13T09:18:54.944Z</time>
      </trkpt>
      <trkpt lat="44.13736" lon="6.96373">
        <ele>2454</ele>
        <time>2021-05-13T09:18:59.953Z</time>
      </trkpt>
      <trkpt lat="44.13737" lon="6.96365">
        <ele>2454</ele>
        <time>2021-05-13T09:19:04.936Z</time>
      </trkpt>
      <trkpt lat="44.13736" lon="6.96354">
        <ele>2454</ele>
        <time>2021-05-13T09:19:09.941Z</time>
      </trkpt>
      <trkpt lat="44.13737" lon="6.96347">
        <ele>2454</ele>
        <time>2021-05-13T09:19:14.954Z</time>
      </trkpt>
      <trkpt lat="44.13737" lon="6.96339">
        <ele>2453</ele>
        <time>2021-05-13T09:19:19.937Z</time>
      </trkpt>
      <trkpt lat="44.13739" lon="6.96334">
        <ele>2453</ele>
        <time>2021-05-13T09:19:23.942Z</time>
      </trkpt>
      <trkpt lat="44.1374" lon="6.96327">
        <ele>2453</ele>
        <time>2021-05-13T09:19:28.945Z</time>
      </trkpt>
      <trkpt lat="44.1374" lon="6.96319">
        <ele>2456</ele>
        <time>2021-05-13T09:19:33.938Z</time>
      </trkpt>
      <trkpt lat="44.13741" lon="6.96313">
        <ele>2456</ele>
        <time>2021-05-13T09:19:38.944Z</time>
      </trkpt>
      <trkpt lat="44.13741" lon="6.96305">
        <ele>2456</ele>
        <time>2021-05-13T09:19:43.941Z</time>
      </trkpt>
      <trkpt lat="44.13739" lon="6.96299">
        <ele>2456</ele>
        <time>2021-05-13T09:19:53.937Z</time>
      </trkpt>
      <trkpt lat="44.13738" lon="6.96298">
        <ele>2456</ele>
        <time>2021-05-13T09:19:58.948Z</time>
      </trkpt>
      <trkpt lat="44.13738" lon="6.96295">
        <ele>2456</ele>
        <time>2021-05-13T09:20:03.948Z</time>
      </trkpt>
      <trkpt lat="44.13738" lon="6.96292">
        <ele>2456</ele>
        <time>2021-05-13T09:20:18.938Z</time>
      </trkpt>
      <trkpt lat="44.13737" lon="6.96288">
        <ele>2457</ele>
        <time>2021-05-13T09:20:23.058Z</time>
      </trkpt>
      <trkpt lat="44.13737" lon="6.96283">
        <ele>2457</ele>
        <time>2021-05-13T09:20:28.069Z</time>
      </trkpt>
      <trkpt lat="44.13741" lon="6.96281">
        <ele>2457</ele>
        <time>2021-05-13T09:20:32.946Z</time>
      </trkpt>
      <trkpt lat="44.13743" lon="6.96279">
        <ele>2457</ele>
        <time>2021-05-13T09:20:37.942Z</time>
      </trkpt>
      <trkpt lat="44.13742" lon="6.96274">
        <ele>2457</ele>
        <time>2021-05-13T09:20:42.938Z</time>
      </trkpt>
      <trkpt lat="44.13742" lon="6.9627">
        <ele>2457</ele>
        <time>2021-05-13T09:20:47.946Z</time>
      </trkpt>
      <trkpt lat="44.13742" lon="6.9627">
        <ele>2457</ele>
        <time>2021-05-13T09:47:03.939Z</time>
      </trkpt>
      <trkpt lat="44.13743" lon="6.9627">
        <ele>2457</ele>
        <time>2021-05-13T09:47:08.948Z</time>
      </trkpt>
      <trkpt lat="44.13744" lon="6.96273">
        <ele>2457</ele>
        <time>2021-05-13T09:47:13.948Z</time>
      </trkpt>
      <trkpt lat="44.13744" lon="6.96275">
        <ele>2457</ele>
        <time>2021-05-13T09:47:18.942Z</time>
      </trkpt>
      <trkpt lat="44.13742" lon="6.96281">
        <ele>2457</ele>
        <time>2021-05-13T09:47:23.946Z</time>
      </trkpt>
      <trkpt lat="44.13743" lon="6.96286">
        <ele>2457</ele>
        <time>2021-05-13T09:47:28.954Z</time>
      </trkpt>
      <trkpt lat="44.1374" lon="6.96291">
        <ele>2457</ele>
        <time>2021-05-13T09:47:33.942Z</time>
      </trkpt>
      <trkpt lat="44.13739" lon="6.96294">
        <ele>2456</ele>
        <time>2021-05-13T09:47:38.941Z</time>
      </trkpt>
      <trkpt lat="44.13738" lon="6.96295">
        <ele>2456</ele>
        <time>2021-05-13T09:47:43.940Z</time>
      </trkpt>
      <trkpt lat="44.13739" lon="6.963">
        <ele>2456</ele>
        <time>2021-05-13T09:47:48.946Z</time>
      </trkpt>
      <trkpt lat="44.1374" lon="6.96307">
        <ele>2456</ele>
        <time>2021-05-13T09:47:53.944Z</time>
      </trkpt>
      <trkpt lat="44.13739" lon="6.96313">
        <ele>2456</ele>
        <time>2021-05-13T09:47:57.941Z</time>
      </trkpt>
      <trkpt lat="44.13737" lon="6.96321">
        <ele>2453</ele>
        <time>2021-05-13T09:48:01.950Z</time>
      </trkpt>
      <trkpt lat="44.13736" lon="6.96331">
        <ele>2450</ele>
        <time>2021-05-13T09:48:06.942Z</time>
      </trkpt>
      <trkpt lat="44.13736" lon="6.96341">
        <ele>2450</ele>
        <time>2021-05-13T09:48:11.942Z</time>
      </trkpt>
      <trkpt lat="44.13734" lon="6.96351">
        <ele>2453</ele>
        <time>2021-05-13T09:48:16.946Z</time>
      </trkpt>
      <trkpt lat="44.13733" lon="6.96361">
        <ele>2453</ele>
        <time>2021-05-13T09:48:21.945Z</time>
      </trkpt>
      <trkpt lat="44.13733" lon="6.96368">
        <ele>2453</ele>
        <time>2021-05-13T09:48:26.948Z</time>
      </trkpt>
      <trkpt lat="44.13732" lon="6.96377">
        <ele>2455</ele>
        <time>2021-05-13T09:48:31.945Z</time>
      </trkpt>
      <trkpt lat="44.13733" lon="6.96385">
        <ele>2455</ele>
        <time>2021-05-13T09:48:36.944Z</time>
      </trkpt>
      <trkpt lat="44.13733" lon="6.96393">
        <ele>2455</ele>
        <time>2021-05-13T09:48:41.945Z</time>
      </trkpt>
      <trkpt lat="44.13731" lon="6.96401">
        <ele>2455</ele>
        <time>2021-05-13T09:48:46.947Z</time>
      </trkpt>
      <trkpt lat="44.13731" lon="6.9641">
        <ele>2452</ele>
        <time>2021-05-13T09:48:51.938Z</time>
      </trkpt>
      <trkpt lat="44.13732" lon="6.96418">
        <ele>2452</ele>
        <time>2021-05-13T09:48:56.948Z</time>
      </trkpt>
      <trkpt lat="44.13732" lon="6.96424">
        <ele>2452</ele>
        <time>2021-05-13T09:49:01.946Z</time>
      </trkpt>
      <trkpt lat="44.13732" lon="6.96432">
        <ele>2445</ele>
        <time>2021-05-13T09:49:06.944Z</time>
      </trkpt>
      <trkpt lat="44.13732" lon="6.96439">
        <ele>2445</ele>
        <time>2021-05-13T09:49:11.933Z</time>
      </trkpt>
      <trkpt lat="44.13732" lon="6.96444">
        <ele>2445</ele>
        <time>2021-05-13T09:49:15.948Z</time>
      </trkpt>
      <trkpt lat="44.13731" lon="6.96445">
        <ele>2445</ele>
        <time>2021-05-13T09:49:20.944Z</time>
      </trkpt>
      <trkpt lat="44.13733" lon="6.96454">
        <ele>2445</ele>
        <time>2021-05-13T09:49:25.946Z</time>
      </trkpt>
      <trkpt lat="44.13734" lon="6.96457">
        <ele>2445</ele>
        <time>2021-05-13T09:49:29.952Z</time>
      </trkpt>
      <trkpt lat="44.13735" lon="6.9646">
        <ele>2445</ele>
        <time>2021-05-13T09:49:34.924Z</time>
      </trkpt>
      <trkpt lat="44.13738" lon="6.96463">
        <ele>2445</ele>
        <time>2021-05-13T09:49:39.939Z</time>
      </trkpt>
      <trkpt lat="44.13741" lon="6.96464">
        <ele>2445</ele>
        <time>2021-05-13T09:49:43.947Z</time>
      </trkpt>
      <trkpt lat="44.13746" lon="6.96464">
        <ele>2445</ele>
        <time>2021-05-13T09:49:48.944Z</time>
      </trkpt>
      <trkpt lat="44.13751" lon="6.96463">
        <ele>2445</ele>
        <time>2021-05-13T09:49:53.942Z</time>
      </trkpt>
      <trkpt lat="44.13756" lon="6.96465">
        <ele>2445</ele>
        <time>2021-05-13T09:49:58.945Z</time>
      </trkpt>
      <trkpt lat="44.13763" lon="6.96465">
        <ele>2445</ele>
        <time>2021-05-13T09:50:03.945Z</time>
      </trkpt>
      <trkpt lat="44.13769" lon="6.96464">
        <ele>2446</ele>
        <time>2021-05-13T09:50:08.954Z</time>
      </trkpt>
      <trkpt lat="44.13774" lon="6.96463">
        <ele>2446</ele>
        <time>2021-05-13T09:50:13.942Z</time>
      </trkpt>
      <trkpt lat="44.13779" lon="6.96463">
        <ele>2446</ele>
        <time>2021-05-13T09:50:18.940Z</time>
      </trkpt>
      <trkpt lat="44.13784" lon="6.96463">
        <ele>2446</ele>
        <time>2021-05-13T09:50:22.944Z</time>
      </trkpt>
      <trkpt lat="44.13791" lon="6.96461">
        <ele>2446</ele>
        <time>2021-05-13T09:50:27.944Z</time>
      </trkpt>
      <trkpt lat="44.13796" lon="6.9646">
        <ele>2443</ele>
        <time>2021-05-13T09:50:32.956Z</time>
      </trkpt>
      <trkpt lat="44.13801" lon="6.96459">
        <ele>2443</ele>
        <time>2021-05-13T09:50:36.938Z</time>
      </trkpt>
      <trkpt lat="44.13806" lon="6.96459">
        <ele>2443</ele>
        <time>2021-05-13T09:50:41.949Z</time>
      </trkpt>
      <trkpt lat="44.13811" lon="6.96464">
        <ele>2443</ele>
        <time>2021-05-13T09:50:46.944Z</time>
      </trkpt>
      <trkpt lat="44.13816" lon="6.96464">
        <ele>2443</ele>
        <time>2021-05-13T09:50:51.943Z</time>
      </trkpt>
      <trkpt lat="44.13821" lon="6.96461">
        <ele>2438</ele>
        <time>2021-05-13T09:50:56.945Z</time>
      </trkpt>
      <trkpt lat="44.13827" lon="6.96458">
        <ele>2438</ele>
        <time>2021-05-13T09:51:01.942Z</time>
      </trkpt>
      <trkpt lat="44.13833" lon="6.96456">
        <ele>2440</ele>
        <time>2021-05-13T09:51:06.942Z</time>
      </trkpt>
      <trkpt lat="44.13837" lon="6.96454">
        <ele>2440</ele>
        <time>2021-05-13T09:51:11.940Z</time>
      </trkpt>
      <trkpt lat="44.13842" lon="6.96454">
        <ele>2440</ele>
        <time>2021-05-13T09:51:16.958Z</time>
      </trkpt>
      <trkpt lat="44.13847" lon="6.96453">
        <ele>2440</ele>
        <time>2021-05-13T09:51:21.947Z</time>
      </trkpt>
      <trkpt lat="44.13852" lon="6.96454">
        <ele>2438</ele>
        <time>2021-05-13T09:51:26.942Z</time>
      </trkpt>
      <trkpt lat="44.13854" lon="6.96451">
        <ele>2438</ele>
        <time>2021-05-13T09:52:20.937Z</time>
      </trkpt>
      <trkpt lat="44.13855" lon="6.9645">
        <ele>2438</ele>
        <time>2021-05-13T09:52:25.944Z</time>
      </trkpt>
      <trkpt lat="44.13852" lon="6.96452">
        <ele>2438</ele>
        <time>2021-05-13T09:53:00.951Z</time>
      </trkpt>
      <trkpt lat="44.1385" lon="6.96458">
        <ele>2438</ele>
        <time>2021-05-13T09:53:05.950Z</time>
      </trkpt>
      <trkpt lat="44.13848" lon="6.96464">
        <ele>2437</ele>
        <time>2021-05-13T09:53:10.953Z</time>
      </trkpt>
      <trkpt lat="44.13847" lon="6.96467">
        <ele>2437</ele>
        <time>2021-05-13T09:53:15.940Z</time>
      </trkpt>
      <trkpt lat="44.13847" lon="6.96467">
        <ele>2438</ele>
        <time>2021-05-13T09:53:49.952Z</time>
      </trkpt>
      <trkpt lat="44.13845" lon="6.96474">
        <ele>2438</ele>
        <time>2021-05-13T09:53:54.954Z</time>
      </trkpt>
      <trkpt lat="44.13842" lon="6.9648">
        <ele>2438</ele>
        <time>2021-05-13T09:53:59.944Z</time>
      </trkpt>
      <trkpt lat="44.1384" lon="6.96486">
        <ele>2436</ele>
        <time>2021-05-13T09:54:04.945Z</time>
      </trkpt>
      <trkpt lat="44.13839" lon="6.9649">
        <ele>2436</ele>
        <time>2021-05-13T09:54:08.954Z</time>
      </trkpt>
      <trkpt lat="44.13836" lon="6.96497">
        <ele>2436</ele>
        <time>2021-05-13T09:54:13.960Z</time>
      </trkpt>
      <trkpt lat="44.13834" lon="6.96503">
        <ele>2436</ele>
        <time>2021-05-13T09:54:18.951Z</time>
      </trkpt>
      <trkpt lat="44.1383" lon="6.9651">
        <ele>2436</ele>
        <time>2021-05-13T09:54:23.955Z</time>
      </trkpt>
      <trkpt lat="44.13828" lon="6.96516">
        <ele>2435</ele>
        <time>2021-05-13T09:54:28.949Z</time>
      </trkpt>
      <trkpt lat="44.13825" lon="6.96522">
        <ele>2435</ele>
        <time>2021-05-13T09:54:33.946Z</time>
      </trkpt>
      <trkpt lat="44.13823" lon="6.96528">
        <ele>2435</ele>
        <time>2021-05-13T09:54:38.941Z</time>
      </trkpt>
      <trkpt lat="44.1382" lon="6.96533">
        <ele>2435</ele>
        <time>2021-05-13T09:54:42.962Z</time>
      </trkpt>
      <trkpt lat="44.13818" lon="6.96538">
        <ele>2442</ele>
        <time>2021-05-13T09:54:47.956Z</time>
      </trkpt>
      <trkpt lat="44.13816" lon="6.96543">
        <ele>2441</ele>
        <time>2021-05-13T09:54:52.948Z</time>
      </trkpt>
      <trkpt lat="44.13818" lon="6.96548">
        <ele>2441</ele>
        <time>2021-05-13T09:54:57.940Z</time>
      </trkpt>
      <trkpt lat="44.1382" lon="6.96555">
        <ele>2435</ele>
        <time>2021-05-13T09:55:57.950Z</time>
      </trkpt>
      <trkpt lat="44.13821" lon="6.96562">
        <ele>2435</ele>
        <time>2021-05-13T09:56:02.955Z</time>
      </trkpt>
      <trkpt lat="44.13823" lon="6.96567">
        <ele>2435</ele>
        <time>2021-05-13T09:56:07.940Z</time>
      </trkpt>
      <trkpt lat="44.13825" lon="6.96574">
        <ele>2436</ele>
        <time>2021-05-13T09:56:12.941Z</time>
      </trkpt>
      <trkpt lat="44.13828" lon="6.96581">
        <ele>2436</ele>
        <time>2021-05-13T09:56:17.948Z</time>
      </trkpt>
      <trkpt lat="44.1383" lon="6.96587">
        <ele>2436</ele>
        <time>2021-05-13T09:56:22.944Z</time>
      </trkpt>
      <trkpt lat="44.13831" lon="6.96595">
        <ele>2436</ele>
        <time>2021-05-13T09:56:27.942Z</time>
      </trkpt>
      <trkpt lat="44.13832" lon="6.96602">
        <ele>2435</ele>
        <time>2021-05-13T09:56:32.948Z</time>
      </trkpt>
      <trkpt lat="44.13834" lon="6.9661">
        <ele>2435</ele>
        <time>2021-05-13T09:56:37.958Z</time>
      </trkpt>
      <trkpt lat="44.13835" lon="6.96617">
        <ele>2435</ele>
        <time>2021-05-13T09:56:42.945Z</time>
      </trkpt>
      <trkpt lat="44.13835" lon="6.96626">
        <ele>2434</ele>
        <time>2021-05-13T09:56:47.933Z</time>
      </trkpt>
      <trkpt lat="44.13835" lon="6.96632">
        <ele>2434</ele>
        <time>2021-05-13T09:56:52.945Z</time>
      </trkpt>
      <trkpt lat="44.13834" lon="6.96638">
        <ele>2434</ele>
        <time>2021-05-13T09:56:57.946Z</time>
      </trkpt>
      <trkpt lat="44.13835" lon="6.96645">
        <ele>2434</ele>
        <time>2021-05-13T09:57:02.924Z</time>
      </trkpt>
      <trkpt lat="44.13836" lon="6.96648">
        <ele>2434</ele>
        <time>2021-05-13T09:57:06.941Z</time>
      </trkpt>
      <trkpt lat="44.13836" lon="6.96655">
        <ele>2430</ele>
        <time>2021-05-13T09:57:11.944Z</time>
      </trkpt>
      <trkpt lat="44.13835" lon="6.96662">
        <ele>2430</ele>
        <time>2021-05-13T09:57:16.940Z</time>
      </trkpt>
      <trkpt lat="44.1384" lon="6.96672">
        <ele>2430</ele>
        <time>2021-05-13T09:58:04.946Z</time>
      </trkpt>
      <trkpt lat="44.13838" lon="6.96677">
        <ele>2430</ele>
        <time>2021-05-13T09:58:09.948Z</time>
      </trkpt>
      <trkpt lat="44.13835" lon="6.96683">
        <ele>2425</ele>
        <time>2021-05-13T09:58:14.949Z</time>
      </trkpt>
      <trkpt lat="44.13832" lon="6.96687">
        <ele>2425</ele>
        <time>2021-05-13T09:58:19.950Z</time>
      </trkpt>
      <trkpt lat="44.13829" lon="6.96692">
        <ele>2425</ele>
        <time>2021-05-13T09:58:24.953Z</time>
      </trkpt>
      <trkpt lat="44.13825" lon="6.96698">
        <ele>2425</ele>
        <time>2021-05-13T09:58:29.943Z</time>
      </trkpt>
      <trkpt lat="44.13822" lon="6.96704">
        <ele>2425</ele>
        <time>2021-05-13T09:58:33.962Z</time>
      </trkpt>
      <trkpt lat="44.13818" lon="6.96711">
        <ele>2423</ele>
        <time>2021-05-13T09:58:38.948Z</time>
      </trkpt>
      <trkpt lat="44.13815" lon="6.96715">
        <ele>2423</ele>
        <time>2021-05-13T09:58:43.949Z</time>
      </trkpt>
      <trkpt lat="44.13812" lon="6.96719">
        <ele>2423</ele>
        <time>2021-05-13T09:58:48.952Z</time>
      </trkpt>
      <trkpt lat="44.13807" lon="6.96721">
        <ele>2423</ele>
        <time>2021-05-13T09:58:53.946Z</time>
      </trkpt>
      <trkpt lat="44.13806" lon="6.9672">
        <ele>2423</ele>
        <time>2021-05-13T09:58:58.940Z</time>
      </trkpt>
      <trkpt lat="44.13802" lon="6.9672">
        <ele>2423</ele>
        <time>2021-05-13T09:59:03.953Z</time>
      </trkpt>
      <trkpt lat="44.13798" lon="6.96719">
        <ele>2423</ele>
        <time>2021-05-13T09:59:08.946Z</time>
      </trkpt>
      <trkpt lat="44.13795" lon="6.96718">
        <ele>2423</ele>
        <time>2021-05-13T09:59:13.951Z</time>
      </trkpt>
      <trkpt lat="44.13795" lon="6.96718">
        <ele>2423</ele>
        <time>2021-05-13T09:59:18.949Z</time>
      </trkpt>
      <trkpt lat="44.13793" lon="6.96717">
        <ele>2423</ele>
        <time>2021-05-13T09:59:23.945Z</time>
      </trkpt>
      <trkpt lat="44.1379" lon="6.96714">
        <ele>2425</ele>
        <time>2021-05-13T09:59:28.944Z</time>
      </trkpt>
      <trkpt lat="44.13784" lon="6.96714">
        <ele>2425</ele>
        <time>2021-05-13T09:59:33.942Z</time>
      </trkpt>
      <trkpt lat="44.13782" lon="6.96714">
        <ele>2425</ele>
        <time>2021-05-13T09:59:37.943Z</time>
      </trkpt>
      <trkpt lat="44.1378" lon="6.96715">
        <ele>2425</ele>
        <time>2021-05-13T09:59:42.956Z</time>
      </trkpt>
      <trkpt lat="44.13775" lon="6.96717">
        <ele>2425</ele>
        <time>2021-05-13T09:59:47.949Z</time>
      </trkpt>
      <trkpt lat="44.13776" lon="6.96724">
        <ele>2425</ele>
        <time>2021-05-13T09:59:56.947Z</time>
      </trkpt>
      <trkpt lat="44.13776" lon="6.96727">
        <ele>2425</ele>
        <time>2021-05-13T10:00:01.946Z</time>
      </trkpt>
      <trkpt lat="44.13777" lon="6.9673">
        <ele>2425</ele>
        <time>2021-05-13T10:00:06.943Z</time>
      </trkpt>
      <trkpt lat="44.13778" lon="6.96731">
        <ele>2425</ele>
        <time>2021-05-13T10:00:11.942Z</time>
      </trkpt>
      <trkpt lat="44.13776" lon="6.96743">
        <ele>2420</ele>
        <time>2021-05-13T10:00:16.946Z</time>
      </trkpt>
      <trkpt lat="44.13775" lon="6.96749">
        <ele>2420</ele>
        <time>2021-05-13T10:00:21.949Z</time>
      </trkpt>
      <trkpt lat="44.13774" lon="6.96755">
        <ele>2420</ele>
        <time>2021-05-13T10:00:25.939Z</time>
      </trkpt>
      <trkpt lat="44.13771" lon="6.96763">
        <ele>2420</ele>
        <time>2021-05-13T10:00:30.956Z</time>
      </trkpt>
      <trkpt lat="44.13768" lon="6.96772">
        <ele>2416</ele>
        <time>2021-05-13T10:00:35.941Z</time>
      </trkpt>
      <trkpt lat="44.13765" lon="6.96778">
        <ele>2416</ele>
        <time>2021-05-13T10:00:40.947Z</time>
      </trkpt>
      <trkpt lat="44.1376" lon="6.9678">
        <ele>2420</ele>
        <time>2021-05-13T10:00:45.947Z</time>
      </trkpt>
      <trkpt lat="44.13759" lon="6.96784">
        <ele>2420</ele>
        <time>2021-05-13T10:00:50.943Z</time>
      </trkpt>
      <trkpt lat="44.13758" lon="6.96791">
        <ele>2420</ele>
        <time>2021-05-13T10:00:55.938Z</time>
      </trkpt>
      <trkpt lat="44.13758" lon="6.96798">
        <ele>2418</ele>
        <time>2021-05-13T10:00:59.950Z</time>
      </trkpt>
      <trkpt lat="44.13757" lon="6.96806">
        <ele>2418</ele>
        <time>2021-05-13T10:01:04.947Z</time>
      </trkpt>
      <trkpt lat="44.13757" lon="6.96814">
        <ele>2418</ele>
        <time>2021-05-13T10:01:09.952Z</time>
      </trkpt>
      <trkpt lat="44.13756" lon="6.96824">
        <ele>2414</ele>
        <time>2021-05-13T10:01:14.944Z</time>
      </trkpt>
      <trkpt lat="44.13755" lon="6.96831">
        <ele>2414</ele>
        <time>2021-05-13T10:01:19.942Z</time>
      </trkpt>
      <trkpt lat="44.13754" lon="6.96839">
        <ele>2414</ele>
        <time>2021-05-13T10:01:24.944Z</time>
      </trkpt>
      <trkpt lat="44.13751" lon="6.96843">
        <ele>2414</ele>
        <time>2021-05-13T10:01:29.949Z</time>
      </trkpt>
      <trkpt lat="44.1375" lon="6.96847">
        <ele>2414</ele>
        <time>2021-05-13T10:01:34.944Z</time>
      </trkpt>
      <trkpt lat="44.1375" lon="6.96854">
        <ele>2408</ele>
        <time>2021-05-13T10:01:39.953Z</time>
      </trkpt>
      <trkpt lat="44.1375" lon="6.9686">
        <ele>2408</ele>
        <time>2021-05-13T10:01:44.948Z</time>
      </trkpt>
      <trkpt lat="44.13751" lon="6.96867">
        <ele>2408</ele>
        <time>2021-05-13T10:01:49.949Z</time>
      </trkpt>
      <trkpt lat="44.13753" lon="6.96874">
        <ele>2408</ele>
        <time>2021-05-13T10:01:54.942Z</time>
      </trkpt>
      <trkpt lat="44.13754" lon="6.96883">
        <ele>2404</ele>
        <time>2021-05-13T10:01:59.955Z</time>
      </trkpt>
      <trkpt lat="44.13751" lon="6.96889">
        <ele>2404</ele>
        <time>2021-05-13T10:02:04.927Z</time>
      </trkpt>
      <trkpt lat="44.13749" lon="6.96895">
        <ele>2404</ele>
        <time>2021-05-13T10:02:09.952Z</time>
      </trkpt>
      <trkpt lat="44.13746" lon="6.96903">
        <ele>2403</ele>
        <time>2021-05-13T10:02:14.954Z</time>
      </trkpt>
      <trkpt lat="44.13749" lon="6.96916">
        <ele>2403</ele>
        <time>2021-05-13T10:04:22.956Z</time>
      </trkpt>
      <trkpt lat="44.13749" lon="6.96918">
        <ele>2403</ele>
        <time>2021-05-13T10:04:41.946Z</time>
      </trkpt>
      <trkpt lat="44.13749" lon="6.96918">
        <ele>2403</ele>
        <time>2021-05-13T10:05:01.956Z</time>
      </trkpt>
      <trkpt lat="44.13753" lon="6.96921">
        <ele>2403</ele>
        <time>2021-05-13T10:05:06.953Z</time>
      </trkpt>
      <trkpt lat="44.13756" lon="6.96927">
        <ele>2403</ele>
        <time>2021-05-13T10:05:11.937Z</time>
      </trkpt>
      <trkpt lat="44.13764" lon="6.96933">
        <ele>2402</ele>
        <time>2021-05-13T10:05:40.966Z</time>
      </trkpt>
      <trkpt lat="44.13764" lon="6.96935">
        <ele>2402</ele>
        <time>2021-05-13T10:05:45.072Z</time>
      </trkpt>
      <trkpt lat="44.13762" lon="6.96937">
        <ele>2402</ele>
        <time>2021-05-13T10:05:49.951Z</time>
      </trkpt>
      <trkpt lat="44.13758" lon="6.96941">
        <ele>2402</ele>
        <time>2021-05-13T10:05:54.942Z</time>
      </trkpt>
      <trkpt lat="44.13757" lon="6.96942">
        <ele>2402</ele>
        <time>2021-05-13T10:05:59.951Z</time>
      </trkpt>
      <trkpt lat="44.13755" lon="6.96942">
        <ele>2402</ele>
        <time>2021-05-13T10:07:02.951Z</time>
      </trkpt>
      <trkpt lat="44.13752" lon="6.96947">
        <ele>2402</ele>
        <time>2021-05-13T10:07:07.950Z</time>
      </trkpt>
      <trkpt lat="44.13751" lon="6.9695">
        <ele>2402</ele>
        <time>2021-05-13T10:07:12.947Z</time>
      </trkpt>
      <trkpt lat="44.1375" lon="6.96953">
        <ele>2402</ele>
        <time>2021-05-13T10:07:17.944Z</time>
      </trkpt>
      <trkpt lat="44.13748" lon="6.96958">
        <ele>2402</ele>
        <time>2021-05-13T10:07:22.946Z</time>
      </trkpt>
      <trkpt lat="44.13747" lon="6.96963">
        <ele>2398</ele>
        <time>2021-05-13T10:07:26.954Z</time>
      </trkpt>
      <trkpt lat="44.13746" lon="6.96965">
        <ele>2398</ele>
        <time>2021-05-13T10:07:31.948Z</time>
      </trkpt>
      <trkpt lat="44.13742" lon="6.9697">
        <ele>2398</ele>
        <time>2021-05-13T10:07:36.950Z</time>
      </trkpt>
      <trkpt lat="44.13739" lon="6.96976">
        <ele>2398</ele>
        <time>2021-05-13T10:07:41.961Z</time>
      </trkpt>
      <trkpt lat="44.13737" lon="6.96983">
        <ele>2398</ele>
        <time>2021-05-13T10:07:46.949Z</time>
      </trkpt>
      <trkpt lat="44.13735" lon="6.96991">
        <ele>2395</ele>
        <time>2021-05-13T10:07:51.953Z</time>
      </trkpt>
      <trkpt lat="44.1373" lon="6.96995">
        <ele>2395</ele>
        <time>2021-05-13T10:07:56.950Z</time>
      </trkpt>
      <trkpt lat="44.13725" lon="6.97">
        <ele>2395</ele>
        <time>2021-05-13T10:08:01.951Z</time>
      </trkpt>
      <trkpt lat="44.13722" lon="6.97003">
        <ele>2395</ele>
        <time>2021-05-13T10:08:05.954Z</time>
      </trkpt>
      <trkpt lat="44.13716" lon="6.97008">
        <ele>2395</ele>
        <time>2021-05-13T10:08:10.947Z</time>
      </trkpt>
      <trkpt lat="44.13711" lon="6.9701">
        <ele>2395</ele>
        <time>2021-05-13T10:08:15.947Z</time>
      </trkpt>
      <trkpt lat="44.13705" lon="6.97014">
        <ele>2395</ele>
        <time>2021-05-13T10:08:20.945Z</time>
      </trkpt>
      <trkpt lat="44.137" lon="6.97019">
        <ele>2389</ele>
        <time>2021-05-13T10:08:25.944Z</time>
      </trkpt>
      <trkpt lat="44.13696" lon="6.97024">
        <ele>2389</ele>
        <time>2021-05-13T10:08:30.942Z</time>
      </trkpt>
      <trkpt lat="44.13692" lon="6.97029">
        <ele>2389</ele>
        <time>2021-05-13T10:08:35.950Z</time>
      </trkpt>
      <trkpt lat="44.13688" lon="6.97034">
        <ele>2389</ele>
        <time>2021-05-13T10:08:40.956Z</time>
      </trkpt>
      <trkpt lat="44.13683" lon="6.97038">
        <ele>2389</ele>
        <time>2021-05-13T10:08:45.946Z</time>
      </trkpt>
      <trkpt lat="44.13679" lon="6.97042">
        <ele>2390</ele>
        <time>2021-05-13T10:08:50.955Z</time>
      </trkpt>
      <trkpt lat="44.13676" lon="6.97045">
        <ele>2382</ele>
        <time>2021-05-13T10:08:55.945Z</time>
      </trkpt>
      <trkpt lat="44.1367" lon="6.97047">
        <ele>2382</ele>
        <time>2021-05-13T10:09:00.947Z</time>
      </trkpt>
      <trkpt lat="44.13664" lon="6.97049">
        <ele>2382</ele>
        <time>2021-05-13T10:09:05.946Z</time>
      </trkpt>
      <trkpt lat="44.13661" lon="6.97054">
        <ele>2382</ele>
        <time>2021-05-13T10:09:10.942Z</time>
      </trkpt>
      <trkpt lat="44.13657" lon="6.97059">
        <ele>2382</ele>
        <time>2021-05-13T10:09:15.945Z</time>
      </trkpt>
      <trkpt lat="44.13654" lon="6.9706">
        <ele>2382</ele>
        <time>2021-05-13T10:09:20.946Z</time>
      </trkpt>
      <trkpt lat="44.13647" lon="6.97063">
        <ele>2380</ele>
        <time>2021-05-13T10:09:25.944Z</time>
      </trkpt>
      <trkpt lat="44.13642" lon="6.97064">
        <ele>2380</ele>
        <time>2021-05-13T10:09:30.954Z</time>
      </trkpt>
      <trkpt lat="44.13639" lon="6.97067">
        <ele>2380</ele>
        <time>2021-05-13T10:09:35.948Z</time>
      </trkpt>
      <trkpt lat="44.13634" lon="6.97072">
        <ele>2372</ele>
        <time>2021-05-13T10:09:40.956Z</time>
      </trkpt>
      <trkpt lat="44.13628" lon="6.97077">
        <ele>2372</ele>
        <time>2021-05-13T10:09:45.953Z</time>
      </trkpt>
      <trkpt lat="44.13623" lon="6.9708">
        <ele>2372</ele>
        <time>2021-05-13T10:09:50.945Z</time>
      </trkpt>
      <trkpt lat="44.13618" lon="6.97084">
        <ele>2372</ele>
        <time>2021-05-13T10:09:55.951Z</time>
      </trkpt>
      <trkpt lat="44.13614" lon="6.97086">
        <ele>2372</ele>
        <time>2021-05-13T10:10:00.948Z</time>
      </trkpt>
      <trkpt lat="44.13609" lon="6.97091">
        <ele>2372</ele>
        <time>2021-05-13T10:10:05.949Z</time>
      </trkpt>
      <trkpt lat="44.13604" lon="6.97093">
        <ele>2372</ele>
        <time>2021-05-13T10:10:10.943Z</time>
      </trkpt>
      <trkpt lat="44.13599" lon="6.97094">
        <ele>2372</ele>
        <time>2021-05-13T10:10:15.935Z</time>
      </trkpt>
      <trkpt lat="44.13596" lon="6.97094">
        <ele>2369</ele>
        <time>2021-05-13T10:10:19.943Z</time>
      </trkpt>
      <trkpt lat="44.13592" lon="6.97096">
        <ele>2369</ele>
        <time>2021-05-13T10:10:23.946Z</time>
      </trkpt>
      <trkpt lat="44.13587" lon="6.97097">
        <ele>2362</ele>
        <time>2021-05-13T10:10:28.956Z</time>
      </trkpt>
      <trkpt lat="44.13583" lon="6.97097">
        <ele>2369</ele>
        <time>2021-05-13T10:10:33.952Z</time>
      </trkpt>
      <trkpt lat="44.1358" lon="6.97102">
        <ele>2362</ele>
        <time>2021-05-13T10:10:38.948Z</time>
      </trkpt>
      <trkpt lat="44.13583" lon="6.97105">
        <ele>2362</ele>
        <time>2021-05-13T10:10:43.948Z</time>
      </trkpt>
      <trkpt lat="44.13579" lon="6.97109">
        <ele>2362</ele>
        <time>2021-05-13T10:10:48.949Z</time>
      </trkpt>
      <trkpt lat="44.13574" lon="6.9711">
        <ele>2362</ele>
        <time>2021-05-13T10:10:53.951Z</time>
      </trkpt>
      <trkpt lat="44.13571" lon="6.9711">
        <ele>2362</ele>
        <time>2021-05-13T10:10:58.945Z</time>
      </trkpt>
      <trkpt lat="44.13569" lon="6.97112">
        <ele>2357</ele>
        <time>2021-05-13T10:11:03.945Z</time>
      </trkpt>
      <trkpt lat="44.1357" lon="6.97115">
        <ele>2362</ele>
        <time>2021-05-13T10:11:08.950Z</time>
      </trkpt>
      <trkpt lat="44.13572" lon="6.97121">
        <ele>2362</ele>
        <time>2021-05-13T10:11:13.953Z</time>
      </trkpt>
      <trkpt lat="44.13567" lon="6.97123">
        <ele>2357</ele>
        <time>2021-05-13T10:11:18.945Z</time>
      </trkpt>
      <trkpt lat="44.13563" lon="6.97125">
        <ele>2357</ele>
        <time>2021-05-13T10:11:23.944Z</time>
      </trkpt>
      <trkpt lat="44.13559" lon="6.97126">
        <ele>2348</ele>
        <time>2021-05-13T10:11:28.947Z</time>
      </trkpt>
      <trkpt lat="44.13556" lon="6.97128">
        <ele>2348</ele>
        <time>2021-05-13T10:11:33.942Z</time>
      </trkpt>
      <trkpt lat="44.13552" lon="6.97131">
        <ele>2348</ele>
        <time>2021-05-13T10:11:38.948Z</time>
      </trkpt>
      <trkpt lat="44.1355" lon="6.97132">
        <ele>2348</ele>
        <time>2021-05-13T10:11:43.950Z</time>
      </trkpt>
      <trkpt lat="44.13547" lon="6.97131">
        <ele>2348</ele>
        <time>2021-05-13T10:11:48.949Z</time>
      </trkpt>
      <trkpt lat="44.13544" lon="6.97127">
        <ele>2348</ele>
        <time>2021-05-13T10:11:53.948Z</time>
      </trkpt>
      <trkpt lat="44.1354" lon="6.97127">
        <ele>2345</ele>
        <time>2021-05-13T10:11:58.942Z</time>
      </trkpt>
      <trkpt lat="44.13535" lon="6.97133">
        <ele>2345</ele>
        <time>2021-05-13T10:12:03.944Z</time>
      </trkpt>
      <trkpt lat="44.13535" lon="6.97137">
        <ele>2345</ele>
        <time>2021-05-13T10:12:08.956Z</time>
      </trkpt>
      <trkpt lat="44.13536" lon="6.97142">
        <ele>2345</ele>
        <time>2021-05-13T10:12:13.948Z</time>
      </trkpt>
      <trkpt lat="44.13538" lon="6.97147">
        <ele>2345</ele>
        <time>2021-05-13T10:12:18.939Z</time>
      </trkpt>
      <trkpt lat="44.13539" lon="6.97151">
        <ele>2345</ele>
        <time>2021-05-13T10:12:23.937Z</time>
      </trkpt>
      <trkpt lat="44.13541" lon="6.97154">
        <ele>2338</ele>
        <time>2021-05-13T10:12:27.945Z</time>
      </trkpt>
      <trkpt lat="44.13543" lon="6.97157">
        <ele>2339</ele>
        <time>2021-05-13T10:12:32.947Z</time>
      </trkpt>
      <trkpt lat="44.13547" lon="6.97161">
        <ele>2339</ele>
        <time>2021-05-13T10:12:37.945Z</time>
      </trkpt>
      <trkpt lat="44.13554" lon="6.97162">
        <ele>2339</ele>
        <time>2021-05-13T10:12:42.945Z</time>
      </trkpt>
      <trkpt lat="44.13556" lon="6.97162">
        <ele>2339</ele>
        <time>2021-05-13T10:12:47.937Z</time>
      </trkpt>
      <trkpt lat="44.13559" lon="6.97163">
        <ele>2339</ele>
        <time>2021-05-13T10:12:52.929Z</time>
      </trkpt>
      <trkpt lat="44.13563" lon="6.97166">
        <ele>2339</ele>
        <time>2021-05-13T10:12:57.957Z</time>
      </trkpt>
      <trkpt lat="44.13569" lon="6.97168">
        <ele>2339</ele>
        <time>2021-05-13T10:13:02.953Z</time>
      </trkpt>
      <trkpt lat="44.13573" lon="6.9717">
        <ele>2341</ele>
        <time>2021-05-13T10:13:07.945Z</time>
      </trkpt>
      <trkpt lat="44.13576" lon="6.97174">
        <ele>2341</ele>
        <time>2021-05-13T10:13:12.942Z</time>
      </trkpt>
      <trkpt lat="44.13579" lon="6.97177">
        <ele>2341</ele>
        <time>2021-05-13T10:13:17.947Z</time>
      </trkpt>
      <trkpt lat="44.13584" lon="6.97179">
        <ele>2341</ele>
        <time>2021-05-13T10:13:22.945Z</time>
      </trkpt>
      <trkpt lat="44.13588" lon="6.97188">
        <ele>2330</ele>
        <time>2021-05-13T10:13:46.957Z</time>
      </trkpt>
      <trkpt lat="44.13583" lon="6.97191">
        <ele>2330</ele>
        <time>2021-05-13T10:13:51.945Z</time>
      </trkpt>
      <trkpt lat="44.13579" lon="6.97193">
        <ele>2330</ele>
        <time>2021-05-13T10:13:56.945Z</time>
      </trkpt>
      <trkpt lat="44.13575" lon="6.97194">
        <ele>2330</ele>
        <time>2021-05-13T10:14:00.942Z</time>
      </trkpt>
      <trkpt lat="44.13569" lon="6.97196">
        <ele>2330</ele>
        <time>2021-05-13T10:14:05.943Z</time>
      </trkpt>
      <trkpt lat="44.13565" lon="6.972">
        <ele>2330</ele>
        <time>2021-05-13T10:14:10.944Z</time>
      </trkpt>
      <trkpt lat="44.1356" lon="6.97203">
        <ele>2330</ele>
        <time>2021-05-13T10:14:15.946Z</time>
      </trkpt>
      <trkpt lat="44.13556" lon="6.97205">
        <ele>2330</ele>
        <time>2021-05-13T10:14:20.939Z</time>
      </trkpt>
      <trkpt lat="44.13555" lon="6.97205">
        <ele>2330</ele>
        <time>2021-05-13T10:14:25.950Z</time>
      </trkpt>
      <trkpt lat="44.13552" lon="6.97207">
        <ele>2330</ele>
        <time>2021-05-13T10:14:29.951Z</time>
      </trkpt>
      <trkpt lat="44.13549" lon="6.97209">
        <ele>2321</ele>
        <time>2021-05-13T10:14:34.943Z</time>
      </trkpt>
      <trkpt lat="44.13546" lon="6.97211">
        <ele>2321</ele>
        <time>2021-05-13T10:14:39.942Z</time>
      </trkpt>
      <trkpt lat="44.13542" lon="6.97211">
        <ele>2321</ele>
        <time>2021-05-13T10:14:43.942Z</time>
      </trkpt>
      <trkpt lat="44.13541" lon="6.97231">
        <ele>2318</ele>
        <time>2021-05-13T10:15:22.942Z</time>
      </trkpt>
      <trkpt lat="44.13544" lon="6.97236">
        <ele>2321</ele>
        <time>2021-05-13T10:15:27.942Z</time>
      </trkpt>
      <trkpt lat="44.13543" lon="6.97241">
        <ele>2312</ele>
        <time>2021-05-13T10:15:31.951Z</time>
      </trkpt>
      <trkpt lat="44.13545" lon="6.97244">
        <ele>2312</ele>
        <time>2021-05-13T10:15:36.944Z</time>
      </trkpt>
      <trkpt lat="44.13543" lon="6.9725">
        <ele>2312</ele>
        <time>2021-05-13T10:15:41.944Z</time>
      </trkpt>
      <trkpt lat="44.13556" lon="6.97263">
        <ele>2312</ele>
        <time>2021-05-13T10:16:29.939Z</time>
      </trkpt>
      <trkpt lat="44.13557" lon="6.97267">
        <ele>2304</ele>
        <time>2021-05-13T10:16:33.946Z</time>
      </trkpt>
      <trkpt lat="44.13553" lon="6.97274">
        <ele>2304</ele>
        <time>2021-05-13T10:16:38.948Z</time>
      </trkpt>
      <trkpt lat="44.13551" lon="6.9728">
        <ele>2304</ele>
        <time>2021-05-13T10:16:43.943Z</time>
      </trkpt>
      <trkpt lat="44.13553" lon="6.97288">
        <ele>2304</ele>
        <time>2021-05-13T10:16:48.944Z</time>
      </trkpt>
      <trkpt lat="44.1355" lon="6.97296">
        <ele>2297</ele>
        <time>2021-05-13T10:16:53.945Z</time>
      </trkpt>
      <trkpt lat="44.13552" lon="6.97303">
        <ele>2297</ele>
        <time>2021-05-13T10:16:58.945Z</time>
      </trkpt>
      <trkpt lat="44.13557" lon="6.97311">
        <ele>2297</ele>
        <time>2021-05-13T10:17:03.953Z</time>
      </trkpt>
      <trkpt lat="44.13552" lon="6.9732">
        <ele>2294</ele>
        <time>2021-05-13T10:17:08.945Z</time>
      </trkpt>
      <trkpt lat="44.13554" lon="6.9733">
        <ele>2294</ele>
        <time>2021-05-13T10:17:13.940Z</time>
      </trkpt>
      <trkpt lat="44.1355" lon="6.9734">
        <ele>2294</ele>
        <time>2021-05-13T10:17:18.940Z</time>
      </trkpt>
      <trkpt lat="44.13548" lon="6.97347">
        <ele>2294</ele>
        <time>2021-05-13T10:17:23.938Z</time>
      </trkpt>
      <trkpt lat="44.13545" lon="6.97353">
        <ele>2293</ele>
        <time>2021-05-13T10:17:28.946Z</time>
      </trkpt>
      <trkpt lat="44.13541" lon="6.97363">
        <ele>2288</ele>
        <time>2021-05-13T10:17:33.937Z</time>
      </trkpt>
      <trkpt lat="44.13536" lon="6.9737">
        <ele>2288</ele>
        <time>2021-05-13T10:17:38.968Z</time>
      </trkpt>
      <trkpt lat="44.13532" lon="6.97376">
        <ele>2282</ele>
        <time>2021-05-13T10:17:43.944Z</time>
      </trkpt>
      <trkpt lat="44.13529" lon="6.97382">
        <ele>2282</ele>
        <time>2021-05-13T10:17:48.940Z</time>
      </trkpt>
      <trkpt lat="44.13526" lon="6.97388">
        <ele>2282</ele>
        <time>2021-05-13T10:17:53.950Z</time>
      </trkpt>
      <trkpt lat="44.13523" lon="6.9739">
        <ele>2282</ele>
        <time>2021-05-13T10:17:58.942Z</time>
      </trkpt>
      <trkpt lat="44.1352" lon="6.97397">
        <ele>2282</ele>
        <time>2021-05-13T10:18:03.942Z</time>
      </trkpt>
      <trkpt lat="44.13515" lon="6.974">
        <ele>2282</ele>
        <time>2021-05-13T10:18:08.950Z</time>
      </trkpt>
      <trkpt lat="44.13513" lon="6.97407">
        <ele>2275</ele>
        <time>2021-05-13T10:18:13.948Z</time>
      </trkpt>
      <trkpt lat="44.13513" lon="6.97414">
        <ele>2275</ele>
        <time>2021-05-13T10:18:18.947Z</time>
      </trkpt>
      <trkpt lat="44.13516" lon="6.97419">
        <ele>2277</ele>
        <time>2021-05-13T10:18:23.943Z</time>
      </trkpt>
      <trkpt lat="44.13519" lon="6.97425">
        <ele>2277</ele>
        <time>2021-05-13T10:18:28.941Z</time>
      </trkpt>
      <trkpt lat="44.13531" lon="6.97437">
        <ele>2273</ele>
        <time>2021-05-13T10:18:53.945Z</time>
      </trkpt>
      <trkpt lat="44.13525" lon="6.97443">
        <ele>2273</ele>
        <time>2021-05-13T10:18:58.939Z</time>
      </trkpt>
      <trkpt lat="44.1352" lon="6.97451">
        <ele>2273</ele>
        <time>2021-05-13T10:19:03.938Z</time>
      </trkpt>
      <trkpt lat="44.13515" lon="6.97459">
        <ele>2270</ele>
        <time>2021-05-13T10:19:08.944Z</time>
      </trkpt>
      <trkpt lat="44.13511" lon="6.97465">
        <ele>2267</ele>
        <time>2021-05-13T10:19:13.946Z</time>
      </trkpt>
      <trkpt lat="44.13507" lon="6.97469">
        <ele>2267</ele>
        <time>2021-05-13T10:19:18.945Z</time>
      </trkpt>
      <trkpt lat="44.13501" lon="6.97472">
        <ele>2267</ele>
        <time>2021-05-13T10:19:23.946Z</time>
      </trkpt>
      <trkpt lat="44.13497" lon="6.97474">
        <ele>2267</ele>
        <time>2021-05-13T10:19:28.960Z</time>
      </trkpt>
      <trkpt lat="44.13492" lon="6.97474">
        <ele>2267</ele>
        <time>2021-05-13T10:19:33.946Z</time>
      </trkpt>
      <trkpt lat="44.13486" lon="6.97474">
        <ele>2264</ele>
        <time>2021-05-13T10:19:38.944Z</time>
      </trkpt>
      <trkpt lat="44.1348" lon="6.97475">
        <ele>2264</ele>
        <time>2021-05-13T10:19:43.942Z</time>
      </trkpt>
      <trkpt lat="44.13478" lon="6.97481">
        <ele>2264</ele>
        <time>2021-05-13T10:19:48.949Z</time>
      </trkpt>
      <trkpt lat="44.13477" lon="6.97488">
        <ele>2260</ele>
        <time>2021-05-13T10:19:53.953Z</time>
      </trkpt>
      <trkpt lat="44.13479" lon="6.97495">
        <ele>2260</ele>
        <time>2021-05-13T10:19:58.949Z</time>
      </trkpt>
      <trkpt lat="44.13482" lon="6.97501">
        <ele>2260</ele>
        <time>2021-05-13T10:20:03.945Z</time>
      </trkpt>
      <trkpt lat="44.13485" lon="6.97506">
        <ele>2260</ele>
        <time>2021-05-13T10:20:08.943Z</time>
      </trkpt>
      <trkpt lat="44.13489" lon="6.97511">
        <ele>2261</ele>
        <time>2021-05-13T10:20:13.939Z</time>
      </trkpt>
      <trkpt lat="44.13495" lon="6.97521">
        <ele>2255</ele>
        <time>2021-05-13T10:21:53.946Z</time>
      </trkpt>
      <trkpt lat="44.13496" lon="6.97525">
        <ele>2255</ele>
        <time>2021-05-13T10:22:03.946Z</time>
      </trkpt>
      <trkpt lat="44.13498" lon="6.97534">
        <ele>2255</ele>
        <time>2021-05-13T10:22:08.933Z</time>
      </trkpt>
      <trkpt lat="44.13496" lon="6.97541">
        <ele>2255</ele>
        <time>2021-05-13T10:22:13.943Z</time>
      </trkpt>
      <trkpt lat="44.13493" lon="6.97547">
        <ele>2249</ele>
        <time>2021-05-13T10:22:18.945Z</time>
      </trkpt>
      <trkpt lat="44.13492" lon="6.97549">
        <ele>2249</ele>
        <time>2021-05-13T10:22:33.945Z</time>
      </trkpt>
      <trkpt lat="44.13492" lon="6.9755">
        <ele>2249</ele>
        <time>2021-05-13T10:22:38.943Z</time>
      </trkpt>
      <trkpt lat="44.1349" lon="6.97553">
        <ele>2249</ele>
        <time>2021-05-13T10:22:43.950Z</time>
      </trkpt>
      <trkpt lat="44.13488" lon="6.97557">
        <ele>2249</ele>
        <time>2021-05-13T10:22:48.945Z</time>
      </trkpt>
      <trkpt lat="44.13488" lon="6.97566">
        <ele>2249</ele>
        <time>2021-05-13T10:22:53.952Z</time>
      </trkpt>
      <trkpt lat="44.13486" lon="6.97573">
        <ele>2242</ele>
        <time>2021-05-13T10:22:58.948Z</time>
      </trkpt>
      <trkpt lat="44.13482" lon="6.9758">
        <ele>2242</ele>
        <time>2021-05-13T10:23:03.942Z</time>
      </trkpt>
      <trkpt lat="44.1348" lon="6.9759">
        <ele>2242</ele>
        <time>2021-05-13T10:23:08.964Z</time>
      </trkpt>
      <trkpt lat="44.13477" lon="6.97598">
        <ele>2235</ele>
        <time>2021-05-13T10:23:13.945Z</time>
      </trkpt>
      <trkpt lat="44.13475" lon="6.97606">
        <ele>2235</ele>
        <time>2021-05-13T10:23:18.927Z</time>
      </trkpt>
      <trkpt lat="44.13473" lon="6.97612">
        <ele>2235</ele>
        <time>2021-05-13T10:23:23.946Z</time>
      </trkpt>
      <trkpt lat="44.13471" lon="6.97617">
        <ele>2235</ele>
        <time>2021-05-13T10:23:27.947Z</time>
      </trkpt>
      <trkpt lat="44.13468" lon="6.97625">
        <ele>2228</ele>
        <time>2021-05-13T10:23:32.944Z</time>
      </trkpt>
      <trkpt lat="44.13467" lon="6.97631">
        <ele>2228</ele>
        <time>2021-05-13T10:23:36.952Z</time>
      </trkpt>
      <trkpt lat="44.13465" lon="6.97637">
        <ele>2228</ele>
        <time>2021-05-13T10:23:41.954Z</time>
      </trkpt>
      <trkpt lat="44.13464" lon="6.97642">
        <ele>2228</ele>
        <time>2021-05-13T10:23:46.945Z</time>
      </trkpt>
      <trkpt lat="44.13463" lon="6.97648">
        <ele>2228</ele>
        <time>2021-05-13T10:23:50.941Z</time>
      </trkpt>
      <trkpt lat="44.13461" lon="6.97655">
        <ele>2221</ele>
        <time>2021-05-13T10:23:55.937Z</time>
      </trkpt>
      <trkpt lat="44.1346" lon="6.97662">
        <ele>2221</ele>
        <time>2021-05-13T10:24:00.944Z</time>
      </trkpt>
      <trkpt lat="44.13458" lon="6.97667">
        <ele>2219</ele>
        <time>2021-05-13T10:24:05.945Z</time>
      </trkpt>
      <trkpt lat="44.13458" lon="6.97674">
        <ele>2219</ele>
        <time>2021-05-13T10:24:10.946Z</time>
      </trkpt>
      <trkpt lat="44.13458" lon="6.9768">
        <ele>2219</ele>
        <time>2021-05-13T10:24:15.945Z</time>
      </trkpt>
      <trkpt lat="44.13457" lon="6.97686">
        <ele>2215</ele>
        <time>2021-05-13T10:24:19.947Z</time>
      </trkpt>
      <trkpt lat="44.13456" lon="6.97693">
        <ele>2215</ele>
        <time>2021-05-13T10:24:24.948Z</time>
      </trkpt>
      <trkpt lat="44.13454" lon="6.977">
        <ele>2215</ele>
        <time>2021-05-13T10:24:29.961Z</time>
      </trkpt>
      <trkpt lat="44.13453" lon="6.97707">
        <ele>2215</ele>
        <time>2021-05-13T10:24:34.946Z</time>
      </trkpt>
      <trkpt lat="44.13454" lon="6.97712">
        <ele>2211</ele>
        <time>2021-05-13T10:24:38.949Z</time>
      </trkpt>
      <trkpt lat="44.13451" lon="6.97719">
        <ele>2211</ele>
        <time>2021-05-13T10:24:43.946Z</time>
      </trkpt>
      <trkpt lat="44.13449" lon="6.97726">
        <ele>2211</ele>
        <time>2021-05-13T10:24:48.945Z</time>
      </trkpt>
      <trkpt lat="44.13446" lon="6.97733">
        <ele>2211</ele>
        <time>2021-05-13T10:24:52.946Z</time>
      </trkpt>
      <trkpt lat="44.13443" lon="6.97739">
        <ele>2205</ele>
        <time>2021-05-13T10:24:57.945Z</time>
      </trkpt>
      <trkpt lat="44.1344" lon="6.97746">
        <ele>2205</ele>
        <time>2021-05-13T10:25:02.942Z</time>
      </trkpt>
      <trkpt lat="44.13439" lon="6.97752">
        <ele>2205</ele>
        <time>2021-05-13T10:25:06.951Z</time>
      </trkpt>
      <trkpt lat="44.1344" lon="6.97758">
        <ele>2205</ele>
        <time>2021-05-13T10:25:11.948Z</time>
      </trkpt>
      <trkpt lat="44.13441" lon="6.97763">
        <ele>2205</ele>
        <time>2021-05-13T10:25:16.945Z</time>
      </trkpt>
      <trkpt lat="44.13442" lon="6.97768">
        <ele>2197</ele>
        <time>2021-05-13T10:25:21.948Z</time>
      </trkpt>
      <trkpt lat="44.13439" lon="6.97771">
        <ele>2197</ele>
        <time>2021-05-13T10:25:26.943Z</time>
      </trkpt>
      <trkpt lat="44.13436" lon="6.97778">
        <ele>2197</ele>
        <time>2021-05-13T10:25:31.957Z</time>
      </trkpt>
      <trkpt lat="44.13433" lon="6.97785">
        <ele>2197</ele>
        <time>2021-05-13T10:25:36.946Z</time>
      </trkpt>
      <trkpt lat="44.13432" lon="6.97787">
        <ele>2197</ele>
        <time>2021-05-13T10:25:40.958Z</time>
      </trkpt>
      <trkpt lat="44.13427" lon="6.97793">
        <ele>2193</ele>
        <time>2021-05-13T10:25:45.944Z</time>
      </trkpt>
      <trkpt lat="44.13422" lon="6.97797">
        <ele>2193</ele>
        <time>2021-05-13T10:25:50.940Z</time>
      </trkpt>
      <trkpt lat="44.13417" lon="6.97799">
        <ele>2193</ele>
        <time>2021-05-13T10:25:55.952Z</time>
      </trkpt>
      <trkpt lat="44.13411" lon="6.97802">
        <ele>2193</ele>
        <time>2021-05-13T10:26:00.958Z</time>
      </trkpt>
      <trkpt lat="44.13405" lon="6.97805">
        <ele>2193</ele>
        <time>2021-05-13T10:26:05.955Z</time>
      </trkpt>
      <trkpt lat="44.13399" lon="6.97809">
        <ele>2190</ele>
        <time>2021-05-13T10:26:10.949Z</time>
      </trkpt>
      <trkpt lat="44.13395" lon="6.97814">
        <ele>2190</ele>
        <time>2021-05-13T10:26:15.947Z</time>
      </trkpt>
      <trkpt lat="44.13391" lon="6.97817">
        <ele>2190</ele>
        <time>2021-05-13T10:26:19.950Z</time>
      </trkpt>
      <trkpt lat="44.13387" lon="6.9782">
        <ele>2184</ele>
        <time>2021-05-13T10:26:24.952Z</time>
      </trkpt>
      <trkpt lat="44.13387" lon="6.97825">
        <ele>2184</ele>
        <time>2021-05-13T10:26:29.949Z</time>
      </trkpt>
      <trkpt lat="44.13387" lon="6.9783">
        <ele>2184</ele>
        <time>2021-05-13T10:26:34.941Z</time>
      </trkpt>
      <trkpt lat="44.13387" lon="6.97836">
        <ele>2184</ele>
        <time>2021-05-13T10:26:38.950Z</time>
      </trkpt>
      <trkpt lat="44.13386" lon="6.97843">
        <ele>2184</ele>
        <time>2021-05-13T10:26:43.947Z</time>
      </trkpt>
      <trkpt lat="44.13387" lon="6.97852">
        <ele>2177</ele>
        <time>2021-05-13T10:26:48.951Z</time>
      </trkpt>
      <trkpt lat="44.13384" lon="6.97858">
        <ele>2177</ele>
        <time>2021-05-13T10:26:53.960Z</time>
      </trkpt>
      <trkpt lat="44.1338" lon="6.97864">
        <ele>2177</ele>
        <time>2021-05-13T10:26:58.948Z</time>
      </trkpt>
      <trkpt lat="44.13374" lon="6.97868">
        <ele>2177</ele>
        <time>2021-05-13T10:27:03.950Z</time>
      </trkpt>
      <trkpt lat="44.13373" lon="6.97874">
        <ele>2177</ele>
        <time>2021-05-13T10:27:08.951Z</time>
      </trkpt>
      <trkpt lat="44.13378" lon="6.97881">
        <ele>2172</ele>
        <time>2021-05-13T10:27:13.946Z</time>
      </trkpt>
      <trkpt lat="44.13381" lon="6.97887">
        <ele>2172</ele>
        <time>2021-05-13T10:27:18.949Z</time>
      </trkpt>
      <trkpt lat="44.13386" lon="6.9789">
        <ele>2172</ele>
        <time>2021-05-13T10:27:23.942Z</time>
      </trkpt>
      <trkpt lat="44.13391" lon="6.97893">
        <ele>2172</ele>
        <time>2021-05-13T10:27:28.941Z</time>
      </trkpt>
      <trkpt lat="44.13392" lon="6.979">
        <ele>2172</ele>
        <time>2021-05-13T10:27:33.949Z</time>
      </trkpt>
      <trkpt lat="44.1339" lon="6.97905">
        <ele>2168</ele>
        <time>2021-05-13T10:27:38.944Z</time>
      </trkpt>
      <trkpt lat="44.1339" lon="6.9791">
        <ele>2168</ele>
        <time>2021-05-13T10:27:43.940Z</time>
      </trkpt>
      <trkpt lat="44.13391" lon="6.97916">
        <ele>2168</ele>
        <time>2021-05-13T10:27:47.954Z</time>
      </trkpt>
      <trkpt lat="44.13391" lon="6.97919">
        <ele>2168</ele>
        <time>2021-05-13T10:27:52.948Z</time>
      </trkpt>
      <trkpt lat="44.13394" lon="6.97925">
        <ele>2168</ele>
        <time>2021-05-13T10:27:57.943Z</time>
      </trkpt>
      <trkpt lat="44.13395" lon="6.97928">
        <ele>2168</ele>
        <time>2021-05-13T10:28:02.940Z</time>
      </trkpt>
      <trkpt lat="44.13397" lon="6.97933">
        <ele>2165</ele>
        <time>2021-05-13T10:28:07.949Z</time>
      </trkpt>
      <trkpt lat="44.13396" lon="6.9794">
        <ele>2165</ele>
        <time>2021-05-13T10:28:12.954Z</time>
      </trkpt>
      <trkpt lat="44.13397" lon="6.97945">
        <ele>2165</ele>
        <time>2021-05-13T10:28:17.939Z</time>
      </trkpt>
      <trkpt lat="44.13398" lon="6.97949">
        <ele>2165</ele>
        <time>2021-05-13T10:28:22.949Z</time>
      </trkpt>
      <trkpt lat="44.13398" lon="6.97952">
        <ele>2165</ele>
        <time>2021-05-13T10:28:27.946Z</time>
      </trkpt>
      <trkpt lat="44.13399" lon="6.97957">
        <ele>2165</ele>
        <time>2021-05-13T10:28:32.946Z</time>
      </trkpt>
      <trkpt lat="44.13399" lon="6.97962">
        <ele>2159</ele>
        <time>2021-05-13T10:28:37.949Z</time>
      </trkpt>
      <trkpt lat="44.13398" lon="6.97966">
        <ele>2159</ele>
        <time>2021-05-13T10:28:42.941Z</time>
      </trkpt>
      <trkpt lat="44.13398" lon="6.97967">
        <ele>2159</ele>
        <time>2021-05-13T10:28:47.945Z</time>
      </trkpt>
      <trkpt lat="44.134" lon="6.97973">
        <ele>2159</ele>
        <time>2021-05-13T10:28:52.947Z</time>
      </trkpt>
      <trkpt lat="44.134" lon="6.97975">
        <ele>2159</ele>
        <time>2021-05-13T10:28:56.948Z</time>
      </trkpt>
      <trkpt lat="44.13402" lon="6.9798">
        <ele>2159</ele>
        <time>2021-05-13T10:29:01.952Z</time>
      </trkpt>
      <trkpt lat="44.13401" lon="6.97987">
        <ele>2149</ele>
        <time>2021-05-13T10:29:10.954Z</time>
      </trkpt>
      <trkpt lat="44.134" lon="6.9799">
        <ele>2149</ele>
        <time>2021-05-13T10:29:15.941Z</time>
      </trkpt>
      <trkpt lat="44.134" lon="6.97991">
        <ele>2149</ele>
        <time>2021-05-13T10:29:25.949Z</time>
      </trkpt>
      <trkpt lat="44.134" lon="6.97997">
        <ele>2149</ele>
        <time>2021-05-13T10:29:30.959Z</time>
      </trkpt>
      <trkpt lat="44.13404" lon="6.98003">
        <ele>2148</ele>
        <time>2021-05-13T10:29:35.950Z</time>
      </trkpt>
      <trkpt lat="44.13408" lon="6.98009">
        <ele>2148</ele>
        <time>2021-05-13T10:29:40.955Z</time>
      </trkpt>
      <trkpt lat="44.13407" lon="6.98018">
        <ele>2144</ele>
        <time>2021-05-13T10:29:45.941Z</time>
      </trkpt>
      <trkpt lat="44.13407" lon="6.98027">
        <ele>2144</ele>
        <time>2021-05-13T10:29:50.958Z</time>
      </trkpt>
      <trkpt lat="44.13406" lon="6.98035">
        <ele>2144</ele>
        <time>2021-05-13T10:29:55.944Z</time>
      </trkpt>
      <trkpt lat="44.13403" lon="6.98042">
        <ele>2143</ele>
        <time>2021-05-13T10:30:00.947Z</time>
      </trkpt>
      <trkpt lat="44.134" lon="6.98051">
        <ele>2141</ele>
        <time>2021-05-13T10:30:05.948Z</time>
      </trkpt>
      <trkpt lat="44.13399" lon="6.98061">
        <ele>2141</ele>
        <time>2021-05-13T10:30:10.953Z</time>
      </trkpt>
      <trkpt lat="44.13397" lon="6.98068">
        <ele>2141</ele>
        <time>2021-05-13T10:30:15.943Z</time>
      </trkpt>
      <trkpt lat="44.13392" lon="6.98074">
        <ele>2139</ele>
        <time>2021-05-13T10:30:20.942Z</time>
      </trkpt>
      <trkpt lat="44.13386" lon="6.98076">
        <ele>2139</ele>
        <time>2021-05-13T10:30:25.949Z</time>
      </trkpt>
      <trkpt lat="44.13385" lon="6.98078">
        <ele>2139</ele>
        <time>2021-05-13T10:30:30.954Z</time>
      </trkpt>
      <trkpt lat="44.13384" lon="6.98079">
        <ele>2139</ele>
        <time>2021-05-13T10:30:35.957Z</time>
      </trkpt>
      <trkpt lat="44.13379" lon="6.98081">
        <ele>2139</ele>
        <time>2021-05-13T10:30:40.951Z</time>
      </trkpt>
      <trkpt lat="44.13374" lon="6.98086">
        <ele>2137</ele>
        <time>2021-05-13T10:30:45.947Z</time>
      </trkpt>
      <trkpt lat="44.13373" lon="6.98087">
        <ele>2137</ele>
        <time>2021-05-13T10:30:49.949Z</time>
      </trkpt>
      <trkpt lat="44.13369" lon="6.98091">
        <ele>2137</ele>
        <time>2021-05-13T10:30:54.949Z</time>
      </trkpt>
      <trkpt lat="44.13364" lon="6.98095">
        <ele>2137</ele>
        <time>2021-05-13T10:30:59.945Z</time>
      </trkpt>
      <trkpt lat="44.13359" lon="6.98099">
        <ele>2135</ele>
        <time>2021-05-13T10:31:04.944Z</time>
      </trkpt>
      <trkpt lat="44.13354" lon="6.98104">
        <ele>2135</ele>
        <time>2021-05-13T10:31:09.949Z</time>
      </trkpt>
      <trkpt lat="44.13347" lon="6.9811">
        <ele>2130</ele>
        <time>2021-05-13T10:31:14.954Z</time>
      </trkpt>
      <trkpt lat="44.13343" lon="6.98114">
        <ele>2130</ele>
        <time>2021-05-13T10:31:19.946Z</time>
      </trkpt>
      <trkpt lat="44.13338" lon="6.9812">
        <ele>2130</ele>
        <time>2021-05-13T10:31:24.946Z</time>
      </trkpt>
      <trkpt lat="44.13333" lon="6.98125">
        <ele>2130</ele>
        <time>2021-05-13T10:31:29.946Z</time>
      </trkpt>
      <trkpt lat="44.13327" lon="6.9813">
        <ele>2133</ele>
        <time>2021-05-13T10:31:34.953Z</time>
      </trkpt>
      <trkpt lat="44.13322" lon="6.98134">
        <ele>2133</ele>
        <time>2021-05-13T10:31:39.942Z</time>
      </trkpt>
      <trkpt lat="44.13316" lon="6.98139">
        <ele>2124</ele>
        <time>2021-05-13T10:31:44.951Z</time>
      </trkpt>
      <trkpt lat="44.1331" lon="6.98142">
        <ele>2124</ele>
        <time>2021-05-13T10:31:49.954Z</time>
      </trkpt>
      <trkpt lat="44.13305" lon="6.98145">
        <ele>2124</ele>
        <time>2021-05-13T10:31:54.947Z</time>
      </trkpt>
      <trkpt lat="44.13295" lon="6.98153">
        <ele>2128</ele>
        <time>2021-05-13T10:32:38.946Z</time>
      </trkpt>
      <trkpt lat="44.13293" lon="6.9816">
        <ele>2128</ele>
        <time>2021-05-13T10:32:43.947Z</time>
      </trkpt>
      <trkpt lat="44.13288" lon="6.98164">
        <ele>2124</ele>
        <time>2021-05-13T10:32:48.960Z</time>
      </trkpt>
      <trkpt lat="44.13283" lon="6.9817">
        <ele>2124</ele>
        <time>2021-05-13T10:32:53.955Z</time>
      </trkpt>
      <trkpt lat="44.13279" lon="6.98176">
        <ele>2124</ele>
        <time>2021-05-13T10:32:58.950Z</time>
      </trkpt>
      <trkpt lat="44.13275" lon="6.98183">
        <ele>2127</ele>
        <time>2021-05-13T10:33:03.958Z</time>
      </trkpt>
      <trkpt lat="44.1327" lon="6.9819">
        <ele>2127</ele>
        <time>2021-05-13T10:33:08.947Z</time>
      </trkpt>
      <trkpt lat="44.13265" lon="6.98197">
        <ele>2127</ele>
        <time>2021-05-13T10:33:13.950Z</time>
      </trkpt>
      <trkpt lat="44.13261" lon="6.98205">
        <ele>2119</ele>
        <time>2021-05-13T10:33:18.944Z</time>
      </trkpt>
      <trkpt lat="44.13256" lon="6.9821">
        <ele>2122</ele>
        <time>2021-05-13T10:33:22.952Z</time>
      </trkpt>
      <trkpt lat="44.13253" lon="6.98219">
        <ele>2122</ele>
        <time>2021-05-13T10:33:27.951Z</time>
      </trkpt>
      <trkpt lat="44.13249" lon="6.98226">
        <ele>2122</ele>
        <time>2021-05-13T10:33:32.951Z</time>
      </trkpt>
      <trkpt lat="44.13248" lon="6.98235">
        <ele>2122</ele>
        <time>2021-05-13T10:33:37.954Z</time>
      </trkpt>
      <trkpt lat="44.13244" lon="6.98241">
        <ele>2122</ele>
        <time>2021-05-13T10:33:42.953Z</time>
      </trkpt>
      <trkpt lat="44.13244" lon="6.98248">
        <ele>2122</ele>
        <time>2021-05-13T10:33:47.958Z</time>
      </trkpt>
      <trkpt lat="44.13246" lon="6.98256">
        <ele>2122</ele>
        <time>2021-05-13T10:33:52.956Z</time>
      </trkpt>
      <trkpt lat="44.13246" lon="6.98262">
        <ele>2122</ele>
        <time>2021-05-13T10:33:57.960Z</time>
      </trkpt>
      <trkpt lat="44.13246" lon="6.9827">
        <ele>2121</ele>
        <time>2021-05-13T10:34:02.942Z</time>
      </trkpt>
      <trkpt lat="44.13245" lon="6.98278">
        <ele>2121</ele>
        <time>2021-05-13T10:34:07.936Z</time>
      </trkpt>
      <trkpt lat="44.13244" lon="6.98287">
        <ele>2121</ele>
        <time>2021-05-13T10:34:12.954Z</time>
      </trkpt>
      <trkpt lat="44.13244" lon="6.98295">
        <ele>2119</ele>
        <time>2021-05-13T10:34:17.944Z</time>
      </trkpt>
      <trkpt lat="44.13244" lon="6.98301">
        <ele>2119</ele>
        <time>2021-05-13T10:34:21.957Z</time>
      </trkpt>
      <trkpt lat="44.13241" lon="6.98307">
        <ele>2119</ele>
        <time>2021-05-13T10:34:26.950Z</time>
      </trkpt>
      <trkpt lat="44.13238" lon="6.98314">
        <ele>2119</ele>
        <time>2021-05-13T10:34:31.954Z</time>
      </trkpt>
      <trkpt lat="44.13235" lon="6.98319">
        <ele>2120</ele>
        <time>2021-05-13T10:34:36.955Z</time>
      </trkpt>
      <trkpt lat="44.13232" lon="6.98326">
        <ele>2118</ele>
        <time>2021-05-13T10:34:41.959Z</time>
      </trkpt>
      <trkpt lat="44.1323" lon="6.98332">
        <ele>2118</ele>
        <time>2021-05-13T10:34:46.951Z</time>
      </trkpt>
      <trkpt lat="44.13229" lon="6.98339">
        <ele>2118</ele>
        <time>2021-05-13T10:34:51.958Z</time>
      </trkpt>
      <trkpt lat="44.13231" lon="6.98343">
        <ele>2118</ele>
        <time>2021-05-13T10:34:56.942Z</time>
      </trkpt>
      <trkpt lat="44.13231" lon="6.98346">
        <ele>2118</ele>
        <time>2021-05-13T10:35:00.932Z</time>
      </trkpt>
      <trkpt lat="44.13232" lon="6.9835">
        <ele>2115</ele>
        <time>2021-05-13T10:35:05.953Z</time>
      </trkpt>
      <trkpt lat="44.13233" lon="6.98358">
        <ele>2115</ele>
        <time>2021-05-13T10:35:10.943Z</time>
      </trkpt>
      <trkpt lat="44.13234" lon="6.98363">
        <ele>2115</ele>
        <time>2021-05-13T10:35:15.950Z</time>
      </trkpt>
      <trkpt lat="44.13237" lon="6.98368">
        <ele>2114</ele>
        <time>2021-05-13T10:35:20.951Z</time>
      </trkpt>
      <trkpt lat="44.13238" lon="6.98373">
        <ele>2114</ele>
        <time>2021-05-13T10:35:24.961Z</time>
      </trkpt>
      <trkpt lat="44.13238" lon="6.9838">
        <ele>2112</ele>
        <time>2021-05-13T10:35:29.946Z</time>
      </trkpt>
      <trkpt lat="44.13238" lon="6.98386">
        <ele>2112</ele>
        <time>2021-05-13T10:35:33.963Z</time>
      </trkpt>
      <trkpt lat="44.13236" lon="6.98391">
        <ele>2112</ele>
        <time>2021-05-13T10:35:38.954Z</time>
      </trkpt>
      <trkpt lat="44.13232" lon="6.984">
        <ele>2112</ele>
        <time>2021-05-13T10:35:43.950Z</time>
      </trkpt>
      <trkpt lat="44.1323" lon="6.98406">
        <ele>2110</ele>
        <time>2021-05-13T10:35:48.955Z</time>
      </trkpt>
      <trkpt lat="44.13227" lon="6.98412">
        <ele>2110</ele>
        <time>2021-05-13T10:35:53.947Z</time>
      </trkpt>
      <trkpt lat="44.13224" lon="6.9842">
        <ele>2110</ele>
        <time>2021-05-13T10:35:58.953Z</time>
      </trkpt>
      <trkpt lat="44.13222" lon="6.98426">
        <ele>2110</ele>
        <time>2021-05-13T10:36:03.957Z</time>
      </trkpt>
      <trkpt lat="44.13218" lon="6.98432">
        <ele>2107</ele>
        <time>2021-05-13T10:36:08.946Z</time>
      </trkpt>
      <trkpt lat="44.13214" lon="6.98437">
        <ele>2107</ele>
        <time>2021-05-13T10:36:13.951Z</time>
      </trkpt>
      <trkpt lat="44.13211" lon="6.98441">
        <ele>2107</ele>
        <time>2021-05-13T10:36:18.948Z</time>
      </trkpt>
      <trkpt lat="44.13207" lon="6.98446">
        <ele>2103</ele>
        <time>2021-05-13T10:36:23.953Z</time>
      </trkpt>
      <trkpt lat="44.13204" lon="6.98447">
        <ele>2103</ele>
        <time>2021-05-13T10:36:28.950Z</time>
      </trkpt>
      <trkpt lat="44.13203" lon="6.9845">
        <ele>2103</ele>
        <time>2021-05-13T10:36:33.952Z</time>
      </trkpt>
      <trkpt lat="44.13203" lon="6.98449">
        <ele>2103</ele>
        <time>2021-05-13T10:36:58.954Z</time>
      </trkpt>
      <trkpt lat="44.13205" lon="6.98453">
        <ele>2103</ele>
        <time>2021-05-13T10:37:03.957Z</time>
      </trkpt>
      <trkpt lat="44.13203" lon="6.98455">
        <ele>2103</ele>
        <time>2021-05-13T10:37:08.948Z</time>
      </trkpt>
      <trkpt lat="44.13202" lon="6.98459">
        <ele>2099</ele>
        <time>2021-05-13T10:37:13.955Z</time>
      </trkpt>
      <trkpt lat="44.13201" lon="6.98464">
        <ele>2099</ele>
        <time>2021-05-13T10:37:18.958Z</time>
      </trkpt>
      <trkpt lat="44.132" lon="6.98469">
        <ele>2099</ele>
        <time>2021-05-13T10:37:23.952Z</time>
      </trkpt>
      <trkpt lat="44.13198" lon="6.98475">
        <ele>2099</ele>
        <time>2021-05-13T10:37:28.948Z</time>
      </trkpt>
      <trkpt lat="44.13196" lon="6.98481">
        <ele>2099</ele>
        <time>2021-05-13T10:37:33.928Z</time>
      </trkpt>
      <trkpt lat="44.13194" lon="6.98488">
        <ele>2095</ele>
        <time>2021-05-13T10:37:38.951Z</time>
      </trkpt>
      <trkpt lat="44.13192" lon="6.98495">
        <ele>2095</ele>
        <time>2021-05-13T10:37:43.945Z</time>
      </trkpt>
      <trkpt lat="44.1319" lon="6.98503">
        <ele>2095</ele>
        <time>2021-05-13T10:37:48.955Z</time>
      </trkpt>
      <trkpt lat="44.13188" lon="6.98511">
        <ele>2095</ele>
        <time>2021-05-13T10:37:53.952Z</time>
      </trkpt>
      <trkpt lat="44.13189" lon="6.98518">
        <ele>2090</ele>
        <time>2021-05-13T10:37:58.949Z</time>
      </trkpt>
      <trkpt lat="44.13187" lon="6.98524">
        <ele>2090</ele>
        <time>2021-05-13T10:38:03.950Z</time>
      </trkpt>
      <trkpt lat="44.13186" lon="6.98532">
        <ele>2090</ele>
        <time>2021-05-13T10:38:08.955Z</time>
      </trkpt>
      <trkpt lat="44.13183" lon="6.98539">
        <ele>2090</ele>
        <time>2021-05-13T10:38:13.956Z</time>
      </trkpt>
      <trkpt lat="44.13181" lon="6.98546">
        <ele>2083</ele>
        <time>2021-05-13T10:38:18.947Z</time>
      </trkpt>
      <trkpt lat="44.13179" lon="6.98554">
        <ele>2084</ele>
        <time>2021-05-13T10:38:23.951Z</time>
      </trkpt>
      <trkpt lat="44.13176" lon="6.98562">
        <ele>2084</ele>
        <time>2021-05-13T10:38:28.953Z</time>
      </trkpt>
      <trkpt lat="44.13173" lon="6.9857">
        <ele>2078</ele>
        <time>2021-05-13T10:38:33.947Z</time>
      </trkpt>
      <trkpt lat="44.1317" lon="6.98574">
        <ele>2078</ele>
        <time>2021-05-13T10:38:38.943Z</time>
      </trkpt>
      <trkpt lat="44.13165" lon="6.98579">
        <ele>2078</ele>
        <time>2021-05-13T10:38:43.961Z</time>
      </trkpt>
      <trkpt lat="44.13163" lon="6.98582">
        <ele>2078</ele>
        <time>2021-05-13T10:38:48.946Z</time>
      </trkpt>
      <trkpt lat="44.13162" lon="6.98587">
        <ele>2078</ele>
        <time>2021-05-13T10:38:53.949Z</time>
      </trkpt>
      <trkpt lat="44.13159" lon="6.98591">
        <ele>2078</ele>
        <time>2021-05-13T10:38:58.954Z</time>
      </trkpt>
      <trkpt lat="44.13155" lon="6.98593">
        <ele>2078</ele>
        <time>2021-05-13T10:39:03.955Z</time>
      </trkpt>
      <trkpt lat="44.13152" lon="6.98598">
        <ele>2072</ele>
        <time>2021-05-13T10:39:08.934Z</time>
      </trkpt>
      <trkpt lat="44.1315" lon="6.98603">
        <ele>2072</ele>
        <time>2021-05-13T10:39:12.951Z</time>
      </trkpt>
      <trkpt lat="44.13151" lon="6.98608">
        <ele>2072</ele>
        <time>2021-05-13T10:39:17.958Z</time>
      </trkpt>
      <trkpt lat="44.13151" lon="6.98614">
        <ele>2072</ele>
        <time>2021-05-13T10:39:22.950Z</time>
      </trkpt>
      <trkpt lat="44.13151" lon="6.9862">
        <ele>2072</ele>
        <time>2021-05-13T10:39:27.957Z</time>
      </trkpt>
      <trkpt lat="44.1315" lon="6.98626">
        <ele>2066</ele>
        <time>2021-05-13T10:39:32.954Z</time>
      </trkpt>
      <trkpt lat="44.13148" lon="6.98635">
        <ele>2066</ele>
        <time>2021-05-13T10:39:37.949Z</time>
      </trkpt>
      <trkpt lat="44.13147" lon="6.98641">
        <ele>2066</ele>
        <time>2021-05-13T10:39:42.950Z</time>
      </trkpt>
      <trkpt lat="44.13146" lon="6.98647">
        <ele>2066</ele>
        <time>2021-05-13T10:39:47.951Z</time>
      </trkpt>
      <trkpt lat="44.13146" lon="6.98652">
        <ele>2066</ele>
        <time>2021-05-13T10:39:52.944Z</time>
      </trkpt>
      <trkpt lat="44.13146" lon="6.98658">
        <ele>2062</ele>
        <time>2021-05-13T10:39:57.946Z</time>
      </trkpt>
      <trkpt lat="44.13148" lon="6.98667">
        <ele>2062</ele>
        <time>2021-05-13T10:40:02.951Z</time>
      </trkpt>
      <trkpt lat="44.13148" lon="6.98672">
        <ele>2062</ele>
        <time>2021-05-13T10:40:07.948Z</time>
      </trkpt>
      <trkpt lat="44.13148" lon="6.98678">
        <ele>2062</ele>
        <time>2021-05-13T10:40:12.951Z</time>
      </trkpt>
      <trkpt lat="44.13148" lon="6.98679">
        <ele>2062</ele>
        <time>2021-05-13T10:40:17.953Z</time>
      </trkpt>
      <trkpt lat="44.13148" lon="6.98682">
        <ele>2060</ele>
        <time>2021-05-13T10:40:32.953Z</time>
      </trkpt>
      <trkpt lat="44.13149" lon="6.98688">
        <ele>2060</ele>
        <time>2021-05-13T10:40:37.937Z</time>
      </trkpt>
      <trkpt lat="44.13148" lon="6.98691">
        <ele>2060</ele>
        <time>2021-05-13T10:40:41.945Z</time>
      </trkpt>
      <trkpt lat="44.13148" lon="6.98696">
        <ele>2060</ele>
        <time>2021-05-13T10:40:45.954Z</time>
      </trkpt>
      <trkpt lat="44.13149" lon="6.98703">
        <ele>2060</ele>
        <time>2021-05-13T10:40:50.960Z</time>
      </trkpt>
      <trkpt lat="44.13152" lon="6.98707">
        <ele>2060</ele>
        <time>2021-05-13T10:40:55.949Z</time>
      </trkpt>
      <trkpt lat="44.13154" lon="6.98714">
        <ele>2045</ele>
        <time>2021-05-13T10:41:00.958Z</time>
      </trkpt>
      <trkpt lat="44.13154" lon="6.98721">
        <ele>2045</ele>
        <time>2021-05-13T10:41:05.950Z</time>
      </trkpt>
      <trkpt lat="44.13154" lon="6.98727">
        <ele>2045</ele>
        <time>2021-05-13T10:41:10.951Z</time>
      </trkpt>
      <trkpt lat="44.13154" lon="6.98734">
        <ele>2045</ele>
        <time>2021-05-13T10:41:15.950Z</time>
      </trkpt>
      <trkpt lat="44.13154" lon="6.98739">
        <ele>2039</ele>
        <time>2021-05-13T10:41:20.934Z</time>
      </trkpt>
      <trkpt lat="44.13154" lon="6.98748">
        <ele>2039</ele>
        <time>2021-05-13T10:41:25.951Z</time>
      </trkpt>
      <trkpt lat="44.13152" lon="6.98757">
        <ele>2054</ele>
        <time>2021-05-13T10:41:30.953Z</time>
      </trkpt>
      <trkpt lat="44.13151" lon="6.98766">
        <ele>2053</ele>
        <time>2021-05-13T10:41:35.950Z</time>
      </trkpt>
      <trkpt lat="44.13149" lon="6.98773">
        <ele>2053</ele>
        <time>2021-05-13T10:41:40.956Z</time>
      </trkpt>
      <trkpt lat="44.1315" lon="6.98779">
        <ele>2053</ele>
        <time>2021-05-13T10:41:45.928Z</time>
      </trkpt>
      <trkpt lat="44.13152" lon="6.98784">
        <ele>2053</ele>
        <time>2021-05-13T10:41:49.951Z</time>
      </trkpt>
      <trkpt lat="44.13154" lon="6.98791">
        <ele>2035</ele>
        <time>2021-05-13T10:41:54.947Z</time>
      </trkpt>
      <trkpt lat="44.13154" lon="6.98797">
        <ele>2036</ele>
        <time>2021-05-13T10:41:58.933Z</time>
      </trkpt>
      <trkpt lat="44.13153" lon="6.98805">
        <ele>2036</ele>
        <time>2021-05-13T10:42:03.944Z</time>
      </trkpt>
      <trkpt lat="44.13153" lon="6.98807">
        <ele>2036</ele>
        <time>2021-05-13T10:42:08.930Z</time>
      </trkpt>
      <trkpt lat="44.13155" lon="6.9881">
        <ele>2036</ele>
        <time>2021-05-13T10:42:12.950Z</time>
      </trkpt>
      <trkpt lat="44.13158" lon="6.98817">
        <ele>2036</ele>
        <time>2021-05-13T10:42:17.943Z</time>
      </trkpt>
      <trkpt lat="44.1316" lon="6.98823">
        <ele>2039</ele>
        <time>2021-05-13T10:42:22.953Z</time>
      </trkpt>
      <trkpt lat="44.13161" lon="6.98826">
        <ele>2039</ele>
        <time>2021-05-13T10:42:27.962Z</time>
      </trkpt>
      <trkpt lat="44.13162" lon="6.98834">
        <ele>2039</ele>
        <time>2021-05-13T10:42:32.950Z</time>
      </trkpt>
      <trkpt lat="44.13163" lon="6.98842">
        <ele>2039</ele>
        <time>2021-05-13T10:42:37.944Z</time>
      </trkpt>
      <trkpt lat="44.13164" lon="6.98847">
        <ele>2040</ele>
        <time>2021-05-13T10:42:42.950Z</time>
      </trkpt>
      <trkpt lat="44.13165" lon="6.98853">
        <ele>2040</ele>
        <time>2021-05-13T10:42:47.953Z</time>
      </trkpt>
      <trkpt lat="44.13165" lon="6.98862">
        <ele>2040</ele>
        <time>2021-05-13T10:42:52.940Z</time>
      </trkpt>
      <trkpt lat="44.13165" lon="6.98868">
        <ele>2040</ele>
        <time>2021-05-13T10:42:56.954Z</time>
      </trkpt>
      <trkpt lat="44.13166" lon="6.98874">
        <ele>2040</ele>
        <time>2021-05-13T10:43:01.930Z</time>
      </trkpt>
      <trkpt lat="44.13166" lon="6.9888">
        <ele>2039</ele>
        <time>2021-05-13T10:43:05.943Z</time>
      </trkpt>
      <trkpt lat="44.13167" lon="6.98887">
        <ele>2039</ele>
        <time>2021-05-13T10:43:09.955Z</time>
      </trkpt>
      <trkpt lat="44.13167" lon="6.98895">
        <ele>2039</ele>
        <time>2021-05-13T10:43:14.946Z</time>
      </trkpt>
      <trkpt lat="44.13166" lon="6.98902">
        <ele>2039</ele>
        <time>2021-05-13T10:43:19.950Z</time>
      </trkpt>
      <trkpt lat="44.13166" lon="6.98908">
        <ele>2036</ele>
        <time>2021-05-13T10:43:23.952Z</time>
      </trkpt>
      <trkpt lat="44.13167" lon="6.98914">
        <ele>2036</ele>
        <time>2021-05-13T10:43:28.943Z</time>
      </trkpt>
      <trkpt lat="44.13167" lon="6.98919">
        <ele>2036</ele>
        <time>2021-05-13T10:43:32.951Z</time>
      </trkpt>
      <trkpt lat="44.13166" lon="6.98928">
        <ele>2036</ele>
        <time>2021-05-13T10:43:37.962Z</time>
      </trkpt>
      <trkpt lat="44.13167" lon="6.98932">
        <ele>2031</ele>
        <time>2021-05-13T10:43:42.942Z</time>
      </trkpt>
      <trkpt lat="44.13168" lon="6.98938">
        <ele>2031</ele>
        <time>2021-05-13T10:43:47.944Z</time>
      </trkpt>
      <trkpt lat="44.1317" lon="6.98945">
        <ele>2031</ele>
        <time>2021-05-13T10:43:52.945Z</time>
      </trkpt>
      <trkpt lat="44.13172" lon="6.98952">
        <ele>2031</ele>
        <time>2021-05-13T10:43:57.945Z</time>
      </trkpt>
      <trkpt lat="44.13175" lon="6.9896">
        <ele>2028</ele>
        <time>2021-05-13T10:44:02.946Z</time>
      </trkpt>
      <trkpt lat="44.13177" lon="6.98968">
        <ele>2028</ele>
        <time>2021-05-13T10:44:07.949Z</time>
      </trkpt>
      <trkpt lat="44.13178" lon="6.98975">
        <ele>2028</ele>
        <time>2021-05-13T10:44:12.948Z</time>
      </trkpt>
      <trkpt lat="44.13177" lon="6.98985">
        <ele>2028</ele>
        <time>2021-05-13T10:44:17.951Z</time>
      </trkpt>
      <trkpt lat="44.13176" lon="6.98992">
        <ele>2023</ele>
        <time>2021-05-13T10:44:21.951Z</time>
      </trkpt>
      <trkpt lat="44.13175" lon="6.98999">
        <ele>2023</ele>
        <time>2021-05-13T10:44:26.951Z</time>
      </trkpt>
      <trkpt lat="44.13177" lon="6.99005">
        <ele>2023</ele>
        <time>2021-05-13T10:44:31.953Z</time>
      </trkpt>
      <trkpt lat="44.1318" lon="6.9901">
        <ele>2023</ele>
        <time>2021-05-13T10:44:36.951Z</time>
      </trkpt>
      <trkpt lat="44.13181" lon="6.99013">
        <ele>2020</ele>
        <time>2021-05-13T10:44:41.966Z</time>
      </trkpt>
      <trkpt lat="44.13183" lon="6.99017">
        <ele>2020</ele>
        <time>2021-05-13T10:44:50.951Z</time>
      </trkpt>
      <trkpt lat="44.13182" lon="6.99018">
        <ele>2020</ele>
        <time>2021-05-13T10:45:00.945Z</time>
      </trkpt>
      <trkpt lat="44.13181" lon="6.99022">
        <ele>2020</ele>
        <time>2021-05-13T10:45:05.948Z</time>
      </trkpt>
      <trkpt lat="44.13181" lon="6.99028">
        <ele>2020</ele>
        <time>2021-05-13T10:45:10.946Z</time>
      </trkpt>
      <trkpt lat="44.13182" lon="6.99033">
        <ele>2020</ele>
        <time>2021-05-13T10:45:14.949Z</time>
      </trkpt>
      <trkpt lat="44.13183" lon="6.99039">
        <ele>2020</ele>
        <time>2021-05-13T10:45:37.942Z</time>
      </trkpt>
      <trkpt lat="44.13182" lon="6.99044">
        <ele>2023</ele>
        <time>2021-05-13T10:45:42.940Z</time>
      </trkpt>
      <trkpt lat="44.1318" lon="6.99046">
        <ele>2019</ele>
        <time>2021-05-13T10:45:47.946Z</time>
      </trkpt>
      <trkpt lat="44.13179" lon="6.99053">
        <ele>2019</ele>
        <time>2021-05-13T10:45:52.947Z</time>
      </trkpt>
      <trkpt lat="44.13178" lon="6.99053">
        <ele>2019</ele>
        <time>2021-05-13T10:45:57.960Z</time>
      </trkpt>
      <trkpt lat="44.13179" lon="6.99054">
        <ele>2019</ele>
        <time>2021-05-13T10:46:02.938Z</time>
      </trkpt>
      <trkpt lat="44.13181" lon="6.99061">
        <ele>2023</ele>
        <time>2021-05-13T10:46:07.939Z</time>
      </trkpt>
      <trkpt lat="44.13178" lon="6.99069">
        <ele>2019</ele>
        <time>2021-05-13T10:46:12.943Z</time>
      </trkpt>
      <trkpt lat="44.13176" lon="6.99078">
        <ele>2019</ele>
        <time>2021-05-13T10:46:17.946Z</time>
      </trkpt>
      <trkpt lat="44.13172" lon="6.99086">
        <ele>2019</ele>
        <time>2021-05-13T10:46:22.946Z</time>
      </trkpt>
      <trkpt lat="44.13169" lon="6.99092">
        <ele>2019</ele>
        <time>2021-05-13T10:46:27.955Z</time>
      </trkpt>
      <trkpt lat="44.13165" lon="6.99099">
        <ele>2017</ele>
        <time>2021-05-13T10:46:32.945Z</time>
      </trkpt>
      <trkpt lat="44.13161" lon="6.99106">
        <ele>2017</ele>
        <time>2021-05-13T10:46:37.947Z</time>
      </trkpt>
      <trkpt lat="44.13157" lon="6.99113">
        <ele>2017</ele>
        <time>2021-05-13T10:46:42.951Z</time>
      </trkpt>
      <trkpt lat="44.13153" lon="6.99121">
        <ele>2004</ele>
        <time>2021-05-13T10:46:47.949Z</time>
      </trkpt>
      <trkpt lat="44.13149" lon="6.99129">
        <ele>2000</ele>
        <time>2021-05-13T10:46:52.944Z</time>
      </trkpt>
      <trkpt lat="44.13145" lon="6.99136">
        <ele>2000</ele>
        <time>2021-05-13T10:46:57.950Z</time>
      </trkpt>
      <trkpt lat="44.13141" lon="6.99143">
        <ele>2000</ele>
        <time>2021-05-13T10:47:02.940Z</time>
      </trkpt>
      <trkpt lat="44.1314" lon="6.99148">
        <ele>2000</ele>
        <time>2021-05-13T10:47:07.950Z</time>
      </trkpt>
      <trkpt lat="44.13138" lon="6.99156">
        <ele>2000</ele>
        <time>2021-05-13T10:47:12.942Z</time>
      </trkpt>
      <trkpt lat="44.13136" lon="6.99163">
        <ele>2000</ele>
        <time>2021-05-13T10:47:17.941Z</time>
      </trkpt>
      <trkpt lat="44.13135" lon="6.99166">
        <ele>2000</ele>
        <time>2021-05-13T10:47:22.942Z</time>
      </trkpt>
      <trkpt lat="44.13132" lon="6.99173">
        <ele>2000</ele>
        <time>2021-05-13T10:47:27.949Z</time>
      </trkpt>
      <trkpt lat="44.1313" lon="6.99177">
        <ele>2000</ele>
        <time>2021-05-13T10:47:32.939Z</time>
      </trkpt>
      <trkpt lat="44.13129" lon="6.99181">
        <ele>2000</ele>
        <time>2021-05-13T10:47:36.943Z</time>
      </trkpt>
      <trkpt lat="44.13128" lon="6.99189">
        <ele>2001</ele>
        <time>2021-05-13T10:47:41.942Z</time>
      </trkpt>
      <trkpt lat="44.13128" lon="6.99197">
        <ele>2001</ele>
        <time>2021-05-13T10:47:46.933Z</time>
      </trkpt>
      <trkpt lat="44.1313" lon="6.99203">
        <ele>2001</ele>
        <time>2021-05-13T10:47:50.945Z</time>
      </trkpt>
      <trkpt lat="44.13131" lon="6.99209">
        <ele>2000</ele>
        <time>2021-05-13T10:47:55.946Z</time>
      </trkpt>
      <trkpt lat="44.13132" lon="6.99216">
        <ele>2000</ele>
        <time>2021-05-13T10:48:00.942Z</time>
      </trkpt>
      <trkpt lat="44.13135" lon="6.99222">
        <ele>2000</ele>
        <time>2021-05-13T10:48:05.950Z</time>
      </trkpt>
      <trkpt lat="44.13136" lon="6.9923">
        <ele>2000</ele>
        <time>2021-05-13T10:48:10.942Z</time>
      </trkpt>
      <trkpt lat="44.13139" lon="6.99236">
        <ele>2000</ele>
        <time>2021-05-13T10:48:15.952Z</time>
      </trkpt>
      <trkpt lat="44.13143" lon="6.99243">
        <ele>1994</ele>
        <time>2021-05-13T10:48:20.927Z</time>
      </trkpt>
      <trkpt lat="44.13145" lon="6.99248">
        <ele>1994</ele>
        <time>2021-05-13T10:48:24.957Z</time>
      </trkpt>
      <trkpt lat="44.13149" lon="6.99255">
        <ele>1994</ele>
        <time>2021-05-13T10:48:29.953Z</time>
      </trkpt>
      <trkpt lat="44.13152" lon="6.9926">
        <ele>1994</ele>
        <time>2021-05-13T10:48:34.945Z</time>
      </trkpt>
      <trkpt lat="44.13155" lon="6.99265">
        <ele>1996</ele>
        <time>2021-05-13T10:48:38.955Z</time>
      </trkpt>
      <trkpt lat="44.13158" lon="6.99272">
        <ele>1996</ele>
        <time>2021-05-13T10:48:43.949Z</time>
      </trkpt>
      <trkpt lat="44.13163" lon="6.99278">
        <ele>1996</ele>
        <time>2021-05-13T10:48:48.946Z</time>
      </trkpt>
      <trkpt lat="44.13167" lon="6.99282">
        <ele>1996</ele>
        <time>2021-05-13T10:48:52.972Z</time>
      </trkpt>
      <trkpt lat="44.13171" lon="6.99287">
        <ele>1996</ele>
        <time>2021-05-13T10:48:57.961Z</time>
      </trkpt>
      <trkpt lat="44.13175" lon="6.99291">
        <ele>1996</ele>
        <time>2021-05-13T10:49:02.945Z</time>
      </trkpt>
      <trkpt lat="44.1318" lon="6.99296">
        <ele>1987</ele>
        <time>2021-05-13T10:49:07.961Z</time>
      </trkpt>
      <trkpt lat="44.13186" lon="6.99301">
        <ele>1991</ele>
        <time>2021-05-13T10:49:12.956Z</time>
      </trkpt>
      <trkpt lat="44.13194" lon="6.99302">
        <ele>1991</ele>
        <time>2021-05-13T10:49:17.951Z</time>
      </trkpt>
      <trkpt lat="44.13197" lon="6.99309">
        <ele>1991</ele>
        <time>2021-05-13T10:49:22.952Z</time>
      </trkpt>
      <trkpt lat="44.13198" lon="6.99314">
        <ele>1991</ele>
        <time>2021-05-13T10:49:27.953Z</time>
      </trkpt>
      <trkpt lat="44.13199" lon="6.99319">
        <ele>1991</ele>
        <time>2021-05-13T10:49:31.949Z</time>
      </trkpt>
      <trkpt lat="44.13203" lon="6.99325">
        <ele>1984</ele>
        <time>2021-05-13T10:49:36.949Z</time>
      </trkpt>
      <trkpt lat="44.13205" lon="6.99333">
        <ele>1984</ele>
        <time>2021-05-13T10:49:41.952Z</time>
      </trkpt>
      <trkpt lat="44.13208" lon="6.99341">
        <ele>1984</ele>
        <time>2021-05-13T10:49:46.929Z</time>
      </trkpt>
      <trkpt lat="44.1321" lon="6.99346">
        <ele>1992</ele>
        <time>2021-05-13T10:49:50.940Z</time>
      </trkpt>
      <trkpt lat="44.13214" lon="6.99353">
        <ele>1983</ele>
        <time>2021-05-13T10:49:55.954Z</time>
      </trkpt>
      <trkpt lat="44.13217" lon="6.99361">
        <ele>1983</ele>
        <time>2021-05-13T10:50:00.962Z</time>
      </trkpt>
      <trkpt lat="44.1322" lon="6.99369">
        <ele>1983</ele>
        <time>2021-05-13T10:50:05.952Z</time>
      </trkpt>
      <trkpt lat="44.13223" lon="6.99378">
        <ele>1977</ele>
        <time>2021-05-13T10:50:10.958Z</time>
      </trkpt>
      <trkpt lat="44.13224" lon="6.99387">
        <ele>1977</ele>
        <time>2021-05-13T10:50:15.951Z</time>
      </trkpt>
      <trkpt lat="44.13223" lon="6.99396">
        <ele>1977</ele>
        <time>2021-05-13T10:50:20.950Z</time>
      </trkpt>
      <trkpt lat="44.13223" lon="6.99405">
        <ele>1973</ele>
        <time>2021-05-13T10:50:25.947Z</time>
      </trkpt>
      <trkpt lat="44.13223" lon="6.99411">
        <ele>1973</ele>
        <time>2021-05-13T10:50:30.944Z</time>
      </trkpt>
      <trkpt lat="44.13225" lon="6.9941">
        <ele>1973</ele>
        <time>2021-05-13T10:51:08.953Z</time>
      </trkpt>
      <trkpt lat="44.13226" lon="6.99414">
        <ele>1973</ele>
        <time>2021-05-13T10:51:13.947Z</time>
      </trkpt>
      <trkpt lat="44.13222" lon="6.99415">
        <ele>1973</ele>
        <time>2021-05-13T10:51:18.959Z</time>
      </trkpt>
      <trkpt lat="44.13218" lon="6.99412">
        <ele>1973</ele>
        <time>2021-05-13T10:51:23.944Z</time>
      </trkpt>
      <trkpt lat="44.13215" lon="6.99406">
        <ele>1973</ele>
        <time>2021-05-13T10:51:28.956Z</time>
      </trkpt>
      <trkpt lat="44.13209" lon="6.99404">
        <ele>1973</ele>
        <time>2021-05-13T10:51:42.954Z</time>
      </trkpt>
      <trkpt lat="44.13207" lon="6.99404">
        <ele>1967</ele>
        <time>2021-05-13T10:52:19.960Z</time>
      </trkpt>
      <trkpt lat="44.13201" lon="6.99403">
        <ele>1967</ele>
        <time>2021-05-13T10:52:24.949Z</time>
      </trkpt>
      <trkpt lat="44.13196" lon="6.99399">
        <ele>1970</ele>
        <time>2021-05-13T10:52:29.957Z</time>
      </trkpt>
      <trkpt lat="44.13191" lon="6.99397">
        <ele>1970</ele>
        <time>2021-05-13T10:52:34.948Z</time>
      </trkpt>
      <trkpt lat="44.13186" lon="6.99394">
        <ele>1970</ele>
        <time>2021-05-13T10:52:39.951Z</time>
      </trkpt>
      <trkpt lat="44.13181" lon="6.99389">
        <ele>1970</ele>
        <time>2021-05-13T10:52:44.947Z</time>
      </trkpt>
      <trkpt lat="44.13177" lon="6.99383">
        <ele>1960</ele>
        <time>2021-05-13T10:52:49.954Z</time>
      </trkpt>
      <trkpt lat="44.13171" lon="6.99381">
        <ele>1960</ele>
        <time>2021-05-13T10:52:54.952Z</time>
      </trkpt>
      <trkpt lat="44.13165" lon="6.99379">
        <ele>1960</ele>
        <time>2021-05-13T10:52:59.953Z</time>
      </trkpt>
      <trkpt lat="44.13159" lon="6.99373">
        <ele>1967</ele>
        <time>2021-05-13T10:53:04.947Z</time>
      </trkpt>
      <trkpt lat="44.13152" lon="6.99367">
        <ele>1958</ele>
        <time>2021-05-13T10:53:09.949Z</time>
      </trkpt>
      <trkpt lat="44.13145" lon="6.99361">
        <ele>1958</ele>
        <time>2021-05-13T10:53:14.952Z</time>
      </trkpt>
      <trkpt lat="44.13141" lon="6.99359">
        <ele>1958</ele>
        <time>2021-05-13T10:53:28.962Z</time>
      </trkpt>
      <trkpt lat="44.13138" lon="6.99359">
        <ele>1958</ele>
        <time>2021-05-13T10:54:12.040Z</time>
      </trkpt>
      <trkpt lat="44.13133" lon="6.99359">
        <ele>1958</ele>
        <time>2021-05-13T10:54:16.965Z</time>
      </trkpt>
      <trkpt lat="44.13129" lon="6.99359">
        <ele>1958</ele>
        <time>2021-05-13T10:54:21.950Z</time>
      </trkpt>
      <trkpt lat="44.13124" lon="6.99358">
        <ele>1951</ele>
        <time>2021-05-13T10:54:26.938Z</time>
      </trkpt>
      <trkpt lat="44.13121" lon="6.99356">
        <ele>1951</ele>
        <time>2021-05-13T10:54:30.964Z</time>
      </trkpt>
      <trkpt lat="44.13116" lon="6.99353">
        <ele>1951</ele>
        <time>2021-05-13T10:54:35.950Z</time>
      </trkpt>
      <trkpt lat="44.13112" lon="6.9935">
        <ele>1951</ele>
        <time>2021-05-13T10:54:40.949Z</time>
      </trkpt>
      <trkpt lat="44.13107" lon="6.99345">
        <ele>1955</ele>
        <time>2021-05-13T10:54:45.959Z</time>
      </trkpt>
      <trkpt lat="44.13104" lon="6.99343">
        <ele>1955</ele>
        <time>2021-05-13T10:54:50.960Z</time>
      </trkpt>
      <trkpt lat="44.13098" lon="6.9934">
        <ele>1955</ele>
        <time>2021-05-13T10:54:55.949Z</time>
      </trkpt>
      <trkpt lat="44.13093" lon="6.99338">
        <ele>1946</ele>
        <time>2021-05-13T10:55:00.956Z</time>
      </trkpt>
      <trkpt lat="44.13087" lon="6.99335">
        <ele>1946</ele>
        <time>2021-05-13T10:55:05.952Z</time>
      </trkpt>
      <trkpt lat="44.13083" lon="6.99331">
        <ele>1946</ele>
        <time>2021-05-13T10:55:10.948Z</time>
      </trkpt>
      <trkpt lat="44.13079" lon="6.99326">
        <ele>1946</ele>
        <time>2021-05-13T10:55:15.950Z</time>
      </trkpt>
      <trkpt lat="44.13075" lon="6.9932">
        <ele>1946</ele>
        <time>2021-05-13T10:55:20.953Z</time>
      </trkpt>
      <trkpt lat="44.1307" lon="6.99318">
        <ele>1950</ele>
        <time>2021-05-13T10:55:25.950Z</time>
      </trkpt>
      <trkpt lat="44.13068" lon="6.99316">
        <ele>1938</ele>
        <time>2021-05-13T10:55:29.953Z</time>
      </trkpt>
      <trkpt lat="44.13066" lon="6.99313">
        <ele>1938</ele>
        <time>2021-05-13T10:55:34.949Z</time>
      </trkpt>
      <trkpt lat="44.13062" lon="6.9931">
        <ele>1938</ele>
        <time>2021-05-13T10:55:39.955Z</time>
      </trkpt>
      <trkpt lat="44.13059" lon="6.99305">
        <ele>1938</ele>
        <time>2021-05-13T10:55:44.953Z</time>
      </trkpt>
      <trkpt lat="44.13056" lon="6.99301">
        <ele>1938</ele>
        <time>2021-05-13T10:55:49.948Z</time>
      </trkpt>
      <trkpt lat="44.13053" lon="6.99296">
        <ele>1938</ele>
        <time>2021-05-13T10:55:54.947Z</time>
      </trkpt>
      <trkpt lat="44.13049" lon="6.99293">
        <ele>1938</ele>
        <time>2021-05-13T10:55:59.950Z</time>
      </trkpt>
      <trkpt lat="44.13045" lon="6.9929">
        <ele>1945</ele>
        <time>2021-05-13T10:56:04.947Z</time>
      </trkpt>
      <trkpt lat="44.13041" lon="6.99285">
        <ele>1931</ele>
        <time>2021-05-13T10:56:09.951Z</time>
      </trkpt>
      <trkpt lat="44.13036" lon="6.99281">
        <ele>1931</ele>
        <time>2021-05-13T10:56:14.962Z</time>
      </trkpt>
      <trkpt lat="44.13032" lon="6.99277">
        <ele>1931</ele>
        <time>2021-05-13T10:56:19.947Z</time>
      </trkpt>
      <trkpt lat="44.13029" lon="6.99276">
        <ele>1931</ele>
        <time>2021-05-13T10:56:24.949Z</time>
      </trkpt>
      <trkpt lat="44.13025" lon="6.99276">
        <ele>1931</ele>
        <time>2021-05-13T10:56:28.957Z</time>
      </trkpt>
      <trkpt lat="44.13021" lon="6.99279">
        <ele>1931</ele>
        <time>2021-05-13T10:56:33.952Z</time>
      </trkpt>
      <trkpt lat="44.13016" lon="6.99283">
        <ele>1931</ele>
        <time>2021-05-13T10:56:38.956Z</time>
      </trkpt>
      <trkpt lat="44.13011" lon="6.99287">
        <ele>1928</ele>
        <time>2021-05-13T10:56:43.951Z</time>
      </trkpt>
      <trkpt lat="44.13006" lon="6.99292">
        <ele>1928</ele>
        <time>2021-05-13T10:56:48.948Z</time>
      </trkpt>
      <trkpt lat="44.13005" lon="6.99293">
        <ele>1916</ele>
        <time>2021-05-13T10:56:53.945Z</time>
      </trkpt>
      <trkpt lat="44.13003" lon="6.99293">
        <ele>1916</ele>
        <time>2021-05-13T10:56:57.953Z</time>
      </trkpt>
      <trkpt lat="44.13" lon="6.99295">
        <ele>1916</ele>
        <time>2021-05-13T10:57:02.950Z</time>
      </trkpt>
      <trkpt lat="44.12994" lon="6.99301">
        <ele>1916</ele>
        <time>2021-05-13T10:57:07.957Z</time>
      </trkpt>
      <trkpt lat="44.12989" lon="6.99305">
        <ele>1916</ele>
        <time>2021-05-13T10:57:12.949Z</time>
      </trkpt>
      <trkpt lat="44.12982" lon="6.99308">
        <ele>1916</ele>
        <time>2021-05-13T10:57:17.951Z</time>
      </trkpt>
      <trkpt lat="44.12975" lon="6.9931">
        <ele>1916</ele>
        <time>2021-05-13T10:57:22.955Z</time>
      </trkpt>
      <trkpt lat="44.1297" lon="6.9931">
        <ele>1916</ele>
        <time>2021-05-13T10:57:27.946Z</time>
      </trkpt>
      <trkpt lat="44.12963" lon="6.99312">
        <ele>1916</ele>
        <time>2021-05-13T10:57:31.937Z</time>
      </trkpt>
      <trkpt lat="44.12958" lon="6.99313">
        <ele>1914</ele>
        <time>2021-05-13T10:57:36.954Z</time>
      </trkpt>
      <trkpt lat="44.12952" lon="6.99314">
        <ele>1914</ele>
        <time>2021-05-13T10:57:41.948Z</time>
      </trkpt>
      <trkpt lat="44.12946" lon="6.99314">
        <ele>1914</ele>
        <time>2021-05-13T10:57:46.961Z</time>
      </trkpt>
      <trkpt lat="44.1294" lon="6.99313">
        <ele>1914</ele>
        <time>2021-05-13T10:57:51.949Z</time>
      </trkpt>
      <trkpt lat="44.12934" lon="6.99314">
        <ele>1914</ele>
        <time>2021-05-13T10:57:56.945Z</time>
      </trkpt>
      <trkpt lat="44.12931" lon="6.99315">
        <ele>1910</ele>
        <time>2021-05-13T10:58:01.947Z</time>
      </trkpt>
      <trkpt lat="44.12925" lon="6.99315">
        <ele>1910</ele>
        <time>2021-05-13T10:58:06.951Z</time>
      </trkpt>
      <trkpt lat="44.1292" lon="6.99313">
        <ele>1910</ele>
        <time>2021-05-13T10:58:16.950Z</time>
      </trkpt>
      <trkpt lat="44.12917" lon="6.99312">
        <ele>1910</ele>
        <time>2021-05-13T10:58:21.954Z</time>
      </trkpt>
      <trkpt lat="44.12913" lon="6.99312">
        <ele>1910</ele>
        <time>2021-05-13T10:58:26.959Z</time>
      </trkpt>
      <trkpt lat="44.12913" lon="6.99314">
        <ele>1910</ele>
        <time>2021-05-13T10:58:31.953Z</time>
      </trkpt>
      <trkpt lat="44.1291" lon="6.99317">
        <ele>1910</ele>
        <time>2021-05-13T10:58:36.952Z</time>
      </trkpt>
      <trkpt lat="44.12914" lon="6.99321">
        <ele>1903</ele>
        <time>2021-05-13T10:58:46.950Z</time>
      </trkpt>
      <trkpt lat="44.12914" lon="6.99324">
        <ele>1903</ele>
        <time>2021-05-13T10:58:51.961Z</time>
      </trkpt>
      <trkpt lat="44.12914" lon="6.99328">
        <ele>1903</ele>
        <time>2021-05-13T10:58:56.946Z</time>
      </trkpt>
      <trkpt lat="44.12915" lon="6.99329">
        <ele>1903</ele>
        <time>2021-05-13T10:59:01.949Z</time>
      </trkpt>
      <trkpt lat="44.12919" lon="6.99332">
        <ele>1903</ele>
        <time>2021-05-13T10:59:06.949Z</time>
      </trkpt>
      <trkpt lat="44.12923" lon="6.99338">
        <ele>1903</ele>
        <time>2021-05-13T10:59:11.947Z</time>
      </trkpt>
      <trkpt lat="44.12927" lon="6.99342">
        <ele>1903</ele>
        <time>2021-05-13T10:59:16.952Z</time>
      </trkpt>
      <trkpt lat="44.12933" lon="6.99346">
        <ele>1903</ele>
        <time>2021-05-13T10:59:21.945Z</time>
      </trkpt>
      <trkpt lat="44.12939" lon="6.99349">
        <ele>1898</ele>
        <time>2021-05-13T10:59:26.946Z</time>
      </trkpt>
      <trkpt lat="44.12945" lon="6.99353">
        <ele>1898</ele>
        <time>2021-05-13T10:59:31.947Z</time>
      </trkpt>
      <trkpt lat="44.1295" lon="6.99356">
        <ele>1898</ele>
        <time>2021-05-13T10:59:36.947Z</time>
      </trkpt>
      <trkpt lat="44.12955" lon="6.9936">
        <ele>1898</ele>
        <time>2021-05-13T10:59:41.948Z</time>
      </trkpt>
      <trkpt lat="44.12961" lon="6.99364">
        <ele>1901</ele>
        <time>2021-05-13T10:59:46.946Z</time>
      </trkpt>
      <trkpt lat="44.12967" lon="6.99367">
        <ele>1901</ele>
        <time>2021-05-13T10:59:51.946Z</time>
      </trkpt>
      <trkpt lat="44.12972" lon="6.99373">
        <ele>1901</ele>
        <time>2021-05-13T10:59:56.951Z</time>
      </trkpt>
      <trkpt lat="44.12969" lon="6.99382">
        <ele>1899</ele>
        <time>2021-05-13T11:00:01.949Z</time>
      </trkpt>
      <trkpt lat="44.12964" lon="6.99382">
        <ele>1899</ele>
        <time>2021-05-13T11:00:06.949Z</time>
      </trkpt>
      <trkpt lat="44.12959" lon="6.99383">
        <ele>1899</ele>
        <time>2021-05-13T11:00:11.952Z</time>
      </trkpt>
      <trkpt lat="44.12953" lon="6.99384">
        <ele>1893</ele>
        <time>2021-05-13T11:00:16.946Z</time>
      </trkpt>
      <trkpt lat="44.12948" lon="6.99386">
        <ele>1893</ele>
        <time>2021-05-13T11:00:21.952Z</time>
      </trkpt>
      <trkpt lat="44.12944" lon="6.99387">
        <ele>1893</ele>
        <time>2021-05-13T11:00:25.954Z</time>
      </trkpt>
      <trkpt lat="44.12941" lon="6.99388">
        <ele>1893</ele>
        <time>2021-05-13T11:00:29.948Z</time>
      </trkpt>
      <trkpt lat="44.12934" lon="6.99389">
        <ele>1893</ele>
        <time>2021-05-13T11:00:34.953Z</time>
      </trkpt>
      <trkpt lat="44.12928" lon="6.99389">
        <ele>1885</ele>
        <time>2021-05-13T11:00:39.949Z</time>
      </trkpt>
      <trkpt lat="44.12923" lon="6.99389">
        <ele>1885</ele>
        <time>2021-05-13T11:00:44.959Z</time>
      </trkpt>
      <trkpt lat="44.12918" lon="6.9939">
        <ele>1885</ele>
        <time>2021-05-13T11:00:49.954Z</time>
      </trkpt>
      <trkpt lat="44.12915" lon="6.9939">
        <ele>1885</ele>
        <time>2021-05-13T11:00:54.949Z</time>
      </trkpt>
      <trkpt lat="44.12912" lon="6.99391">
        <ele>1885</ele>
        <time>2021-05-13T11:00:59.953Z</time>
      </trkpt>
      <trkpt lat="44.12907" lon="6.99392">
        <ele>1885</ele>
        <time>2021-05-13T11:01:04.948Z</time>
      </trkpt>
      <trkpt lat="44.12901" lon="6.99394">
        <ele>1882</ele>
        <time>2021-05-13T11:01:09.960Z</time>
      </trkpt>
      <trkpt lat="44.12896" lon="6.99396">
        <ele>1882</ele>
        <time>2021-05-13T11:01:14.949Z</time>
      </trkpt>
      <trkpt lat="44.12889" lon="6.99396">
        <ele>1882</ele>
        <time>2021-05-13T11:01:19.954Z</time>
      </trkpt>
      <trkpt lat="44.12882" lon="6.99396">
        <ele>1882</ele>
        <time>2021-05-13T11:01:24.948Z</time>
      </trkpt>
      <trkpt lat="44.12874" lon="6.99394">
        <ele>1875</ele>
        <time>2021-05-13T11:01:29.967Z</time>
      </trkpt>
      <trkpt lat="44.12867" lon="6.99395">
        <ele>1875</ele>
        <time>2021-05-13T11:01:34.955Z</time>
      </trkpt>
      <trkpt lat="44.1286" lon="6.99395">
        <ele>1875</ele>
        <time>2021-05-13T11:01:39.950Z</time>
      </trkpt>
      <trkpt lat="44.12853" lon="6.99396">
        <ele>1875</ele>
        <time>2021-05-13T11:01:44.949Z</time>
      </trkpt>
      <trkpt lat="44.12847" lon="6.99395">
        <ele>1867</ele>
        <time>2021-05-13T11:01:48.961Z</time>
      </trkpt>
      <trkpt lat="44.12838" lon="6.99394">
        <ele>1867</ele>
        <time>2021-05-13T11:01:53.952Z</time>
      </trkpt>
      <trkpt lat="44.12832" lon="6.99394">
        <ele>1867</ele>
        <time>2021-05-13T11:01:58.951Z</time>
      </trkpt>
      <trkpt lat="44.12825" lon="6.99396">
        <ele>1867</ele>
        <time>2021-05-13T11:02:03.950Z</time>
      </trkpt>
      <trkpt lat="44.12823" lon="6.994">
        <ele>1867</ele>
        <time>2021-05-13T11:02:08.945Z</time>
      </trkpt>
      <trkpt lat="44.12827" lon="6.99404">
        <ele>1858</ele>
        <time>2021-05-13T11:02:13.946Z</time>
      </trkpt>
      <trkpt lat="44.12831" lon="6.99411">
        <ele>1858</ele>
        <time>2021-05-13T11:02:18.957Z</time>
      </trkpt>
      <trkpt lat="44.12834" lon="6.99414">
        <ele>1858</ele>
        <time>2021-05-13T11:02:23.948Z</time>
      </trkpt>
      <trkpt lat="44.12835" lon="6.99416">
        <ele>1858</ele>
        <time>2021-05-13T11:04:25.944Z</time>
      </trkpt>
      <trkpt lat="44.12834" lon="6.99417">
        <ele>1858</ele>
        <time>2021-05-13T11:04:30.949Z</time>
      </trkpt>
      <trkpt lat="44.12836" lon="6.99422">
        <ele>1858</ele>
        <time>2021-05-13T11:04:35.945Z</time>
      </trkpt>
      <trkpt lat="44.12839" lon="6.99424">
        <ele>1858</ele>
        <time>2021-05-13T11:04:39.947Z</time>
      </trkpt>
      <trkpt lat="44.12841" lon="6.99428">
        <ele>1858</ele>
        <time>2021-05-13T11:04:44.944Z</time>
      </trkpt>
      <trkpt lat="44.12843" lon="6.99435">
        <ele>1852</ele>
        <time>2021-05-13T11:04:49.944Z</time>
      </trkpt>
      <trkpt lat="44.12839" lon="6.99438">
        <ele>1852</ele>
        <time>2021-05-13T11:04:54.958Z</time>
      </trkpt>
      <trkpt lat="44.12833" lon="6.99438">
        <ele>1852</ele>
        <time>2021-05-13T11:04:59.934Z</time>
      </trkpt>
      <trkpt lat="44.12827" lon="6.99438">
        <ele>1852</ele>
        <time>2021-05-13T11:05:04.947Z</time>
      </trkpt>
      <trkpt lat="44.1282" lon="6.9944">
        <ele>1852</ele>
        <time>2021-05-13T11:05:09.944Z</time>
      </trkpt>
      <trkpt lat="44.12814" lon="6.9944">
        <ele>1849</ele>
        <time>2021-05-13T11:05:14.942Z</time>
      </trkpt>
      <trkpt lat="44.12806" lon="6.99439">
        <ele>1849</ele>
        <time>2021-05-13T11:05:19.948Z</time>
      </trkpt>
      <trkpt lat="44.12801" lon="6.99439">
        <ele>1849</ele>
        <time>2021-05-13T11:05:24.951Z</time>
      </trkpt>
      <trkpt lat="44.12797" lon="6.9944">
        <ele>1849</ele>
        <time>2021-05-13T11:05:28.961Z</time>
      </trkpt>
      <trkpt lat="44.1279" lon="6.99441">
        <ele>1844</ele>
        <time>2021-05-13T11:05:33.961Z</time>
      </trkpt>
      <trkpt lat="44.12784" lon="6.99436">
        <ele>1844</ele>
        <time>2021-05-13T11:05:38.941Z</time>
      </trkpt>
      <trkpt lat="44.1278" lon="6.99429">
        <ele>1848</ele>
        <time>2021-05-13T11:05:43.954Z</time>
      </trkpt>
      <trkpt lat="44.12773" lon="6.99427">
        <ele>1848</ele>
        <time>2021-05-13T11:05:48.945Z</time>
      </trkpt>
      <trkpt lat="44.12765" lon="6.99424">
        <ele>1848</ele>
        <time>2021-05-13T11:05:53.952Z</time>
      </trkpt>
      <trkpt lat="44.12757" lon="6.99422">
        <ele>1840</ele>
        <time>2021-05-13T11:05:58.943Z</time>
      </trkpt>
      <trkpt lat="44.12749" lon="6.99419">
        <ele>1840</ele>
        <time>2021-05-13T11:06:03.954Z</time>
      </trkpt>
      <trkpt lat="44.12742" lon="6.99418">
        <ele>1840</ele>
        <time>2021-05-13T11:06:08.947Z</time>
      </trkpt>
      <trkpt lat="44.12737" lon="6.99417">
        <ele>1840</ele>
        <time>2021-05-13T11:06:13.950Z</time>
      </trkpt>
      <trkpt lat="44.1273" lon="6.99415">
        <ele>1829</ele>
        <time>2021-05-13T11:06:18.945Z</time>
      </trkpt>
      <trkpt lat="44.12723" lon="6.99413">
        <ele>1829</ele>
        <time>2021-05-13T11:06:23.946Z</time>
      </trkpt>
      <trkpt lat="44.12717" lon="6.99412">
        <ele>1829</ele>
        <time>2021-05-13T11:06:28.945Z</time>
      </trkpt>
      <trkpt lat="44.1271" lon="6.9941">
        <ele>1829</ele>
        <time>2021-05-13T11:06:33.961Z</time>
      </trkpt>
      <trkpt lat="44.12702" lon="6.99408">
        <ele>1815</ele>
        <time>2021-05-13T11:06:38.949Z</time>
      </trkpt>
      <trkpt lat="44.12696" lon="6.99405">
        <ele>1815</ele>
        <time>2021-05-13T11:06:43.951Z</time>
      </trkpt>
      <trkpt lat="44.12689" lon="6.99404">
        <ele>1815</ele>
        <time>2021-05-13T11:06:48.946Z</time>
      </trkpt>
      <trkpt lat="44.12683" lon="6.994">
        <ele>1828</ele>
        <time>2021-05-13T11:06:53.947Z</time>
      </trkpt>
      <trkpt lat="44.12674" lon="6.99397">
        <ele>1812</ele>
        <time>2021-05-13T11:06:58.948Z</time>
      </trkpt>
      <trkpt lat="44.12668" lon="6.99395">
        <ele>1812</ele>
        <time>2021-05-13T11:07:03.948Z</time>
      </trkpt>
      <trkpt lat="44.12663" lon="6.99395">
        <ele>1812</ele>
        <time>2021-05-13T11:07:08.950Z</time>
      </trkpt>
      <trkpt lat="44.12666" lon="6.99402">
        <ele>1812</ele>
        <time>2021-05-13T11:07:13.947Z</time>
      </trkpt>
      <trkpt lat="44.1267" lon="6.99408">
        <ele>1809</ele>
        <time>2021-05-13T11:07:18.953Z</time>
      </trkpt>
      <trkpt lat="44.12675" lon="6.99416">
        <ele>1809</ele>
        <time>2021-05-13T11:07:23.948Z</time>
      </trkpt>
      <trkpt lat="44.12674" lon="6.99424">
        <ele>1809</ele>
        <time>2021-05-13T11:07:28.947Z</time>
      </trkpt>
      <trkpt lat="44.12672" lon="6.99435">
        <ele>1807</ele>
        <time>2021-05-13T11:07:33.945Z</time>
      </trkpt>
      <trkpt lat="44.1267" lon="6.99443">
        <ele>1807</ele>
        <time>2021-05-13T11:07:38.952Z</time>
      </trkpt>
      <trkpt lat="44.12667" lon="6.99449">
        <ele>1807</ele>
        <time>2021-05-13T11:07:43.953Z</time>
      </trkpt>
      <trkpt lat="44.1266" lon="6.99456">
        <ele>1807</ele>
        <time>2021-05-13T11:07:48.946Z</time>
      </trkpt>
      <trkpt lat="44.12655" lon="6.99463">
        <ele>1806</ele>
        <time>2021-05-13T11:07:53.953Z</time>
      </trkpt>
      <trkpt lat="44.12649" lon="6.99462">
        <ele>1795</ele>
        <time>2021-05-13T11:07:58.946Z</time>
      </trkpt>
      <trkpt lat="44.12647" lon="6.99457">
        <ele>1800</ele>
        <time>2021-05-13T11:08:02.950Z</time>
      </trkpt>
      <trkpt lat="44.12641" lon="6.99455">
        <ele>1800</ele>
        <time>2021-05-13T11:08:07.960Z</time>
      </trkpt>
      <trkpt lat="44.12634" lon="6.99451">
        <ele>1800</ele>
        <time>2021-05-13T11:08:12.944Z</time>
      </trkpt>
      <trkpt lat="44.1263" lon="6.99449">
        <ele>1800</ele>
        <time>2021-05-13T11:08:16.957Z</time>
      </trkpt>
      <trkpt lat="44.12623" lon="6.99449">
        <ele>1790</ele>
        <time>2021-05-13T11:08:21.956Z</time>
      </trkpt>
      <trkpt lat="44.12617" lon="6.99452">
        <ele>1790</ele>
        <time>2021-05-13T11:08:26.945Z</time>
      </trkpt>
      <trkpt lat="44.12609" lon="6.99451">
        <ele>1790</ele>
        <time>2021-05-13T11:08:31.953Z</time>
      </trkpt>
      <trkpt lat="44.12605" lon="6.99444">
        <ele>1790</ele>
        <time>2021-05-13T11:08:36.946Z</time>
      </trkpt>
      <trkpt lat="44.12601" lon="6.99436">
        <ele>1790</ele>
        <time>2021-05-13T11:08:41.958Z</time>
      </trkpt>
      <trkpt lat="44.12598" lon="6.99432">
        <ele>1790</ele>
        <time>2021-05-13T11:08:46.953Z</time>
      </trkpt>
      <trkpt lat="44.12591" lon="6.9943">
        <ele>1787</ele>
        <time>2021-05-13T11:08:51.948Z</time>
      </trkpt>
      <trkpt lat="44.12588" lon="6.99426">
        <ele>1787</ele>
        <time>2021-05-13T11:08:56.948Z</time>
      </trkpt>
      <trkpt lat="44.12583" lon="6.99426">
        <ele>1787</ele>
        <time>2021-05-13T11:09:01.946Z</time>
      </trkpt>
      <trkpt lat="44.12578" lon="6.99424">
        <ele>1787</ele>
        <time>2021-05-13T11:09:06.949Z</time>
      </trkpt>
      <trkpt lat="44.12576" lon="6.99419">
        <ele>1787</ele>
        <time>2021-05-13T11:09:11.952Z</time>
      </trkpt>
      <trkpt lat="44.12571" lon="6.99421">
        <ele>1787</ele>
        <time>2021-05-13T11:09:16.947Z</time>
      </trkpt>
      <trkpt lat="44.12565" lon="6.99419">
        <ele>1777</ele>
        <time>2021-05-13T11:09:21.933Z</time>
      </trkpt>
      <trkpt lat="44.12559" lon="6.9942">
        <ele>1777</ele>
        <time>2021-05-13T11:09:26.949Z</time>
      </trkpt>
      <trkpt lat="44.12553" lon="6.99419">
        <ele>1777</ele>
        <time>2021-05-13T11:09:31.943Z</time>
      </trkpt>
      <trkpt lat="44.12548" lon="6.99421">
        <ele>1777</ele>
        <time>2021-05-13T11:09:36.951Z</time>
      </trkpt>
      <trkpt lat="44.12542" lon="6.99422">
        <ele>1777</ele>
        <time>2021-05-13T11:09:41.945Z</time>
      </trkpt>
      <trkpt lat="44.12536" lon="6.99424">
        <ele>1773</ele>
        <time>2021-05-13T11:09:46.947Z</time>
      </trkpt>
      <trkpt lat="44.1253" lon="6.99425">
        <ele>1773</ele>
        <time>2021-05-13T11:09:51.947Z</time>
      </trkpt>
      <trkpt lat="44.12527" lon="6.99425">
        <ele>1773</ele>
        <time>2021-05-13T11:09:56.946Z</time>
      </trkpt>
      <trkpt lat="44.12522" lon="6.99426">
        <ele>1773</ele>
        <time>2021-05-13T11:10:01.953Z</time>
      </trkpt>
      <trkpt lat="44.12517" lon="6.99425">
        <ele>1773</ele>
        <time>2021-05-13T11:10:06.950Z</time>
      </trkpt>
      <trkpt lat="44.12511" lon="6.99426">
        <ele>1765</ele>
        <time>2021-05-13T11:10:11.945Z</time>
      </trkpt>
      <trkpt lat="44.12505" lon="6.99426">
        <ele>1765</ele>
        <time>2021-05-13T11:10:16.952Z</time>
      </trkpt>
      <trkpt lat="44.125" lon="6.99425">
        <ele>1765</ele>
        <time>2021-05-13T11:10:21.946Z</time>
      </trkpt>
      <trkpt lat="44.12496" lon="6.99425">
        <ele>1765</ele>
        <time>2021-05-13T11:10:26.953Z</time>
      </trkpt>
      <trkpt lat="44.1249" lon="6.99424">
        <ele>1765</ele>
        <time>2021-05-13T11:10:31.952Z</time>
      </trkpt>
      <trkpt lat="44.12486" lon="6.9942">
        <ele>1756</ele>
        <time>2021-05-13T11:10:36.946Z</time>
      </trkpt>
      <trkpt lat="44.12482" lon="6.99417">
        <ele>1756</ele>
        <time>2021-05-13T11:10:41.946Z</time>
      </trkpt>
      <trkpt lat="44.12475" lon="6.9941">
        <ele>1756</ele>
        <time>2021-05-13T11:11:19.940Z</time>
      </trkpt>
      <trkpt lat="44.12473" lon="6.9941">
        <ele>1756</ele>
        <time>2021-05-13T11:11:28.964Z</time>
      </trkpt>
      <trkpt lat="44.1247" lon="6.99408">
        <ele>1756</ele>
        <time>2021-05-13T11:11:33.951Z</time>
      </trkpt>
      <trkpt lat="44.12467" lon="6.99405">
        <ele>1756</ele>
        <time>2021-05-13T11:11:37.950Z</time>
      </trkpt>
      <trkpt lat="44.12464" lon="6.99402">
        <ele>1764</ele>
        <time>2021-05-13T11:11:42.945Z</time>
      </trkpt>
      <trkpt lat="44.12461" lon="6.99402">
        <ele>1764</ele>
        <time>2021-05-13T11:11:47.948Z</time>
      </trkpt>
      <trkpt lat="44.12458" lon="6.99396">
        <ele>1751</ele>
        <time>2021-05-13T11:11:52.955Z</time>
      </trkpt>
      <trkpt lat="44.12451" lon="6.99392">
        <ele>1751</ele>
        <time>2021-05-13T11:11:57.948Z</time>
      </trkpt>
      <trkpt lat="44.12445" lon="6.99388">
        <ele>1751</ele>
        <time>2021-05-13T11:12:02.951Z</time>
      </trkpt>
      <trkpt lat="44.12439" lon="6.99384">
        <ele>1751</ele>
        <time>2021-05-13T11:12:07.946Z</time>
      </trkpt>
      <trkpt lat="44.12434" lon="6.99378">
        <ele>1751</ele>
        <time>2021-05-13T11:12:12.947Z</time>
      </trkpt>
      <trkpt lat="44.12429" lon="6.99374">
        <ele>1746</ele>
        <time>2021-05-13T11:12:17.950Z</time>
      </trkpt>
      <trkpt lat="44.12422" lon="6.99372">
        <ele>1746</ele>
        <time>2021-05-13T11:12:22.953Z</time>
      </trkpt>
      <trkpt lat="44.12416" lon="6.99371">
        <ele>1746</ele>
        <time>2021-05-13T11:12:27.947Z</time>
      </trkpt>
      <trkpt lat="44.12412" lon="6.9937">
        <ele>1746</ele>
        <time>2021-05-13T11:12:32.952Z</time>
      </trkpt>
      <trkpt lat="44.12405" lon="6.99369">
        <ele>1746</ele>
        <time>2021-05-13T11:12:37.947Z</time>
      </trkpt>
      <trkpt lat="44.124" lon="6.99366">
        <ele>1737</ele>
        <time>2021-05-13T11:12:41.947Z</time>
      </trkpt>
      <trkpt lat="44.12394" lon="6.99362">
        <ele>1737</ele>
        <time>2021-05-13T11:12:46.948Z</time>
      </trkpt>
      <trkpt lat="44.12387" lon="6.99357">
        <ele>1737</ele>
        <time>2021-05-13T11:12:51.950Z</time>
      </trkpt>
      <trkpt lat="44.12382" lon="6.99353">
        <ele>1737</ele>
        <time>2021-05-13T11:12:56.949Z</time>
      </trkpt>
      <trkpt lat="44.12376" lon="6.99347">
        <ele>1745</ele>
        <time>2021-05-13T11:13:01.948Z</time>
      </trkpt>
      <trkpt lat="44.12371" lon="6.99346">
        <ele>1738</ele>
        <time>2021-05-13T11:13:06.950Z</time>
      </trkpt>
      <trkpt lat="44.12365" lon="6.99345">
        <ele>1738</ele>
        <time>2021-05-13T11:13:11.948Z</time>
      </trkpt>
      <trkpt lat="44.1236" lon="6.99341">
        <ele>1738</ele>
        <time>2021-05-13T11:13:16.947Z</time>
      </trkpt>
      <trkpt lat="44.12356" lon="6.9934">
        <ele>1738</ele>
        <time>2021-05-13T11:13:21.952Z</time>
      </trkpt>
      <trkpt lat="44.12351" lon="6.99337">
        <ele>1738</ele>
        <time>2021-05-13T11:13:26.952Z</time>
      </trkpt>
      <trkpt lat="44.12347" lon="6.99333">
        <ele>1732</ele>
        <time>2021-05-13T11:13:31.946Z</time>
      </trkpt>
      <trkpt lat="44.12343" lon="6.9933">
        <ele>1732</ele>
        <time>2021-05-13T11:13:35.955Z</time>
      </trkpt>
      <trkpt lat="44.12339" lon="6.99327">
        <ele>1732</ele>
        <time>2021-05-13T11:13:40.943Z</time>
      </trkpt>
      <trkpt lat="44.12334" lon="6.99324">
        <ele>1732</ele>
        <time>2021-05-13T11:13:45.948Z</time>
      </trkpt>
      <trkpt lat="44.12331" lon="6.99322">
        <ele>1732</ele>
        <time>2021-05-13T11:13:50.949Z</time>
      </trkpt>
      <trkpt lat="44.12326" lon="6.99319">
        <ele>1738</ele>
        <time>2021-05-13T11:13:55.952Z</time>
      </trkpt>
      <trkpt lat="44.12323" lon="6.99314">
        <ele>1738</ele>
        <time>2021-05-13T11:13:59.952Z</time>
      </trkpt>
      <trkpt lat="44.12318" lon="6.99313">
        <ele>1726</ele>
        <time>2021-05-13T11:14:03.943Z</time>
      </trkpt>
      <trkpt lat="44.12312" lon="6.99309">
        <ele>1726</ele>
        <time>2021-05-13T11:14:08.952Z</time>
      </trkpt>
      <trkpt lat="44.12307" lon="6.99304">
        <ele>1726</ele>
        <time>2021-05-13T11:14:13.951Z</time>
      </trkpt>
      <trkpt lat="44.12302" lon="6.99298">
        <ele>1726</ele>
        <time>2021-05-13T11:14:18.945Z</time>
      </trkpt>
      <trkpt lat="44.12297" lon="6.99293">
        <ele>1726</ele>
        <time>2021-05-13T11:14:22.956Z</time>
      </trkpt>
      <trkpt lat="44.12292" lon="6.99288">
        <ele>1733</ele>
        <time>2021-05-13T11:14:27.963Z</time>
      </trkpt>
      <trkpt lat="44.12286" lon="6.99283">
        <ele>1722</ele>
        <time>2021-05-13T11:14:32.955Z</time>
      </trkpt>
      <trkpt lat="44.1228" lon="6.9928">
        <ele>1722</ele>
        <time>2021-05-13T11:14:37.956Z</time>
      </trkpt>
      <trkpt lat="44.12275" lon="6.99278">
        <ele>1722</ele>
        <time>2021-05-13T11:14:42.948Z</time>
      </trkpt>
      <trkpt lat="44.12269" lon="6.99275">
        <ele>1722</ele>
        <time>2021-05-13T11:14:47.953Z</time>
      </trkpt>
      <trkpt lat="44.12265" lon="6.99275">
        <ele>1722</ele>
        <time>2021-05-13T11:14:52.951Z</time>
      </trkpt>
      <trkpt lat="44.12262" lon="6.99271">
        <ele>1710</ele>
        <time>2021-05-13T11:14:57.950Z</time>
      </trkpt>
      <trkpt lat="44.12255" lon="6.9927">
        <ele>1710</ele>
        <time>2021-05-13T11:15:02.950Z</time>
      </trkpt>
      <trkpt lat="44.1225" lon="6.99267">
        <ele>1710</ele>
        <time>2021-05-13T11:15:07.946Z</time>
      </trkpt>
      <trkpt lat="44.12246" lon="6.99263">
        <ele>1715</ele>
        <time>2021-05-13T11:15:12.954Z</time>
      </trkpt>
      <trkpt lat="44.12241" lon="6.99257">
        <ele>1715</ele>
        <time>2021-05-13T11:15:17.946Z</time>
      </trkpt>
      <trkpt lat="44.12235" lon="6.99252">
        <ele>1699</ele>
        <time>2021-05-13T11:15:22.960Z</time>
      </trkpt>
      <trkpt lat="44.12228" lon="6.99248">
        <ele>1699</ele>
        <time>2021-05-13T11:15:27.946Z</time>
      </trkpt>
      <trkpt lat="44.12226" lon="6.99246">
        <ele>1699</ele>
        <time>2021-05-13T11:15:31.953Z</time>
      </trkpt>
      <trkpt lat="44.12223" lon="6.99246">
        <ele>1699</ele>
        <time>2021-05-13T11:15:36.954Z</time>
      </trkpt>
      <trkpt lat="44.12217" lon="6.99247">
        <ele>1699</ele>
        <time>2021-05-13T11:15:41.936Z</time>
      </trkpt>
      <trkpt lat="44.12214" lon="6.99249">
        <ele>1699</ele>
        <time>2021-05-13T11:15:45.944Z</time>
      </trkpt>
      <trkpt lat="44.12211" lon="6.99254">
        <ele>1699</ele>
        <time>2021-05-13T11:15:50.953Z</time>
      </trkpt>
      <trkpt lat="44.12208" lon="6.99257">
        <ele>1691</ele>
        <time>2021-05-13T11:15:55.934Z</time>
      </trkpt>
      <trkpt lat="44.12205" lon="6.99259">
        <ele>1691</ele>
        <time>2021-05-13T11:16:00.945Z</time>
      </trkpt>
      <trkpt lat="44.12203" lon="6.99257">
        <ele>1691</ele>
        <time>2021-05-13T11:16:05.948Z</time>
      </trkpt>
      <trkpt lat="44.12203" lon="6.99251">
        <ele>1691</ele>
        <time>2021-05-13T11:16:10.947Z</time>
      </trkpt>
      <trkpt lat="44.12205" lon="6.99244">
        <ele>1691</ele>
        <time>2021-05-13T11:16:15.961Z</time>
      </trkpt>
      <trkpt lat="44.12206" lon="6.99238">
        <ele>1691</ele>
        <time>2021-05-13T11:16:20.954Z</time>
      </trkpt>
      <trkpt lat="44.12205" lon="6.99227">
        <ele>1695</ele>
        <time>2021-05-13T11:16:25.949Z</time>
      </trkpt>
      <trkpt lat="44.12197" lon="6.99221">
        <ele>1695</ele>
        <time>2021-05-13T11:16:30.949Z</time>
      </trkpt>
      <trkpt lat="44.1219" lon="6.99216">
        <ele>1695</ele>
        <time>2021-05-13T11:16:35.947Z</time>
      </trkpt>
      <trkpt lat="44.12186" lon="6.99212">
        <ele>1695</ele>
        <time>2021-05-13T11:16:40.953Z</time>
      </trkpt>
      <trkpt lat="44.12184" lon="6.99204">
        <ele>1701</ele>
        <time>2021-05-13T11:16:45.948Z</time>
      </trkpt>
      <trkpt lat="44.12182" lon="6.99203">
        <ele>1701</ele>
        <time>2021-05-13T11:16:50.949Z</time>
      </trkpt>
      <trkpt lat="44.12175" lon="6.99203">
        <ele>1693</ele>
        <time>2021-05-13T11:16:55.957Z</time>
      </trkpt>
      <trkpt lat="44.12168" lon="6.99203">
        <ele>1693</ele>
        <time>2021-05-13T11:17:00.938Z</time>
      </trkpt>
      <trkpt lat="44.12159" lon="6.99204">
        <ele>1693</ele>
        <time>2021-05-13T11:17:05.947Z</time>
      </trkpt>
      <trkpt lat="44.12154" lon="6.99204">
        <ele>1693</ele>
        <time>2021-05-13T11:17:10.949Z</time>
      </trkpt>
      <trkpt lat="44.12147" lon="6.99201">
        <ele>1683</ele>
        <time>2021-05-13T11:17:15.945Z</time>
      </trkpt>
      <trkpt lat="44.12143" lon="6.99199">
        <ele>1683</ele>
        <time>2021-05-13T11:17:20.950Z</time>
      </trkpt>
      <trkpt lat="44.12139" lon="6.99198">
        <ele>1683</ele>
        <time>2021-05-13T11:17:25.946Z</time>
      </trkpt>
      <trkpt lat="44.12137" lon="6.99194">
        <ele>1683</ele>
        <time>2021-05-13T11:17:29.950Z</time>
      </trkpt>
      <trkpt lat="44.12132" lon="6.99187">
        <ele>1683</ele>
        <time>2021-05-13T11:17:34.947Z</time>
      </trkpt>
      <trkpt lat="44.12126" lon="6.99181">
        <ele>1683</ele>
        <time>2021-05-13T11:17:39.942Z</time>
      </trkpt>
      <trkpt lat="44.12122" lon="6.9918">
        <ele>1679</ele>
        <time>2021-05-13T11:17:43.952Z</time>
      </trkpt>
      <trkpt lat="44.12116" lon="6.99174">
        <ele>1679</ele>
        <time>2021-05-13T11:17:48.949Z</time>
      </trkpt>
      <trkpt lat="44.12111" lon="6.99172">
        <ele>1679</ele>
        <time>2021-05-13T11:17:52.963Z</time>
      </trkpt>
      <trkpt lat="44.12105" lon="6.99167">
        <ele>1679</ele>
        <time>2021-05-13T11:17:57.956Z</time>
      </trkpt>
      <trkpt lat="44.12099" lon="6.99164">
        <ele>1679</ele>
        <time>2021-05-13T11:18:02.947Z</time>
      </trkpt>
      <trkpt lat="44.12095" lon="6.99161">
        <ele>1668</ele>
        <time>2021-05-13T11:18:07.943Z</time>
      </trkpt>
      <trkpt lat="44.12088" lon="6.99159">
        <ele>1668</ele>
        <time>2021-05-13T11:18:12.951Z</time>
      </trkpt>
      <trkpt lat="44.12082" lon="6.99155">
        <ele>1668</ele>
        <time>2021-05-13T11:18:17.953Z</time>
      </trkpt>
      <trkpt lat="44.12078" lon="6.99153">
        <ele>1672</ele>
        <time>2021-05-13T11:18:22.951Z</time>
      </trkpt>
      <trkpt lat="44.12072" lon="6.99152">
        <ele>1672</ele>
        <time>2021-05-13T11:18:27.949Z</time>
      </trkpt>
      <trkpt lat="44.12066" lon="6.99149">
        <ele>1661</ele>
        <time>2021-05-13T11:18:32.949Z</time>
      </trkpt>
      <trkpt lat="44.12062" lon="6.99148">
        <ele>1661</ele>
        <time>2021-05-13T11:18:37.949Z</time>
      </trkpt>
      <trkpt lat="44.12057" lon="6.99144">
        <ele>1661</ele>
        <time>2021-05-13T11:18:42.951Z</time>
      </trkpt>
      <trkpt lat="44.12052" lon="6.99138">
        <ele>1661</ele>
        <time>2021-05-13T11:18:47.954Z</time>
      </trkpt>
      <trkpt lat="44.1205" lon="6.99135">
        <ele>1661</ele>
        <time>2021-05-13T11:18:52.950Z</time>
      </trkpt>
      <trkpt lat="44.12053" lon="6.9913">
        <ele>1661</ele>
        <time>2021-05-13T11:18:57.942Z</time>
      </trkpt>
      <trkpt lat="44.12051" lon="6.9913">
        <ele>1661</ele>
        <time>2021-05-13T11:19:02.942Z</time>
      </trkpt>
      <trkpt lat="44.12048" lon="6.99129">
        <ele>1661</ele>
        <time>2021-05-13T11:19:06.953Z</time>
      </trkpt>
      <trkpt lat="44.12044" lon="6.99129">
        <ele>1661</ele>
        <time>2021-05-13T11:19:11.948Z</time>
      </trkpt>
      <trkpt lat="44.12042" lon="6.99131">
        <ele>1661</ele>
        <time>2021-05-13T11:19:16.943Z</time>
      </trkpt>
      <trkpt lat="44.12038" lon="6.99134">
        <ele>1656</ele>
        <time>2021-05-13T11:19:21.946Z</time>
      </trkpt>
      <trkpt lat="44.12034" lon="6.99137">
        <ele>1656</ele>
        <time>2021-05-13T11:19:26.946Z</time>
      </trkpt>
      <trkpt lat="44.12027" lon="6.99139">
        <ele>1656</ele>
        <time>2021-05-13T11:19:31.941Z</time>
      </trkpt>
      <trkpt lat="44.12022" lon="6.9914">
        <ele>1656</ele>
        <time>2021-05-13T11:19:36.948Z</time>
      </trkpt>
      <trkpt lat="44.12016" lon="6.99141">
        <ele>1656</ele>
        <time>2021-05-13T11:19:41.947Z</time>
      </trkpt>
      <trkpt lat="44.12011" lon="6.99143">
        <ele>1649</ele>
        <time>2021-05-13T11:19:45.946Z</time>
      </trkpt>
      <trkpt lat="44.12005" lon="6.99148">
        <ele>1649</ele>
        <time>2021-05-13T11:19:50.946Z</time>
      </trkpt>
      <trkpt lat="44.12" lon="6.99154">
        <ele>1645</ele>
        <time>2021-05-13T11:19:55.946Z</time>
      </trkpt>
      <trkpt lat="44.11998" lon="6.99154">
        <ele>1645</ele>
        <time>2021-05-13T11:20:00.951Z</time>
      </trkpt>
      <trkpt lat="44.11996" lon="6.9915">
        <ele>1649</ele>
        <time>2021-05-13T11:20:05.946Z</time>
      </trkpt>
      <trkpt lat="44.11992" lon="6.99152">
        <ele>1649</ele>
        <time>2021-05-13T11:20:10.946Z</time>
      </trkpt>
      <trkpt lat="44.11987" lon="6.99152">
        <ele>1649</ele>
        <time>2021-05-13T11:20:15.944Z</time>
      </trkpt>
      <trkpt lat="44.11981" lon="6.99152">
        <ele>1637</ele>
        <time>2021-05-13T11:20:20.945Z</time>
      </trkpt>
      <trkpt lat="44.11977" lon="6.99153">
        <ele>1634</ele>
        <time>2021-05-13T11:20:25.944Z</time>
      </trkpt>
      <trkpt lat="44.11974" lon="6.99154">
        <ele>1634</ele>
        <time>2021-05-13T11:20:29.953Z</time>
      </trkpt>
      <trkpt lat="44.11969" lon="6.99155">
        <ele>1634</ele>
        <time>2021-05-13T11:20:34.947Z</time>
      </trkpt>
      <trkpt lat="44.11966" lon="6.99159">
        <ele>1634</ele>
        <time>2021-05-13T11:20:39.949Z</time>
      </trkpt>
      <trkpt lat="44.11963" lon="6.99159">
        <ele>1634</ele>
        <time>2021-05-13T11:20:44.951Z</time>
      </trkpt>
      <trkpt lat="44.11956" lon="6.99165">
        <ele>1627</ele>
        <time>2021-05-13T11:20:49.952Z</time>
      </trkpt>
      <trkpt lat="44.11951" lon="6.99167">
        <ele>1627</ele>
        <time>2021-05-13T11:20:54.955Z</time>
      </trkpt>
      <trkpt lat="44.11948" lon="6.9917">
        <ele>1627</ele>
        <time>2021-05-13T11:20:59.947Z</time>
      </trkpt>
      <trkpt lat="44.11946" lon="6.99171">
        <ele>1627</ele>
        <time>2021-05-13T11:21:04.947Z</time>
      </trkpt>
      <trkpt lat="44.11939" lon="6.99176">
        <ele>1627</ele>
        <time>2021-05-13T11:21:09.951Z</time>
      </trkpt>
      <trkpt lat="44.11932" lon="6.9918">
        <ele>1627</ele>
        <time>2021-05-13T11:21:14.943Z</time>
      </trkpt>
      <trkpt lat="44.11928" lon="6.99185">
        <ele>1615</ele>
        <time>2021-05-13T11:21:19.949Z</time>
      </trkpt>
      <trkpt lat="44.11922" lon="6.99189">
        <ele>1615</ele>
        <time>2021-05-13T11:21:24.942Z</time>
      </trkpt>
      <trkpt lat="44.11917" lon="6.99191">
        <ele>1615</ele>
        <time>2021-05-13T11:21:29.947Z</time>
      </trkpt>
      <trkpt lat="44.11911" lon="6.99194">
        <ele>1615</ele>
        <time>2021-05-13T11:21:34.948Z</time>
      </trkpt>
      <trkpt lat="44.11905" lon="6.99197">
        <ele>1615</ele>
        <time>2021-05-13T11:21:39.951Z</time>
      </trkpt>
      <trkpt lat="44.11902" lon="6.99201">
        <ele>1608</ele>
        <time>2021-05-13T11:21:43.956Z</time>
      </trkpt>
      <trkpt lat="44.11898" lon="6.99202">
        <ele>1608</ele>
        <time>2021-05-13T11:21:48.952Z</time>
      </trkpt>
      <trkpt lat="44.11894" lon="6.99199">
        <ele>1608</ele>
        <time>2021-05-13T11:21:53.955Z</time>
      </trkpt>
      <trkpt lat="44.11888" lon="6.99196">
        <ele>1608</ele>
        <time>2021-05-13T11:21:58.952Z</time>
      </trkpt>
      <trkpt lat="44.11883" lon="6.99198">
        <ele>1608</ele>
        <time>2021-05-13T11:22:03.954Z</time>
      </trkpt>
      <trkpt lat="44.11879" lon="6.99203">
        <ele>1608</ele>
        <time>2021-05-13T11:22:08.949Z</time>
      </trkpt>
      <trkpt lat="44.11875" lon="6.99207">
        <ele>1606</ele>
        <time>2021-05-13T11:22:13.951Z</time>
      </trkpt>
      <trkpt lat="44.11871" lon="6.99211">
        <ele>1599</ele>
        <time>2021-05-13T11:22:17.945Z</time>
      </trkpt>
      <trkpt lat="44.11869" lon="6.99213">
        <ele>1599</ele>
        <time>2021-05-13T11:22:22.948Z</time>
      </trkpt>
      <trkpt lat="44.11865" lon="6.99215">
        <ele>1599</ele>
        <time>2021-05-13T11:22:27.948Z</time>
      </trkpt>
      <trkpt lat="44.11861" lon="6.99217">
        <ele>1599</ele>
        <time>2021-05-13T11:22:31.945Z</time>
      </trkpt>
      <trkpt lat="44.11853" lon="6.99222">
        <ele>1599</ele>
        <time>2021-05-13T11:22:36.949Z</time>
      </trkpt>
      <trkpt lat="44.11848" lon="6.9922">
        <ele>1599</ele>
        <time>2021-05-13T11:22:41.951Z</time>
      </trkpt>
      <trkpt lat="44.11842" lon="6.99218">
        <ele>1594</ele>
        <time>2021-05-13T11:22:46.947Z</time>
      </trkpt>
      <trkpt lat="44.11835" lon="6.99216">
        <ele>1594</ele>
        <time>2021-05-13T11:22:51.944Z</time>
      </trkpt>
      <trkpt lat="44.11831" lon="6.99213">
        <ele>1594</ele>
        <time>2021-05-13T11:22:55.950Z</time>
      </trkpt>
      <trkpt lat="44.11825" lon="6.9921">
        <ele>1594</ele>
        <time>2021-05-13T11:23:00.949Z</time>
      </trkpt>
      <trkpt lat="44.1182" lon="6.99205">
        <ele>1606</ele>
        <time>2021-05-13T11:23:05.945Z</time>
      </trkpt>
      <trkpt lat="44.11814" lon="6.99201">
        <ele>1599</ele>
        <time>2021-05-13T11:23:10.944Z</time>
      </trkpt>
      <trkpt lat="44.11808" lon="6.99199">
        <ele>1599</ele>
        <time>2021-05-13T11:23:15.940Z</time>
      </trkpt>
      <trkpt lat="44.11801" lon="6.99197">
        <ele>1599</ele>
        <time>2021-05-13T11:23:20.949Z</time>
      </trkpt>
      <trkpt lat="44.11795" lon="6.99197">
        <ele>1599</ele>
        <time>2021-05-13T11:23:25.952Z</time>
      </trkpt>
      <trkpt lat="44.11788" lon="6.99195">
        <ele>1586</ele>
        <time>2021-05-13T11:23:30.946Z</time>
      </trkpt>
      <trkpt lat="44.11784" lon="6.99193">
        <ele>1586</ele>
        <time>2021-05-13T11:23:35.947Z</time>
      </trkpt>
      <trkpt lat="44.11778" lon="6.9919">
        <ele>1586</ele>
        <time>2021-05-13T11:23:40.940Z</time>
      </trkpt>
      <trkpt lat="44.11771" lon="6.99188">
        <ele>1586</ele>
        <time>2021-05-13T11:23:45.951Z</time>
      </trkpt>
      <trkpt lat="44.11764" lon="6.99185">
        <ele>1586</ele>
        <time>2021-05-13T11:23:50.948Z</time>
      </trkpt>
      <trkpt lat="44.11757" lon="6.99185">
        <ele>1572</ele>
        <time>2021-05-13T11:23:55.946Z</time>
      </trkpt>
      <trkpt lat="44.1175" lon="6.99182">
        <ele>1572</ele>
        <time>2021-05-13T11:24:00.943Z</time>
      </trkpt>
      <trkpt lat="44.11742" lon="6.99181">
        <ele>1572</ele>
        <time>2021-05-13T11:24:05.949Z</time>
      </trkpt>
      <trkpt lat="44.11737" lon="6.99182">
        <ele>1572</ele>
        <time>2021-05-13T11:24:10.942Z</time>
      </trkpt>
      <trkpt lat="44.11732" lon="6.9918">
        <ele>1569</ele>
        <time>2021-05-13T11:24:15.947Z</time>
      </trkpt>
      <trkpt lat="44.11726" lon="6.99178">
        <ele>1569</ele>
        <time>2021-05-13T11:24:20.947Z</time>
      </trkpt>
      <trkpt lat="44.11721" lon="6.99175">
        <ele>1569</ele>
        <time>2021-05-13T11:24:25.948Z</time>
      </trkpt>
      <trkpt lat="44.11715" lon="6.99173">
        <ele>1569</ele>
        <time>2021-05-13T11:24:30.947Z</time>
      </trkpt>
      <trkpt lat="44.1171" lon="6.99171">
        <ele>1569</ele>
        <time>2021-05-13T11:24:35.946Z</time>
      </trkpt>
      <trkpt lat="44.11705" lon="6.99165">
        <ele>1563</ele>
        <time>2021-05-13T11:24:40.945Z</time>
      </trkpt>
      <trkpt lat="44.11701" lon="6.99159">
        <ele>1563</ele>
        <time>2021-05-13T11:24:44.950Z</time>
      </trkpt>
      <trkpt lat="44.11694" lon="6.99157">
        <ele>1563</ele>
        <time>2021-05-13T11:24:49.943Z</time>
      </trkpt>
      <trkpt lat="44.11689" lon="6.99155">
        <ele>1563</ele>
        <time>2021-05-13T11:24:53.947Z</time>
      </trkpt>
      <trkpt lat="44.11683" lon="6.99151">
        <ele>1566</ele>
        <time>2021-05-13T11:24:58.948Z</time>
      </trkpt>
      <trkpt lat="44.11677" lon="6.99146">
        <ele>1562</ele>
        <time>2021-05-13T11:25:03.939Z</time>
      </trkpt>
      <trkpt lat="44.11672" lon="6.99141">
        <ele>1562</ele>
        <time>2021-05-13T11:25:07.947Z</time>
      </trkpt>
      <trkpt lat="44.11667" lon="6.99136">
        <ele>1562</ele>
        <time>2021-05-13T11:25:12.945Z</time>
      </trkpt>
      <trkpt lat="44.11661" lon="6.99131">
        <ele>1562</ele>
        <time>2021-05-13T11:25:17.948Z</time>
      </trkpt>
      <trkpt lat="44.11655" lon="6.99128">
        <ele>1562</ele>
        <time>2021-05-13T11:25:22.947Z</time>
      </trkpt>
      <trkpt lat="44.11649" lon="6.99124">
        <ele>1556</ele>
        <time>2021-05-13T11:25:27.946Z</time>
      </trkpt>
      <trkpt lat="44.11643" lon="6.99122">
        <ele>1556</ele>
        <time>2021-05-13T11:25:32.950Z</time>
      </trkpt>
      <trkpt lat="44.11637" lon="6.99117">
        <ele>1556</ele>
        <time>2021-05-13T11:25:37.949Z</time>
      </trkpt>
      <trkpt lat="44.11632" lon="6.99111">
        <ele>1556</ele>
        <time>2021-05-13T11:25:42.946Z</time>
      </trkpt>
      <trkpt lat="44.11631" lon="6.99106">
        <ele>1556</ele>
        <time>2021-05-13T11:25:47.946Z</time>
      </trkpt>
      <trkpt lat="44.11626" lon="6.99101">
        <ele>1556</ele>
        <time>2021-05-13T11:25:52.946Z</time>
      </trkpt>
      <trkpt lat="44.1162" lon="6.99094">
        <ele>1556</ele>
        <time>2021-05-13T11:25:57.951Z</time>
      </trkpt>
      <trkpt lat="44.11614" lon="6.99089">
        <ele>1556</ele>
        <time>2021-05-13T11:26:02.944Z</time>
      </trkpt>
      <trkpt lat="44.1161" lon="6.99084">
        <ele>1556</ele>
        <time>2021-05-13T11:26:07.946Z</time>
      </trkpt>
      <trkpt lat="44.11608" lon="6.99076">
        <ele>1556</ele>
        <time>2021-05-13T11:26:12.944Z</time>
      </trkpt>
      <trkpt lat="44.11606" lon="6.99071">
        <ele>1556</ele>
        <time>2021-05-13T11:26:17.948Z</time>
      </trkpt>
      <trkpt lat="44.11603" lon="6.99071">
        <ele>1556</ele>
        <time>2021-05-13T11:26:22.943Z</time>
      </trkpt>
      <trkpt lat="44.116" lon="6.99075">
        <ele>1556</ele>
        <time>2021-05-13T11:26:27.948Z</time>
      </trkpt>
      <trkpt lat="44.11595" lon="6.99075">
        <ele>1554</ele>
        <time>2021-05-13T11:26:32.945Z</time>
      </trkpt>
      <trkpt lat="44.11591" lon="6.99076">
        <ele>1554</ele>
        <time>2021-05-13T11:26:37.949Z</time>
      </trkpt>
      <trkpt lat="44.11588" lon="6.99078">
        <ele>1554</ele>
        <time>2021-05-13T11:26:42.945Z</time>
      </trkpt>
      <trkpt lat="44.11586" lon="6.99078">
        <ele>1554</ele>
        <time>2021-05-13T11:26:47.944Z</time>
      </trkpt>
      <trkpt lat="44.11584" lon="6.9908">
        <ele>1554</ele>
        <time>2021-05-13T11:26:52.948Z</time>
      </trkpt>
      <trkpt lat="44.1158" lon="6.9908">
        <ele>1554</ele>
        <time>2021-05-13T11:26:57.943Z</time>
      </trkpt>
      <trkpt lat="44.1158" lon="6.9908">
        <ele>1554</ele>
        <time>2021-05-13T11:27:02.938Z</time>
      </trkpt>
      <trkpt lat="44.11578" lon="6.99081">
        <ele>1554</ele>
        <time>2021-05-13T11:27:25.954Z</time>
      </trkpt>
      <trkpt lat="44.11578" lon="6.99082">
        <ele>1554</ele>
        <time>2021-05-13T11:27:30.946Z</time>
      </trkpt>
      <trkpt lat="44.11576" lon="6.99086">
        <ele>1554</ele>
        <time>2021-05-13T11:27:35.945Z</time>
      </trkpt>
      <trkpt lat="44.11573" lon="6.99092">
        <ele>1554</ele>
        <time>2021-05-13T11:27:40.955Z</time>
      </trkpt>
      <trkpt lat="44.11571" lon="6.99095">
        <ele>1554</ele>
        <time>2021-05-13T11:27:45.951Z</time>
      </trkpt>
      <trkpt lat="44.11569" lon="6.99095">
        <ele>1550</ele>
        <time>2021-05-13T11:27:50.951Z</time>
      </trkpt>
      <trkpt lat="44.11567" lon="6.99096">
        <ele>1550</ele>
        <time>2021-05-13T11:27:55.946Z</time>
      </trkpt>
      <trkpt lat="44.11562" lon="6.99095">
        <ele>1550</ele>
        <time>2021-05-13T11:28:00.951Z</time>
      </trkpt>
      <trkpt lat="44.1156" lon="6.99097">
        <ele>1552</ele>
        <time>2021-05-13T11:28:05.936Z</time>
      </trkpt>
      <trkpt lat="44.1156" lon="6.99098">
        <ele>1552</ele>
        <time>2021-05-13T11:28:10.942Z</time>
      </trkpt>
      <trkpt lat="44.1156" lon="6.991">
        <ele>1552</ele>
        <time>2021-05-13T11:28:15.964Z</time>
      </trkpt>
      <trkpt lat="44.11559" lon="6.99106">
        <ele>1552</ele>
        <time>2021-05-13T11:28:20.942Z</time>
      </trkpt>
      <trkpt lat="44.11559" lon="6.9911">
        <ele>1552</ele>
        <time>2021-05-13T11:28:25.947Z</time>
      </trkpt>
      <trkpt lat="44.1156" lon="6.99111">
        <ele>1552</ele>
        <time>2021-05-13T11:28:30.948Z</time>
      </trkpt>
      <trkpt lat="44.11558" lon="6.99114">
        <ele>1552</ele>
        <time>2021-05-13T11:28:35.944Z</time>
      </trkpt>
      <trkpt lat="44.11556" lon="6.99121">
        <ele>1552</ele>
        <time>2021-05-13T11:28:40.944Z</time>
      </trkpt>
      <trkpt lat="44.11552" lon="6.99123">
        <ele>1552</ele>
        <time>2021-05-13T11:28:45.946Z</time>
      </trkpt>
      <trkpt lat="44.11547" lon="6.99123">
        <ele>1552</ele>
        <time>2021-05-13T11:28:50.955Z</time>
      </trkpt>
      <trkpt lat="44.11543" lon="6.99121">
        <ele>1552</ele>
        <time>2021-05-13T11:28:55.942Z</time>
      </trkpt>
      <trkpt lat="44.11537" lon="6.99118">
        <ele>1557</ele>
        <time>2021-05-13T11:29:00.945Z</time>
      </trkpt>
      <trkpt lat="44.11534" lon="6.99114">
        <ele>1557</ele>
        <time>2021-05-13T11:29:04.950Z</time>
      </trkpt>
      <trkpt lat="44.11529" lon="6.99109">
        <ele>1557</ele>
        <time>2021-05-13T11:29:09.948Z</time>
      </trkpt>
      <trkpt lat="44.11526" lon="6.99103">
        <ele>1557</ele>
        <time>2021-05-13T11:29:14.940Z</time>
      </trkpt>
      <trkpt lat="44.11521" lon="6.99096">
        <ele>1548</ele>
        <time>2021-05-13T11:29:19.942Z</time>
      </trkpt>
      <trkpt lat="44.11517" lon="6.9909">
        <ele>1548</ele>
        <time>2021-05-13T11:29:23.939Z</time>
      </trkpt>
      <trkpt lat="44.11514" lon="6.99084">
        <ele>1548</ele>
        <time>2021-05-13T11:29:28.944Z</time>
      </trkpt>
      <trkpt lat="44.11509" lon="6.99077">
        <ele>1553</ele>
        <time>2021-05-13T11:29:33.960Z</time>
      </trkpt>
      <trkpt lat="44.11502" lon="6.99072">
        <ele>1553</ele>
        <time>2021-05-13T11:29:38.949Z</time>
      </trkpt>
      <trkpt lat="44.11497" lon="6.99065">
        <ele>1543</ele>
        <time>2021-05-13T11:29:43.944Z</time>
      </trkpt>
      <trkpt lat="44.11493" lon="6.9906">
        <ele>1543</ele>
        <time>2021-05-13T11:29:47.952Z</time>
      </trkpt>
      <trkpt lat="44.11489" lon="6.99052">
        <ele>1543</ele>
        <time>2021-05-13T11:29:52.944Z</time>
      </trkpt>
      <trkpt lat="44.11488" lon="6.99045">
        <ele>1543</ele>
        <time>2021-05-13T11:29:57.950Z</time>
      </trkpt>
      <trkpt lat="44.11484" lon="6.9904">
        <ele>1542</ele>
        <time>2021-05-13T11:30:01.946Z</time>
      </trkpt>
      <trkpt lat="44.11479" lon="6.99037">
        <ele>1542</ele>
        <time>2021-05-13T11:30:06.951Z</time>
      </trkpt>
      <trkpt lat="44.11475" lon="6.99033">
        <ele>1542</ele>
        <time>2021-05-13T11:30:11.941Z</time>
      </trkpt>
      <trkpt lat="44.1147" lon="6.9903">
        <ele>1542</ele>
        <time>2021-05-13T11:30:15.943Z</time>
      </trkpt>
      <trkpt lat="44.11465" lon="6.99025">
        <ele>1542</ele>
        <time>2021-05-13T11:30:20.948Z</time>
      </trkpt>
      <trkpt lat="44.1146" lon="6.99021">
        <ele>1542</ele>
        <time>2021-05-13T11:30:24.953Z</time>
      </trkpt>
      <trkpt lat="44.11456" lon="6.99014">
        <ele>1549</ele>
        <time>2021-05-13T11:30:29.951Z</time>
      </trkpt>
      <trkpt lat="44.11451" lon="6.99007">
        <ele>1539</ele>
        <time>2021-05-13T11:30:34.951Z</time>
      </trkpt>
      <trkpt lat="44.11448" lon="6.99002">
        <ele>1539</ele>
        <time>2021-05-13T11:30:38.943Z</time>
      </trkpt>
      <trkpt lat="44.11443" lon="6.98996">
        <ele>1539</ele>
        <time>2021-05-13T11:30:43.944Z</time>
      </trkpt>
      <trkpt lat="44.11439" lon="6.98989">
        <ele>1539</ele>
        <time>2021-05-13T11:30:48.946Z</time>
      </trkpt>
      <trkpt lat="44.11434" lon="6.98985">
        <ele>1533</ele>
        <time>2021-05-13T11:30:53.942Z</time>
      </trkpt>
      <trkpt lat="44.11427" lon="6.98985">
        <ele>1533</ele>
        <time>2021-05-13T11:30:58.955Z</time>
      </trkpt>
      <trkpt lat="44.11421" lon="6.98985">
        <ele>1533</ele>
        <time>2021-05-13T11:31:03.949Z</time>
      </trkpt>
      <trkpt lat="44.11414" lon="6.98981">
        <ele>1533</ele>
        <time>2021-05-13T11:31:08.947Z</time>
      </trkpt>
      <trkpt lat="44.1141" lon="6.98976">
        <ele>1533</ele>
        <time>2021-05-13T11:31:13.946Z</time>
      </trkpt>
      <trkpt lat="44.11406" lon="6.9897">
        <ele>1533</ele>
        <time>2021-05-13T11:31:18.947Z</time>
      </trkpt>
      <trkpt lat="44.11401" lon="6.98964">
        <ele>1534</ele>
        <time>2021-05-13T11:31:23.949Z</time>
      </trkpt>
      <trkpt lat="44.11396" lon="6.98957">
        <ele>1528</ele>
        <time>2021-05-13T11:31:28.946Z</time>
      </trkpt>
      <trkpt lat="44.1139" lon="6.98954">
        <ele>1528</ele>
        <time>2021-05-13T11:31:33.949Z</time>
      </trkpt>
      <trkpt lat="44.11386" lon="6.98951">
        <ele>1528</ele>
        <time>2021-05-13T11:31:38.945Z</time>
      </trkpt>
      <trkpt lat="44.11382" lon="6.98949">
        <ele>1528</ele>
        <time>2021-05-13T11:31:43.946Z</time>
      </trkpt>
      <trkpt lat="44.11378" lon="6.98949">
        <ele>1528</ele>
        <time>2021-05-13T11:31:48.955Z</time>
      </trkpt>
      <trkpt lat="44.11373" lon="6.98946">
        <ele>1535</ele>
        <time>2021-05-13T11:31:53.948Z</time>
      </trkpt>
      <trkpt lat="44.11368" lon="6.9894">
        <ele>1535</ele>
        <time>2021-05-13T11:31:58.944Z</time>
      </trkpt>
      <trkpt lat="44.11363" lon="6.98936">
        <ele>1535</ele>
        <time>2021-05-13T11:32:03.940Z</time>
      </trkpt>
      <trkpt lat="44.1136" lon="6.9893">
        <ele>1528</ele>
        <time>2021-05-13T11:32:08.956Z</time>
      </trkpt>
      <trkpt lat="44.11358" lon="6.98924">
        <ele>1528</ele>
        <time>2021-05-13T11:32:13.948Z</time>
      </trkpt>
      <trkpt lat="44.11354" lon="6.98917">
        <ele>1528</ele>
        <time>2021-05-13T11:32:18.941Z</time>
      </trkpt>
      <trkpt lat="44.1135" lon="6.98914">
        <ele>1528</ele>
        <time>2021-05-13T11:32:23.941Z</time>
      </trkpt>
      <trkpt lat="44.11345" lon="6.98907">
        <ele>1533</ele>
        <time>2021-05-13T11:32:28.949Z</time>
      </trkpt>
      <trkpt lat="44.11341" lon="6.98903">
        <ele>1526</ele>
        <time>2021-05-13T11:32:33.957Z</time>
      </trkpt>
      <trkpt lat="44.11339" lon="6.98896">
        <ele>1526</ele>
        <time>2021-05-13T11:32:38.946Z</time>
      </trkpt>
      <trkpt lat="44.11336" lon="6.98892">
        <ele>1526</ele>
        <time>2021-05-13T11:32:43.941Z</time>
      </trkpt>
      <trkpt lat="44.1133" lon="6.98888">
        <ele>1526</ele>
        <time>2021-05-13T11:32:48.943Z</time>
      </trkpt>
      <trkpt lat="44.11324" lon="6.98883">
        <ele>1526</ele>
        <time>2021-05-13T11:32:53.943Z</time>
      </trkpt>
      <trkpt lat="44.11319" lon="6.98876">
        <ele>1527</ele>
        <time>2021-05-13T11:32:58.947Z</time>
      </trkpt>
      <trkpt lat="44.11315" lon="6.98872">
        <ele>1519</ele>
        <time>2021-05-13T11:33:03.934Z</time>
      </trkpt>
      <trkpt lat="44.11311" lon="6.98867">
        <ele>1519</ele>
        <time>2021-05-13T11:33:07.960Z</time>
      </trkpt>
      <trkpt lat="44.11307" lon="6.9886">
        <ele>1519</ele>
        <time>2021-05-13T11:33:12.945Z</time>
      </trkpt>
      <trkpt lat="44.11301" lon="6.98857">
        <ele>1519</ele>
        <time>2021-05-13T11:33:17.948Z</time>
      </trkpt>
      <trkpt lat="44.11294" lon="6.98853">
        <ele>1519</ele>
        <time>2021-05-13T11:33:22.951Z</time>
      </trkpt>
      <trkpt lat="44.11287" lon="6.98848">
        <ele>1517</ele>
        <time>2021-05-13T11:33:27.945Z</time>
      </trkpt>
      <trkpt lat="44.11281" lon="6.98845">
        <ele>1514</ele>
        <time>2021-05-13T11:33:32.935Z</time>
      </trkpt>
      <trkpt lat="44.11275" lon="6.98846">
        <ele>1514</ele>
        <time>2021-05-13T11:33:36.943Z</time>
      </trkpt>
      <trkpt lat="44.11272" lon="6.98845">
        <ele>1514</ele>
        <time>2021-05-13T11:33:40.946Z</time>
      </trkpt>
      <trkpt lat="44.11266" lon="6.98847">
        <ele>1514</ele>
        <time>2021-05-13T11:33:45.949Z</time>
      </trkpt>
      <trkpt lat="44.11261" lon="6.98849">
        <ele>1516</ele>
        <time>2021-05-13T11:33:50.943Z</time>
      </trkpt>
      <trkpt lat="44.11258" lon="6.98848">
        <ele>1516</ele>
        <time>2021-05-13T11:33:55.952Z</time>
      </trkpt>
      <trkpt lat="44.1125" lon="6.98847">
        <ele>1512</ele>
        <time>2021-05-13T11:33:59.948Z</time>
      </trkpt>
      <trkpt lat="44.11243" lon="6.98843">
        <ele>1512</ele>
        <time>2021-05-13T11:34:04.963Z</time>
      </trkpt>
      <trkpt lat="44.11239" lon="6.9884">
        <ele>1512</ele>
        <time>2021-05-13T11:34:08.947Z</time>
      </trkpt>
      <trkpt lat="44.11233" lon="6.98837">
        <ele>1510</ele>
        <time>2021-05-13T11:34:13.943Z</time>
      </trkpt>
      <trkpt lat="44.11227" lon="6.98842">
        <ele>1510</ele>
        <time>2021-05-13T11:34:18.943Z</time>
      </trkpt>
      <trkpt lat="44.11221" lon="6.98845">
        <ele>1510</ele>
        <time>2021-05-13T11:34:23.947Z</time>
      </trkpt>
      <trkpt lat="44.11215" lon="6.98849">
        <ele>1512</ele>
        <time>2021-05-13T11:34:28.950Z</time>
      </trkpt>
      <trkpt lat="44.11211" lon="6.98851">
        <ele>1512</ele>
        <time>2021-05-13T11:34:33.943Z</time>
      </trkpt>
      <trkpt lat="44.11206" lon="6.98853">
        <ele>1506</ele>
        <time>2021-05-13T11:34:38.947Z</time>
      </trkpt>
      <trkpt lat="44.112" lon="6.98855">
        <ele>1506</ele>
        <time>2021-05-13T11:34:43.960Z</time>
      </trkpt>
      <trkpt lat="44.11195" lon="6.98859">
        <ele>1506</ele>
        <time>2021-05-13T11:34:48.944Z</time>
      </trkpt>
      <trkpt lat="44.1119" lon="6.98861">
        <ele>1506</ele>
        <time>2021-05-13T11:34:53.947Z</time>
      </trkpt>
      <trkpt lat="44.11185" lon="6.98864">
        <ele>1506</ele>
        <time>2021-05-13T11:34:58.945Z</time>
      </trkpt>
      <trkpt lat="44.11179" lon="6.98867">
        <ele>1502</ele>
        <time>2021-05-13T11:35:03.946Z</time>
      </trkpt>
      <trkpt lat="44.11177" lon="6.98866">
        <ele>1502</ele>
        <time>2021-05-13T11:35:08.940Z</time>
      </trkpt>
      <trkpt lat="44.11174" lon="6.98863">
        <ele>1502</ele>
        <time>2021-05-13T11:35:13.947Z</time>
      </trkpt>
      <trkpt lat="44.11173" lon="6.98863">
        <ele>1502</ele>
        <time>2021-05-13T11:35:18.947Z</time>
      </trkpt>
      <trkpt lat="44.11169" lon="6.98863">
        <ele>1502</ele>
        <time>2021-05-13T11:35:23.954Z</time>
      </trkpt>
      <trkpt lat="44.11164" lon="6.98865">
        <ele>1502</ele>
        <time>2021-05-13T11:35:28.939Z</time>
      </trkpt>
      <trkpt lat="44.11159" lon="6.98863">
        <ele>1502</ele>
        <time>2021-05-13T11:35:33.956Z</time>
      </trkpt>
      <trkpt lat="44.11152" lon="6.98859">
        <ele>1500</ele>
        <time>2021-05-13T11:35:38.947Z</time>
      </trkpt>
      <trkpt lat="44.11145" lon="6.98859">
        <ele>1500</ele>
        <time>2021-05-13T11:35:43.962Z</time>
      </trkpt>
      <trkpt lat="44.11138" lon="6.98863">
        <ele>1500</ele>
        <time>2021-05-13T11:35:48.940Z</time>
      </trkpt>
      <trkpt lat="44.11134" lon="6.98864">
        <ele>1500</ele>
        <time>2021-05-13T11:35:53.947Z</time>
      </trkpt>
      <trkpt lat="44.11128" lon="6.98864">
        <ele>1500</ele>
        <time>2021-05-13T11:35:58.946Z</time>
      </trkpt>
      <trkpt lat="44.11125" lon="6.98863">
        <ele>1496</ele>
        <time>2021-05-13T11:36:03.956Z</time>
      </trkpt>
      <trkpt lat="44.11122" lon="6.98863">
        <ele>1496</ele>
        <time>2021-05-13T11:36:32.949Z</time>
      </trkpt>
      <trkpt lat="44.11122" lon="6.98859">
        <ele>1496</ele>
        <time>2021-05-13T11:36:51.958Z</time>
      </trkpt>
      <trkpt lat="44.11121" lon="6.98856">
        <ele>1496</ele>
        <time>2021-05-13T11:36:56.943Z</time>
      </trkpt>
      <trkpt lat="44.11119" lon="6.98856">
        <ele>1496</ele>
        <time>2021-05-13T11:37:00.955Z</time>
      </trkpt>
      <trkpt lat="44.11118" lon="6.98856">
        <ele>1496</ele>
        <time>2021-05-13T11:37:05.936Z</time>
      </trkpt>
      <trkpt lat="44.11115" lon="6.98858">
        <ele>1496</ele>
        <time>2021-05-13T11:37:14.952Z</time>
      </trkpt>
      <trkpt lat="44.11113" lon="6.98857">
        <ele>1496</ele>
        <time>2021-05-13T11:37:28.957Z</time>
      </trkpt>
      <trkpt lat="44.11111" lon="6.98859">
        <ele>1496</ele>
        <time>2021-05-13T11:37:33.948Z</time>
      </trkpt>
      <trkpt lat="44.1111" lon="6.98864">
        <ele>1496</ele>
        <time>2021-05-13T11:37:38.951Z</time>
      </trkpt>
      <trkpt lat="44.11108" lon="6.98865">
        <ele>1496</ele>
        <time>2021-05-13T11:37:43.948Z</time>
      </trkpt>
      <trkpt lat="44.11105" lon="6.98872">
        <ele>1496</ele>
        <time>2021-05-13T11:37:48.955Z</time>
      </trkpt>
      <trkpt lat="44.11099" lon="6.98871">
        <ele>1496</ele>
        <time>2021-05-13T11:37:53.958Z</time>
      </trkpt>
      <trkpt lat="44.11093" lon="6.98872">
        <ele>1490</ele>
        <time>2021-05-13T11:37:58.959Z</time>
      </trkpt>
      <trkpt lat="44.11089" lon="6.98877">
        <ele>1489</ele>
        <time>2021-05-13T11:38:02.953Z</time>
      </trkpt>
      <trkpt lat="44.11083" lon="6.98881">
        <ele>1489</ele>
        <time>2021-05-13T11:38:07.956Z</time>
      </trkpt>
      <trkpt lat="44.11076" lon="6.98883">
        <ele>1489</ele>
        <time>2021-05-13T11:38:12.955Z</time>
      </trkpt>
      <trkpt lat="44.1107" lon="6.98882">
        <ele>1489</ele>
        <time>2021-05-13T11:38:17.957Z</time>
      </trkpt>
      <trkpt lat="44.11065" lon="6.98876">
        <ele>1490</ele>
        <time>2021-05-13T11:38:22.950Z</time>
      </trkpt>
      <trkpt lat="44.1106" lon="6.98869">
        <ele>1491</ele>
        <time>2021-05-13T11:38:27.947Z</time>
      </trkpt>
      <trkpt lat="44.11057" lon="6.98865">
        <ele>1491</ele>
        <time>2021-05-13T11:38:31.955Z</time>
      </trkpt>
      <trkpt lat="44.11051" lon="6.98858">
        <ele>1491</ele>
        <time>2021-05-13T11:38:36.953Z</time>
      </trkpt>
      <trkpt lat="44.11046" lon="6.98854">
        <ele>1491</ele>
        <time>2021-05-13T11:38:41.953Z</time>
      </trkpt>
      <trkpt lat="44.11039" lon="6.98849">
        <ele>1493</ele>
        <time>2021-05-13T11:38:46.953Z</time>
      </trkpt>
      <trkpt lat="44.11032" lon="6.98845">
        <ele>1494</ele>
        <time>2021-05-13T11:38:51.950Z</time>
      </trkpt>
      <trkpt lat="44.11028" lon="6.98842">
        <ele>1494</ele>
        <time>2021-05-13T11:38:55.957Z</time>
      </trkpt>
      <trkpt lat="44.11021" lon="6.98838">
        <ele>1494</ele>
        <time>2021-05-13T11:39:00.947Z</time>
      </trkpt>
      <trkpt lat="44.11016" lon="6.98837">
        <ele>1494</ele>
        <time>2021-05-13T11:39:05.949Z</time>
      </trkpt>
      <trkpt lat="44.1101" lon="6.98835">
        <ele>1489</ele>
        <time>2021-05-13T11:39:10.951Z</time>
      </trkpt>
      <trkpt lat="44.11004" lon="6.98834">
        <ele>1489</ele>
        <time>2021-05-13T11:39:15.947Z</time>
      </trkpt>
      <trkpt lat="44.10998" lon="6.98832">
        <ele>1489</ele>
        <time>2021-05-13T11:39:19.959Z</time>
      </trkpt>
      <trkpt lat="44.10991" lon="6.98831">
        <ele>1489</ele>
        <time>2021-05-13T11:39:24.960Z</time>
      </trkpt>
      <trkpt lat="44.10983" lon="6.98829">
        <ele>1486</ele>
        <time>2021-05-13T11:39:29.951Z</time>
      </trkpt>
      <trkpt lat="44.10975" lon="6.98828">
        <ele>1486</ele>
        <time>2021-05-13T11:39:34.955Z</time>
      </trkpt>
      <trkpt lat="44.10968" lon="6.98829">
        <ele>1486</ele>
        <time>2021-05-13T11:39:39.949Z</time>
      </trkpt>
      <trkpt lat="44.10961" lon="6.98831">
        <ele>1486</ele>
        <time>2021-05-13T11:39:44.956Z</time>
      </trkpt>
      <trkpt lat="44.10955" lon="6.98831">
        <ele>1481</ele>
        <time>2021-05-13T11:39:49.947Z</time>
      </trkpt>
      <trkpt lat="44.10949" lon="6.9883">
        <ele>1481</ele>
        <time>2021-05-13T11:39:54.950Z</time>
      </trkpt>
      <trkpt lat="44.10944" lon="6.98828">
        <ele>1481</ele>
        <time>2021-05-13T11:39:58.951Z</time>
      </trkpt>
      <trkpt lat="44.10938" lon="6.98828">
        <ele>1481</ele>
        <time>2021-05-13T11:40:03.951Z</time>
      </trkpt>
      <trkpt lat="44.10932" lon="6.98829">
        <ele>1481</ele>
        <time>2021-05-13T11:40:08.952Z</time>
      </trkpt>
      <trkpt lat="44.10925" lon="6.98825">
        <ele>1477</ele>
        <time>2021-05-13T11:40:13.946Z</time>
      </trkpt>
      <trkpt lat="44.10917" lon="6.9882">
        <ele>1477</ele>
        <time>2021-05-13T11:40:18.951Z</time>
      </trkpt>
      <trkpt lat="44.10913" lon="6.98814">
        <ele>1479</ele>
        <time>2021-05-13T11:40:23.951Z</time>
      </trkpt>
      <trkpt lat="44.10908" lon="6.98809">
        <ele>1479</ele>
        <time>2021-05-13T11:40:28.940Z</time>
      </trkpt>
      <trkpt lat="44.10904" lon="6.98806">
        <ele>1479</ele>
        <time>2021-05-13T11:40:32.956Z</time>
      </trkpt>
      <trkpt lat="44.10898" lon="6.98804">
        <ele>1475</ele>
        <time>2021-05-13T11:40:37.957Z</time>
      </trkpt>
      <trkpt lat="44.10892" lon="6.98801">
        <ele>1475</ele>
        <time>2021-05-13T11:40:42.948Z</time>
      </trkpt>
      <trkpt lat="44.10887" lon="6.98798">
        <ele>1475</ele>
        <time>2021-05-13T11:40:47.949Z</time>
      </trkpt>
      <trkpt lat="44.1088" lon="6.98798">
        <ele>1475</ele>
        <time>2021-05-13T11:40:52.957Z</time>
      </trkpt>
      <trkpt lat="44.10875" lon="6.98796">
        <ele>1473</ele>
        <time>2021-05-13T11:40:57.959Z</time>
      </trkpt>
      <trkpt lat="44.10868" lon="6.98795">
        <ele>1473</ele>
        <time>2021-05-13T11:41:02.951Z</time>
      </trkpt>
      <trkpt lat="44.1086" lon="6.98791">
        <ele>1475</ele>
        <time>2021-05-13T11:41:07.956Z</time>
      </trkpt>
      <trkpt lat="44.10854" lon="6.98787">
        <ele>1475</ele>
        <time>2021-05-13T11:41:12.944Z</time>
      </trkpt>
      <trkpt lat="44.1085" lon="6.98783">
        <ele>1475</ele>
        <time>2021-05-13T11:41:17.952Z</time>
      </trkpt>
      <trkpt lat="44.10844" lon="6.98779">
        <ele>1471</ele>
        <time>2021-05-13T11:41:22.952Z</time>
      </trkpt>
      <trkpt lat="44.1084" lon="6.98777">
        <ele>1471</ele>
        <time>2021-05-13T11:41:27.949Z</time>
      </trkpt>
      <trkpt lat="44.10834" lon="6.98776">
        <ele>1471</ele>
        <time>2021-05-13T11:41:31.951Z</time>
      </trkpt>
      <trkpt lat="44.10829" lon="6.98772">
        <ele>1471</ele>
        <time>2021-05-13T11:41:36.945Z</time>
      </trkpt>
      <trkpt lat="44.10823" lon="6.98768">
        <ele>1471</ele>
        <time>2021-05-13T11:41:41.954Z</time>
      </trkpt>
      <trkpt lat="44.10817" lon="6.98765">
        <ele>1468</ele>
        <time>2021-05-13T11:41:46.955Z</time>
      </trkpt>
      <trkpt lat="44.10812" lon="6.98764">
        <ele>1468</ele>
        <time>2021-05-13T11:41:50.952Z</time>
      </trkpt>
      <trkpt lat="44.10806" lon="6.98765">
        <ele>1468</ele>
        <time>2021-05-13T11:41:55.952Z</time>
      </trkpt>
      <trkpt lat="44.108" lon="6.98765">
        <ele>1468</ele>
        <time>2021-05-13T11:42:00.961Z</time>
      </trkpt>
      <trkpt lat="44.10794" lon="6.98762">
        <ele>1470</ele>
        <time>2021-05-13T11:42:05.957Z</time>
      </trkpt>
      <trkpt lat="44.10789" lon="6.98758">
        <ele>1470</ele>
        <time>2021-05-13T11:42:10.945Z</time>
      </trkpt>
      <trkpt lat="44.10783" lon="6.98754">
        <ele>1470</ele>
        <time>2021-05-13T11:42:15.951Z</time>
      </trkpt>
      <trkpt lat="44.10777" lon="6.98749">
        <ele>1470</ele>
        <time>2021-05-13T11:42:20.952Z</time>
      </trkpt>
      <trkpt lat="44.10772" lon="6.98747">
        <ele>1470</ele>
        <time>2021-05-13T11:42:25.956Z</time>
      </trkpt>
      <trkpt lat="44.10766" lon="6.98746">
        <ele>1470</ele>
        <time>2021-05-13T11:42:30.947Z</time>
      </trkpt>
      <trkpt lat="44.1076" lon="6.98745">
        <ele>1465</ele>
        <time>2021-05-13T11:42:35.946Z</time>
      </trkpt>
      <trkpt lat="44.10754" lon="6.98744">
        <ele>1465</ele>
        <time>2021-05-13T11:42:40.953Z</time>
      </trkpt>
      <trkpt lat="44.10748" lon="6.98743">
        <ele>1465</ele>
        <time>2021-05-13T11:42:45.971Z</time>
      </trkpt>
      <trkpt lat="44.10742" lon="6.9874">
        <ele>1465</ele>
        <time>2021-05-13T11:42:50.947Z</time>
      </trkpt>
      <trkpt lat="44.10734" lon="6.9874">
        <ele>1460</ele>
        <time>2021-05-13T11:42:55.954Z</time>
      </trkpt>
      <trkpt lat="44.1073" lon="6.98738">
        <ele>1460</ele>
        <time>2021-05-13T11:43:00.951Z</time>
      </trkpt>
      <trkpt lat="44.10725" lon="6.98736">
        <ele>1460</ele>
        <time>2021-05-13T11:43:05.950Z</time>
      </trkpt>
      <trkpt lat="44.10719" lon="6.98739">
        <ele>1460</ele>
        <time>2021-05-13T11:43:10.947Z</time>
      </trkpt>
      <trkpt lat="44.10712" lon="6.98736">
        <ele>1464</ele>
        <time>2021-05-13T11:43:15.950Z</time>
      </trkpt>
      <trkpt lat="44.10707" lon="6.98733">
        <ele>1460</ele>
        <time>2021-05-13T11:43:20.951Z</time>
      </trkpt>
      <trkpt lat="44.10701" lon="6.98729">
        <ele>1460</ele>
        <time>2021-05-13T11:43:25.950Z</time>
      </trkpt>
      <trkpt lat="44.10695" lon="6.98728">
        <ele>1460</ele>
        <time>2021-05-13T11:43:30.957Z</time>
      </trkpt>
      <trkpt lat="44.10689" lon="6.98726">
        <ele>1460</ele>
        <time>2021-05-13T11:43:35.966Z</time>
      </trkpt>
      <trkpt lat="44.10684" lon="6.98729">
        <ele>1460</ele>
        <time>2021-05-13T11:43:40.964Z</time>
      </trkpt>
      <trkpt lat="44.1068" lon="6.9873">
        <ele>1459</ele>
        <time>2021-05-13T11:43:45.948Z</time>
      </trkpt>
      <trkpt lat="44.10675" lon="6.9873">
        <ele>1459</ele>
        <time>2021-05-13T11:43:49.956Z</time>
      </trkpt>
      <trkpt lat="44.10668" lon="6.9873">
        <ele>1459</ele>
        <time>2021-05-13T11:43:54.959Z</time>
      </trkpt>
      <trkpt lat="44.1066" lon="6.98728">
        <ele>1459</ele>
        <time>2021-05-13T11:43:59.945Z</time>
      </trkpt>
      <trkpt lat="44.10655" lon="6.98727">
        <ele>1459</ele>
        <time>2021-05-13T11:44:03.940Z</time>
      </trkpt>
      <trkpt lat="44.10649" lon="6.98725">
        <ele>1455</ele>
        <time>2021-05-13T11:44:08.951Z</time>
      </trkpt>
      <trkpt lat="44.10643" lon="6.98726">
        <ele>1455</ele>
        <time>2021-05-13T11:44:13.948Z</time>
      </trkpt>
      <trkpt lat="44.10637" lon="6.98729">
        <ele>1455</ele>
        <time>2021-05-13T11:44:18.950Z</time>
      </trkpt>
      <trkpt lat="44.10631" lon="6.98729">
        <ele>1455</ele>
        <time>2021-05-13T11:44:23.955Z</time>
      </trkpt>
      <trkpt lat="44.10624" lon="6.98729">
        <ele>1450</ele>
        <time>2021-05-13T11:44:28.953Z</time>
      </trkpt>
      <trkpt lat="44.10618" lon="6.98728">
        <ele>1450</ele>
        <time>2021-05-13T11:44:33.952Z</time>
      </trkpt>
      <trkpt lat="44.10612" lon="6.98726">
        <ele>1450</ele>
        <time>2021-05-13T11:44:38.956Z</time>
      </trkpt>
      <trkpt lat="44.10605" lon="6.98724">
        <ele>1450</ele>
        <time>2021-05-13T11:44:43.948Z</time>
      </trkpt>
      <trkpt lat="44.10599" lon="6.98721">
        <ele>1450</ele>
        <time>2021-05-13T11:44:48.955Z</time>
      </trkpt>
      <trkpt lat="44.10593" lon="6.98719">
        <ele>1448</ele>
        <time>2021-05-13T11:44:53.957Z</time>
      </trkpt>
      <trkpt lat="44.10589" lon="6.98716">
        <ele>1448</ele>
        <time>2021-05-13T11:44:58.947Z</time>
      </trkpt>
      <trkpt lat="44.10586" lon="6.98715">
        <ele>1448</ele>
        <time>2021-05-13T11:45:03.963Z</time>
      </trkpt>
      <trkpt lat="44.10581" lon="6.98715">
        <ele>1448</ele>
        <time>2021-05-13T11:45:08.956Z</time>
      </trkpt>
      <trkpt lat="44.10576" lon="6.98716">
        <ele>1448</ele>
        <time>2021-05-13T11:45:13.943Z</time>
      </trkpt>
      <trkpt lat="44.10571" lon="6.98714">
        <ele>1448</ele>
        <time>2021-05-13T11:45:18.953Z</time>
      </trkpt>
      <trkpt lat="44.10566" lon="6.98714">
        <ele>1447</ele>
        <time>2021-05-13T11:45:23.955Z</time>
      </trkpt>
      <trkpt lat="44.1056" lon="6.98713">
        <ele>1447</ele>
        <time>2021-05-13T11:45:28.951Z</time>
      </trkpt>
      <trkpt lat="44.10555" lon="6.98711">
        <ele>1447</ele>
        <time>2021-05-13T11:45:33.958Z</time>
      </trkpt>
      <trkpt lat="44.1055" lon="6.98709">
        <ele>1447</ele>
        <time>2021-05-13T11:45:38.952Z</time>
      </trkpt>
      <trkpt lat="44.10543" lon="6.98709">
        <ele>1447</ele>
        <time>2021-05-13T11:45:43.959Z</time>
      </trkpt>
      <trkpt lat="44.10538" lon="6.98706">
        <ele>1448</ele>
        <time>2021-05-13T11:45:48.954Z</time>
      </trkpt>
      <trkpt lat="44.10534" lon="6.98705">
        <ele>1448</ele>
        <time>2021-05-13T11:45:53.952Z</time>
      </trkpt>
    </trkseg>
  </trk>
</gpx>